<?xml version="1.0" encoding="UTF-8" standalone="no" ?>
<gpx xmlns="http://www.topografix.com/GPX/1/1" xmlns:xsi="http://www.w3.org/2001/XMLSchema-instance" xsi:schemaLocation="http://www.topografix.com/GPX/1/1 http://www.topografix.com/GPX/1/1/gpx.xsd" version="1.1" creator="VisuGPX - https://www.visugpx.com">
  <metadata>
    <name>Rocca Serra, jeanpas, 09/12/2012</name>
    <desc><![CDATA[Rocca Serra, jeanpas, 09/12/2012]]></desc>
  </metadata>
  <trk>
    <name><![CDATA[Trace 11]]></name>
    <desc><![CDATA[9 déc. 2012 09:08:09]]></desc>
    <trkseg>
      <trkpt lat="43.86619" lon="7.29297">
        <ele>481.440483</ele>
        <time>2012-12-09T08:08:27Z</time>
      </trkpt>
      <trkpt lat="43.86578" lon="7.29288">
        <ele>591.440407</ele>
        <time>2012-12-09T08:09:10Z</time>
      </trkpt>
      <trkpt lat="43.86572" lon="7.29292">
        <ele>592.440407</ele>
        <time>2012-12-09T08:09:13Z</time>
      </trkpt>
      <trkpt lat="43.86564" lon="7.29297">
        <ele>594.440407</ele>
        <time>2012-12-09T08:09:18Z</time>
      </trkpt>
      <trkpt lat="43.86557" lon="7.293">
        <ele>596.440403</ele>
        <time>2012-12-09T08:09:27Z</time>
      </trkpt>
      <trkpt lat="43.86552" lon="7.29303">
        <ele>599.440403</ele>
        <time>2012-12-09T08:09:31Z</time>
      </trkpt>
      <trkpt lat="43.86542" lon="7.29313">
        <ele>603.440414</ele>
        <time>2012-12-09T08:09:44Z</time>
      </trkpt>
      <trkpt lat="43.86537" lon="7.29324">
        <ele>604.44043</ele>
        <time>2012-12-09T08:09:54Z</time>
      </trkpt>
      <trkpt lat="43.86531" lon="7.29333">
        <ele>606.440437</ele>
        <time>2012-12-09T08:10:02Z</time>
      </trkpt>
      <trkpt lat="43.86529" lon="7.29334">
        <ele>606.440437</ele>
        <time>2012-12-09T08:10:05Z</time>
      </trkpt>
      <trkpt lat="43.86527" lon="7.29334">
        <ele>606.440437</ele>
        <time>2012-12-09T08:10:08Z</time>
      </trkpt>
      <trkpt lat="43.86525" lon="7.29333">
        <ele>605.44043</ele>
        <time>2012-12-09T08:10:11Z</time>
      </trkpt>
      <trkpt lat="43.86523" lon="7.2933">
        <ele>605.440418</ele>
        <time>2012-12-09T08:10:15Z</time>
      </trkpt>
      <trkpt lat="43.86517" lon="7.29324">
        <ele>605.440399</ele>
        <time>2012-12-09T08:10:22Z</time>
      </trkpt>
      <trkpt lat="43.86515" lon="7.29321">
        <ele>606.440392</ele>
        <time>2012-12-09T08:10:26Z</time>
      </trkpt>
      <trkpt lat="43.86513" lon="7.29316">
        <ele>607.440376</ele>
        <time>2012-12-09T08:10:30Z</time>
      </trkpt>
      <trkpt lat="43.8651" lon="7.29309">
        <ele>608.440361</ele>
        <time>2012-12-09T08:10:35Z</time>
      </trkpt>
      <trkpt lat="43.86506" lon="7.29296">
        <ele>610.440327</ele>
        <time>2012-12-09T08:10:44Z</time>
      </trkpt>
      <trkpt lat="43.86505" lon="7.29287">
        <ele>613.440304</ele>
        <time>2012-12-09T08:10:51Z</time>
      </trkpt>
      <trkpt lat="43.86504" lon="7.29272">
        <ele>616.440273</ele>
        <time>2012-12-09T08:10:59Z</time>
      </trkpt>
      <trkpt lat="43.86501" lon="7.29246">
        <ele>620.440216</ele>
        <time>2012-12-09T08:11:14Z</time>
      </trkpt>
      <trkpt lat="43.86501" lon="7.29236">
        <ele>621.440193</ele>
        <time>2012-12-09T08:11:21Z</time>
      </trkpt>
      <trkpt lat="43.865" lon="7.2923">
        <ele>622.440186</ele>
        <time>2012-12-09T08:11:24Z</time>
      </trkpt>
      <trkpt lat="43.86497" lon="7.2922">
        <ele>623.440155</ele>
        <time>2012-12-09T08:11:30Z</time>
      </trkpt>
      <trkpt lat="43.86496" lon="7.29214">
        <ele>625.440144</ele>
        <time>2012-12-09T08:11:34Z</time>
      </trkpt>
      <trkpt lat="43.86496" lon="7.29205">
        <ele>625.440125</ele>
        <time>2012-12-09T08:11:40Z</time>
      </trkpt>
      <trkpt lat="43.86498" lon="7.29199">
        <ele>626.440117</ele>
        <time>2012-12-09T08:11:45Z</time>
      </trkpt>
      <trkpt lat="43.86506" lon="7.29199">
        <ele>624.440132</ele>
        <time>2012-12-09T08:11:49Z</time>
      </trkpt>
      <trkpt lat="43.86512" lon="7.29202">
        <ele>626.44014</ele>
        <time>2012-12-09T08:11:53Z</time>
      </trkpt>
      <trkpt lat="43.86518" lon="7.29204">
        <ele>626.440155</ele>
        <time>2012-12-09T08:11:58Z</time>
      </trkpt>
      <trkpt lat="43.86523" lon="7.29206">
        <ele>626.440163</ele>
        <time>2012-12-09T08:12:03Z</time>
      </trkpt>
      <trkpt lat="43.86526" lon="7.29208">
        <ele>626.440174</ele>
        <time>2012-12-09T08:12:07Z</time>
      </trkpt>
      <trkpt lat="43.86529" lon="7.29209">
        <ele>626.440178</ele>
        <time>2012-12-09T08:12:10Z</time>
      </trkpt>
      <trkpt lat="43.86535" lon="7.29209">
        <ele>627.440186</ele>
        <time>2012-12-09T08:12:17Z</time>
      </trkpt>
      <trkpt lat="43.8654" lon="7.29201">
        <ele>629.440178</ele>
        <time>2012-12-09T08:12:26Z</time>
      </trkpt>
      <trkpt lat="43.86543" lon="7.29192">
        <ele>629.440159</ele>
        <time>2012-12-09T08:12:32Z</time>
      </trkpt>
      <trkpt lat="43.86545" lon="7.29183">
        <ele>630.440147</ele>
        <time>2012-12-09T08:12:37Z</time>
      </trkpt>
      <trkpt lat="43.86546" lon="7.29177">
        <ele>631.440132</ele>
        <time>2012-12-09T08:12:41Z</time>
      </trkpt>
      <trkpt lat="43.8655" lon="7.29164">
        <ele>634.440113</ele>
        <time>2012-12-09T08:12:50Z</time>
      </trkpt>
      <trkpt lat="43.86551" lon="7.29158">
        <ele>635.440105</ele>
        <time>2012-12-09T08:12:53Z</time>
      </trkpt>
      <trkpt lat="43.86553" lon="7.2915">
        <ele>634.44009</ele>
        <time>2012-12-09T08:12:59Z</time>
      </trkpt>
      <trkpt lat="43.86555" lon="7.29143">
        <ele>634.440079</ele>
        <time>2012-12-09T08:13:04Z</time>
      </trkpt>
      <trkpt lat="43.86556" lon="7.29136">
        <ele>634.440063</ele>
        <time>2012-12-09T08:13:08Z</time>
      </trkpt>
      <trkpt lat="43.86556" lon="7.29131">
        <ele>635.440056</ele>
        <time>2012-12-09T08:13:12Z</time>
      </trkpt>
      <trkpt lat="43.86558" lon="7.29127">
        <ele>635.440048</ele>
        <time>2012-12-09T08:13:15Z</time>
      </trkpt>
      <trkpt lat="43.86562" lon="7.29119">
        <ele>638.440041</ele>
        <time>2012-12-09T08:13:22Z</time>
      </trkpt>
      <trkpt lat="43.86565" lon="7.29117">
        <ele>638.440033</ele>
        <time>2012-12-09T08:13:25Z</time>
      </trkpt>
      <trkpt lat="43.86569" lon="7.29116">
        <ele>639.440041</ele>
        <time>2012-12-09T08:13:29Z</time>
      </trkpt>
      <trkpt lat="43.86575" lon="7.29115">
        <ele>640.440044</ele>
        <time>2012-12-09T08:13:34Z</time>
      </trkpt>
      <trkpt lat="43.86582" lon="7.29114">
        <ele>640.440056</ele>
        <time>2012-12-09T08:13:40Z</time>
      </trkpt>
      <trkpt lat="43.86586" lon="7.29113">
        <ele>642.440056</ele>
        <time>2012-12-09T08:13:44Z</time>
      </trkpt>
      <trkpt lat="43.86591" lon="7.29111">
        <ele>643.44006</ele>
        <time>2012-12-09T08:13:48Z</time>
      </trkpt>
      <trkpt lat="43.86597" lon="7.29107">
        <ele>644.440063</ele>
        <time>2012-12-09T08:13:53Z</time>
      </trkpt>
      <trkpt lat="43.86602" lon="7.29105">
        <ele>645.440063</ele>
        <time>2012-12-09T08:13:57Z</time>
      </trkpt>
      <trkpt lat="43.86608" lon="7.29105">
        <ele>645.440071</ele>
        <time>2012-12-09T08:14:01Z</time>
      </trkpt>
      <trkpt lat="43.86612" lon="7.29105">
        <ele>645.440079</ele>
        <time>2012-12-09T08:14:05Z</time>
      </trkpt>
      <trkpt lat="43.86617" lon="7.29106">
        <ele>645.440079</ele>
        <time>2012-12-09T08:14:09Z</time>
      </trkpt>
      <trkpt lat="43.86621" lon="7.29106">
        <ele>644.440094</ele>
        <time>2012-12-09T08:14:13Z</time>
      </trkpt>
      <trkpt lat="43.86625" lon="7.29107">
        <ele>644.440102</ele>
        <time>2012-12-09T08:14:17Z</time>
      </trkpt>
      <trkpt lat="43.8663" lon="7.29108">
        <ele>644.440102</ele>
        <time>2012-12-09T08:14:21Z</time>
      </trkpt>
      <trkpt lat="43.86633" lon="7.29108">
        <ele>643.440113</ele>
        <time>2012-12-09T08:14:24Z</time>
      </trkpt>
      <trkpt lat="43.86638" lon="7.29107">
        <ele>644.440117</ele>
        <time>2012-12-09T08:14:28Z</time>
      </trkpt>
      <trkpt lat="43.86643" lon="7.29108">
        <ele>644.440125</ele>
        <time>2012-12-09T08:14:33Z</time>
      </trkpt>
      <trkpt lat="43.86647" lon="7.29109">
        <ele>644.440132</ele>
        <time>2012-12-09T08:14:36Z</time>
      </trkpt>
      <trkpt lat="43.8665" lon="7.29111">
        <ele>644.44014</ele>
        <time>2012-12-09T08:14:39Z</time>
      </trkpt>
      <trkpt lat="43.86653" lon="7.29114">
        <ele>643.440151</ele>
        <time>2012-12-09T08:14:42Z</time>
      </trkpt>
      <trkpt lat="43.86655" lon="7.29118">
        <ele>643.440163</ele>
        <time>2012-12-09T08:14:45Z</time>
      </trkpt>
      <trkpt lat="43.86657" lon="7.29122">
        <ele>644.44017</ele>
        <time>2012-12-09T08:14:48Z</time>
      </trkpt>
      <trkpt lat="43.86657" lon="7.29129">
        <ele>645.440189</ele>
        <time>2012-12-09T08:14:52Z</time>
      </trkpt>
      <trkpt lat="43.86656" lon="7.29135">
        <ele>645.440201</ele>
        <time>2012-12-09T08:14:56Z</time>
      </trkpt>
      <trkpt lat="43.86655" lon="7.29145">
        <ele>645.440216</ele>
        <time>2012-12-09T08:15:02Z</time>
      </trkpt>
      <trkpt lat="43.86654" lon="7.29153">
        <ele>646.440231</ele>
        <time>2012-12-09T08:15:07Z</time>
      </trkpt>
      <trkpt lat="43.86654" lon="7.29158">
        <ele>646.440243</ele>
        <time>2012-12-09T08:15:11Z</time>
      </trkpt>
      <trkpt lat="43.86653" lon="7.29163">
        <ele>647.440254</ele>
        <time>2012-12-09T08:15:15Z</time>
      </trkpt>
      <trkpt lat="43.86653" lon="7.29168">
        <ele>648.440262</ele>
        <time>2012-12-09T08:15:18Z</time>
      </trkpt>
      <trkpt lat="43.86653" lon="7.29174">
        <ele>649.440273</ele>
        <time>2012-12-09T08:15:22Z</time>
      </trkpt>
      <trkpt lat="43.86655" lon="7.29178">
        <ele>649.440285</ele>
        <time>2012-12-09T08:15:25Z</time>
      </trkpt>
      <trkpt lat="43.86657" lon="7.29182">
        <ele>650.440296</ele>
        <time>2012-12-09T08:15:28Z</time>
      </trkpt>
      <trkpt lat="43.86661" lon="7.29184">
        <ele>650.4403</ele>
        <time>2012-12-09T08:15:31Z</time>
      </trkpt>
      <trkpt lat="43.86665" lon="7.29186">
        <ele>651.440315</ele>
        <time>2012-12-09T08:15:34Z</time>
      </trkpt>
      <trkpt lat="43.8667" lon="7.29187">
        <ele>650.440323</ele>
        <time>2012-12-09T08:15:38Z</time>
      </trkpt>
      <trkpt lat="43.86674" lon="7.29186">
        <ele>650.440331</ele>
        <time>2012-12-09T08:15:41Z</time>
      </trkpt>
      <trkpt lat="43.86677" lon="7.29184">
        <ele>650.440331</ele>
        <time>2012-12-09T08:15:44Z</time>
      </trkpt>
      <trkpt lat="43.86681" lon="7.29181">
        <ele>650.440331</ele>
        <time>2012-12-09T08:15:48Z</time>
      </trkpt>
      <trkpt lat="43.86685" lon="7.29176">
        <ele>651.440319</ele>
        <time>2012-12-09T08:15:52Z</time>
      </trkpt>
      <trkpt lat="43.8669" lon="7.2917">
        <ele>652.440315</ele>
        <time>2012-12-09T08:15:57Z</time>
      </trkpt>
      <trkpt lat="43.86693" lon="7.29168">
        <ele>654.440315</ele>
        <time>2012-12-09T08:16:00Z</time>
      </trkpt>
      <trkpt lat="43.86697" lon="7.29169">
        <ele>655.440323</ele>
        <time>2012-12-09T08:16:03Z</time>
      </trkpt>
      <trkpt lat="43.867" lon="7.2917">
        <ele>655.440331</ele>
        <time>2012-12-09T08:16:06Z</time>
      </trkpt>
      <trkpt lat="43.86705" lon="7.29174">
        <ele>656.440342</ele>
        <time>2012-12-09T08:16:11Z</time>
      </trkpt>
      <trkpt lat="43.86709" lon="7.29176">
        <ele>657.440353</ele>
        <time>2012-12-09T08:16:15Z</time>
      </trkpt>
      <trkpt lat="43.86714" lon="7.29177">
        <ele>657.440361</ele>
        <time>2012-12-09T08:16:19Z</time>
      </trkpt>
      <trkpt lat="43.86718" lon="7.29178">
        <ele>657.440369</ele>
        <time>2012-12-09T08:16:23Z</time>
      </trkpt>
      <trkpt lat="43.86721" lon="7.29178">
        <ele>657.440376</ele>
        <time>2012-12-09T08:16:26Z</time>
      </trkpt>
      <trkpt lat="43.86725" lon="7.2918">
        <ele>658.440384</ele>
        <time>2012-12-09T08:16:30Z</time>
      </trkpt>
      <trkpt lat="43.8673" lon="7.29182">
        <ele>658.440395</ele>
        <time>2012-12-09T08:16:34Z</time>
      </trkpt>
      <trkpt lat="43.86734" lon="7.29183">
        <ele>658.440407</ele>
        <time>2012-12-09T08:16:38Z</time>
      </trkpt>
      <trkpt lat="43.8674" lon="7.29184">
        <ele>658.440411</ele>
        <time>2012-12-09T08:16:43Z</time>
      </trkpt>
      <trkpt lat="43.86744" lon="7.29186">
        <ele>658.440422</ele>
        <time>2012-12-09T08:16:47Z</time>
      </trkpt>
      <trkpt lat="43.86747" lon="7.29187">
        <ele>659.44043</ele>
        <time>2012-12-09T08:16:50Z</time>
      </trkpt>
      <trkpt lat="43.86751" lon="7.29191">
        <ele>659.440441</ele>
        <time>2012-12-09T08:16:54Z</time>
      </trkpt>
      <trkpt lat="43.86756" lon="7.29196">
        <ele>659.44046</ele>
        <time>2012-12-09T08:16:59Z</time>
      </trkpt>
      <trkpt lat="43.86758" lon="7.29199">
        <ele>660.440468</ele>
        <time>2012-12-09T08:17:03Z</time>
      </trkpt>
      <trkpt lat="43.86762" lon="7.29204">
        <ele>661.440483</ele>
        <time>2012-12-09T08:17:08Z</time>
      </trkpt>
      <trkpt lat="43.86766" lon="7.29208">
        <ele>662.440498</ele>
        <time>2012-12-09T08:17:12Z</time>
      </trkpt>
      <trkpt lat="43.86771" lon="7.29214">
        <ele>663.440517</ele>
        <time>2012-12-09T08:17:17Z</time>
      </trkpt>
      <trkpt lat="43.86774" lon="7.29218">
        <ele>664.440529</ele>
        <time>2012-12-09T08:17:21Z</time>
      </trkpt>
      <trkpt lat="43.86779" lon="7.29224">
        <ele>665.440548</ele>
        <time>2012-12-09T08:17:26Z</time>
      </trkpt>
      <trkpt lat="43.86783" lon="7.29228">
        <ele>665.440559</ele>
        <time>2012-12-09T08:17:30Z</time>
      </trkpt>
      <trkpt lat="43.8679" lon="7.29233">
        <ele>665.440582</ele>
        <time>2012-12-09T08:17:36Z</time>
      </trkpt>
      <trkpt lat="43.86796" lon="7.29236">
        <ele>666.440598</ele>
        <time>2012-12-09T08:17:41Z</time>
      </trkpt>
      <trkpt lat="43.86801" lon="7.2924">
        <ele>668.440613</ele>
        <time>2012-12-09T08:17:45Z</time>
      </trkpt>
      <trkpt lat="43.86804" lon="7.29242">
        <ele>669.44062</ele>
        <time>2012-12-09T08:17:48Z</time>
      </trkpt>
      <trkpt lat="43.86807" lon="7.29246">
        <ele>669.440632</ele>
        <time>2012-12-09T08:17:51Z</time>
      </trkpt>
      <trkpt lat="43.86809" lon="7.29251">
        <ele>669.440647</ele>
        <time>2012-12-09T08:17:55Z</time>
      </trkpt>
      <trkpt lat="43.86811" lon="7.29257">
        <ele>669.440659</ele>
        <time>2012-12-09T08:17:59Z</time>
      </trkpt>
      <trkpt lat="43.86813" lon="7.29262">
        <ele>670.440674</ele>
        <time>2012-12-09T08:18:03Z</time>
      </trkpt>
      <trkpt lat="43.86816" lon="7.29269">
        <ele>671.440693</ele>
        <time>2012-12-09T08:18:08Z</time>
      </trkpt>
      <trkpt lat="43.86818" lon="7.29275">
        <ele>672.440704</ele>
        <time>2012-12-09T08:18:12Z</time>
      </trkpt>
      <trkpt lat="43.8682" lon="7.29281">
        <ele>673.440723</ele>
        <time>2012-12-09T08:18:17Z</time>
      </trkpt>
      <trkpt lat="43.86822" lon="7.29289">
        <ele>674.440742</ele>
        <time>2012-12-09T08:18:22Z</time>
      </trkpt>
      <trkpt lat="43.86824" lon="7.29294">
        <ele>674.44075</ele>
        <time>2012-12-09T08:18:26Z</time>
      </trkpt>
      <trkpt lat="43.86826" lon="7.29304">
        <ele>674.440773</ele>
        <time>2012-12-09T08:18:33Z</time>
      </trkpt>
      <trkpt lat="43.86828" lon="7.2931">
        <ele>675.440792</ele>
        <time>2012-12-09T08:18:37Z</time>
      </trkpt>
      <trkpt lat="43.86831" lon="7.29316">
        <ele>676.440811</ele>
        <time>2012-12-09T08:18:41Z</time>
      </trkpt>
      <trkpt lat="43.86833" lon="7.29321">
        <ele>677.440819</ele>
        <time>2012-12-09T08:18:44Z</time>
      </trkpt>
      <trkpt lat="43.86837" lon="7.29326">
        <ele>677.440838</ele>
        <time>2012-12-09T08:18:48Z</time>
      </trkpt>
      <trkpt lat="43.86841" lon="7.2933">
        <ele>678.440849</ele>
        <time>2012-12-09T08:18:52Z</time>
      </trkpt>
      <trkpt lat="43.86844" lon="7.29333">
        <ele>678.440865</ele>
        <time>2012-12-09T08:18:55Z</time>
      </trkpt>
      <trkpt lat="43.86846" lon="7.29339">
        <ele>679.44088</ele>
        <time>2012-12-09T08:18:59Z</time>
      </trkpt>
      <trkpt lat="43.86849" lon="7.29345">
        <ele>679.440895</ele>
        <time>2012-12-09T08:19:03Z</time>
      </trkpt>
      <trkpt lat="43.86852" lon="7.29355">
        <ele>680.440918</ele>
        <time>2012-12-09T08:19:09Z</time>
      </trkpt>
      <trkpt lat="43.86854" lon="7.29361">
        <ele>680.440933</ele>
        <time>2012-12-09T08:19:13Z</time>
      </trkpt>
      <trkpt lat="43.86857" lon="7.29367">
        <ele>680.440948</ele>
        <time>2012-12-09T08:19:18Z</time>
      </trkpt>
      <trkpt lat="43.86859" lon="7.29373">
        <ele>681.440964</ele>
        <time>2012-12-09T08:19:22Z</time>
      </trkpt>
      <trkpt lat="43.86862" lon="7.2938">
        <ele>682.440983</ele>
        <time>2012-12-09T08:19:28Z</time>
      </trkpt>
      <trkpt lat="43.86864" lon="7.29384">
        <ele>682.440994</ele>
        <time>2012-12-09T08:19:32Z</time>
      </trkpt>
      <trkpt lat="43.86867" lon="7.29388">
        <ele>683.441002</ele>
        <time>2012-12-09T08:19:36Z</time>
      </trkpt>
      <trkpt lat="43.8687" lon="7.29392">
        <ele>683.441017</ele>
        <time>2012-12-09T08:19:41Z</time>
      </trkpt>
      <trkpt lat="43.86874" lon="7.29396">
        <ele>684.441032</ele>
        <time>2012-12-09T08:19:46Z</time>
      </trkpt>
      <trkpt lat="43.86878" lon="7.294">
        <ele>685.441048</ele>
        <time>2012-12-09T08:19:51Z</time>
      </trkpt>
      <trkpt lat="43.86882" lon="7.29405">
        <ele>686.441059</ele>
        <time>2012-12-09T08:19:56Z</time>
      </trkpt>
      <trkpt lat="43.86886" lon="7.29407">
        <ele>687.441071</ele>
        <time>2012-12-09T08:20:00Z</time>
      </trkpt>
      <trkpt lat="43.8689" lon="7.2941">
        <ele>687.441082</ele>
        <time>2012-12-09T08:20:04Z</time>
      </trkpt>
      <trkpt lat="43.86894" lon="7.29413">
        <ele>687.441093</ele>
        <time>2012-12-09T08:20:08Z</time>
      </trkpt>
      <trkpt lat="43.86898" lon="7.29415">
        <ele>688.441109</ele>
        <time>2012-12-09T08:20:12Z</time>
      </trkpt>
      <trkpt lat="43.86904" lon="7.29418">
        <ele>688.441116</ele>
        <time>2012-12-09T08:20:18Z</time>
      </trkpt>
      <trkpt lat="43.8691" lon="7.29421">
        <ele>688.441132</ele>
        <time>2012-12-09T08:20:23Z</time>
      </trkpt>
      <trkpt lat="43.86916" lon="7.29425">
        <ele>689.441147</ele>
        <time>2012-12-09T08:20:29Z</time>
      </trkpt>
      <trkpt lat="43.8692" lon="7.29428">
        <ele>689.441162</ele>
        <time>2012-12-09T08:20:33Z</time>
      </trkpt>
      <trkpt lat="43.86925" lon="7.29431">
        <ele>689.441174</ele>
        <time>2012-12-09T08:20:37Z</time>
      </trkpt>
      <trkpt lat="43.86929" lon="7.29435">
        <ele>689.441189</ele>
        <time>2012-12-09T08:20:41Z</time>
      </trkpt>
      <trkpt lat="43.86932" lon="7.29439">
        <ele>690.4412</ele>
        <time>2012-12-09T08:20:45Z</time>
      </trkpt>
      <trkpt lat="43.86936" lon="7.29444">
        <ele>691.441216</ele>
        <time>2012-12-09T08:20:50Z</time>
      </trkpt>
      <trkpt lat="43.8694" lon="7.2945">
        <ele>693.441231</ele>
        <time>2012-12-09T08:20:55Z</time>
      </trkpt>
      <trkpt lat="43.86943" lon="7.29454">
        <ele>693.441246</ele>
        <time>2012-12-09T08:20:59Z</time>
      </trkpt>
      <trkpt lat="43.86946" lon="7.29458">
        <ele>693.441257</ele>
        <time>2012-12-09T08:21:03Z</time>
      </trkpt>
      <trkpt lat="43.86947" lon="7.29462">
        <ele>694.441265</ele>
        <time>2012-12-09T08:21:07Z</time>
      </trkpt>
      <trkpt lat="43.86949" lon="7.29466">
        <ele>694.441277</ele>
        <time>2012-12-09T08:21:11Z</time>
      </trkpt>
      <trkpt lat="43.86951" lon="7.29472">
        <ele>694.441292</ele>
        <time>2012-12-09T08:21:15Z</time>
      </trkpt>
      <trkpt lat="43.86953" lon="7.29476">
        <ele>694.441299</ele>
        <time>2012-12-09T08:21:18Z</time>
      </trkpt>
      <trkpt lat="43.86955" lon="7.2948">
        <ele>695.441315</ele>
        <time>2012-12-09T08:21:22Z</time>
      </trkpt>
      <trkpt lat="43.86959" lon="7.29483">
        <ele>695.441326</ele>
        <time>2012-12-09T08:21:26Z</time>
      </trkpt>
      <trkpt lat="43.86963" lon="7.29483">
        <ele>695.44133</ele>
        <time>2012-12-09T08:21:30Z</time>
      </trkpt>
      <trkpt lat="43.86965" lon="7.29483">
        <ele>696.441338</ele>
        <time>2012-12-09T08:21:33Z</time>
      </trkpt>
      <trkpt lat="43.86967" lon="7.29482">
        <ele>697.441338</ele>
        <time>2012-12-09T08:21:36Z</time>
      </trkpt>
      <trkpt lat="43.86968" lon="7.29482">
        <ele>699.441334</ele>
        <time>2012-12-09T08:21:40Z</time>
      </trkpt>
      <trkpt lat="43.86967" lon="7.29479">
        <ele>698.44133</ele>
        <time>2012-12-09T08:21:43Z</time>
      </trkpt>
      <trkpt lat="43.86967" lon="7.29476">
        <ele>699.441322</ele>
        <time>2012-12-09T08:21:51Z</time>
      </trkpt>
      <trkpt lat="43.86967" lon="7.29476">
        <ele>700.441322</ele>
        <time>2012-12-09T08:21:54Z</time>
      </trkpt>
      <trkpt lat="43.86966" lon="7.29476">
        <ele>702.441322</ele>
        <time>2012-12-09T08:21:57Z</time>
      </trkpt>
      <trkpt lat="43.86966" lon="7.29477">
        <ele>703.441322</ele>
        <time>2012-12-09T08:22:02Z</time>
      </trkpt>
      <trkpt lat="43.86966" lon="7.29477">
        <ele>704.441322</ele>
        <time>2012-12-09T08:22:06Z</time>
      </trkpt>
      <trkpt lat="43.86966" lon="7.29478">
        <ele>704.441322</ele>
        <time>2012-12-09T08:22:10Z</time>
      </trkpt>
      <trkpt lat="43.86966" lon="7.29478">
        <ele>704.44133</ele>
        <time>2012-12-09T08:22:13Z</time>
      </trkpt>
      <trkpt lat="43.86966" lon="7.29478">
        <ele>705.44133</ele>
        <time>2012-12-09T08:22:16Z</time>
      </trkpt>
      <trkpt lat="43.86966" lon="7.29478">
        <ele>706.44133</ele>
        <time>2012-12-09T08:22:20Z</time>
      </trkpt>
      <trkpt lat="43.86966" lon="7.29478">
        <ele>707.44133</ele>
        <time>2012-12-09T08:22:24Z</time>
      </trkpt>
      <trkpt lat="43.86966" lon="7.29478">
        <ele>707.44133</ele>
        <time>2012-12-09T08:22:27Z</time>
      </trkpt>
      <trkpt lat="43.86966" lon="7.29478">
        <ele>707.44133</ele>
        <time>2012-12-09T08:22:30Z</time>
      </trkpt>
      <trkpt lat="43.86966" lon="7.29479">
        <ele>707.44133</ele>
        <time>2012-12-09T08:22:39Z</time>
      </trkpt>
      <trkpt lat="43.86966" lon="7.29479">
        <ele>708.44133</ele>
        <time>2012-12-09T08:22:43Z</time>
      </trkpt>
      <trkpt lat="43.86966" lon="7.2948">
        <ele>705.44133</ele>
        <time>2012-12-09T08:22:51Z</time>
      </trkpt>
      <trkpt lat="43.86965" lon="7.2948">
        <ele>707.44133</ele>
        <time>2012-12-09T08:23:00Z</time>
      </trkpt>
      <trkpt lat="43.86965" lon="7.2948">
        <ele>707.44133</ele>
        <time>2012-12-09T08:23:03Z</time>
      </trkpt>
      <trkpt lat="43.86965" lon="7.29479">
        <ele>706.44133</ele>
        <time>2012-12-09T08:23:09Z</time>
      </trkpt>
      <trkpt lat="43.86965" lon="7.29478">
        <ele>705.44133</ele>
        <time>2012-12-09T08:23:12Z</time>
      </trkpt>
      <trkpt lat="43.86966" lon="7.29478">
        <ele>705.44133</ele>
        <time>2012-12-09T08:23:16Z</time>
      </trkpt>
      <trkpt lat="43.86966" lon="7.29478">
        <ele>706.44133</ele>
        <time>2012-12-09T08:23:20Z</time>
      </trkpt>
      <trkpt lat="43.86966" lon="7.29479">
        <ele>705.44133</ele>
        <time>2012-12-09T08:23:24Z</time>
      </trkpt>
      <trkpt lat="43.86966" lon="7.29479">
        <ele>705.44133</ele>
        <time>2012-12-09T08:23:27Z</time>
      </trkpt>
      <trkpt lat="43.86967" lon="7.29479">
        <ele>706.44133</ele>
        <time>2012-12-09T08:23:31Z</time>
      </trkpt>
      <trkpt lat="43.86968" lon="7.29479">
        <ele>707.44133</ele>
        <time>2012-12-09T08:23:34Z</time>
      </trkpt>
      <trkpt lat="43.86968" lon="7.2948">
        <ele>708.44133</ele>
        <time>2012-12-09T08:23:39Z</time>
      </trkpt>
      <trkpt lat="43.86969" lon="7.29479">
        <ele>705.44133</ele>
        <time>2012-12-09T08:23:47Z</time>
      </trkpt>
      <trkpt lat="43.86969" lon="7.29479">
        <ele>704.44133</ele>
        <time>2012-12-09T08:23:51Z</time>
      </trkpt>
      <trkpt lat="43.8697" lon="7.29479">
        <ele>704.44133</ele>
        <time>2012-12-09T08:23:53Z</time>
      </trkpt>
      <trkpt lat="43.86969" lon="7.2948">
        <ele>703.441338</ele>
        <time>2012-12-09T08:23:59Z</time>
      </trkpt>
      <trkpt lat="43.86969" lon="7.29479">
        <ele>704.44133</ele>
        <time>2012-12-09T08:24:02Z</time>
      </trkpt>
      <trkpt lat="43.86968" lon="7.29479">
        <ele>704.44133</ele>
        <time>2012-12-09T08:24:05Z</time>
      </trkpt>
      <trkpt lat="43.86967" lon="7.29478">
        <ele>705.44133</ele>
        <time>2012-12-09T08:24:08Z</time>
      </trkpt>
      <trkpt lat="43.86967" lon="7.29478">
        <ele>706.441322</ele>
        <time>2012-12-09T08:24:12Z</time>
      </trkpt>
      <trkpt lat="43.86967" lon="7.29478">
        <ele>705.44133</ele>
        <time>2012-12-09T08:24:15Z</time>
      </trkpt>
      <trkpt lat="43.86967" lon="7.29478">
        <ele>707.44133</ele>
        <time>2012-12-09T08:24:18Z</time>
      </trkpt>
      <trkpt lat="43.86967" lon="7.29478">
        <ele>707.441322</ele>
        <time>2012-12-09T08:24:21Z</time>
      </trkpt>
      <trkpt lat="43.86967" lon="7.29478">
        <ele>707.441322</ele>
        <time>2012-12-09T08:24:24Z</time>
      </trkpt>
      <trkpt lat="43.86967" lon="7.29477">
        <ele>707.441322</ele>
        <time>2012-12-09T08:24:28Z</time>
      </trkpt>
      <trkpt lat="43.86967" lon="7.29477">
        <ele>704.441322</ele>
        <time>2012-12-09T08:24:34Z</time>
      </trkpt>
      <trkpt lat="43.86966" lon="7.29477">
        <ele>704.441322</ele>
        <time>2012-12-09T08:24:38Z</time>
      </trkpt>
      <trkpt lat="43.86965" lon="7.29476">
        <ele>707.441322</ele>
        <time>2012-12-09T08:24:43Z</time>
      </trkpt>
      <trkpt lat="43.86964" lon="7.29475">
        <ele>707.441315</ele>
        <time>2012-12-09T08:24:47Z</time>
      </trkpt>
      <trkpt lat="43.86964" lon="7.29474">
        <ele>707.441315</ele>
        <time>2012-12-09T08:24:50Z</time>
      </trkpt>
      <trkpt lat="43.86963" lon="7.29475">
        <ele>704.441315</ele>
        <time>2012-12-09T08:24:53Z</time>
      </trkpt>
      <trkpt lat="43.86963" lon="7.29475">
        <ele>704.441315</ele>
        <time>2012-12-09T08:24:55Z</time>
      </trkpt>
      <trkpt lat="43.86964" lon="7.29474">
        <ele>704.441315</ele>
        <time>2012-12-09T08:24:58Z</time>
      </trkpt>
      <trkpt lat="43.86964" lon="7.29474">
        <ele>704.441315</ele>
        <time>2012-12-09T08:25:01Z</time>
      </trkpt>
      <trkpt lat="43.86965" lon="7.29475">
        <ele>706.441319</ele>
        <time>2012-12-09T08:25:07Z</time>
      </trkpt>
      <trkpt lat="43.86966" lon="7.29477">
        <ele>706.441322</ele>
        <time>2012-12-09T08:25:12Z</time>
      </trkpt>
      <trkpt lat="43.86966" lon="7.29477">
        <ele>707.441322</ele>
        <time>2012-12-09T08:25:17Z</time>
      </trkpt>
      <trkpt lat="43.86968" lon="7.2948">
        <ele>708.44133</ele>
        <time>2012-12-09T08:25:21Z</time>
      </trkpt>
      <trkpt lat="43.86969" lon="7.29481">
        <ele>708.441338</ele>
        <time>2012-12-09T08:25:25Z</time>
      </trkpt>
      <trkpt lat="43.86971" lon="7.29481">
        <ele>708.441338</ele>
        <time>2012-12-09T08:25:28Z</time>
      </trkpt>
      <trkpt lat="43.86973" lon="7.29478">
        <ele>708.441338</ele>
        <time>2012-12-09T08:25:31Z</time>
      </trkpt>
      <trkpt lat="43.86975" lon="7.29473">
        <ele>708.44133</ele>
        <time>2012-12-09T08:25:35Z</time>
      </trkpt>
      <trkpt lat="43.86977" lon="7.29468">
        <ele>708.441319</ele>
        <time>2012-12-09T08:25:39Z</time>
      </trkpt>
      <trkpt lat="43.86979" lon="7.29465">
        <ele>708.441315</ele>
        <time>2012-12-09T08:25:43Z</time>
      </trkpt>
      <trkpt lat="43.86981" lon="7.2946">
        <ele>709.441307</ele>
        <time>2012-12-09T08:25:47Z</time>
      </trkpt>
      <trkpt lat="43.86983" lon="7.29456">
        <ele>709.441303</ele>
        <time>2012-12-09T08:25:50Z</time>
      </trkpt>
      <trkpt lat="43.86985" lon="7.2945">
        <ele>708.441292</ele>
        <time>2012-12-09T08:25:55Z</time>
      </trkpt>
      <trkpt lat="43.86987" lon="7.29444">
        <ele>707.441284</ele>
        <time>2012-12-09T08:26:01Z</time>
      </trkpt>
      <trkpt lat="43.86989" lon="7.29438">
        <ele>707.441277</ele>
        <time>2012-12-09T08:26:06Z</time>
      </trkpt>
      <trkpt lat="43.8699" lon="7.29433">
        <ele>707.441265</ele>
        <time>2012-12-09T08:26:10Z</time>
      </trkpt>
      <trkpt lat="43.86992" lon="7.29426">
        <ele>707.441254</ele>
        <time>2012-12-09T08:26:15Z</time>
      </trkpt>
      <trkpt lat="43.86993" lon="7.29419">
        <ele>708.441242</ele>
        <time>2012-12-09T08:26:20Z</time>
      </trkpt>
      <trkpt lat="43.86995" lon="7.29412">
        <ele>707.441227</ele>
        <time>2012-12-09T08:26:25Z</time>
      </trkpt>
      <trkpt lat="43.86996" lon="7.29405">
        <ele>706.441216</ele>
        <time>2012-12-09T08:26:29Z</time>
      </trkpt>
      <trkpt lat="43.86999" lon="7.29398">
        <ele>706.441204</ele>
        <time>2012-12-09T08:26:34Z</time>
      </trkpt>
      <trkpt lat="43.87" lon="7.29392">
        <ele>705.441193</ele>
        <time>2012-12-09T08:26:38Z</time>
      </trkpt>
      <trkpt lat="43.87002" lon="7.29386">
        <ele>705.441185</ele>
        <time>2012-12-09T08:26:42Z</time>
      </trkpt>
      <trkpt lat="43.87002" lon="7.2938">
        <ele>704.44117</ele>
        <time>2012-12-09T08:26:46Z</time>
      </trkpt>
      <trkpt lat="43.87004" lon="7.29372">
        <ele>704.441154</ele>
        <time>2012-12-09T08:26:51Z</time>
      </trkpt>
      <trkpt lat="43.87005" lon="7.29364">
        <ele>704.441143</ele>
        <time>2012-12-09T08:26:56Z</time>
      </trkpt>
      <trkpt lat="43.87006" lon="7.29359">
        <ele>704.441135</ele>
        <time>2012-12-09T08:26:59Z</time>
      </trkpt>
      <trkpt lat="43.87006" lon="7.29351">
        <ele>706.44112</ele>
        <time>2012-12-09T08:27:05Z</time>
      </trkpt>
      <trkpt lat="43.87007" lon="7.29347">
        <ele>707.441113</ele>
        <time>2012-12-09T08:27:08Z</time>
      </trkpt>
      <trkpt lat="43.87008" lon="7.29344">
        <ele>708.441109</ele>
        <time>2012-12-09T08:27:11Z</time>
      </trkpt>
      <trkpt lat="43.87013" lon="7.2934">
        <ele>709.441101</ele>
        <time>2012-12-09T08:27:16Z</time>
      </trkpt>
      <trkpt lat="43.87016" lon="7.29337">
        <ele>709.441105</ele>
        <time>2012-12-09T08:27:19Z</time>
      </trkpt>
      <trkpt lat="43.8702" lon="7.2933">
        <ele>708.441093</ele>
        <time>2012-12-09T08:27:24Z</time>
      </trkpt>
      <trkpt lat="43.87023" lon="7.29324">
        <ele>707.441086</ele>
        <time>2012-12-09T08:27:28Z</time>
      </trkpt>
      <trkpt lat="43.87026" lon="7.29319">
        <ele>705.441078</ele>
        <time>2012-12-09T08:27:32Z</time>
      </trkpt>
      <trkpt lat="43.87029" lon="7.29314">
        <ele>704.441074</ele>
        <time>2012-12-09T08:27:35Z</time>
      </trkpt>
      <trkpt lat="43.8703" lon="7.2931">
        <ele>703.441067</ele>
        <time>2012-12-09T08:27:38Z</time>
      </trkpt>
      <trkpt lat="43.87032" lon="7.29303">
        <ele>701.441055</ele>
        <time>2012-12-09T08:27:42Z</time>
      </trkpt>
      <trkpt lat="43.87034" lon="7.29299">
        <ele>701.441048</ele>
        <time>2012-12-09T08:27:45Z</time>
      </trkpt>
      <trkpt lat="43.87036" lon="7.29293">
        <ele>699.44104</ele>
        <time>2012-12-09T08:27:49Z</time>
      </trkpt>
      <trkpt lat="43.87039" lon="7.29288">
        <ele>697.441032</ele>
        <time>2012-12-09T08:27:53Z</time>
      </trkpt>
      <trkpt lat="43.87042" lon="7.29281">
        <ele>696.441021</ele>
        <time>2012-12-09T08:27:57Z</time>
      </trkpt>
      <trkpt lat="43.87045" lon="7.29274">
        <ele>695.441013</ele>
        <time>2012-12-09T08:28:02Z</time>
      </trkpt>
      <trkpt lat="43.87047" lon="7.29269">
        <ele>694.441006</ele>
        <time>2012-12-09T08:28:06Z</time>
      </trkpt>
      <trkpt lat="43.87049" lon="7.29263">
        <ele>693.440994</ele>
        <time>2012-12-09T08:28:10Z</time>
      </trkpt>
      <trkpt lat="43.87051" lon="7.29257">
        <ele>694.440983</ele>
        <time>2012-12-09T08:28:14Z</time>
      </trkpt>
      <trkpt lat="43.87053" lon="7.2925">
        <ele>694.440971</ele>
        <time>2012-12-09T08:28:18Z</time>
      </trkpt>
      <trkpt lat="43.87056" lon="7.29243">
        <ele>693.44096</ele>
        <time>2012-12-09T08:28:23Z</time>
      </trkpt>
      <trkpt lat="43.8706" lon="7.29235">
        <ele>693.440948</ele>
        <time>2012-12-09T08:28:29Z</time>
      </trkpt>
      <trkpt lat="43.87063" lon="7.29229">
        <ele>693.440941</ele>
        <time>2012-12-09T08:28:33Z</time>
      </trkpt>
      <trkpt lat="43.87065" lon="7.29223">
        <ele>694.440933</ele>
        <time>2012-12-09T08:28:37Z</time>
      </trkpt>
      <trkpt lat="43.87067" lon="7.29216">
        <ele>695.440918</ele>
        <time>2012-12-09T08:28:41Z</time>
      </trkpt>
      <trkpt lat="43.87069" lon="7.2921">
        <ele>696.44091</ele>
        <time>2012-12-09T08:28:45Z</time>
      </trkpt>
      <trkpt lat="43.87071" lon="7.29203">
        <ele>695.440899</ele>
        <time>2012-12-09T08:28:50Z</time>
      </trkpt>
      <trkpt lat="43.87073" lon="7.29195">
        <ele>696.440887</ele>
        <time>2012-12-09T08:28:55Z</time>
      </trkpt>
      <trkpt lat="43.87074" lon="7.29189">
        <ele>697.440872</ele>
        <time>2012-12-09T08:28:59Z</time>
      </trkpt>
      <trkpt lat="43.87074" lon="7.29183">
        <ele>697.440865</ele>
        <time>2012-12-09T08:29:03Z</time>
      </trkpt>
      <trkpt lat="43.87076" lon="7.29178">
        <ele>698.440853</ele>
        <time>2012-12-09T08:29:07Z</time>
      </trkpt>
      <trkpt lat="43.87077" lon="7.29173">
        <ele>698.440842</ele>
        <time>2012-12-09T08:29:11Z</time>
      </trkpt>
      <trkpt lat="43.87078" lon="7.29168">
        <ele>698.440834</ele>
        <time>2012-12-09T08:29:14Z</time>
      </trkpt>
      <trkpt lat="43.87079" lon="7.29164">
        <ele>698.44083</ele>
        <time>2012-12-09T08:29:17Z</time>
      </trkpt>
      <trkpt lat="43.87082" lon="7.29161">
        <ele>698.440826</ele>
        <time>2012-12-09T08:29:20Z</time>
      </trkpt>
      <trkpt lat="43.87086" lon="7.29159">
        <ele>700.440826</ele>
        <time>2012-12-09T08:29:24Z</time>
      </trkpt>
      <trkpt lat="43.8709" lon="7.29157">
        <ele>700.44083</ele>
        <time>2012-12-09T08:29:28Z</time>
      </trkpt>
      <trkpt lat="43.87094" lon="7.29155">
        <ele>700.440834</ele>
        <time>2012-12-09T08:29:31Z</time>
      </trkpt>
      <trkpt lat="43.87097" lon="7.29152">
        <ele>700.440834</ele>
        <time>2012-12-09T08:29:34Z</time>
      </trkpt>
      <trkpt lat="43.87099" lon="7.29149">
        <ele>699.440826</ele>
        <time>2012-12-09T08:29:37Z</time>
      </trkpt>
      <trkpt lat="43.87101" lon="7.29144">
        <ele>698.440819</ele>
        <time>2012-12-09T08:29:41Z</time>
      </trkpt>
      <trkpt lat="43.87102" lon="7.29139">
        <ele>698.440811</ele>
        <time>2012-12-09T08:29:44Z</time>
      </trkpt>
      <trkpt lat="43.87102" lon="7.29135">
        <ele>697.440796</ele>
        <time>2012-12-09T08:29:47Z</time>
      </trkpt>
      <trkpt lat="43.87102" lon="7.29129">
        <ele>697.440792</ele>
        <time>2012-12-09T08:29:50Z</time>
      </trkpt>
      <trkpt lat="43.87101" lon="7.29121">
        <ele>697.440773</ele>
        <time>2012-12-09T08:29:55Z</time>
      </trkpt>
      <trkpt lat="43.87101" lon="7.29116">
        <ele>695.440765</ele>
        <time>2012-12-09T08:29:58Z</time>
      </trkpt>
      <trkpt lat="43.87101" lon="7.29109">
        <ele>691.440746</ele>
        <time>2012-12-09T08:30:02Z</time>
      </trkpt>
      <trkpt lat="43.87101" lon="7.291">
        <ele>687.440727</ele>
        <time>2012-12-09T08:30:07Z</time>
      </trkpt>
      <trkpt lat="43.87102" lon="7.29094">
        <ele>686.440716</ele>
        <time>2012-12-09T08:30:11Z</time>
      </trkpt>
      <trkpt lat="43.87102" lon="7.29088">
        <ele>685.440704</ele>
        <time>2012-12-09T08:30:15Z</time>
      </trkpt>
      <trkpt lat="43.87103" lon="7.29084">
        <ele>684.440697</ele>
        <time>2012-12-09T08:30:18Z</time>
      </trkpt>
      <trkpt lat="43.87104" lon="7.29081">
        <ele>683.440689</ele>
        <time>2012-12-09T08:30:21Z</time>
      </trkpt>
      <trkpt lat="43.87104" lon="7.2908">
        <ele>683.440689</ele>
        <time>2012-12-09T08:30:23Z</time>
      </trkpt>
      <trkpt lat="43.87107" lon="7.2908">
        <ele>685.440693</ele>
        <time>2012-12-09T08:30:26Z</time>
      </trkpt>
      <trkpt lat="43.8711" lon="7.29082">
        <ele>685.440704</ele>
        <time>2012-12-09T08:30:30Z</time>
      </trkpt>
      <trkpt lat="43.87113" lon="7.29085">
        <ele>686.440712</ele>
        <time>2012-12-09T08:30:34Z</time>
      </trkpt>
      <trkpt lat="43.87117" lon="7.29089">
        <ele>687.44072</ele>
        <time>2012-12-09T08:30:38Z</time>
      </trkpt>
      <trkpt lat="43.87122" lon="7.29095">
        <ele>690.440746</ele>
        <time>2012-12-09T08:30:44Z</time>
      </trkpt>
      <trkpt lat="43.87125" lon="7.29098">
        <ele>692.440758</ele>
        <time>2012-12-09T08:30:47Z</time>
      </trkpt>
      <trkpt lat="43.87128" lon="7.29101">
        <ele>693.440769</ele>
        <time>2012-12-09T08:30:51Z</time>
      </trkpt>
      <trkpt lat="43.87131" lon="7.29103">
        <ele>694.440773</ele>
        <time>2012-12-09T08:30:55Z</time>
      </trkpt>
      <trkpt lat="43.87134" lon="7.29105">
        <ele>695.440784</ele>
        <time>2012-12-09T08:30:59Z</time>
      </trkpt>
      <trkpt lat="43.87138" lon="7.29107">
        <ele>695.440792</ele>
        <time>2012-12-09T08:31:03Z</time>
      </trkpt>
      <trkpt lat="43.87143" lon="7.29112">
        <ele>696.440807</ele>
        <time>2012-12-09T08:31:08Z</time>
      </trkpt>
      <trkpt lat="43.87145" lon="7.29114">
        <ele>696.440819</ele>
        <time>2012-12-09T08:31:11Z</time>
      </trkpt>
      <trkpt lat="43.87152" lon="7.29119">
        <ele>696.440834</ele>
        <time>2012-12-09T08:31:17Z</time>
      </trkpt>
      <trkpt lat="43.87155" lon="7.2912">
        <ele>696.440845</ele>
        <time>2012-12-09T08:31:20Z</time>
      </trkpt>
      <trkpt lat="43.87159" lon="7.29119">
        <ele>696.440849</ele>
        <time>2012-12-09T08:31:23Z</time>
      </trkpt>
      <trkpt lat="43.87162" lon="7.29117">
        <ele>695.440849</ele>
        <time>2012-12-09T08:31:26Z</time>
      </trkpt>
      <trkpt lat="43.87166" lon="7.29114">
        <ele>692.440845</ele>
        <time>2012-12-09T08:31:29Z</time>
      </trkpt>
      <trkpt lat="43.87171" lon="7.29108">
        <ele>689.440842</ele>
        <time>2012-12-09T08:31:33Z</time>
      </trkpt>
      <trkpt lat="43.87178" lon="7.29097">
        <ele>685.440826</ele>
        <time>2012-12-09T08:31:39Z</time>
      </trkpt>
      <trkpt lat="43.87183" lon="7.29089">
        <ele>682.440815</ele>
        <time>2012-12-09T08:31:44Z</time>
      </trkpt>
      <trkpt lat="43.87185" lon="7.29085">
        <ele>680.440811</ele>
        <time>2012-12-09T08:31:48Z</time>
      </trkpt>
      <trkpt lat="43.87188" lon="7.2908">
        <ele>680.440804</ele>
        <time>2012-12-09T08:31:52Z</time>
      </trkpt>
      <trkpt lat="43.87191" lon="7.29073">
        <ele>681.440796</ele>
        <time>2012-12-09T08:31:56Z</time>
      </trkpt>
      <trkpt lat="43.87193" lon="7.29068">
        <ele>680.440788</ele>
        <time>2012-12-09T08:31:59Z</time>
      </trkpt>
      <trkpt lat="43.87195" lon="7.29062">
        <ele>681.440781</ele>
        <time>2012-12-09T08:32:03Z</time>
      </trkpt>
      <trkpt lat="43.87199" lon="7.29055">
        <ele>682.440765</ele>
        <time>2012-12-09T08:32:08Z</time>
      </trkpt>
      <trkpt lat="43.87201" lon="7.29052">
        <ele>683.440765</ele>
        <time>2012-12-09T08:32:11Z</time>
      </trkpt>
      <trkpt lat="43.87203" lon="7.29049">
        <ele>682.440762</ele>
        <time>2012-12-09T08:32:15Z</time>
      </trkpt>
      <trkpt lat="43.87207" lon="7.29046">
        <ele>682.440758</ele>
        <time>2012-12-09T08:32:19Z</time>
      </trkpt>
      <trkpt lat="43.87208" lon="7.29041">
        <ele>682.44075</ele>
        <time>2012-12-09T08:32:22Z</time>
      </trkpt>
      <trkpt lat="43.87208" lon="7.29036">
        <ele>682.440742</ele>
        <time>2012-12-09T08:32:25Z</time>
      </trkpt>
      <trkpt lat="43.87207" lon="7.29032">
        <ele>682.440731</ele>
        <time>2012-12-09T08:32:28Z</time>
      </trkpt>
      <trkpt lat="43.87202" lon="7.29025">
        <ele>684.440712</ele>
        <time>2012-12-09T08:32:33Z</time>
      </trkpt>
      <trkpt lat="43.87199" lon="7.29019">
        <ele>683.440697</ele>
        <time>2012-12-09T08:32:37Z</time>
      </trkpt>
      <trkpt lat="43.87198" lon="7.29014">
        <ele>683.440681</ele>
        <time>2012-12-09T08:32:40Z</time>
      </trkpt>
      <trkpt lat="43.87197" lon="7.29009">
        <ele>682.440666</ele>
        <time>2012-12-09T08:32:44Z</time>
      </trkpt>
      <trkpt lat="43.87197" lon="7.29004">
        <ele>682.440659</ele>
        <time>2012-12-09T08:32:47Z</time>
      </trkpt>
      <trkpt lat="43.87197" lon="7.28999">
        <ele>682.440651</ele>
        <time>2012-12-09T08:32:50Z</time>
      </trkpt>
      <trkpt lat="43.87196" lon="7.28995">
        <ele>683.440643</ele>
        <time>2012-12-09T08:32:53Z</time>
      </trkpt>
      <trkpt lat="43.87195" lon="7.28991">
        <ele>685.440628</ele>
        <time>2012-12-09T08:32:56Z</time>
      </trkpt>
      <trkpt lat="43.87193" lon="7.28988">
        <ele>688.44062</ele>
        <time>2012-12-09T08:32:59Z</time>
      </trkpt>
      <trkpt lat="43.87191" lon="7.28986">
        <ele>690.440613</ele>
        <time>2012-12-09T08:33:03Z</time>
      </trkpt>
      <trkpt lat="43.8719" lon="7.28984">
        <ele>692.440609</ele>
        <time>2012-12-09T08:33:07Z</time>
      </trkpt>
      <trkpt lat="43.87188" lon="7.28983">
        <ele>692.440605</ele>
        <time>2012-12-09T08:33:10Z</time>
      </trkpt>
      <trkpt lat="43.87186" lon="7.28982">
        <ele>694.440601</ele>
        <time>2012-12-09T08:33:15Z</time>
      </trkpt>
      <trkpt lat="43.87184" lon="7.28982">
        <ele>694.440598</ele>
        <time>2012-12-09T08:33:18Z</time>
      </trkpt>
      <trkpt lat="43.87183" lon="7.28981">
        <ele>694.440598</ele>
        <time>2012-12-09T08:33:21Z</time>
      </trkpt>
      <trkpt lat="43.87182" lon="7.2898">
        <ele>695.44059</ele>
        <time>2012-12-09T08:33:24Z</time>
      </trkpt>
      <trkpt lat="43.87182" lon="7.28978">
        <ele>696.440582</ele>
        <time>2012-12-09T08:33:27Z</time>
      </trkpt>
      <trkpt lat="43.87183" lon="7.28975">
        <ele>697.440582</ele>
        <time>2012-12-09T08:33:32Z</time>
      </trkpt>
      <trkpt lat="43.87184" lon="7.28973">
        <ele>697.440582</ele>
        <time>2012-12-09T08:33:35Z</time>
      </trkpt>
      <trkpt lat="43.87186" lon="7.28971">
        <ele>699.440578</ele>
        <time>2012-12-09T08:33:38Z</time>
      </trkpt>
      <trkpt lat="43.8719" lon="7.28971">
        <ele>700.440582</ele>
        <time>2012-12-09T08:33:42Z</time>
      </trkpt>
      <trkpt lat="43.87195" lon="7.28971">
        <ele>701.44059</ele>
        <time>2012-12-09T08:33:46Z</time>
      </trkpt>
      <trkpt lat="43.87199" lon="7.28972">
        <ele>700.440598</ele>
        <time>2012-12-09T08:33:49Z</time>
      </trkpt>
      <trkpt lat="43.87206" lon="7.28978">
        <ele>700.440617</ele>
        <time>2012-12-09T08:33:55Z</time>
      </trkpt>
      <trkpt lat="43.87209" lon="7.28984">
        <ele>700.440636</ele>
        <time>2012-12-09T08:33:59Z</time>
      </trkpt>
      <trkpt lat="43.87212" lon="7.28989">
        <ele>700.440647</ele>
        <time>2012-12-09T08:34:02Z</time>
      </trkpt>
      <trkpt lat="43.87215" lon="7.28991">
        <ele>700.440659</ele>
        <time>2012-12-09T08:34:05Z</time>
      </trkpt>
      <trkpt lat="43.87218" lon="7.28991">
        <ele>699.440659</ele>
        <time>2012-12-09T08:34:08Z</time>
      </trkpt>
      <trkpt lat="43.87222" lon="7.28989">
        <ele>698.440662</ele>
        <time>2012-12-09T08:34:11Z</time>
      </trkpt>
      <trkpt lat="43.87225" lon="7.28987">
        <ele>696.440659</ele>
        <time>2012-12-09T08:34:14Z</time>
      </trkpt>
      <trkpt lat="43.87231" lon="7.2898">
        <ele>694.440655</ele>
        <time>2012-12-09T08:34:20Z</time>
      </trkpt>
      <trkpt lat="43.87236" lon="7.28974">
        <ele>694.440651</ele>
        <time>2012-12-09T08:34:25Z</time>
      </trkpt>
      <trkpt lat="43.87241" lon="7.28969">
        <ele>693.440643</ele>
        <time>2012-12-09T08:34:29Z</time>
      </trkpt>
      <trkpt lat="43.87245" lon="7.28964">
        <ele>692.440643</ele>
        <time>2012-12-09T08:34:33Z</time>
      </trkpt>
      <trkpt lat="43.87249" lon="7.28959">
        <ele>690.440636</ele>
        <time>2012-12-09T08:34:37Z</time>
      </trkpt>
      <trkpt lat="43.8725" lon="7.28955">
        <ele>690.440628</ele>
        <time>2012-12-09T08:34:40Z</time>
      </trkpt>
      <trkpt lat="43.87252" lon="7.28949">
        <ele>690.44062</ele>
        <time>2012-12-09T08:34:44Z</time>
      </trkpt>
      <trkpt lat="43.87253" lon="7.28946">
        <ele>690.440613</ele>
        <time>2012-12-09T08:34:47Z</time>
      </trkpt>
      <trkpt lat="43.87255" lon="7.28943">
        <ele>689.440613</ele>
        <time>2012-12-09T08:34:51Z</time>
      </trkpt>
      <trkpt lat="43.87258" lon="7.28939">
        <ele>688.440609</ele>
        <time>2012-12-09T08:34:55Z</time>
      </trkpt>
      <trkpt lat="43.87262" lon="7.28933">
        <ele>688.440605</ele>
        <time>2012-12-09T08:35:00Z</time>
      </trkpt>
      <trkpt lat="43.87265" lon="7.2893">
        <ele>689.440598</ele>
        <time>2012-12-09T08:35:03Z</time>
      </trkpt>
      <trkpt lat="43.87269" lon="7.28927">
        <ele>688.440598</ele>
        <time>2012-12-09T08:35:07Z</time>
      </trkpt>
      <trkpt lat="43.87273" lon="7.28923">
        <ele>688.440598</ele>
        <time>2012-12-09T08:35:12Z</time>
      </trkpt>
      <trkpt lat="43.87274" lon="7.28921">
        <ele>689.440598</ele>
        <time>2012-12-09T08:35:15Z</time>
      </trkpt>
      <trkpt lat="43.87274" lon="7.2892">
        <ele>689.440594</ele>
        <time>2012-12-09T08:35:18Z</time>
      </trkpt>
      <trkpt lat="43.87274" lon="7.28917">
        <ele>690.440582</ele>
        <time>2012-12-09T08:35:23Z</time>
      </trkpt>
      <trkpt lat="43.87274" lon="7.28916">
        <ele>691.440582</ele>
        <time>2012-12-09T08:35:26Z</time>
      </trkpt>
      <trkpt lat="43.87274" lon="7.28914">
        <ele>690.440578</ele>
        <time>2012-12-09T08:35:30Z</time>
      </trkpt>
      <trkpt lat="43.87274" lon="7.2891">
        <ele>691.440571</ele>
        <time>2012-12-09T08:35:35Z</time>
      </trkpt>
      <trkpt lat="43.87274" lon="7.28908">
        <ele>690.440567</ele>
        <time>2012-12-09T08:35:38Z</time>
      </trkpt>
      <trkpt lat="43.87274" lon="7.28907">
        <ele>691.440567</ele>
        <time>2012-12-09T08:35:41Z</time>
      </trkpt>
      <trkpt lat="43.87275" lon="7.28907">
        <ele>692.440567</ele>
        <time>2012-12-09T08:35:44Z</time>
      </trkpt>
      <trkpt lat="43.87278" lon="7.28907">
        <ele>693.440567</ele>
        <time>2012-12-09T08:35:48Z</time>
      </trkpt>
      <trkpt lat="43.8728" lon="7.28908">
        <ele>694.440575</ele>
        <time>2012-12-09T08:35:51Z</time>
      </trkpt>
      <trkpt lat="43.87282" lon="7.28911">
        <ele>695.440582</ele>
        <time>2012-12-09T08:35:54Z</time>
      </trkpt>
      <trkpt lat="43.87283" lon="7.28915">
        <ele>697.44059</ele>
        <time>2012-12-09T08:35:57Z</time>
      </trkpt>
      <trkpt lat="43.87283" lon="7.28922">
        <ele>698.440605</ele>
        <time>2012-12-09T08:36:01Z</time>
      </trkpt>
      <trkpt lat="43.87283" lon="7.28928">
        <ele>700.44062</ele>
        <time>2012-12-09T08:36:05Z</time>
      </trkpt>
      <trkpt lat="43.87283" lon="7.28936">
        <ele>702.440636</ele>
        <time>2012-12-09T08:36:09Z</time>
      </trkpt>
      <trkpt lat="43.87282" lon="7.28942">
        <ele>702.440651</ele>
        <time>2012-12-09T08:36:12Z</time>
      </trkpt>
      <trkpt lat="43.87283" lon="7.28949">
        <ele>702.440662</ele>
        <time>2012-12-09T08:36:15Z</time>
      </trkpt>
      <trkpt lat="43.87284" lon="7.28954">
        <ele>702.440674</ele>
        <time>2012-12-09T08:36:18Z</time>
      </trkpt>
      <trkpt lat="43.87286" lon="7.28958">
        <ele>701.440685</ele>
        <time>2012-12-09T08:36:21Z</time>
      </trkpt>
      <trkpt lat="43.87289" lon="7.28962">
        <ele>702.440697</ele>
        <time>2012-12-09T08:36:25Z</time>
      </trkpt>
      <trkpt lat="43.87291" lon="7.28965">
        <ele>703.440704</ele>
        <time>2012-12-09T08:36:28Z</time>
      </trkpt>
      <trkpt lat="43.87293" lon="7.28968">
        <ele>703.440712</ele>
        <time>2012-12-09T08:36:32Z</time>
      </trkpt>
      <trkpt lat="43.87295" lon="7.28971">
        <ele>705.440727</ele>
        <time>2012-12-09T08:36:37Z</time>
      </trkpt>
      <trkpt lat="43.87296" lon="7.28973">
        <ele>705.440731</ele>
        <time>2012-12-09T08:36:40Z</time>
      </trkpt>
      <trkpt lat="43.87297" lon="7.28975">
        <ele>705.440735</ele>
        <time>2012-12-09T08:36:43Z</time>
      </trkpt>
      <trkpt lat="43.87298" lon="7.28976">
        <ele>707.440735</ele>
        <time>2012-12-09T08:36:46Z</time>
      </trkpt>
      <trkpt lat="43.87298" lon="7.28978">
        <ele>706.440742</ele>
        <time>2012-12-09T08:36:49Z</time>
      </trkpt>
      <trkpt lat="43.87299" lon="7.28979">
        <ele>706.44075</ele>
        <time>2012-12-09T08:36:52Z</time>
      </trkpt>
      <trkpt lat="43.873" lon="7.28979">
        <ele>705.44075</ele>
        <time>2012-12-09T08:36:55Z</time>
      </trkpt>
      <trkpt lat="43.87302" lon="7.28978">
        <ele>706.44075</ele>
        <time>2012-12-09T08:36:59Z</time>
      </trkpt>
      <trkpt lat="43.87304" lon="7.28976">
        <ele>705.440746</ele>
        <time>2012-12-09T08:37:03Z</time>
      </trkpt>
      <trkpt lat="43.87307" lon="7.28973">
        <ele>706.440742</ele>
        <time>2012-12-09T08:37:08Z</time>
      </trkpt>
      <trkpt lat="43.87308" lon="7.28971">
        <ele>707.440742</ele>
        <time>2012-12-09T08:37:12Z</time>
      </trkpt>
      <trkpt lat="43.8731" lon="7.28969">
        <ele>708.440742</ele>
        <time>2012-12-09T08:37:16Z</time>
      </trkpt>
      <trkpt lat="43.87311" lon="7.28968">
        <ele>710.440735</ele>
        <time>2012-12-09T08:37:19Z</time>
      </trkpt>
      <trkpt lat="43.87311" lon="7.28968">
        <ele>709.440739</ele>
        <time>2012-12-09T08:37:22Z</time>
      </trkpt>
      <trkpt lat="43.87312" lon="7.28969">
        <ele>708.440742</ele>
        <time>2012-12-09T08:37:25Z</time>
      </trkpt>
      <trkpt lat="43.87312" lon="7.28972">
        <ele>709.44075</ele>
        <time>2012-12-09T08:37:28Z</time>
      </trkpt>
      <trkpt lat="43.87312" lon="7.28976">
        <ele>711.440758</ele>
        <time>2012-12-09T08:37:32Z</time>
      </trkpt>
      <trkpt lat="43.87312" lon="7.28981">
        <ele>716.440765</ele>
        <time>2012-12-09T08:37:36Z</time>
      </trkpt>
      <trkpt lat="43.87312" lon="7.28986">
        <ele>718.440781</ele>
        <time>2012-12-09T08:37:39Z</time>
      </trkpt>
      <trkpt lat="43.87311" lon="7.28992">
        <ele>720.440792</ele>
        <time>2012-12-09T08:37:43Z</time>
      </trkpt>
      <trkpt lat="43.8731" lon="7.28998">
        <ele>722.440804</ele>
        <time>2012-12-09T08:37:48Z</time>
      </trkpt>
      <trkpt lat="43.87309" lon="7.29001">
        <ele>723.440804</ele>
        <time>2012-12-09T08:37:51Z</time>
      </trkpt>
      <trkpt lat="43.8731" lon="7.29004">
        <ele>724.440811</ele>
        <time>2012-12-09T08:37:54Z</time>
      </trkpt>
      <trkpt lat="43.87311" lon="7.29006">
        <ele>724.440819</ele>
        <time>2012-12-09T08:37:57Z</time>
      </trkpt>
      <trkpt lat="43.87315" lon="7.2901">
        <ele>724.440834</ele>
        <time>2012-12-09T08:38:02Z</time>
      </trkpt>
      <trkpt lat="43.87318" lon="7.29013">
        <ele>723.440842</ele>
        <time>2012-12-09T08:38:06Z</time>
      </trkpt>
      <trkpt lat="43.8732" lon="7.29015">
        <ele>723.440849</ele>
        <time>2012-12-09T08:38:09Z</time>
      </trkpt>
      <trkpt lat="43.87322" lon="7.29017">
        <ele>720.440857</ele>
        <time>2012-12-09T08:38:13Z</time>
      </trkpt>
      <trkpt lat="43.87322" lon="7.29018">
        <ele>718.440857</ele>
        <time>2012-12-09T08:38:17Z</time>
      </trkpt>
      <trkpt lat="43.87323" lon="7.29017">
        <ele>718.440857</ele>
        <time>2012-12-09T08:38:21Z</time>
      </trkpt>
      <trkpt lat="43.87323" lon="7.29016">
        <ele>718.440853</ele>
        <time>2012-12-09T08:38:25Z</time>
      </trkpt>
      <trkpt lat="43.87323" lon="7.29015">
        <ele>718.440849</ele>
        <time>2012-12-09T08:38:30Z</time>
      </trkpt>
      <trkpt lat="43.87324" lon="7.29013">
        <ele>717.440849</ele>
        <time>2012-12-09T08:38:35Z</time>
      </trkpt>
      <trkpt lat="43.87324" lon="7.29012">
        <ele>715.440849</ele>
        <time>2012-12-09T08:38:39Z</time>
      </trkpt>
      <trkpt lat="43.87324" lon="7.29011">
        <ele>714.440849</ele>
        <time>2012-12-09T08:38:42Z</time>
      </trkpt>
      <trkpt lat="43.87324" lon="7.2901">
        <ele>714.440842</ele>
        <time>2012-12-09T08:38:45Z</time>
      </trkpt>
      <trkpt lat="43.87324" lon="7.2901">
        <ele>716.440842</ele>
        <time>2012-12-09T08:38:49Z</time>
      </trkpt>
      <trkpt lat="43.87323" lon="7.2901">
        <ele>719.440842</ele>
        <time>2012-12-09T08:38:54Z</time>
      </trkpt>
      <trkpt lat="43.87323" lon="7.2901">
        <ele>717.440842</ele>
        <time>2012-12-09T08:38:57Z</time>
      </trkpt>
      <trkpt lat="43.87323" lon="7.2901">
        <ele>715.440842</ele>
        <time>2012-12-09T08:39:01Z</time>
      </trkpt>
      <trkpt lat="43.87323" lon="7.29009">
        <ele>712.440842</ele>
        <time>2012-12-09T08:39:04Z</time>
      </trkpt>
      <trkpt lat="43.87323" lon="7.29009">
        <ele>709.440842</ele>
        <time>2012-12-09T08:39:08Z</time>
      </trkpt>
      <trkpt lat="43.87323" lon="7.29009">
        <ele>710.440842</ele>
        <time>2012-12-09T08:39:11Z</time>
      </trkpt>
      <trkpt lat="43.87323" lon="7.29009">
        <ele>714.440842</ele>
        <time>2012-12-09T08:39:14Z</time>
      </trkpt>
      <trkpt lat="43.87323" lon="7.29009">
        <ele>719.440838</ele>
        <time>2012-12-09T08:39:20Z</time>
      </trkpt>
      <trkpt lat="43.87322" lon="7.29009">
        <ele>719.440842</ele>
        <time>2012-12-09T08:39:23Z</time>
      </trkpt>
      <trkpt lat="43.87322" lon="7.29009">
        <ele>720.440838</ele>
        <time>2012-12-09T08:39:27Z</time>
      </trkpt>
      <trkpt lat="43.87322" lon="7.29009">
        <ele>720.440842</ele>
        <time>2012-12-09T08:39:31Z</time>
      </trkpt>
      <trkpt lat="43.87322" lon="7.29009">
        <ele>722.440842</ele>
        <time>2012-12-09T08:39:35Z</time>
      </trkpt>
      <trkpt lat="43.87322" lon="7.29009">
        <ele>722.440842</ele>
        <time>2012-12-09T08:39:39Z</time>
      </trkpt>
      <trkpt lat="43.87321" lon="7.2901">
        <ele>722.440842</ele>
        <time>2012-12-09T08:39:43Z</time>
      </trkpt>
      <trkpt lat="43.87321" lon="7.2901">
        <ele>723.440842</ele>
        <time>2012-12-09T08:39:47Z</time>
      </trkpt>
      <trkpt lat="43.87321" lon="7.2901">
        <ele>723.440842</ele>
        <time>2012-12-09T08:39:50Z</time>
      </trkpt>
      <trkpt lat="43.87321" lon="7.2901">
        <ele>723.440842</ele>
        <time>2012-12-09T08:39:53Z</time>
      </trkpt>
      <trkpt lat="43.87321" lon="7.2901">
        <ele>722.440838</ele>
        <time>2012-12-09T08:39:56Z</time>
      </trkpt>
      <trkpt lat="43.87321" lon="7.2901">
        <ele>721.440838</ele>
        <time>2012-12-09T08:40:01Z</time>
      </trkpt>
      <trkpt lat="43.8732" lon="7.29009">
        <ele>723.440838</ele>
        <time>2012-12-09T08:40:04Z</time>
      </trkpt>
      <trkpt lat="43.87321" lon="7.29008">
        <ele>720.440834</ele>
        <time>2012-12-09T08:40:07Z</time>
      </trkpt>
      <trkpt lat="43.87321" lon="7.29008">
        <ele>721.440834</ele>
        <time>2012-12-09T08:40:11Z</time>
      </trkpt>
      <trkpt lat="43.87321" lon="7.29008">
        <ele>723.440834</ele>
        <time>2012-12-09T08:40:14Z</time>
      </trkpt>
      <trkpt lat="43.87322" lon="7.29008">
        <ele>724.440834</ele>
        <time>2012-12-09T08:40:19Z</time>
      </trkpt>
      <trkpt lat="43.87322" lon="7.29009">
        <ele>724.440834</ele>
        <time>2012-12-09T08:40:22Z</time>
      </trkpt>
      <trkpt lat="43.87321" lon="7.29009">
        <ele>725.440842</ele>
        <time>2012-12-09T08:40:26Z</time>
      </trkpt>
      <trkpt lat="43.87322" lon="7.29009">
        <ele>725.440842</ele>
        <time>2012-12-09T08:40:29Z</time>
      </trkpt>
      <trkpt lat="43.87322" lon="7.2901">
        <ele>725.440842</ele>
        <time>2012-12-09T08:40:33Z</time>
      </trkpt>
      <trkpt lat="43.87322" lon="7.29011">
        <ele>725.440845</ele>
        <time>2012-12-09T08:40:38Z</time>
      </trkpt>
      <trkpt lat="43.87322" lon="7.29012">
        <ele>725.440845</ele>
        <time>2012-12-09T08:40:42Z</time>
      </trkpt>
      <trkpt lat="43.87322" lon="7.29013">
        <ele>723.440845</ele>
        <time>2012-12-09T08:40:46Z</time>
      </trkpt>
      <trkpt lat="43.87321" lon="7.29013">
        <ele>723.440849</ele>
        <time>2012-12-09T08:40:50Z</time>
      </trkpt>
      <trkpt lat="43.87321" lon="7.29014">
        <ele>724.440849</ele>
        <time>2012-12-09T08:40:54Z</time>
      </trkpt>
      <trkpt lat="43.8732" lon="7.29014">
        <ele>725.440845</ele>
        <time>2012-12-09T08:40:57Z</time>
      </trkpt>
      <trkpt lat="43.8732" lon="7.29016">
        <ele>725.440849</ele>
        <time>2012-12-09T08:41:02Z</time>
      </trkpt>
      <trkpt lat="43.8732" lon="7.29017">
        <ele>727.440857</ele>
        <time>2012-12-09T08:41:06Z</time>
      </trkpt>
      <trkpt lat="43.8732" lon="7.29017">
        <ele>728.440857</ele>
        <time>2012-12-09T08:41:08Z</time>
      </trkpt>
      <trkpt lat="43.8732" lon="7.29017">
        <ele>727.440857</ele>
        <time>2012-12-09T08:41:11Z</time>
      </trkpt>
      <trkpt lat="43.87321" lon="7.29016">
        <ele>722.440849</ele>
        <time>2012-12-09T08:41:15Z</time>
      </trkpt>
      <trkpt lat="43.87321" lon="7.29016">
        <ele>719.440857</ele>
        <time>2012-12-09T08:41:18Z</time>
      </trkpt>
      <trkpt lat="43.87322" lon="7.29019">
        <ele>718.440865</ele>
        <time>2012-12-09T08:41:22Z</time>
      </trkpt>
      <trkpt lat="43.87324" lon="7.29021">
        <ele>718.440868</ele>
        <time>2012-12-09T08:41:27Z</time>
      </trkpt>
      <trkpt lat="43.87326" lon="7.29024">
        <ele>718.440872</ele>
        <time>2012-12-09T08:41:31Z</time>
      </trkpt>
      <trkpt lat="43.87329" lon="7.29026">
        <ele>719.440887</ele>
        <time>2012-12-09T08:41:35Z</time>
      </trkpt>
      <trkpt lat="43.87332" lon="7.29031">
        <ele>718.440899</ele>
        <time>2012-12-09T08:41:40Z</time>
      </trkpt>
      <trkpt lat="43.87335" lon="7.29036">
        <ele>719.440914</ele>
        <time>2012-12-09T08:41:44Z</time>
      </trkpt>
      <trkpt lat="43.87338" lon="7.2904">
        <ele>720.440926</ele>
        <time>2012-12-09T08:41:47Z</time>
      </trkpt>
      <trkpt lat="43.8734" lon="7.29045">
        <ele>719.440941</ele>
        <time>2012-12-09T08:41:51Z</time>
      </trkpt>
      <trkpt lat="43.87342" lon="7.29049">
        <ele>719.440948</ele>
        <time>2012-12-09T08:41:54Z</time>
      </trkpt>
      <trkpt lat="43.87346" lon="7.29053">
        <ele>720.440956</ele>
        <time>2012-12-09T08:41:58Z</time>
      </trkpt>
      <trkpt lat="43.87349" lon="7.29055">
        <ele>721.440971</ele>
        <time>2012-12-09T08:42:01Z</time>
      </trkpt>
      <trkpt lat="43.8735" lon="7.29058">
        <ele>723.440979</ele>
        <time>2012-12-09T08:42:04Z</time>
      </trkpt>
      <trkpt lat="43.87351" lon="7.29065">
        <ele>724.440994</ele>
        <time>2012-12-09T08:42:09Z</time>
      </trkpt>
      <trkpt lat="43.87352" lon="7.29071">
        <ele>725.44101</ele>
        <time>2012-12-09T08:42:13Z</time>
      </trkpt>
      <trkpt lat="43.87351" lon="7.29075">
        <ele>727.441013</ele>
        <time>2012-12-09T08:42:16Z</time>
      </trkpt>
      <trkpt lat="43.87348" lon="7.29081">
        <ele>727.441025</ele>
        <time>2012-12-09T08:42:20Z</time>
      </trkpt>
      <trkpt lat="43.87346" lon="7.29087">
        <ele>727.441032</ele>
        <time>2012-12-09T08:42:25Z</time>
      </trkpt>
      <trkpt lat="43.87344" lon="7.29091">
        <ele>728.44104</ele>
        <time>2012-12-09T08:42:28Z</time>
      </trkpt>
      <trkpt lat="43.87343" lon="7.29096">
        <ele>729.441048</ele>
        <time>2012-12-09T08:42:31Z</time>
      </trkpt>
      <trkpt lat="43.87342" lon="7.29101">
        <ele>728.441059</ele>
        <time>2012-12-09T08:42:34Z</time>
      </trkpt>
      <trkpt lat="43.87342" lon="7.29105">
        <ele>727.441067</ele>
        <time>2012-12-09T08:42:37Z</time>
      </trkpt>
      <trkpt lat="43.87342" lon="7.2911">
        <ele>728.441071</ele>
        <time>2012-12-09T08:42:41Z</time>
      </trkpt>
      <trkpt lat="43.87342" lon="7.29113">
        <ele>727.441082</ele>
        <time>2012-12-09T08:42:44Z</time>
      </trkpt>
      <trkpt lat="43.87344" lon="7.29118">
        <ele>725.441093</ele>
        <time>2012-12-09T08:42:48Z</time>
      </trkpt>
      <trkpt lat="43.87346" lon="7.29122">
        <ele>725.441105</ele>
        <time>2012-12-09T08:42:52Z</time>
      </trkpt>
      <trkpt lat="43.87348" lon="7.29128">
        <ele>727.44112</ele>
        <time>2012-12-09T08:42:56Z</time>
      </trkpt>
      <trkpt lat="43.8735" lon="7.29133">
        <ele>728.441132</ele>
        <time>2012-12-09T08:42:59Z</time>
      </trkpt>
      <trkpt lat="43.87351" lon="7.29139">
        <ele>729.441147</ele>
        <time>2012-12-09T08:43:03Z</time>
      </trkpt>
      <trkpt lat="43.87353" lon="7.29142">
        <ele>729.441154</ele>
        <time>2012-12-09T08:43:06Z</time>
      </trkpt>
      <trkpt lat="43.87354" lon="7.29144">
        <ele>729.441158</ele>
        <time>2012-12-09T08:43:09Z</time>
      </trkpt>
      <trkpt lat="43.87356" lon="7.29145">
        <ele>729.441166</ele>
        <time>2012-12-09T08:43:12Z</time>
      </trkpt>
      <trkpt lat="43.87358" lon="7.29147">
        <ele>731.441174</ele>
        <time>2012-12-09T08:43:15Z</time>
      </trkpt>
      <trkpt lat="43.8736" lon="7.29151">
        <ele>733.441185</ele>
        <time>2012-12-09T08:43:19Z</time>
      </trkpt>
      <trkpt lat="43.87362" lon="7.29156">
        <ele>736.441193</ele>
        <time>2012-12-09T08:43:24Z</time>
      </trkpt>
      <trkpt lat="43.87364" lon="7.2916">
        <ele>739.441212</ele>
        <time>2012-12-09T08:43:28Z</time>
      </trkpt>
      <trkpt lat="43.87365" lon="7.29162">
        <ele>740.441216</ele>
        <time>2012-12-09T08:43:31Z</time>
      </trkpt>
      <trkpt lat="43.87367" lon="7.29165">
        <ele>742.441223</ele>
        <time>2012-12-09T08:43:35Z</time>
      </trkpt>
      <trkpt lat="43.87371" lon="7.29168">
        <ele>742.441231</ele>
        <time>2012-12-09T08:43:41Z</time>
      </trkpt>
      <trkpt lat="43.87373" lon="7.2917">
        <ele>743.441238</ele>
        <time>2012-12-09T08:43:44Z</time>
      </trkpt>
      <trkpt lat="43.87379" lon="7.29173">
        <ele>745.441254</ele>
        <time>2012-12-09T08:43:50Z</time>
      </trkpt>
      <trkpt lat="43.87382" lon="7.29174">
        <ele>747.441261</ele>
        <time>2012-12-09T08:43:54Z</time>
      </trkpt>
      <trkpt lat="43.87384" lon="7.29175">
        <ele>748.441269</ele>
        <time>2012-12-09T08:43:58Z</time>
      </trkpt>
      <trkpt lat="43.87388" lon="7.29176">
        <ele>748.441269</ele>
        <time>2012-12-09T08:44:02Z</time>
      </trkpt>
      <trkpt lat="43.87391" lon="7.29177">
        <ele>748.441277</ele>
        <time>2012-12-09T08:44:06Z</time>
      </trkpt>
      <trkpt lat="43.87394" lon="7.29177">
        <ele>747.441284</ele>
        <time>2012-12-09T08:44:09Z</time>
      </trkpt>
      <trkpt lat="43.87398" lon="7.29178">
        <ele>748.441292</ele>
        <time>2012-12-09T08:44:13Z</time>
      </trkpt>
      <trkpt lat="43.87404" lon="7.29177">
        <ele>749.441299</ele>
        <time>2012-12-09T08:44:19Z</time>
      </trkpt>
      <trkpt lat="43.87407" lon="7.29176">
        <ele>749.441299</ele>
        <time>2012-12-09T08:44:22Z</time>
      </trkpt>
      <trkpt lat="43.8741" lon="7.29173">
        <ele>751.441299</ele>
        <time>2012-12-09T08:44:27Z</time>
      </trkpt>
      <trkpt lat="43.87411" lon="7.29169">
        <ele>753.441292</ele>
        <time>2012-12-09T08:44:30Z</time>
      </trkpt>
      <trkpt lat="43.87411" lon="7.29165">
        <ele>755.44128</ele>
        <time>2012-12-09T08:44:33Z</time>
      </trkpt>
      <trkpt lat="43.87411" lon="7.2916">
        <ele>756.441277</ele>
        <time>2012-12-09T08:44:37Z</time>
      </trkpt>
      <trkpt lat="43.87411" lon="7.29157">
        <ele>756.441265</ele>
        <time>2012-12-09T08:44:40Z</time>
      </trkpt>
      <trkpt lat="43.87412" lon="7.29155">
        <ele>756.441261</ele>
        <time>2012-12-09T08:44:43Z</time>
      </trkpt>
      <trkpt lat="43.87413" lon="7.29153">
        <ele>756.441257</ele>
        <time>2012-12-09T08:44:48Z</time>
      </trkpt>
      <trkpt lat="43.87415" lon="7.29151">
        <ele>756.441257</ele>
        <time>2012-12-09T08:44:54Z</time>
      </trkpt>
      <trkpt lat="43.87415" lon="7.29149">
        <ele>757.441254</ele>
        <time>2012-12-09T08:44:57Z</time>
      </trkpt>
      <trkpt lat="43.87414" lon="7.29146">
        <ele>759.441246</ele>
        <time>2012-12-09T08:45:00Z</time>
      </trkpt>
      <trkpt lat="43.87412" lon="7.29142">
        <ele>762.441235</ele>
        <time>2012-12-09T08:45:04Z</time>
      </trkpt>
      <trkpt lat="43.8741" lon="7.29137">
        <ele>764.441223</ele>
        <time>2012-12-09T08:45:08Z</time>
      </trkpt>
      <trkpt lat="43.87409" lon="7.29133">
        <ele>764.441216</ele>
        <time>2012-12-09T08:45:13Z</time>
      </trkpt>
      <trkpt lat="43.87408" lon="7.29132">
        <ele>765.441208</ele>
        <time>2012-12-09T08:45:16Z</time>
      </trkpt>
      <trkpt lat="43.87408" lon="7.2913">
        <ele>766.441208</ele>
        <time>2012-12-09T08:45:19Z</time>
      </trkpt>
      <trkpt lat="43.87408" lon="7.29127">
        <ele>768.4412</ele>
        <time>2012-12-09T08:45:23Z</time>
      </trkpt>
      <trkpt lat="43.87409" lon="7.29125">
        <ele>769.441193</ele>
        <time>2012-12-09T08:45:26Z</time>
      </trkpt>
      <trkpt lat="43.87409" lon="7.29121">
        <ele>770.441193</ele>
        <time>2012-12-09T08:45:30Z</time>
      </trkpt>
      <trkpt lat="43.87408" lon="7.29118">
        <ele>772.441185</ele>
        <time>2012-12-09T08:45:34Z</time>
      </trkpt>
      <trkpt lat="43.87409" lon="7.29113">
        <ele>774.44117</ele>
        <time>2012-12-09T08:45:40Z</time>
      </trkpt>
      <trkpt lat="43.87409" lon="7.29109">
        <ele>776.441162</ele>
        <time>2012-12-09T08:45:44Z</time>
      </trkpt>
      <trkpt lat="43.8741" lon="7.29104">
        <ele>776.441154</ele>
        <time>2012-12-09T08:45:52Z</time>
      </trkpt>
      <trkpt lat="43.87411" lon="7.29101">
        <ele>776.441151</ele>
        <time>2012-12-09T08:45:56Z</time>
      </trkpt>
      <trkpt lat="43.87411" lon="7.29095">
        <ele>778.441139</ele>
        <time>2012-12-09T08:46:04Z</time>
      </trkpt>
      <trkpt lat="43.87412" lon="7.29093">
        <ele>777.441135</ele>
        <time>2012-12-09T08:46:07Z</time>
      </trkpt>
      <trkpt lat="43.87413" lon="7.29088">
        <ele>776.441124</ele>
        <time>2012-12-09T08:46:14Z</time>
      </trkpt>
      <trkpt lat="43.87415" lon="7.29084">
        <ele>775.44112</ele>
        <time>2012-12-09T08:46:18Z</time>
      </trkpt>
      <trkpt lat="43.87416" lon="7.29082">
        <ele>774.441116</ele>
        <time>2012-12-09T08:46:22Z</time>
      </trkpt>
      <trkpt lat="43.87417" lon="7.2908">
        <ele>774.441116</ele>
        <time>2012-12-09T08:46:26Z</time>
      </trkpt>
      <trkpt lat="43.87418" lon="7.2908">
        <ele>774.441116</ele>
        <time>2012-12-09T08:46:30Z</time>
      </trkpt>
      <trkpt lat="43.87419" lon="7.29081">
        <ele>776.441116</ele>
        <time>2012-12-09T08:46:33Z</time>
      </trkpt>
      <trkpt lat="43.8742" lon="7.2908">
        <ele>774.441116</ele>
        <time>2012-12-09T08:46:37Z</time>
      </trkpt>
      <trkpt lat="43.87421" lon="7.2908">
        <ele>774.44112</ele>
        <time>2012-12-09T08:46:41Z</time>
      </trkpt>
      <trkpt lat="43.87421" lon="7.2908">
        <ele>776.44112</ele>
        <time>2012-12-09T08:46:44Z</time>
      </trkpt>
      <trkpt lat="43.87421" lon="7.2908">
        <ele>778.44112</ele>
        <time>2012-12-09T08:46:47Z</time>
      </trkpt>
      <trkpt lat="43.87421" lon="7.29079">
        <ele>780.441116</ele>
        <time>2012-12-09T08:46:50Z</time>
      </trkpt>
      <trkpt lat="43.87421" lon="7.29079">
        <ele>782.441116</ele>
        <time>2012-12-09T08:46:53Z</time>
      </trkpt>
      <trkpt lat="43.8742" lon="7.29078">
        <ele>783.441116</ele>
        <time>2012-12-09T08:46:56Z</time>
      </trkpt>
      <trkpt lat="43.8742" lon="7.29078">
        <ele>780.441116</ele>
        <time>2012-12-09T08:47:02Z</time>
      </trkpt>
      <trkpt lat="43.8742" lon="7.29078">
        <ele>778.441116</ele>
        <time>2012-12-09T08:47:06Z</time>
      </trkpt>
      <trkpt lat="43.8742" lon="7.29076">
        <ele>776.441109</ele>
        <time>2012-12-09T08:47:09Z</time>
      </trkpt>
      <trkpt lat="43.87421" lon="7.29073">
        <ele>774.441109</ele>
        <time>2012-12-09T08:47:13Z</time>
      </trkpt>
      <trkpt lat="43.87421" lon="7.29069">
        <ele>777.441097</ele>
        <time>2012-12-09T08:47:17Z</time>
      </trkpt>
      <trkpt lat="43.87421" lon="7.29065">
        <ele>777.441086</ele>
        <time>2012-12-09T08:47:21Z</time>
      </trkpt>
      <trkpt lat="43.87421" lon="7.29061">
        <ele>778.441078</ele>
        <time>2012-12-09T08:47:25Z</time>
      </trkpt>
      <trkpt lat="43.87421" lon="7.29057">
        <ele>779.441074</ele>
        <time>2012-12-09T08:47:28Z</time>
      </trkpt>
      <trkpt lat="43.87421" lon="7.29053">
        <ele>780.441063</ele>
        <time>2012-12-09T08:47:31Z</time>
      </trkpt>
      <trkpt lat="43.87424" lon="7.29046">
        <ele>784.441055</ele>
        <time>2012-12-09T08:47:37Z</time>
      </trkpt>
      <trkpt lat="43.87428" lon="7.2904">
        <ele>785.441048</ele>
        <time>2012-12-09T08:47:42Z</time>
      </trkpt>
      <trkpt lat="43.87431" lon="7.29035">
        <ele>785.44104</ele>
        <time>2012-12-09T08:47:46Z</time>
      </trkpt>
      <trkpt lat="43.87436" lon="7.29029">
        <ele>785.441032</ele>
        <time>2012-12-09T08:47:52Z</time>
      </trkpt>
      <trkpt lat="43.87439" lon="7.29025">
        <ele>784.441032</ele>
        <time>2012-12-09T08:47:56Z</time>
      </trkpt>
      <trkpt lat="43.87442" lon="7.29019">
        <ele>784.441025</ele>
        <time>2012-12-09T08:48:02Z</time>
      </trkpt>
      <trkpt lat="43.87444" lon="7.29016">
        <ele>784.441017</ele>
        <time>2012-12-09T08:48:06Z</time>
      </trkpt>
      <trkpt lat="43.87447" lon="7.29014">
        <ele>784.441017</ele>
        <time>2012-12-09T08:48:10Z</time>
      </trkpt>
      <trkpt lat="43.87451" lon="7.29011">
        <ele>781.441017</ele>
        <time>2012-12-09T08:48:15Z</time>
      </trkpt>
      <trkpt lat="43.87454" lon="7.29008">
        <ele>783.441017</ele>
        <time>2012-12-09T08:48:18Z</time>
      </trkpt>
      <trkpt lat="43.87457" lon="7.29005">
        <ele>784.441013</ele>
        <time>2012-12-09T08:48:21Z</time>
      </trkpt>
      <trkpt lat="43.87463" lon="7.29">
        <ele>785.44101</ele>
        <time>2012-12-09T08:48:26Z</time>
      </trkpt>
      <trkpt lat="43.87467" lon="7.28995">
        <ele>785.44101</ele>
        <time>2012-12-09T08:48:30Z</time>
      </trkpt>
      <trkpt lat="43.87471" lon="7.28991">
        <ele>784.441002</ele>
        <time>2012-12-09T08:48:34Z</time>
      </trkpt>
      <trkpt lat="43.87477" lon="7.28981">
        <ele>784.44099</ele>
        <time>2012-12-09T08:48:42Z</time>
      </trkpt>
      <trkpt lat="43.87481" lon="7.28975">
        <ele>785.440987</ele>
        <time>2012-12-09T08:48:47Z</time>
      </trkpt>
      <trkpt lat="43.87485" lon="7.2897">
        <ele>785.440979</ele>
        <time>2012-12-09T08:48:52Z</time>
      </trkpt>
      <trkpt lat="43.87488" lon="7.28967">
        <ele>785.440975</ele>
        <time>2012-12-09T08:48:55Z</time>
      </trkpt>
      <trkpt lat="43.87494" lon="7.28963">
        <ele>785.440983</ele>
        <time>2012-12-09T08:49:01Z</time>
      </trkpt>
      <trkpt lat="43.87497" lon="7.28961">
        <ele>785.440975</ele>
        <time>2012-12-09T08:49:04Z</time>
      </trkpt>
      <trkpt lat="43.875" lon="7.28958">
        <ele>785.440975</ele>
        <time>2012-12-09T08:49:08Z</time>
      </trkpt>
      <trkpt lat="43.87504" lon="7.28958">
        <ele>784.440979</ele>
        <time>2012-12-09T08:49:12Z</time>
      </trkpt>
      <trkpt lat="43.87506" lon="7.28958">
        <ele>784.440983</ele>
        <time>2012-12-09T08:49:15Z</time>
      </trkpt>
      <trkpt lat="43.87508" lon="7.28956">
        <ele>782.440987</ele>
        <time>2012-12-09T08:49:19Z</time>
      </trkpt>
      <trkpt lat="43.8751" lon="7.28954">
        <ele>781.440983</ele>
        <time>2012-12-09T08:49:23Z</time>
      </trkpt>
      <trkpt lat="43.87512" lon="7.28954">
        <ele>782.440983</ele>
        <time>2012-12-09T08:49:27Z</time>
      </trkpt>
      <trkpt lat="43.87513" lon="7.28953">
        <ele>783.440979</ele>
        <time>2012-12-09T08:49:30Z</time>
      </trkpt>
      <trkpt lat="43.87517" lon="7.28952">
        <ele>784.440987</ele>
        <time>2012-12-09T08:49:35Z</time>
      </trkpt>
      <trkpt lat="43.87521" lon="7.2895">
        <ele>783.440987</ele>
        <time>2012-12-09T08:49:39Z</time>
      </trkpt>
      <trkpt lat="43.87525" lon="7.28948">
        <ele>783.44099</ele>
        <time>2012-12-09T08:49:43Z</time>
      </trkpt>
      <trkpt lat="43.87529" lon="7.28947">
        <ele>783.440994</ele>
        <time>2012-12-09T08:49:46Z</time>
      </trkpt>
      <trkpt lat="43.87534" lon="7.28947">
        <ele>783.440998</ele>
        <time>2012-12-09T08:49:50Z</time>
      </trkpt>
      <trkpt lat="43.87536" lon="7.28948">
        <ele>783.441002</ele>
        <time>2012-12-09T08:49:53Z</time>
      </trkpt>
      <trkpt lat="43.87539" lon="7.28952">
        <ele>784.441017</ele>
        <time>2012-12-09T08:49:56Z</time>
      </trkpt>
      <trkpt lat="43.87541" lon="7.28957">
        <ele>783.441032</ele>
        <time>2012-12-09T08:50:00Z</time>
      </trkpt>
      <trkpt lat="43.87542" lon="7.28961">
        <ele>784.441036</ele>
        <time>2012-12-09T08:50:03Z</time>
      </trkpt>
      <trkpt lat="43.87543" lon="7.28967">
        <ele>784.441048</ele>
        <time>2012-12-09T08:50:07Z</time>
      </trkpt>
      <trkpt lat="43.87544" lon="7.28973">
        <ele>786.441063</ele>
        <time>2012-12-09T08:50:12Z</time>
      </trkpt>
      <trkpt lat="43.87544" lon="7.28977">
        <ele>787.441074</ele>
        <time>2012-12-09T08:50:15Z</time>
      </trkpt>
      <trkpt lat="43.87543" lon="7.28984">
        <ele>788.441086</ele>
        <time>2012-12-09T08:50:20Z</time>
      </trkpt>
      <trkpt lat="43.87543" lon="7.28988">
        <ele>788.441097</ele>
        <time>2012-12-09T08:50:23Z</time>
      </trkpt>
      <trkpt lat="43.87541" lon="7.28993">
        <ele>788.441101</ele>
        <time>2012-12-09T08:50:27Z</time>
      </trkpt>
      <trkpt lat="43.8754" lon="7.29">
        <ele>789.441116</ele>
        <time>2012-12-09T08:50:31Z</time>
      </trkpt>
      <trkpt lat="43.8754" lon="7.29006">
        <ele>790.441128</ele>
        <time>2012-12-09T08:50:34Z</time>
      </trkpt>
      <trkpt lat="43.87541" lon="7.29012">
        <ele>790.441139</ele>
        <time>2012-12-09T08:50:37Z</time>
      </trkpt>
      <trkpt lat="43.87543" lon="7.29018">
        <ele>790.441158</ele>
        <time>2012-12-09T08:50:41Z</time>
      </trkpt>
      <trkpt lat="43.87547" lon="7.29023">
        <ele>791.441177</ele>
        <time>2012-12-09T08:50:45Z</time>
      </trkpt>
      <trkpt lat="43.8755" lon="7.29028">
        <ele>792.441185</ele>
        <time>2012-12-09T08:50:49Z</time>
      </trkpt>
      <trkpt lat="43.87554" lon="7.29031">
        <ele>792.441196</ele>
        <time>2012-12-09T08:50:53Z</time>
      </trkpt>
      <trkpt lat="43.87557" lon="7.29034">
        <ele>795.441212</ele>
        <time>2012-12-09T08:50:57Z</time>
      </trkpt>
      <trkpt lat="43.87559" lon="7.29036">
        <ele>798.441219</ele>
        <time>2012-12-09T08:51:00Z</time>
      </trkpt>
      <trkpt lat="43.87561" lon="7.29042">
        <ele>802.441231</ele>
        <time>2012-12-09T08:51:05Z</time>
      </trkpt>
      <trkpt lat="43.87563" lon="7.29046">
        <ele>802.441238</ele>
        <time>2012-12-09T08:51:09Z</time>
      </trkpt>
      <trkpt lat="43.87565" lon="7.29049">
        <ele>803.441254</ele>
        <time>2012-12-09T08:51:12Z</time>
      </trkpt>
      <trkpt lat="43.87569" lon="7.29054">
        <ele>803.441269</ele>
        <time>2012-12-09T08:51:18Z</time>
      </trkpt>
      <trkpt lat="43.87573" lon="7.29057">
        <ele>805.441284</ele>
        <time>2012-12-09T08:51:23Z</time>
      </trkpt>
      <trkpt lat="43.87576" lon="7.29061">
        <ele>806.441292</ele>
        <time>2012-12-09T08:51:27Z</time>
      </trkpt>
      <trkpt lat="43.87579" lon="7.29063">
        <ele>808.441299</ele>
        <time>2012-12-09T08:51:31Z</time>
      </trkpt>
      <trkpt lat="43.87581" lon="7.29063">
        <ele>809.441299</ele>
        <time>2012-12-09T08:51:34Z</time>
      </trkpt>
      <trkpt lat="43.87583" lon="7.29065">
        <ele>811.441311</ele>
        <time>2012-12-09T08:51:37Z</time>
      </trkpt>
      <trkpt lat="43.87584" lon="7.29069">
        <ele>812.441319</ele>
        <time>2012-12-09T08:51:40Z</time>
      </trkpt>
      <trkpt lat="43.87585" lon="7.29073">
        <ele>814.44133</ele>
        <time>2012-12-09T08:51:43Z</time>
      </trkpt>
      <trkpt lat="43.87586" lon="7.29075">
        <ele>814.441334</ele>
        <time>2012-12-09T08:51:46Z</time>
      </trkpt>
      <trkpt lat="43.87589" lon="7.29078">
        <ele>814.441345</ele>
        <time>2012-12-09T08:51:50Z</time>
      </trkpt>
      <trkpt lat="43.8759" lon="7.29081">
        <ele>814.441353</ele>
        <time>2012-12-09T08:51:54Z</time>
      </trkpt>
      <trkpt lat="43.87592" lon="7.29083">
        <ele>813.441353</ele>
        <time>2012-12-09T08:51:58Z</time>
      </trkpt>
      <trkpt lat="43.87594" lon="7.29085">
        <ele>814.441368</ele>
        <time>2012-12-09T08:52:02Z</time>
      </trkpt>
      <trkpt lat="43.87598" lon="7.29087">
        <ele>816.441376</ele>
        <time>2012-12-09T08:52:07Z</time>
      </trkpt>
      <trkpt lat="43.876" lon="7.29087">
        <ele>818.441376</ele>
        <time>2012-12-09T08:52:11Z</time>
      </trkpt>
      <trkpt lat="43.87602" lon="7.29084">
        <ele>820.441376</ele>
        <time>2012-12-09T08:52:14Z</time>
      </trkpt>
      <trkpt lat="43.87604" lon="7.29078">
        <ele>821.441368</ele>
        <time>2012-12-09T08:52:18Z</time>
      </trkpt>
      <trkpt lat="43.87605" lon="7.29073">
        <ele>822.441353</ele>
        <time>2012-12-09T08:52:21Z</time>
      </trkpt>
      <trkpt lat="43.87605" lon="7.29065">
        <ele>823.441338</ele>
        <time>2012-12-09T08:52:25Z</time>
      </trkpt>
      <trkpt lat="43.87605" lon="7.29059">
        <ele>824.441326</ele>
        <time>2012-12-09T08:52:30Z</time>
      </trkpt>
      <trkpt lat="43.87605" lon="7.29058">
        <ele>823.441322</ele>
        <time>2012-12-09T08:52:33Z</time>
      </trkpt>
      <trkpt lat="43.87604" lon="7.29057">
        <ele>824.441322</ele>
        <time>2012-12-09T08:52:37Z</time>
      </trkpt>
      <trkpt lat="43.87604" lon="7.29056">
        <ele>825.441322</ele>
        <time>2012-12-09T08:52:41Z</time>
      </trkpt>
      <trkpt lat="43.87604" lon="7.29056">
        <ele>825.441315</ele>
        <time>2012-12-09T08:52:44Z</time>
      </trkpt>
      <trkpt lat="43.87604" lon="7.29056">
        <ele>824.441315</ele>
        <time>2012-12-09T08:52:46Z</time>
      </trkpt>
      <trkpt lat="43.87605" lon="7.29055">
        <ele>824.441319</ele>
        <time>2012-12-09T08:52:48Z</time>
      </trkpt>
      <trkpt lat="43.87608" lon="7.29055">
        <ele>824.441322</ele>
        <time>2012-12-09T08:52:51Z</time>
      </trkpt>
      <trkpt lat="43.87613" lon="7.29057">
        <ele>824.441334</ele>
        <time>2012-12-09T08:52:55Z</time>
      </trkpt>
      <trkpt lat="43.87617" lon="7.2906">
        <ele>824.441345</ele>
        <time>2012-12-09T08:52:59Z</time>
      </trkpt>
      <trkpt lat="43.87621" lon="7.29063">
        <ele>824.441357</ele>
        <time>2012-12-09T08:53:03Z</time>
      </trkpt>
      <trkpt lat="43.87625" lon="7.29067">
        <ele>824.441368</ele>
        <time>2012-12-09T08:53:07Z</time>
      </trkpt>
      <trkpt lat="43.87628" lon="7.2907">
        <ele>824.441383</ele>
        <time>2012-12-09T08:53:11Z</time>
      </trkpt>
      <trkpt lat="43.8763" lon="7.29074">
        <ele>824.441391</ele>
        <time>2012-12-09T08:53:15Z</time>
      </trkpt>
      <trkpt lat="43.87631" lon="7.29078">
        <ele>826.441402</ele>
        <time>2012-12-09T08:53:19Z</time>
      </trkpt>
      <trkpt lat="43.87633" lon="7.29082">
        <ele>826.44141</ele>
        <time>2012-12-09T08:53:23Z</time>
      </trkpt>
      <trkpt lat="43.87633" lon="7.29085">
        <ele>827.441414</ele>
        <time>2012-12-09T08:53:26Z</time>
      </trkpt>
      <trkpt lat="43.87632" lon="7.29089">
        <ele>830.441425</ele>
        <time>2012-12-09T08:53:30Z</time>
      </trkpt>
      <trkpt lat="43.8763" lon="7.29094">
        <ele>831.441429</ele>
        <time>2012-12-09T08:53:34Z</time>
      </trkpt>
      <trkpt lat="43.87629" lon="7.29099">
        <ele>829.441441</ele>
        <time>2012-12-09T08:53:37Z</time>
      </trkpt>
      <trkpt lat="43.8763" lon="7.29103">
        <ele>830.441448</ele>
        <time>2012-12-09T08:53:40Z</time>
      </trkpt>
      <trkpt lat="43.87631" lon="7.29107">
        <ele>829.44146</ele>
        <time>2012-12-09T08:53:43Z</time>
      </trkpt>
      <trkpt lat="43.87634" lon="7.2911">
        <ele>829.441467</ele>
        <time>2012-12-09T08:53:46Z</time>
      </trkpt>
      <trkpt lat="43.87637" lon="7.29112">
        <ele>828.441479</ele>
        <time>2012-12-09T08:53:50Z</time>
      </trkpt>
      <trkpt lat="43.8764" lon="7.29113">
        <ele>828.441486</ele>
        <time>2012-12-09T08:53:53Z</time>
      </trkpt>
      <trkpt lat="43.87643" lon="7.29113">
        <ele>828.441486</ele>
        <time>2012-12-09T08:53:56Z</time>
      </trkpt>
      <trkpt lat="43.87645" lon="7.29109">
        <ele>829.441483</ele>
        <time>2012-12-09T08:53:59Z</time>
      </trkpt>
      <trkpt lat="43.87646" lon="7.29102">
        <ele>832.441467</ele>
        <time>2012-12-09T08:54:03Z</time>
      </trkpt>
      <trkpt lat="43.87646" lon="7.29096">
        <ele>834.441456</ele>
        <time>2012-12-09T08:54:07Z</time>
      </trkpt>
      <trkpt lat="43.87646" lon="7.29093">
        <ele>834.441452</ele>
        <time>2012-12-09T08:54:10Z</time>
      </trkpt>
      <trkpt lat="43.87647" lon="7.29091">
        <ele>835.441452</ele>
        <time>2012-12-09T08:54:13Z</time>
      </trkpt>
      <trkpt lat="43.87648" lon="7.2909">
        <ele>835.441448</ele>
        <time>2012-12-09T08:54:16Z</time>
      </trkpt>
      <trkpt lat="43.87652" lon="7.29092">
        <ele>836.44146</ele>
        <time>2012-12-09T08:54:21Z</time>
      </trkpt>
      <trkpt lat="43.87654" lon="7.29093">
        <ele>836.441467</ele>
        <time>2012-12-09T08:54:24Z</time>
      </trkpt>
      <trkpt lat="43.87656" lon="7.29092">
        <ele>838.441463</ele>
        <time>2012-12-09T08:54:27Z</time>
      </trkpt>
      <trkpt lat="43.87659" lon="7.29088">
        <ele>842.44146</ele>
        <time>2012-12-09T08:54:33Z</time>
      </trkpt>
      <trkpt lat="43.8766" lon="7.29087">
        <ele>844.44146</ele>
        <time>2012-12-09T08:54:36Z</time>
      </trkpt>
      <trkpt lat="43.87663" lon="7.29086">
        <ele>846.44146</ele>
        <time>2012-12-09T08:54:40Z</time>
      </trkpt>
      <trkpt lat="43.87664" lon="7.29085">
        <ele>846.44146</ele>
        <time>2012-12-09T08:54:43Z</time>
      </trkpt>
      <trkpt lat="43.87665" lon="7.29083">
        <ele>847.441456</ele>
        <time>2012-12-09T08:54:48Z</time>
      </trkpt>
      <trkpt lat="43.87668" lon="7.2908">
        <ele>849.441452</ele>
        <time>2012-12-09T08:54:53Z</time>
      </trkpt>
      <trkpt lat="43.87669" lon="7.29078">
        <ele>849.441452</ele>
        <time>2012-12-09T08:54:57Z</time>
      </trkpt>
      <trkpt lat="43.87671" lon="7.29077">
        <ele>849.441452</ele>
        <time>2012-12-09T08:55:00Z</time>
      </trkpt>
      <trkpt lat="43.87673" lon="7.29075">
        <ele>850.441452</ele>
        <time>2012-12-09T08:55:05Z</time>
      </trkpt>
      <trkpt lat="43.87674" lon="7.29074">
        <ele>851.441452</ele>
        <time>2012-12-09T08:55:10Z</time>
      </trkpt>
      <trkpt lat="43.87675" lon="7.29074">
        <ele>852.441452</ele>
        <time>2012-12-09T08:55:15Z</time>
      </trkpt>
      <trkpt lat="43.87676" lon="7.29072">
        <ele>854.441452</ele>
        <time>2012-12-09T08:55:20Z</time>
      </trkpt>
      <trkpt lat="43.87677" lon="7.29071">
        <ele>857.441448</ele>
        <time>2012-12-09T08:55:26Z</time>
      </trkpt>
      <trkpt lat="43.87677" lon="7.29071">
        <ele>857.441452</ele>
        <time>2012-12-09T08:55:29Z</time>
      </trkpt>
      <trkpt lat="43.87678" lon="7.29071">
        <ele>857.441448</ele>
        <time>2012-12-09T08:55:33Z</time>
      </trkpt>
      <trkpt lat="43.87679" lon="7.29071">
        <ele>855.441452</ele>
        <time>2012-12-09T08:55:39Z</time>
      </trkpt>
      <trkpt lat="43.87679" lon="7.29072">
        <ele>856.441456</ele>
        <time>2012-12-09T08:55:42Z</time>
      </trkpt>
      <trkpt lat="43.87679" lon="7.29072">
        <ele>856.441456</ele>
        <time>2012-12-09T08:55:46Z</time>
      </trkpt>
      <trkpt lat="43.87679" lon="7.29072">
        <ele>857.441456</ele>
        <time>2012-12-09T08:55:53Z</time>
      </trkpt>
      <trkpt lat="43.87678" lon="7.29073">
        <ele>859.441456</ele>
        <time>2012-12-09T08:55:57Z</time>
      </trkpt>
      <trkpt lat="43.87678" lon="7.29074">
        <ele>857.44146</ele>
        <time>2012-12-09T08:56:02Z</time>
      </trkpt>
      <trkpt lat="43.87679" lon="7.29074">
        <ele>855.44146</ele>
        <time>2012-12-09T08:56:08Z</time>
      </trkpt>
      <trkpt lat="43.87679" lon="7.29074">
        <ele>854.44146</ele>
        <time>2012-12-09T08:56:12Z</time>
      </trkpt>
      <trkpt lat="43.8768" lon="7.29074">
        <ele>852.44146</ele>
        <time>2012-12-09T08:56:16Z</time>
      </trkpt>
      <trkpt lat="43.87681" lon="7.29073">
        <ele>850.44146</ele>
        <time>2012-12-09T08:56:24Z</time>
      </trkpt>
      <trkpt lat="43.87682" lon="7.29072">
        <ele>851.44146</ele>
        <time>2012-12-09T08:56:28Z</time>
      </trkpt>
      <trkpt lat="43.87682" lon="7.29071">
        <ele>854.441452</ele>
        <time>2012-12-09T08:56:37Z</time>
      </trkpt>
      <trkpt lat="43.87681" lon="7.2907">
        <ele>855.441452</ele>
        <time>2012-12-09T08:56:41Z</time>
      </trkpt>
      <trkpt lat="43.8768" lon="7.2907">
        <ele>855.441448</ele>
        <time>2012-12-09T08:56:44Z</time>
      </trkpt>
      <trkpt lat="43.87679" lon="7.2907">
        <ele>856.441444</ele>
        <time>2012-12-09T08:56:48Z</time>
      </trkpt>
      <trkpt lat="43.87678" lon="7.2907">
        <ele>855.441444</ele>
        <time>2012-12-09T08:56:51Z</time>
      </trkpt>
      <trkpt lat="43.87677" lon="7.29069">
        <ele>855.441444</ele>
        <time>2012-12-09T08:56:54Z</time>
      </trkpt>
      <trkpt lat="43.87676" lon="7.29067">
        <ele>854.441437</ele>
        <time>2012-12-09T08:56:57Z</time>
      </trkpt>
      <trkpt lat="43.87676" lon="7.29065">
        <ele>854.441437</ele>
        <time>2012-12-09T08:57:00Z</time>
      </trkpt>
      <trkpt lat="43.87676" lon="7.29063">
        <ele>855.441429</ele>
        <time>2012-12-09T08:57:04Z</time>
      </trkpt>
      <trkpt lat="43.87676" lon="7.29061">
        <ele>856.441425</ele>
        <time>2012-12-09T08:57:07Z</time>
      </trkpt>
      <trkpt lat="43.87677" lon="7.29059">
        <ele>856.441422</ele>
        <time>2012-12-09T08:57:10Z</time>
      </trkpt>
      <trkpt lat="43.87678" lon="7.29055">
        <ele>856.441422</ele>
        <time>2012-12-09T08:57:13Z</time>
      </trkpt>
      <trkpt lat="43.87678" lon="7.29051">
        <ele>857.441406</ele>
        <time>2012-12-09T08:57:16Z</time>
      </trkpt>
      <trkpt lat="43.87677" lon="7.29047">
        <ele>858.441399</ele>
        <time>2012-12-09T08:57:19Z</time>
      </trkpt>
      <trkpt lat="43.87673" lon="7.29042">
        <ele>859.441383</ele>
        <time>2012-12-09T08:57:23Z</time>
      </trkpt>
      <trkpt lat="43.87671" lon="7.29038">
        <ele>859.441372</ele>
        <time>2012-12-09T08:57:27Z</time>
      </trkpt>
      <trkpt lat="43.87669" lon="7.29034">
        <ele>860.44136</ele>
        <time>2012-12-09T08:57:31Z</time>
      </trkpt>
      <trkpt lat="43.87667" lon="7.29029">
        <ele>860.441345</ele>
        <time>2012-12-09T08:57:36Z</time>
      </trkpt>
      <trkpt lat="43.87666" lon="7.29026">
        <ele>861.441338</ele>
        <time>2012-12-09T08:57:40Z</time>
      </trkpt>
      <trkpt lat="43.87666" lon="7.29023">
        <ele>862.441338</ele>
        <time>2012-12-09T08:57:44Z</time>
      </trkpt>
      <trkpt lat="43.87665" lon="7.2902">
        <ele>863.44133</ele>
        <time>2012-12-09T08:57:48Z</time>
      </trkpt>
      <trkpt lat="43.87665" lon="7.29019">
        <ele>863.441326</ele>
        <time>2012-12-09T08:57:51Z</time>
      </trkpt>
      <trkpt lat="43.87667" lon="7.29018">
        <ele>864.441322</ele>
        <time>2012-12-09T08:57:54Z</time>
      </trkpt>
      <trkpt lat="43.87671" lon="7.29019">
        <ele>865.441338</ele>
        <time>2012-12-09T08:57:58Z</time>
      </trkpt>
      <trkpt lat="43.87674" lon="7.29021">
        <ele>866.441341</ele>
        <time>2012-12-09T08:58:01Z</time>
      </trkpt>
      <trkpt lat="43.87678" lon="7.29025">
        <ele>867.441353</ele>
        <time>2012-12-09T08:58:05Z</time>
      </trkpt>
      <trkpt lat="43.87681" lon="7.29028">
        <ele>867.441368</ele>
        <time>2012-12-09T08:58:09Z</time>
      </trkpt>
      <trkpt lat="43.87683" lon="7.29031">
        <ele>868.441372</ele>
        <time>2012-12-09T08:58:13Z</time>
      </trkpt>
      <trkpt lat="43.87685" lon="7.29032">
        <ele>868.441376</ele>
        <time>2012-12-09T08:58:16Z</time>
      </trkpt>
      <trkpt lat="43.87688" lon="7.29033">
        <ele>869.441383</ele>
        <time>2012-12-09T08:58:19Z</time>
      </trkpt>
      <trkpt lat="43.87691" lon="7.29035">
        <ele>870.441391</ele>
        <time>2012-12-09T08:58:22Z</time>
      </trkpt>
      <trkpt lat="43.87693" lon="7.29039">
        <ele>871.441399</ele>
        <time>2012-12-09T08:58:25Z</time>
      </trkpt>
      <trkpt lat="43.87695" lon="7.29044">
        <ele>872.441422</ele>
        <time>2012-12-09T08:58:29Z</time>
      </trkpt>
      <trkpt lat="43.87698" lon="7.29048">
        <ele>872.441429</ele>
        <time>2012-12-09T08:58:33Z</time>
      </trkpt>
      <trkpt lat="43.877" lon="7.29051">
        <ele>872.441437</ele>
        <time>2012-12-09T08:58:36Z</time>
      </trkpt>
      <trkpt lat="43.87702" lon="7.29052">
        <ele>873.441444</ele>
        <time>2012-12-09T08:58:39Z</time>
      </trkpt>
      <trkpt lat="43.87704" lon="7.29051">
        <ele>874.441444</ele>
        <time>2012-12-09T08:58:42Z</time>
      </trkpt>
      <trkpt lat="43.87707" lon="7.2905">
        <ele>876.441444</ele>
        <time>2012-12-09T08:58:46Z</time>
      </trkpt>
      <trkpt lat="43.8771" lon="7.29047">
        <ele>876.441444</ele>
        <time>2012-12-09T08:58:50Z</time>
      </trkpt>
      <trkpt lat="43.87713" lon="7.29045">
        <ele>877.441441</ele>
        <time>2012-12-09T08:58:54Z</time>
      </trkpt>
      <trkpt lat="43.87715" lon="7.29044">
        <ele>878.441444</ele>
        <time>2012-12-09T08:58:57Z</time>
      </trkpt>
      <trkpt lat="43.87718" lon="7.29045">
        <ele>879.441452</ele>
        <time>2012-12-09T08:59:00Z</time>
      </trkpt>
      <trkpt lat="43.8772" lon="7.29047">
        <ele>880.44146</ele>
        <time>2012-12-09T08:59:03Z</time>
      </trkpt>
      <trkpt lat="43.87723" lon="7.29051">
        <ele>881.441475</ele>
        <time>2012-12-09T08:59:07Z</time>
      </trkpt>
      <trkpt lat="43.87725" lon="7.29054">
        <ele>881.441475</ele>
        <time>2012-12-09T08:59:10Z</time>
      </trkpt>
      <trkpt lat="43.87727" lon="7.29055">
        <ele>882.441483</ele>
        <time>2012-12-09T08:59:13Z</time>
      </trkpt>
      <trkpt lat="43.87729" lon="7.29056">
        <ele>883.44149</ele>
        <time>2012-12-09T08:59:16Z</time>
      </trkpt>
      <trkpt lat="43.87732" lon="7.29056">
        <ele>883.44149</ele>
        <time>2012-12-09T08:59:19Z</time>
      </trkpt>
      <trkpt lat="43.87735" lon="7.29055">
        <ele>883.441498</ele>
        <time>2012-12-09T08:59:23Z</time>
      </trkpt>
      <trkpt lat="43.87737" lon="7.29055">
        <ele>882.441498</ele>
        <time>2012-12-09T08:59:26Z</time>
      </trkpt>
      <trkpt lat="43.8774" lon="7.29056">
        <ele>883.441502</ele>
        <time>2012-12-09T08:59:30Z</time>
      </trkpt>
      <trkpt lat="43.87743" lon="7.29057">
        <ele>886.441513</ele>
        <time>2012-12-09T08:59:34Z</time>
      </trkpt>
      <trkpt lat="43.87746" lon="7.29059">
        <ele>887.441521</ele>
        <time>2012-12-09T08:59:37Z</time>
      </trkpt>
      <trkpt lat="43.87748" lon="7.29062">
        <ele>888.441525</ele>
        <time>2012-12-09T08:59:40Z</time>
      </trkpt>
      <trkpt lat="43.8775" lon="7.29066">
        <ele>888.441536</ele>
        <time>2012-12-09T08:59:44Z</time>
      </trkpt>
      <trkpt lat="43.87752" lon="7.2907">
        <ele>888.441551</ele>
        <time>2012-12-09T08:59:48Z</time>
      </trkpt>
      <trkpt lat="43.87753" lon="7.29075">
        <ele>889.441559</ele>
        <time>2012-12-09T08:59:54Z</time>
      </trkpt>
      <trkpt lat="43.87753" lon="7.29075">
        <ele>890.441559</ele>
        <time>2012-12-09T08:59:58Z</time>
      </trkpt>
      <trkpt lat="43.87753" lon="7.29076">
        <ele>891.441566</ele>
        <time>2012-12-09T09:00:01Z</time>
      </trkpt>
      <trkpt lat="43.87753" lon="7.29075">
        <ele>893.441559</ele>
        <time>2012-12-09T09:00:05Z</time>
      </trkpt>
      <trkpt lat="43.87753" lon="7.29075">
        <ele>893.441559</ele>
        <time>2012-12-09T09:00:08Z</time>
      </trkpt>
      <trkpt lat="43.87753" lon="7.29075">
        <ele>892.441559</ele>
        <time>2012-12-09T09:00:13Z</time>
      </trkpt>
      <trkpt lat="43.87753" lon="7.29074">
        <ele>891.441559</ele>
        <time>2012-12-09T09:00:17Z</time>
      </trkpt>
      <trkpt lat="43.87753" lon="7.29074">
        <ele>891.441559</ele>
        <time>2012-12-09T09:00:20Z</time>
      </trkpt>
      <trkpt lat="43.87753" lon="7.29075">
        <ele>891.441559</ele>
        <time>2012-12-09T09:00:23Z</time>
      </trkpt>
      <trkpt lat="43.87757" lon="7.29082">
        <ele>891.441582</ele>
        <time>2012-12-09T09:00:29Z</time>
      </trkpt>
      <trkpt lat="43.8776" lon="7.29087">
        <ele>892.441597</ele>
        <time>2012-12-09T09:00:33Z</time>
      </trkpt>
      <trkpt lat="43.87763" lon="7.29091">
        <ele>893.441608</ele>
        <time>2012-12-09T09:00:37Z</time>
      </trkpt>
      <trkpt lat="43.87766" lon="7.29094">
        <ele>893.441616</ele>
        <time>2012-12-09T09:00:40Z</time>
      </trkpt>
      <trkpt lat="43.8777" lon="7.29095">
        <ele>894.441628</ele>
        <time>2012-12-09T09:00:44Z</time>
      </trkpt>
      <trkpt lat="43.87773" lon="7.29096">
        <ele>895.441628</ele>
        <time>2012-12-09T09:00:47Z</time>
      </trkpt>
      <trkpt lat="43.87778" lon="7.29099">
        <ele>896.441643</ele>
        <time>2012-12-09T09:00:52Z</time>
      </trkpt>
      <trkpt lat="43.87781" lon="7.291">
        <ele>897.441647</ele>
        <time>2012-12-09T09:00:56Z</time>
      </trkpt>
      <trkpt lat="43.87783" lon="7.29102">
        <ele>898.441654</ele>
        <time>2012-12-09T09:00:58Z</time>
      </trkpt>
      <trkpt lat="43.87784" lon="7.29107">
        <ele>899.441669</ele>
        <time>2012-12-09T09:01:01Z</time>
      </trkpt>
      <trkpt lat="43.87785" lon="7.29113">
        <ele>900.441681</ele>
        <time>2012-12-09T09:01:05Z</time>
      </trkpt>
      <trkpt lat="43.87785" lon="7.2912">
        <ele>900.441696</ele>
        <time>2012-12-09T09:01:09Z</time>
      </trkpt>
      <trkpt lat="43.87785" lon="7.29124">
        <ele>900.441704</ele>
        <time>2012-12-09T09:01:12Z</time>
      </trkpt>
      <trkpt lat="43.87787" lon="7.29129">
        <ele>900.441715</ele>
        <time>2012-12-09T09:01:15Z</time>
      </trkpt>
      <trkpt lat="43.87789" lon="7.29132">
        <ele>901.441727</ele>
        <time>2012-12-09T09:01:18Z</time>
      </trkpt>
      <trkpt lat="43.87792" lon="7.29135">
        <ele>902.441734</ele>
        <time>2012-12-09T09:01:21Z</time>
      </trkpt>
      <trkpt lat="43.87796" lon="7.29136">
        <ele>903.441742</ele>
        <time>2012-12-09T09:01:25Z</time>
      </trkpt>
      <trkpt lat="43.87802" lon="7.29137">
        <ele>904.441757</ele>
        <time>2012-12-09T09:01:30Z</time>
      </trkpt>
      <trkpt lat="43.87807" lon="7.29138">
        <ele>905.441761</ele>
        <time>2012-12-09T09:01:35Z</time>
      </trkpt>
      <trkpt lat="43.87812" lon="7.29139">
        <ele>905.441772</ele>
        <time>2012-12-09T09:01:39Z</time>
      </trkpt>
      <trkpt lat="43.87817" lon="7.29138">
        <ele>906.44178</ele>
        <time>2012-12-09T09:01:44Z</time>
      </trkpt>
      <trkpt lat="43.87821" lon="7.29138">
        <ele>906.44178</ele>
        <time>2012-12-09T09:01:48Z</time>
      </trkpt>
      <trkpt lat="43.87827" lon="7.29136">
        <ele>907.441784</ele>
        <time>2012-12-09T09:01:53Z</time>
      </trkpt>
      <trkpt lat="43.87831" lon="7.29134">
        <ele>908.441788</ele>
        <time>2012-12-09T09:01:57Z</time>
      </trkpt>
      <trkpt lat="43.87836" lon="7.29131">
        <ele>909.441784</ele>
        <time>2012-12-09T09:02:02Z</time>
      </trkpt>
      <trkpt lat="43.87841" lon="7.29128">
        <ele>910.441788</ele>
        <time>2012-12-09T09:02:06Z</time>
      </trkpt>
      <trkpt lat="43.87845" lon="7.29124">
        <ele>910.441788</ele>
        <time>2012-12-09T09:02:11Z</time>
      </trkpt>
      <trkpt lat="43.87849" lon="7.29122">
        <ele>912.441788</ele>
        <time>2012-12-09T09:02:15Z</time>
      </trkpt>
      <trkpt lat="43.87852" lon="7.2912">
        <ele>912.441788</ele>
        <time>2012-12-09T09:02:19Z</time>
      </trkpt>
      <trkpt lat="43.87857" lon="7.29118">
        <ele>913.441788</ele>
        <time>2012-12-09T09:02:24Z</time>
      </trkpt>
      <trkpt lat="43.87861" lon="7.29117">
        <ele>914.441792</ele>
        <time>2012-12-09T09:02:28Z</time>
      </trkpt>
      <trkpt lat="43.87865" lon="7.29114">
        <ele>915.441795</ele>
        <time>2012-12-09T09:02:32Z</time>
      </trkpt>
      <trkpt lat="43.87871" lon="7.2911">
        <ele>916.441795</ele>
        <time>2012-12-09T09:02:37Z</time>
      </trkpt>
      <trkpt lat="43.87876" lon="7.29108">
        <ele>916.441792</ele>
        <time>2012-12-09T09:02:41Z</time>
      </trkpt>
      <trkpt lat="43.87883" lon="7.29105">
        <ele>916.441795</ele>
        <time>2012-12-09T09:02:47Z</time>
      </trkpt>
      <trkpt lat="43.87887" lon="7.29103">
        <ele>916.441799</ele>
        <time>2012-12-09T09:02:51Z</time>
      </trkpt>
      <trkpt lat="43.87891" lon="7.29102">
        <ele>915.441799</ele>
        <time>2012-12-09T09:02:55Z</time>
      </trkpt>
      <trkpt lat="43.87895" lon="7.291">
        <ele>915.441803</ele>
        <time>2012-12-09T09:02:59Z</time>
      </trkpt>
      <trkpt lat="43.87896" lon="7.29099">
        <ele>915.441803</ele>
        <time>2012-12-09T09:03:02Z</time>
      </trkpt>
      <trkpt lat="43.87902" lon="7.29096">
        <ele>915.441803</ele>
        <time>2012-12-09T09:03:08Z</time>
      </trkpt>
      <trkpt lat="43.87905" lon="7.29094">
        <ele>915.441803</ele>
        <time>2012-12-09T09:03:11Z</time>
      </trkpt>
      <trkpt lat="43.8791" lon="7.29088">
        <ele>916.441803</ele>
        <time>2012-12-09T09:03:16Z</time>
      </trkpt>
      <trkpt lat="43.87914" lon="7.29084">
        <ele>916.441795</ele>
        <time>2012-12-09T09:03:20Z</time>
      </trkpt>
      <trkpt lat="43.87918" lon="7.29079">
        <ele>917.441788</ele>
        <time>2012-12-09T09:03:25Z</time>
      </trkpt>
      <trkpt lat="43.87921" lon="7.29075">
        <ele>917.441788</ele>
        <time>2012-12-09T09:03:29Z</time>
      </trkpt>
      <trkpt lat="43.87924" lon="7.2907">
        <ele>918.441784</ele>
        <time>2012-12-09T09:03:33Z</time>
      </trkpt>
      <trkpt lat="43.87926" lon="7.29068">
        <ele>918.44178</ele>
        <time>2012-12-09T09:03:36Z</time>
      </trkpt>
      <trkpt lat="43.8793" lon="7.29064">
        <ele>919.441772</ele>
        <time>2012-12-09T09:03:40Z</time>
      </trkpt>
      <trkpt lat="43.87934" lon="7.29058">
        <ele>919.441769</ele>
        <time>2012-12-09T09:03:45Z</time>
      </trkpt>
      <trkpt lat="43.87938" lon="7.29054">
        <ele>919.441765</ele>
        <time>2012-12-09T09:03:49Z</time>
      </trkpt>
      <trkpt lat="43.87941" lon="7.2905">
        <ele>919.441765</ele>
        <time>2012-12-09T09:03:53Z</time>
      </trkpt>
      <trkpt lat="43.87945" lon="7.29045">
        <ele>919.441757</ele>
        <time>2012-12-09T09:03:58Z</time>
      </trkpt>
      <trkpt lat="43.87949" lon="7.29039">
        <ele>919.44175</ele>
        <time>2012-12-09T09:04:03Z</time>
      </trkpt>
      <trkpt lat="43.87953" lon="7.29033">
        <ele>919.441742</ele>
        <time>2012-12-09T09:04:08Z</time>
      </trkpt>
      <trkpt lat="43.87955" lon="7.29027">
        <ele>919.441734</ele>
        <time>2012-12-09T09:04:12Z</time>
      </trkpt>
      <trkpt lat="43.87956" lon="7.29021">
        <ele>918.441727</ele>
        <time>2012-12-09T09:04:17Z</time>
      </trkpt>
      <trkpt lat="43.87958" lon="7.29015">
        <ele>918.441715</ele>
        <time>2012-12-09T09:04:22Z</time>
      </trkpt>
      <trkpt lat="43.87959" lon="7.29011">
        <ele>918.441711</ele>
        <time>2012-12-09T09:04:26Z</time>
      </trkpt>
      <trkpt lat="43.8796" lon="7.29005">
        <ele>917.441696</ele>
        <time>2012-12-09T09:04:32Z</time>
      </trkpt>
      <trkpt lat="43.87961" lon="7.28999">
        <ele>917.441689</ele>
        <time>2012-12-09T09:04:36Z</time>
      </trkpt>
      <trkpt lat="43.87962" lon="7.28994">
        <ele>917.441673</ele>
        <time>2012-12-09T09:04:40Z</time>
      </trkpt>
      <trkpt lat="43.87963" lon="7.28989">
        <ele>918.441666</ele>
        <time>2012-12-09T09:04:44Z</time>
      </trkpt>
      <trkpt lat="43.87966" lon="7.2898">
        <ele>920.441658</ele>
        <time>2012-12-09T09:04:50Z</time>
      </trkpt>
      <trkpt lat="43.87967" lon="7.28975">
        <ele>920.441643</ele>
        <time>2012-12-09T09:04:54Z</time>
      </trkpt>
      <trkpt lat="43.87968" lon="7.28969">
        <ele>920.441635</ele>
        <time>2012-12-09T09:04:58Z</time>
      </trkpt>
      <trkpt lat="43.87969" lon="7.28963">
        <ele>919.44162</ele>
        <time>2012-12-09T09:05:02Z</time>
      </trkpt>
      <trkpt lat="43.8797" lon="7.28957">
        <ele>919.441608</ele>
        <time>2012-12-09T09:05:06Z</time>
      </trkpt>
      <trkpt lat="43.8797" lon="7.28952">
        <ele>918.441605</ele>
        <time>2012-12-09T09:05:10Z</time>
      </trkpt>
      <trkpt lat="43.87972" lon="7.28946">
        <ele>919.441589</ele>
        <time>2012-12-09T09:05:15Z</time>
      </trkpt>
      <trkpt lat="43.87973" lon="7.28942">
        <ele>920.441582</ele>
        <time>2012-12-09T09:05:19Z</time>
      </trkpt>
      <trkpt lat="43.87975" lon="7.28937">
        <ele>920.441574</ele>
        <time>2012-12-09T09:05:23Z</time>
      </trkpt>
      <trkpt lat="43.87976" lon="7.28932">
        <ele>920.441566</ele>
        <time>2012-12-09T09:05:28Z</time>
      </trkpt>
      <trkpt lat="43.87978" lon="7.28927">
        <ele>920.441559</ele>
        <time>2012-12-09T09:05:32Z</time>
      </trkpt>
      <trkpt lat="43.87979" lon="7.28921">
        <ele>920.441547</ele>
        <time>2012-12-09T09:05:37Z</time>
      </trkpt>
      <trkpt lat="43.8798" lon="7.28918">
        <ele>920.441544</ele>
        <time>2012-12-09T09:05:40Z</time>
      </trkpt>
      <trkpt lat="43.87981" lon="7.28914">
        <ele>920.44154</ele>
        <time>2012-12-09T09:05:44Z</time>
      </trkpt>
      <trkpt lat="43.87984" lon="7.28909">
        <ele>921.441528</ele>
        <time>2012-12-09T09:05:49Z</time>
      </trkpt>
      <trkpt lat="43.87988" lon="7.28902">
        <ele>921.441525</ele>
        <time>2012-12-09T09:05:55Z</time>
      </trkpt>
      <trkpt lat="43.87991" lon="7.28899">
        <ele>922.441521</ele>
        <time>2012-12-09T09:05:58Z</time>
      </trkpt>
      <trkpt lat="43.87992" lon="7.28894">
        <ele>922.441509</ele>
        <time>2012-12-09T09:06:02Z</time>
      </trkpt>
      <trkpt lat="43.87995" lon="7.28889">
        <ele>923.441505</ele>
        <time>2012-12-09T09:06:07Z</time>
      </trkpt>
      <trkpt lat="43.87998" lon="7.28885">
        <ele>923.441502</ele>
        <time>2012-12-09T09:06:11Z</time>
      </trkpt>
      <trkpt lat="43.88" lon="7.2888">
        <ele>923.44149</ele>
        <time>2012-12-09T09:06:16Z</time>
      </trkpt>
      <trkpt lat="43.88003" lon="7.28873">
        <ele>924.441483</ele>
        <time>2012-12-09T09:06:24Z</time>
      </trkpt>
      <trkpt lat="43.88007" lon="7.28863">
        <ele>925.441463</ele>
        <time>2012-12-09T09:06:31Z</time>
      </trkpt>
      <trkpt lat="43.8801" lon="7.28858">
        <ele>926.44146</ele>
        <time>2012-12-09T09:06:35Z</time>
      </trkpt>
      <trkpt lat="43.88014" lon="7.28849">
        <ele>927.441444</ele>
        <time>2012-12-09T09:06:42Z</time>
      </trkpt>
      <trkpt lat="43.88018" lon="7.28841">
        <ele>928.441437</ele>
        <time>2012-12-09T09:06:48Z</time>
      </trkpt>
      <trkpt lat="43.88021" lon="7.28834">
        <ele>928.441425</ele>
        <time>2012-12-09T09:06:53Z</time>
      </trkpt>
      <trkpt lat="43.88023" lon="7.2883">
        <ele>929.441422</ele>
        <time>2012-12-09T09:06:57Z</time>
      </trkpt>
      <trkpt lat="43.88025" lon="7.28826">
        <ele>930.441414</ele>
        <time>2012-12-09T09:07:01Z</time>
      </trkpt>
      <trkpt lat="43.88026" lon="7.2882">
        <ele>929.441399</ele>
        <time>2012-12-09T09:07:07Z</time>
      </trkpt>
      <trkpt lat="43.88027" lon="7.28814">
        <ele>932.441399</ele>
        <time>2012-12-09T09:07:11Z</time>
      </trkpt>
      <trkpt lat="43.88028" lon="7.28807">
        <ele>934.441383</ele>
        <time>2012-12-09T09:07:17Z</time>
      </trkpt>
      <trkpt lat="43.88029" lon="7.28806">
        <ele>935.441383</ele>
        <time>2012-12-09T09:07:20Z</time>
      </trkpt>
      <trkpt lat="43.8803" lon="7.28806">
        <ele>936.44138</ele>
        <time>2012-12-09T09:07:23Z</time>
      </trkpt>
      <trkpt lat="43.88032" lon="7.28806">
        <ele>937.441383</ele>
        <time>2012-12-09T09:07:29Z</time>
      </trkpt>
      <trkpt lat="43.88033" lon="7.28808">
        <ele>937.441391</ele>
        <time>2012-12-09T09:07:33Z</time>
      </trkpt>
      <trkpt lat="43.88036" lon="7.28811">
        <ele>937.441402</ele>
        <time>2012-12-09T09:07:38Z</time>
      </trkpt>
      <trkpt lat="43.88039" lon="7.28814">
        <ele>938.441414</ele>
        <time>2012-12-09T09:07:42Z</time>
      </trkpt>
      <trkpt lat="43.88043" lon="7.28817">
        <ele>940.441422</ele>
        <time>2012-12-09T09:07:46Z</time>
      </trkpt>
      <trkpt lat="43.88045" lon="7.2882">
        <ele>940.441433</ele>
        <time>2012-12-09T09:07:49Z</time>
      </trkpt>
      <trkpt lat="43.88047" lon="7.28824">
        <ele>941.441441</ele>
        <time>2012-12-09T09:07:52Z</time>
      </trkpt>
      <trkpt lat="43.88049" lon="7.2883">
        <ele>941.44146</ele>
        <time>2012-12-09T09:07:57Z</time>
      </trkpt>
      <trkpt lat="43.88052" lon="7.28836">
        <ele>941.441475</ele>
        <time>2012-12-09T09:08:01Z</time>
      </trkpt>
      <trkpt lat="43.88055" lon="7.2884">
        <ele>940.441483</ele>
        <time>2012-12-09T09:08:05Z</time>
      </trkpt>
      <trkpt lat="43.88059" lon="7.28845">
        <ele>941.441498</ele>
        <time>2012-12-09T09:08:10Z</time>
      </trkpt>
      <trkpt lat="43.88063" lon="7.28849">
        <ele>941.441517</ele>
        <time>2012-12-09T09:08:15Z</time>
      </trkpt>
      <trkpt lat="43.88068" lon="7.28852">
        <ele>942.441528</ele>
        <time>2012-12-09T09:08:20Z</time>
      </trkpt>
      <trkpt lat="43.88071" lon="7.28854">
        <ele>940.441536</ele>
        <time>2012-12-09T09:08:24Z</time>
      </trkpt>
      <trkpt lat="43.88073" lon="7.28855">
        <ele>941.441544</ele>
        <time>2012-12-09T09:08:27Z</time>
      </trkpt>
      <trkpt lat="43.88076" lon="7.28856">
        <ele>943.441544</ele>
        <time>2012-12-09T09:08:31Z</time>
      </trkpt>
      <trkpt lat="43.88079" lon="7.28857">
        <ele>943.441551</ele>
        <time>2012-12-09T09:08:35Z</time>
      </trkpt>
      <trkpt lat="43.88087" lon="7.28862">
        <ele>944.441574</ele>
        <time>2012-12-09T09:08:43Z</time>
      </trkpt>
      <trkpt lat="43.88091" lon="7.28865">
        <ele>943.441582</ele>
        <time>2012-12-09T09:08:47Z</time>
      </trkpt>
      <trkpt lat="43.88095" lon="7.28868">
        <ele>944.441597</ele>
        <time>2012-12-09T09:08:52Z</time>
      </trkpt>
      <trkpt lat="43.88099" lon="7.28871">
        <ele>944.441608</ele>
        <time>2012-12-09T09:08:56Z</time>
      </trkpt>
      <trkpt lat="43.88103" lon="7.28872">
        <ele>943.441616</ele>
        <time>2012-12-09T09:09:00Z</time>
      </trkpt>
      <trkpt lat="43.88108" lon="7.28872">
        <ele>944.441624</ele>
        <time>2012-12-09T09:09:04Z</time>
      </trkpt>
      <trkpt lat="43.88115" lon="7.28874">
        <ele>942.441635</ele>
        <time>2012-12-09T09:09:10Z</time>
      </trkpt>
      <trkpt lat="43.88118" lon="7.28876">
        <ele>944.441643</ele>
        <time>2012-12-09T09:09:13Z</time>
      </trkpt>
      <trkpt lat="43.88124" lon="7.28881">
        <ele>946.441666</ele>
        <time>2012-12-09T09:09:18Z</time>
      </trkpt>
      <trkpt lat="43.88129" lon="7.28886">
        <ele>946.441681</ele>
        <time>2012-12-09T09:09:23Z</time>
      </trkpt>
      <trkpt lat="43.88134" lon="7.28892">
        <ele>948.441696</ele>
        <time>2012-12-09T09:09:29Z</time>
      </trkpt>
      <trkpt lat="43.88137" lon="7.28894">
        <ele>948.441704</ele>
        <time>2012-12-09T09:09:32Z</time>
      </trkpt>
      <trkpt lat="43.88139" lon="7.28896">
        <ele>948.441711</ele>
        <time>2012-12-09T09:09:35Z</time>
      </trkpt>
      <trkpt lat="43.88144" lon="7.28897">
        <ele>949.441727</ele>
        <time>2012-12-09T09:09:40Z</time>
      </trkpt>
      <trkpt lat="43.88148" lon="7.28899">
        <ele>949.44173</ele>
        <time>2012-12-09T09:09:43Z</time>
      </trkpt>
      <trkpt lat="43.88154" lon="7.289">
        <ele>950.441742</ele>
        <time>2012-12-09T09:09:49Z</time>
      </trkpt>
      <trkpt lat="43.8816" lon="7.28901">
        <ele>950.441753</ele>
        <time>2012-12-09T09:09:53Z</time>
      </trkpt>
      <trkpt lat="43.88165" lon="7.28903">
        <ele>951.441765</ele>
        <time>2012-12-09T09:09:57Z</time>
      </trkpt>
      <trkpt lat="43.88169" lon="7.28904">
        <ele>950.441772</ele>
        <time>2012-12-09T09:10:01Z</time>
      </trkpt>
      <trkpt lat="43.88174" lon="7.28907">
        <ele>951.44178</ele>
        <time>2012-12-09T09:10:07Z</time>
      </trkpt>
      <trkpt lat="43.88179" lon="7.28907">
        <ele>951.441788</ele>
        <time>2012-12-09T09:10:11Z</time>
      </trkpt>
      <trkpt lat="43.88184" lon="7.28908">
        <ele>951.441799</ele>
        <time>2012-12-09T09:10:16Z</time>
      </trkpt>
      <trkpt lat="43.88188" lon="7.28909">
        <ele>951.441807</ele>
        <time>2012-12-09T09:10:21Z</time>
      </trkpt>
      <trkpt lat="43.88195" lon="7.2891">
        <ele>951.441822</ele>
        <time>2012-12-09T09:10:29Z</time>
      </trkpt>
      <trkpt lat="43.882" lon="7.28911">
        <ele>951.441826</ele>
        <time>2012-12-09T09:10:34Z</time>
      </trkpt>
      <trkpt lat="43.88203" lon="7.28912">
        <ele>953.441833</ele>
        <time>2012-12-09T09:10:38Z</time>
      </trkpt>
      <trkpt lat="43.88207" lon="7.28914">
        <ele>953.441845</ele>
        <time>2012-12-09T09:10:42Z</time>
      </trkpt>
      <trkpt lat="43.88213" lon="7.28917">
        <ele>954.44186</ele>
        <time>2012-12-09T09:10:47Z</time>
      </trkpt>
      <trkpt lat="43.88215" lon="7.28919">
        <ele>954.441864</ele>
        <time>2012-12-09T09:10:50Z</time>
      </trkpt>
      <trkpt lat="43.88221" lon="7.28921">
        <ele>955.441875</ele>
        <time>2012-12-09T09:10:57Z</time>
      </trkpt>
      <trkpt lat="43.88229" lon="7.28925">
        <ele>955.441898</ele>
        <time>2012-12-09T09:11:04Z</time>
      </trkpt>
      <trkpt lat="43.88234" lon="7.28928">
        <ele>956.44191</ele>
        <time>2012-12-09T09:11:08Z</time>
      </trkpt>
      <trkpt lat="43.88242" lon="7.28933">
        <ele>957.441933</ele>
        <time>2012-12-09T09:11:15Z</time>
      </trkpt>
      <trkpt lat="43.88247" lon="7.28935">
        <ele>957.44194</ele>
        <time>2012-12-09T09:11:19Z</time>
      </trkpt>
      <trkpt lat="43.88256" lon="7.28937">
        <ele>955.441956</ele>
        <time>2012-12-09T09:11:27Z</time>
      </trkpt>
      <trkpt lat="43.88261" lon="7.28938">
        <ele>954.441967</ele>
        <time>2012-12-09T09:11:31Z</time>
      </trkpt>
      <trkpt lat="43.88267" lon="7.28938">
        <ele>953.441971</ele>
        <time>2012-12-09T09:11:35Z</time>
      </trkpt>
      <trkpt lat="43.88273" lon="7.28937">
        <ele>953.441982</ele>
        <time>2012-12-09T09:11:39Z</time>
      </trkpt>
      <trkpt lat="43.88278" lon="7.28935">
        <ele>952.441982</ele>
        <time>2012-12-09T09:11:43Z</time>
      </trkpt>
      <trkpt lat="43.88283" lon="7.28931">
        <ele>951.441982</ele>
        <time>2012-12-09T09:11:48Z</time>
      </trkpt>
      <trkpt lat="43.88286" lon="7.28929">
        <ele>951.441986</ele>
        <time>2012-12-09T09:11:51Z</time>
      </trkpt>
      <trkpt lat="43.8829" lon="7.28928">
        <ele>950.441986</ele>
        <time>2012-12-09T09:11:54Z</time>
      </trkpt>
      <trkpt lat="43.88294" lon="7.28929">
        <ele>950.441994</ele>
        <time>2012-12-09T09:11:58Z</time>
      </trkpt>
      <trkpt lat="43.88301" lon="7.2893">
        <ele>950.442001</ele>
        <time>2012-12-09T09:12:03Z</time>
      </trkpt>
      <trkpt lat="43.88306" lon="7.28931">
        <ele>950.442013</ele>
        <time>2012-12-09T09:12:07Z</time>
      </trkpt>
      <trkpt lat="43.88312" lon="7.28932">
        <ele>951.442024</ele>
        <time>2012-12-09T09:12:12Z</time>
      </trkpt>
      <trkpt lat="43.88314" lon="7.28933">
        <ele>951.442032</ele>
        <time>2012-12-09T09:12:15Z</time>
      </trkpt>
      <trkpt lat="43.88316" lon="7.28935">
        <ele>952.442036</ele>
        <time>2012-12-09T09:12:19Z</time>
      </trkpt>
      <trkpt lat="43.88319" lon="7.28936">
        <ele>953.442043</ele>
        <time>2012-12-09T09:12:23Z</time>
      </trkpt>
      <trkpt lat="43.88321" lon="7.28937">
        <ele>953.442047</ele>
        <time>2012-12-09T09:12:26Z</time>
      </trkpt>
      <trkpt lat="43.88325" lon="7.28936">
        <ele>954.442051</ele>
        <time>2012-12-09T09:12:30Z</time>
      </trkpt>
      <trkpt lat="43.88328" lon="7.28936">
        <ele>955.442055</ele>
        <time>2012-12-09T09:12:33Z</time>
      </trkpt>
      <trkpt lat="43.88332" lon="7.28937">
        <ele>956.442062</ele>
        <time>2012-12-09T09:12:37Z</time>
      </trkpt>
      <trkpt lat="43.88338" lon="7.28937">
        <ele>956.44207</ele>
        <time>2012-12-09T09:12:42Z</time>
      </trkpt>
      <trkpt lat="43.88342" lon="7.28938">
        <ele>958.44207</ele>
        <time>2012-12-09T09:12:45Z</time>
      </trkpt>
      <trkpt lat="43.88345" lon="7.28939">
        <ele>958.442081</ele>
        <time>2012-12-09T09:12:48Z</time>
      </trkpt>
      <trkpt lat="43.88348" lon="7.28942">
        <ele>959.442093</ele>
        <time>2012-12-09T09:12:52Z</time>
      </trkpt>
      <trkpt lat="43.88351" lon="7.28945">
        <ele>960.442101</ele>
        <time>2012-12-09T09:12:56Z</time>
      </trkpt>
      <trkpt lat="43.88353" lon="7.28947">
        <ele>960.442108</ele>
        <time>2012-12-09T09:13:00Z</time>
      </trkpt>
      <trkpt lat="43.88355" lon="7.28948">
        <ele>960.442116</ele>
        <time>2012-12-09T09:13:03Z</time>
      </trkpt>
      <trkpt lat="43.88358" lon="7.28949">
        <ele>962.442116</ele>
        <time>2012-12-09T09:13:07Z</time>
      </trkpt>
      <trkpt lat="43.88363" lon="7.2895">
        <ele>963.442131</ele>
        <time>2012-12-09T09:13:13Z</time>
      </trkpt>
      <trkpt lat="43.88367" lon="7.28951">
        <ele>964.442135</ele>
        <time>2012-12-09T09:13:18Z</time>
      </trkpt>
      <trkpt lat="43.88372" lon="7.28952">
        <ele>965.442146</ele>
        <time>2012-12-09T09:13:22Z</time>
      </trkpt>
      <trkpt lat="43.88376" lon="7.28953">
        <ele>966.442154</ele>
        <time>2012-12-09T09:13:26Z</time>
      </trkpt>
      <trkpt lat="43.88382" lon="7.28955">
        <ele>967.442165</ele>
        <time>2012-12-09T09:13:31Z</time>
      </trkpt>
      <trkpt lat="43.88384" lon="7.28956">
        <ele>967.442169</ele>
        <time>2012-12-09T09:13:34Z</time>
      </trkpt>
      <trkpt lat="43.88388" lon="7.28959">
        <ele>968.442184</ele>
        <time>2012-12-09T09:13:38Z</time>
      </trkpt>
      <trkpt lat="43.88392" lon="7.28963">
        <ele>967.442192</ele>
        <time>2012-12-09T09:13:42Z</time>
      </trkpt>
      <trkpt lat="43.88397" lon="7.28967">
        <ele>968.442211</ele>
        <time>2012-12-09T09:13:47Z</time>
      </trkpt>
      <trkpt lat="43.884" lon="7.28969">
        <ele>969.442215</ele>
        <time>2012-12-09T09:13:50Z</time>
      </trkpt>
      <trkpt lat="43.88404" lon="7.2897">
        <ele>969.442223</ele>
        <time>2012-12-09T09:13:54Z</time>
      </trkpt>
      <trkpt lat="43.88409" lon="7.28971">
        <ele>970.442238</ele>
        <time>2012-12-09T09:13:59Z</time>
      </trkpt>
      <trkpt lat="43.88413" lon="7.28973">
        <ele>971.442245</ele>
        <time>2012-12-09T09:14:02Z</time>
      </trkpt>
      <trkpt lat="43.88417" lon="7.28977">
        <ele>971.442261</ele>
        <time>2012-12-09T09:14:07Z</time>
      </trkpt>
      <trkpt lat="43.88424" lon="7.28983">
        <ele>971.442276</ele>
        <time>2012-12-09T09:14:13Z</time>
      </trkpt>
      <trkpt lat="43.88429" lon="7.28987">
        <ele>972.442295</ele>
        <time>2012-12-09T09:14:18Z</time>
      </trkpt>
      <trkpt lat="43.88434" lon="7.28992">
        <ele>972.442314</ele>
        <time>2012-12-09T09:14:23Z</time>
      </trkpt>
      <trkpt lat="43.8844" lon="7.28998">
        <ele>972.442329</ele>
        <time>2012-12-09T09:14:28Z</time>
      </trkpt>
      <trkpt lat="43.88444" lon="7.29001">
        <ele>972.442345</ele>
        <time>2012-12-09T09:14:32Z</time>
      </trkpt>
      <trkpt lat="43.88448" lon="7.29004">
        <ele>972.442352</ele>
        <time>2012-12-09T09:14:36Z</time>
      </trkpt>
      <trkpt lat="43.8845" lon="7.29005">
        <ele>972.44236</ele>
        <time>2012-12-09T09:14:39Z</time>
      </trkpt>
      <trkpt lat="43.88453" lon="7.29006">
        <ele>972.442368</ele>
        <time>2012-12-09T09:14:42Z</time>
      </trkpt>
      <trkpt lat="43.88458" lon="7.29005">
        <ele>972.442375</ele>
        <time>2012-12-09T09:14:46Z</time>
      </trkpt>
      <trkpt lat="43.88465" lon="7.29006">
        <ele>973.442383</ele>
        <time>2012-12-09T09:14:51Z</time>
      </trkpt>
      <trkpt lat="43.8847" lon="7.29008">
        <ele>974.44239</ele>
        <time>2012-12-09T09:14:56Z</time>
      </trkpt>
      <trkpt lat="43.88474" lon="7.29009">
        <ele>974.442398</ele>
        <time>2012-12-09T09:15:00Z</time>
      </trkpt>
      <trkpt lat="43.88478" lon="7.29009">
        <ele>975.442406</ele>
        <time>2012-12-09T09:15:03Z</time>
      </trkpt>
      <trkpt lat="43.88482" lon="7.29011">
        <ele>975.442417</ele>
        <time>2012-12-09T09:15:07Z</time>
      </trkpt>
      <trkpt lat="43.88485" lon="7.29013">
        <ele>976.442425</ele>
        <time>2012-12-09T09:15:10Z</time>
      </trkpt>
      <trkpt lat="43.88489" lon="7.29018">
        <ele>976.44244</ele>
        <time>2012-12-09T09:15:15Z</time>
      </trkpt>
      <trkpt lat="43.88493" lon="7.29023">
        <ele>976.442451</ele>
        <time>2012-12-09T09:15:20Z</time>
      </trkpt>
      <trkpt lat="43.88495" lon="7.29024">
        <ele>978.442459</ele>
        <time>2012-12-09T09:15:23Z</time>
      </trkpt>
      <trkpt lat="43.88498" lon="7.29025">
        <ele>979.442467</ele>
        <time>2012-12-09T09:15:27Z</time>
      </trkpt>
      <trkpt lat="43.885" lon="7.29026">
        <ele>980.442471</ele>
        <time>2012-12-09T09:15:31Z</time>
      </trkpt>
      <trkpt lat="43.88503" lon="7.29027">
        <ele>979.442474</ele>
        <time>2012-12-09T09:15:35Z</time>
      </trkpt>
      <trkpt lat="43.88505" lon="7.29029">
        <ele>980.442482</ele>
        <time>2012-12-09T09:15:38Z</time>
      </trkpt>
      <trkpt lat="43.88509" lon="7.29034">
        <ele>981.442501</ele>
        <time>2012-12-09T09:15:42Z</time>
      </trkpt>
      <trkpt lat="43.88513" lon="7.29039">
        <ele>980.44252</ele>
        <time>2012-12-09T09:15:47Z</time>
      </trkpt>
      <trkpt lat="43.88516" lon="7.29044">
        <ele>981.442532</ele>
        <time>2012-12-09T09:15:51Z</time>
      </trkpt>
      <trkpt lat="43.88519" lon="7.2905">
        <ele>981.442543</ele>
        <time>2012-12-09T09:15:55Z</time>
      </trkpt>
      <trkpt lat="43.88521" lon="7.29059">
        <ele>982.44257</ele>
        <time>2012-12-09T09:16:00Z</time>
      </trkpt>
      <trkpt lat="43.88522" lon="7.29064">
        <ele>982.442581</ele>
        <time>2012-12-09T09:16:03Z</time>
      </trkpt>
      <trkpt lat="43.88524" lon="7.29069">
        <ele>982.442589</ele>
        <time>2012-12-09T09:16:06Z</time>
      </trkpt>
      <trkpt lat="43.88528" lon="7.29076">
        <ele>982.442612</ele>
        <time>2012-12-09T09:16:12Z</time>
      </trkpt>
      <trkpt lat="43.88532" lon="7.29081">
        <ele>984.442627</ele>
        <time>2012-12-09T09:16:17Z</time>
      </trkpt>
      <trkpt lat="43.88536" lon="7.29085">
        <ele>985.442642</ele>
        <time>2012-12-09T09:16:22Z</time>
      </trkpt>
      <trkpt lat="43.88538" lon="7.29089">
        <ele>985.44265</ele>
        <time>2012-12-09T09:16:26Z</time>
      </trkpt>
      <trkpt lat="43.8854" lon="7.29093">
        <ele>985.442665</ele>
        <time>2012-12-09T09:16:30Z</time>
      </trkpt>
      <trkpt lat="43.88543" lon="7.29098">
        <ele>985.442677</ele>
        <time>2012-12-09T09:16:34Z</time>
      </trkpt>
      <trkpt lat="43.88545" lon="7.291">
        <ele>986.442688</ele>
        <time>2012-12-09T09:16:38Z</time>
      </trkpt>
      <trkpt lat="43.88549" lon="7.29106">
        <ele>986.442696</ele>
        <time>2012-12-09T09:16:44Z</time>
      </trkpt>
      <trkpt lat="43.88553" lon="7.29114">
        <ele>987.442726</ele>
        <time>2012-12-09T09:16:49Z</time>
      </trkpt>
      <trkpt lat="43.88556" lon="7.29118">
        <ele>987.442734</ele>
        <time>2012-12-09T09:16:52Z</time>
      </trkpt>
      <trkpt lat="43.8856" lon="7.29124">
        <ele>987.442753</ele>
        <time>2012-12-09T09:16:56Z</time>
      </trkpt>
      <trkpt lat="43.88567" lon="7.29131">
        <ele>987.442776</ele>
        <time>2012-12-09T09:17:01Z</time>
      </trkpt>
      <trkpt lat="43.88571" lon="7.29136">
        <ele>987.442795</ele>
        <time>2012-12-09T09:17:05Z</time>
      </trkpt>
      <trkpt lat="43.88575" lon="7.29139">
        <ele>988.442802</ele>
        <time>2012-12-09T09:17:08Z</time>
      </trkpt>
      <trkpt lat="43.88579" lon="7.29141">
        <ele>988.442814</ele>
        <time>2012-12-09T09:17:11Z</time>
      </trkpt>
      <trkpt lat="43.88585" lon="7.29142">
        <ele>987.442825</ele>
        <time>2012-12-09T09:17:16Z</time>
      </trkpt>
      <trkpt lat="43.88589" lon="7.29143">
        <ele>987.442833</ele>
        <time>2012-12-09T09:17:20Z</time>
      </trkpt>
      <trkpt lat="43.88594" lon="7.29145">
        <ele>986.442841</ele>
        <time>2012-12-09T09:17:25Z</time>
      </trkpt>
      <trkpt lat="43.88599" lon="7.29148">
        <ele>987.442856</ele>
        <time>2012-12-09T09:17:29Z</time>
      </trkpt>
      <trkpt lat="43.88605" lon="7.29151">
        <ele>987.442871</ele>
        <time>2012-12-09T09:17:34Z</time>
      </trkpt>
      <trkpt lat="43.88609" lon="7.29153">
        <ele>987.442879</ele>
        <time>2012-12-09T09:17:38Z</time>
      </trkpt>
      <trkpt lat="43.88614" lon="7.29155">
        <ele>987.442894</ele>
        <time>2012-12-09T09:17:42Z</time>
      </trkpt>
      <trkpt lat="43.88619" lon="7.29156">
        <ele>987.442902</ele>
        <time>2012-12-09T09:17:46Z</time>
      </trkpt>
      <trkpt lat="43.88624" lon="7.29158">
        <ele>987.442909</ele>
        <time>2012-12-09T09:17:50Z</time>
      </trkpt>
      <trkpt lat="43.88631" lon="7.2916">
        <ele>987.442924</ele>
        <time>2012-12-09T09:17:55Z</time>
      </trkpt>
      <trkpt lat="43.88637" lon="7.29162">
        <ele>986.442936</ele>
        <time>2012-12-09T09:17:59Z</time>
      </trkpt>
      <trkpt lat="43.88643" lon="7.29165">
        <ele>986.442947</ele>
        <time>2012-12-09T09:18:04Z</time>
      </trkpt>
      <trkpt lat="43.88651" lon="7.29169">
        <ele>987.44297</ele>
        <time>2012-12-09T09:18:10Z</time>
      </trkpt>
      <trkpt lat="43.88657" lon="7.29173">
        <ele>987.442986</ele>
        <time>2012-12-09T09:18:15Z</time>
      </trkpt>
      <trkpt lat="43.88662" lon="7.29176">
        <ele>987.442997</ele>
        <time>2012-12-09T09:18:19Z</time>
      </trkpt>
      <trkpt lat="43.88667" lon="7.29179">
        <ele>986.443016</ele>
        <time>2012-12-09T09:18:23Z</time>
      </trkpt>
      <trkpt lat="43.8867" lon="7.29182">
        <ele>986.443024</ele>
        <time>2012-12-09T09:18:26Z</time>
      </trkpt>
      <trkpt lat="43.88673" lon="7.29185">
        <ele>986.443031</ele>
        <time>2012-12-09T09:18:29Z</time>
      </trkpt>
      <trkpt lat="43.88678" lon="7.2919">
        <ele>986.44305</ele>
        <time>2012-12-09T09:18:34Z</time>
      </trkpt>
      <trkpt lat="43.88683" lon="7.29193">
        <ele>986.443062</ele>
        <time>2012-12-09T09:18:38Z</time>
      </trkpt>
      <trkpt lat="43.88688" lon="7.29196">
        <ele>986.443069</ele>
        <time>2012-12-09T09:18:43Z</time>
      </trkpt>
      <trkpt lat="43.88693" lon="7.29197">
        <ele>986.443085</ele>
        <time>2012-12-09T09:18:47Z</time>
      </trkpt>
      <trkpt lat="43.88696" lon="7.29198">
        <ele>984.443092</ele>
        <time>2012-12-09T09:18:50Z</time>
      </trkpt>
      <trkpt lat="43.88702" lon="7.29196">
        <ele>983.443092</ele>
        <time>2012-12-09T09:18:54Z</time>
      </trkpt>
      <trkpt lat="43.88706" lon="7.29195">
        <ele>983.443096</ele>
        <time>2012-12-09T09:18:57Z</time>
      </trkpt>
      <trkpt lat="43.88709" lon="7.29192">
        <ele>983.443092</ele>
        <time>2012-12-09T09:19:00Z</time>
      </trkpt>
      <trkpt lat="43.88713" lon="7.29186">
        <ele>981.443092</ele>
        <time>2012-12-09T09:19:05Z</time>
      </trkpt>
      <trkpt lat="43.88716" lon="7.29182">
        <ele>980.443085</ele>
        <time>2012-12-09T09:19:09Z</time>
      </trkpt>
      <trkpt lat="43.88719" lon="7.29176">
        <ele>978.443077</ele>
        <time>2012-12-09T09:19:13Z</time>
      </trkpt>
      <trkpt lat="43.88722" lon="7.29169">
        <ele>978.443062</ele>
        <time>2012-12-09T09:19:18Z</time>
      </trkpt>
      <trkpt lat="43.88724" lon="7.29163">
        <ele>979.443054</ele>
        <time>2012-12-09T09:19:22Z</time>
      </trkpt>
      <trkpt lat="43.88726" lon="7.29152">
        <ele>978.443039</ele>
        <time>2012-12-09T09:19:30Z</time>
      </trkpt>
      <trkpt lat="43.88726" lon="7.29148">
        <ele>977.443031</ele>
        <time>2012-12-09T09:19:34Z</time>
      </trkpt>
      <trkpt lat="43.88727" lon="7.29142">
        <ele>977.443016</ele>
        <time>2012-12-09T09:19:39Z</time>
      </trkpt>
      <trkpt lat="43.88727" lon="7.29137">
        <ele>977.443008</ele>
        <time>2012-12-09T09:19:43Z</time>
      </trkpt>
      <trkpt lat="43.88728" lon="7.2913">
        <ele>976.442993</ele>
        <time>2012-12-09T09:19:48Z</time>
      </trkpt>
      <trkpt lat="43.88729" lon="7.29124">
        <ele>976.442986</ele>
        <time>2012-12-09T09:19:52Z</time>
      </trkpt>
      <trkpt lat="43.8873" lon="7.29118">
        <ele>975.442974</ele>
        <time>2012-12-09T09:19:56Z</time>
      </trkpt>
      <trkpt lat="43.88731" lon="7.29114">
        <ele>974.442963</ele>
        <time>2012-12-09T09:19:59Z</time>
      </trkpt>
      <trkpt lat="43.88731" lon="7.29109">
        <ele>974.442951</ele>
        <time>2012-12-09T09:20:03Z</time>
      </trkpt>
      <trkpt lat="43.88729" lon="7.291">
        <ele>975.442932</ele>
        <time>2012-12-09T09:20:09Z</time>
      </trkpt>
      <trkpt lat="43.88728" lon="7.29093">
        <ele>973.442917</ele>
        <time>2012-12-09T09:20:14Z</time>
      </trkpt>
      <trkpt lat="43.88728" lon="7.29087">
        <ele>973.442909</ele>
        <time>2012-12-09T09:20:18Z</time>
      </trkpt>
      <trkpt lat="43.88727" lon="7.29083">
        <ele>974.442898</ele>
        <time>2012-12-09T09:20:22Z</time>
      </trkpt>
      <trkpt lat="43.88727" lon="7.2908">
        <ele>974.44289</ele>
        <time>2012-12-09T09:20:26Z</time>
      </trkpt>
      <trkpt lat="43.88727" lon="7.29075">
        <ele>974.442879</ele>
        <time>2012-12-09T09:20:31Z</time>
      </trkpt>
      <trkpt lat="43.88727" lon="7.29072">
        <ele>973.442871</ele>
        <time>2012-12-09T09:20:34Z</time>
      </trkpt>
      <trkpt lat="43.88726" lon="7.29067">
        <ele>973.442863</ele>
        <time>2012-12-09T09:20:39Z</time>
      </trkpt>
      <trkpt lat="43.88726" lon="7.29065">
        <ele>972.44286</ele>
        <time>2012-12-09T09:20:42Z</time>
      </trkpt>
      <trkpt lat="43.88725" lon="7.2906">
        <ele>972.442848</ele>
        <time>2012-12-09T09:20:45Z</time>
      </trkpt>
      <trkpt lat="43.88723" lon="7.29054">
        <ele>971.442829</ele>
        <time>2012-12-09T09:20:49Z</time>
      </trkpt>
      <trkpt lat="43.88722" lon="7.29049">
        <ele>970.442822</ele>
        <time>2012-12-09T09:20:53Z</time>
      </trkpt>
      <trkpt lat="43.88721" lon="7.29043">
        <ele>967.442802</ele>
        <time>2012-12-09T09:20:58Z</time>
      </trkpt>
      <trkpt lat="43.8872" lon="7.29036">
        <ele>966.442787</ele>
        <time>2012-12-09T09:21:03Z</time>
      </trkpt>
      <trkpt lat="43.88721" lon="7.29031">
        <ele>966.44278</ele>
        <time>2012-12-09T09:21:08Z</time>
      </trkpt>
      <trkpt lat="43.88721" lon="7.29028">
        <ele>966.442776</ele>
        <time>2012-12-09T09:21:11Z</time>
      </trkpt>
      <trkpt lat="43.88722" lon="7.29025">
        <ele>966.442768</ele>
        <time>2012-12-09T09:21:17Z</time>
      </trkpt>
      <trkpt lat="43.88723" lon="7.29021">
        <ele>965.442764</ele>
        <time>2012-12-09T09:21:21Z</time>
      </trkpt>
      <trkpt lat="43.88724" lon="7.29017">
        <ele>965.442757</ele>
        <time>2012-12-09T09:21:24Z</time>
      </trkpt>
      <trkpt lat="43.88725" lon="7.29011">
        <ele>964.442745</ele>
        <time>2012-12-09T09:21:28Z</time>
      </trkpt>
      <trkpt lat="43.88725" lon="7.29007">
        <ele>965.442741</ele>
        <time>2012-12-09T09:21:31Z</time>
      </trkpt>
      <trkpt lat="43.88725" lon="7.29003">
        <ele>964.442726</ele>
        <time>2012-12-09T09:21:34Z</time>
      </trkpt>
      <trkpt lat="43.88726" lon="7.28994">
        <ele>962.442711</ele>
        <time>2012-12-09T09:21:39Z</time>
      </trkpt>
      <trkpt lat="43.88726" lon="7.2899">
        <ele>961.442703</ele>
        <time>2012-12-09T09:21:42Z</time>
      </trkpt>
      <trkpt lat="43.88726" lon="7.28987">
        <ele>960.442696</ele>
        <time>2012-12-09T09:21:45Z</time>
      </trkpt>
      <trkpt lat="43.88726" lon="7.28982">
        <ele>957.442684</ele>
        <time>2012-12-09T09:21:49Z</time>
      </trkpt>
      <trkpt lat="43.88726" lon="7.28978">
        <ele>956.442677</ele>
        <time>2012-12-09T09:21:52Z</time>
      </trkpt>
      <trkpt lat="43.88725" lon="7.28971">
        <ele>954.442665</ele>
        <time>2012-12-09T09:21:56Z</time>
      </trkpt>
      <trkpt lat="43.88725" lon="7.28964">
        <ele>954.44265</ele>
        <time>2012-12-09T09:21:59Z</time>
      </trkpt>
      <trkpt lat="43.88725" lon="7.28955">
        <ele>954.442627</ele>
        <time>2012-12-09T09:22:03Z</time>
      </trkpt>
      <trkpt lat="43.88726" lon="7.28945">
        <ele>952.442612</ele>
        <time>2012-12-09T09:22:08Z</time>
      </trkpt>
      <trkpt lat="43.88727" lon="7.28937">
        <ele>952.442596</ele>
        <time>2012-12-09T09:22:12Z</time>
      </trkpt>
      <trkpt lat="43.88727" lon="7.28932">
        <ele>951.442581</ele>
        <time>2012-12-09T09:22:15Z</time>
      </trkpt>
      <trkpt lat="43.88726" lon="7.28927">
        <ele>950.442574</ele>
        <time>2012-12-09T09:22:18Z</time>
      </trkpt>
      <trkpt lat="43.88727" lon="7.28916">
        <ele>949.442551</ele>
        <time>2012-12-09T09:22:24Z</time>
      </trkpt>
      <trkpt lat="43.88728" lon="7.28912">
        <ele>949.442547</ele>
        <time>2012-12-09T09:22:27Z</time>
      </trkpt>
      <trkpt lat="43.88729" lon="7.28908">
        <ele>948.442539</ele>
        <time>2012-12-09T09:22:30Z</time>
      </trkpt>
      <trkpt lat="43.8873" lon="7.28908">
        <ele>948.442539</ele>
        <time>2012-12-09T09:22:32Z</time>
      </trkpt>
      <trkpt lat="43.88732" lon="7.28908">
        <ele>948.442543</ele>
        <time>2012-12-09T09:22:35Z</time>
      </trkpt>
      <trkpt lat="43.88736" lon="7.2891">
        <ele>949.442551</ele>
        <time>2012-12-09T09:22:39Z</time>
      </trkpt>
      <trkpt lat="43.88739" lon="7.28912">
        <ele>950.442558</ele>
        <time>2012-12-09T09:22:42Z</time>
      </trkpt>
      <trkpt lat="43.88745" lon="7.28913">
        <ele>950.442574</ele>
        <time>2012-12-09T09:22:46Z</time>
      </trkpt>
      <trkpt lat="43.8875" lon="7.28913">
        <ele>950.442577</ele>
        <time>2012-12-09T09:22:50Z</time>
      </trkpt>
      <trkpt lat="43.88755" lon="7.28912">
        <ele>949.442581</ele>
        <time>2012-12-09T09:22:54Z</time>
      </trkpt>
      <trkpt lat="43.88763" lon="7.2891">
        <ele>948.442589</ele>
        <time>2012-12-09T09:23:00Z</time>
      </trkpt>
      <trkpt lat="43.88769" lon="7.28907">
        <ele>947.442589</ele>
        <time>2012-12-09T09:23:05Z</time>
      </trkpt>
      <trkpt lat="43.88773" lon="7.28906">
        <ele>947.442596</ele>
        <time>2012-12-09T09:23:09Z</time>
      </trkpt>
      <trkpt lat="43.88776" lon="7.28905">
        <ele>946.442596</ele>
        <time>2012-12-09T09:23:13Z</time>
      </trkpt>
      <trkpt lat="43.88779" lon="7.28904">
        <ele>945.442596</ele>
        <time>2012-12-09T09:23:16Z</time>
      </trkpt>
      <trkpt lat="43.8878" lon="7.28902">
        <ele>944.442593</ele>
        <time>2012-12-09T09:23:19Z</time>
      </trkpt>
      <trkpt lat="43.88781" lon="7.289">
        <ele>944.442589</ele>
        <time>2012-12-09T09:23:22Z</time>
      </trkpt>
      <trkpt lat="43.88781" lon="7.28897">
        <ele>944.442589</ele>
        <time>2012-12-09T09:23:25Z</time>
      </trkpt>
      <trkpt lat="43.8878" lon="7.28891">
        <ele>944.442574</ele>
        <time>2012-12-09T09:23:29Z</time>
      </trkpt>
      <trkpt lat="43.88778" lon="7.28886">
        <ele>944.442558</ele>
        <time>2012-12-09T09:23:33Z</time>
      </trkpt>
      <trkpt lat="43.88775" lon="7.28881">
        <ele>945.442543</ele>
        <time>2012-12-09T09:23:37Z</time>
      </trkpt>
      <trkpt lat="43.88773" lon="7.28876">
        <ele>945.442532</ele>
        <time>2012-12-09T09:23:41Z</time>
      </trkpt>
      <trkpt lat="43.88771" lon="7.28871">
        <ele>945.44252</ele>
        <time>2012-12-09T09:23:45Z</time>
      </trkpt>
      <trkpt lat="43.88767" lon="7.28864">
        <ele>946.442501</ele>
        <time>2012-12-09T09:23:51Z</time>
      </trkpt>
      <trkpt lat="43.88764" lon="7.28859">
        <ele>946.442486</ele>
        <time>2012-12-09T09:23:56Z</time>
      </trkpt>
      <trkpt lat="43.88762" lon="7.28853">
        <ele>948.442471</ele>
        <time>2012-12-09T09:24:01Z</time>
      </trkpt>
      <trkpt lat="43.8876" lon="7.28849">
        <ele>948.442459</ele>
        <time>2012-12-09T09:24:05Z</time>
      </trkpt>
      <trkpt lat="43.88759" lon="7.28846">
        <ele>949.442451</ele>
        <time>2012-12-09T09:24:08Z</time>
      </trkpt>
      <trkpt lat="43.88757" lon="7.28844">
        <ele>949.442444</ele>
        <time>2012-12-09T09:24:12Z</time>
      </trkpt>
      <trkpt lat="43.88756" lon="7.2884">
        <ele>950.442436</ele>
        <time>2012-12-09T09:24:15Z</time>
      </trkpt>
      <trkpt lat="43.88756" lon="7.28836">
        <ele>950.442429</ele>
        <time>2012-12-09T09:24:18Z</time>
      </trkpt>
      <trkpt lat="43.88756" lon="7.28833">
        <ele>950.442425</ele>
        <time>2012-12-09T09:24:21Z</time>
      </trkpt>
      <trkpt lat="43.88758" lon="7.28832">
        <ele>950.442421</ele>
        <time>2012-12-09T09:24:24Z</time>
      </trkpt>
      <trkpt lat="43.88762" lon="7.28831">
        <ele>951.442429</ele>
        <time>2012-12-09T09:24:28Z</time>
      </trkpt>
      <trkpt lat="43.88766" lon="7.28831">
        <ele>952.442429</ele>
        <time>2012-12-09T09:24:31Z</time>
      </trkpt>
      <trkpt lat="43.88769" lon="7.28832">
        <ele>952.442436</ele>
        <time>2012-12-09T09:24:34Z</time>
      </trkpt>
      <trkpt lat="43.88773" lon="7.28834">
        <ele>953.442448</ele>
        <time>2012-12-09T09:24:39Z</time>
      </trkpt>
      <trkpt lat="43.88777" lon="7.28834">
        <ele>953.442451</ele>
        <time>2012-12-09T09:24:43Z</time>
      </trkpt>
      <trkpt lat="43.8878" lon="7.28835">
        <ele>954.442455</ele>
        <time>2012-12-09T09:24:47Z</time>
      </trkpt>
      <trkpt lat="43.88786" lon="7.28836">
        <ele>954.442467</ele>
        <time>2012-12-09T09:24:53Z</time>
      </trkpt>
      <trkpt lat="43.88791" lon="7.28836">
        <ele>954.442474</ele>
        <time>2012-12-09T09:24:58Z</time>
      </trkpt>
      <trkpt lat="43.88795" lon="7.28836">
        <ele>953.442478</ele>
        <time>2012-12-09T09:25:02Z</time>
      </trkpt>
      <trkpt lat="43.888" lon="7.28835">
        <ele>953.442486</ele>
        <time>2012-12-09T09:25:06Z</time>
      </trkpt>
      <trkpt lat="43.88803" lon="7.28833">
        <ele>952.442482</ele>
        <time>2012-12-09T09:25:09Z</time>
      </trkpt>
      <trkpt lat="43.88807" lon="7.2883">
        <ele>952.442482</ele>
        <time>2012-12-09T09:25:12Z</time>
      </trkpt>
      <trkpt lat="43.88809" lon="7.28827">
        <ele>952.442482</ele>
        <time>2012-12-09T09:25:15Z</time>
      </trkpt>
      <trkpt lat="43.88812" lon="7.28825">
        <ele>951.442482</ele>
        <time>2012-12-09T09:25:18Z</time>
      </trkpt>
      <trkpt lat="43.88815" lon="7.28824">
        <ele>952.442482</ele>
        <time>2012-12-09T09:25:21Z</time>
      </trkpt>
      <trkpt lat="43.88819" lon="7.28824">
        <ele>951.44249</ele>
        <time>2012-12-09T09:25:26Z</time>
      </trkpt>
      <trkpt lat="43.88823" lon="7.28824">
        <ele>951.442497</ele>
        <time>2012-12-09T09:25:30Z</time>
      </trkpt>
      <trkpt lat="43.88826" lon="7.28824">
        <ele>951.442497</ele>
        <time>2012-12-09T09:25:33Z</time>
      </trkpt>
      <trkpt lat="43.88831" lon="7.28826">
        <ele>952.442513</ele>
        <time>2012-12-09T09:25:38Z</time>
      </trkpt>
      <trkpt lat="43.88837" lon="7.28827">
        <ele>952.44252</ele>
        <time>2012-12-09T09:25:43Z</time>
      </trkpt>
      <trkpt lat="43.88842" lon="7.28828">
        <ele>953.442528</ele>
        <time>2012-12-09T09:25:47Z</time>
      </trkpt>
      <trkpt lat="43.88846" lon="7.28828">
        <ele>952.442535</ele>
        <time>2012-12-09T09:25:51Z</time>
      </trkpt>
      <trkpt lat="43.8885" lon="7.28827">
        <ele>952.442535</ele>
        <time>2012-12-09T09:25:55Z</time>
      </trkpt>
      <trkpt lat="43.88855" lon="7.28827">
        <ele>952.442543</ele>
        <time>2012-12-09T09:25:59Z</time>
      </trkpt>
      <trkpt lat="43.88858" lon="7.28826">
        <ele>953.442547</ele>
        <time>2012-12-09T09:26:03Z</time>
      </trkpt>
      <trkpt lat="43.88864" lon="7.28826">
        <ele>952.442554</ele>
        <time>2012-12-09T09:26:08Z</time>
      </trkpt>
      <trkpt lat="43.88867" lon="7.28826">
        <ele>953.442558</ele>
        <time>2012-12-09T09:26:11Z</time>
      </trkpt>
      <trkpt lat="43.88871" lon="7.28827">
        <ele>953.442562</ele>
        <time>2012-12-09T09:26:15Z</time>
      </trkpt>
      <trkpt lat="43.88875" lon="7.28827">
        <ele>953.442574</ele>
        <time>2012-12-09T09:26:19Z</time>
      </trkpt>
      <trkpt lat="43.8888" lon="7.28829">
        <ele>954.442581</ele>
        <time>2012-12-09T09:26:24Z</time>
      </trkpt>
      <trkpt lat="43.88884" lon="7.2883">
        <ele>954.442589</ele>
        <time>2012-12-09T09:26:28Z</time>
      </trkpt>
      <trkpt lat="43.88888" lon="7.28831">
        <ele>954.442596</ele>
        <time>2012-12-09T09:26:32Z</time>
      </trkpt>
      <trkpt lat="43.88892" lon="7.28832">
        <ele>953.442604</ele>
        <time>2012-12-09T09:26:36Z</time>
      </trkpt>
      <trkpt lat="43.88896" lon="7.28833">
        <ele>953.442612</ele>
        <time>2012-12-09T09:26:40Z</time>
      </trkpt>
      <trkpt lat="43.889" lon="7.28834">
        <ele>953.442619</ele>
        <time>2012-12-09T09:26:45Z</time>
      </trkpt>
      <trkpt lat="43.88906" lon="7.28835">
        <ele>955.442631</ele>
        <time>2012-12-09T09:26:51Z</time>
      </trkpt>
      <trkpt lat="43.88909" lon="7.28836">
        <ele>956.442635</ele>
        <time>2012-12-09T09:26:55Z</time>
      </trkpt>
      <trkpt lat="43.88911" lon="7.28837">
        <ele>956.442635</ele>
        <time>2012-12-09T09:26:58Z</time>
      </trkpt>
      <trkpt lat="43.88916" lon="7.28838">
        <ele>956.44265</ele>
        <time>2012-12-09T09:27:03Z</time>
      </trkpt>
      <trkpt lat="43.88919" lon="7.28839">
        <ele>956.442657</ele>
        <time>2012-12-09T09:27:07Z</time>
      </trkpt>
      <trkpt lat="43.88921" lon="7.28839">
        <ele>957.442657</ele>
        <time>2012-12-09T09:27:11Z</time>
      </trkpt>
      <trkpt lat="43.88923" lon="7.2884">
        <ele>957.442665</ele>
        <time>2012-12-09T09:27:15Z</time>
      </trkpt>
      <trkpt lat="43.88926" lon="7.2884">
        <ele>956.442665</ele>
        <time>2012-12-09T09:27:19Z</time>
      </trkpt>
      <trkpt lat="43.8893" lon="7.28841">
        <ele>956.442669</ele>
        <time>2012-12-09T09:27:24Z</time>
      </trkpt>
      <trkpt lat="43.88933" lon="7.28841">
        <ele>957.44268</ele>
        <time>2012-12-09T09:27:28Z</time>
      </trkpt>
      <trkpt lat="43.88935" lon="7.2884">
        <ele>957.44268</ele>
        <time>2012-12-09T09:27:31Z</time>
      </trkpt>
      <trkpt lat="43.88937" lon="7.28839">
        <ele>958.442677</ele>
        <time>2012-12-09T09:27:34Z</time>
      </trkpt>
      <trkpt lat="43.8894" lon="7.28835">
        <ele>958.442677</ele>
        <time>2012-12-09T09:27:38Z</time>
      </trkpt>
      <trkpt lat="43.88942" lon="7.2883">
        <ele>958.442665</ele>
        <time>2012-12-09T09:27:44Z</time>
      </trkpt>
      <trkpt lat="43.88944" lon="7.28826">
        <ele>959.442665</ele>
        <time>2012-12-09T09:27:48Z</time>
      </trkpt>
      <trkpt lat="43.88945" lon="7.28821">
        <ele>958.442654</ele>
        <time>2012-12-09T09:27:52Z</time>
      </trkpt>
      <trkpt lat="43.88947" lon="7.28815">
        <ele>958.442642</ele>
        <time>2012-12-09T09:27:56Z</time>
      </trkpt>
      <trkpt lat="43.88949" lon="7.2881">
        <ele>958.442635</ele>
        <time>2012-12-09T09:28:00Z</time>
      </trkpt>
      <trkpt lat="43.8895" lon="7.28803">
        <ele>958.442623</ele>
        <time>2012-12-09T09:28:05Z</time>
      </trkpt>
      <trkpt lat="43.8895" lon="7.288">
        <ele>958.442619</ele>
        <time>2012-12-09T09:28:08Z</time>
      </trkpt>
      <trkpt lat="43.88951" lon="7.28797">
        <ele>958.442612</ele>
        <time>2012-12-09T09:28:11Z</time>
      </trkpt>
      <trkpt lat="43.88952" lon="7.28793">
        <ele>959.442604</ele>
        <time>2012-12-09T09:28:16Z</time>
      </trkpt>
      <trkpt lat="43.88952" lon="7.2879">
        <ele>959.4426</ele>
        <time>2012-12-09T09:28:19Z</time>
      </trkpt>
      <trkpt lat="43.88952" lon="7.28786">
        <ele>958.442593</ele>
        <time>2012-12-09T09:28:24Z</time>
      </trkpt>
      <trkpt lat="43.88952" lon="7.28783">
        <ele>957.442585</ele>
        <time>2012-12-09T09:28:28Z</time>
      </trkpt>
      <trkpt lat="43.88952" lon="7.28779">
        <ele>958.442574</ele>
        <time>2012-12-09T09:28:32Z</time>
      </trkpt>
      <trkpt lat="43.88952" lon="7.28775">
        <ele>958.442566</ele>
        <time>2012-12-09T09:28:37Z</time>
      </trkpt>
      <trkpt lat="43.88951" lon="7.2877">
        <ele>959.442551</ele>
        <time>2012-12-09T09:28:43Z</time>
      </trkpt>
      <trkpt lat="43.88951" lon="7.28766">
        <ele>959.442543</ele>
        <time>2012-12-09T09:28:47Z</time>
      </trkpt>
      <trkpt lat="43.8895" lon="7.28763">
        <ele>961.442535</ele>
        <time>2012-12-09T09:28:51Z</time>
      </trkpt>
      <trkpt lat="43.8895" lon="7.2876">
        <ele>961.442532</ele>
        <time>2012-12-09T09:28:54Z</time>
      </trkpt>
      <trkpt lat="43.8895" lon="7.28757">
        <ele>962.442528</ele>
        <time>2012-12-09T09:28:59Z</time>
      </trkpt>
      <trkpt lat="43.88951" lon="7.28754">
        <ele>963.442524</ele>
        <time>2012-12-09T09:29:03Z</time>
      </trkpt>
      <trkpt lat="43.88952" lon="7.28751">
        <ele>965.442513</ele>
        <time>2012-12-09T09:29:08Z</time>
      </trkpt>
      <trkpt lat="43.88951" lon="7.28748">
        <ele>966.442513</ele>
        <time>2012-12-09T09:29:12Z</time>
      </trkpt>
      <trkpt lat="43.88951" lon="7.28746">
        <ele>966.442505</ele>
        <time>2012-12-09T09:29:17Z</time>
      </trkpt>
      <trkpt lat="43.8895" lon="7.28744">
        <ele>966.442505</ele>
        <time>2012-12-09T09:29:21Z</time>
      </trkpt>
      <trkpt lat="43.8895" lon="7.28742">
        <ele>966.442497</ele>
        <time>2012-12-09T09:29:25Z</time>
      </trkpt>
      <trkpt lat="43.8895" lon="7.28739">
        <ele>966.44249</ele>
        <time>2012-12-09T09:29:29Z</time>
      </trkpt>
      <trkpt lat="43.88948" lon="7.28737">
        <ele>967.442482</ele>
        <time>2012-12-09T09:29:33Z</time>
      </trkpt>
      <trkpt lat="43.88947" lon="7.28735">
        <ele>967.442482</ele>
        <time>2012-12-09T09:29:37Z</time>
      </trkpt>
      <trkpt lat="43.88947" lon="7.28735">
        <ele>968.442482</ele>
        <time>2012-12-09T09:29:41Z</time>
      </trkpt>
      <trkpt lat="43.88947" lon="7.28734">
        <ele>969.442482</ele>
        <time>2012-12-09T09:29:44Z</time>
      </trkpt>
      <trkpt lat="43.88947" lon="7.28732">
        <ele>968.442474</ele>
        <time>2012-12-09T09:29:48Z</time>
      </trkpt>
      <trkpt lat="43.88947" lon="7.28729">
        <ele>968.442467</ele>
        <time>2012-12-09T09:29:53Z</time>
      </trkpt>
      <trkpt lat="43.88948" lon="7.28725">
        <ele>968.442459</ele>
        <time>2012-12-09T09:29:56Z</time>
      </trkpt>
      <trkpt lat="43.8895" lon="7.28721">
        <ele>969.442451</ele>
        <time>2012-12-09T09:29:59Z</time>
      </trkpt>
      <trkpt lat="43.88951" lon="7.28718">
        <ele>969.442448</ele>
        <time>2012-12-09T09:30:02Z</time>
      </trkpt>
      <trkpt lat="43.88954" lon="7.28716">
        <ele>969.442448</ele>
        <time>2012-12-09T09:30:05Z</time>
      </trkpt>
      <trkpt lat="43.88958" lon="7.28714">
        <ele>969.442451</ele>
        <time>2012-12-09T09:30:09Z</time>
      </trkpt>
      <trkpt lat="43.88961" lon="7.28714">
        <ele>970.442451</ele>
        <time>2012-12-09T09:30:13Z</time>
      </trkpt>
      <trkpt lat="43.88964" lon="7.28712">
        <ele>970.442451</ele>
        <time>2012-12-09T09:30:16Z</time>
      </trkpt>
      <trkpt lat="43.88968" lon="7.2871">
        <ele>970.442455</ele>
        <time>2012-12-09T09:30:20Z</time>
      </trkpt>
      <trkpt lat="43.88971" lon="7.28707">
        <ele>969.442451</ele>
        <time>2012-12-09T09:30:24Z</time>
      </trkpt>
      <trkpt lat="43.88972" lon="7.28705">
        <ele>969.442455</ele>
        <time>2012-12-09T09:30:28Z</time>
      </trkpt>
      <trkpt lat="43.88974" lon="7.28703">
        <ele>970.442451</ele>
        <time>2012-12-09T09:30:31Z</time>
      </trkpt>
      <trkpt lat="43.88976" lon="7.28697">
        <ele>970.442436</ele>
        <time>2012-12-09T09:30:36Z</time>
      </trkpt>
      <trkpt lat="43.88977" lon="7.28696">
        <ele>971.442436</ele>
        <time>2012-12-09T09:30:40Z</time>
      </trkpt>
      <trkpt lat="43.88978" lon="7.28693">
        <ele>972.442436</ele>
        <time>2012-12-09T09:30:44Z</time>
      </trkpt>
      <trkpt lat="43.8898" lon="7.2869">
        <ele>972.442429</ele>
        <time>2012-12-09T09:30:48Z</time>
      </trkpt>
      <trkpt lat="43.88982" lon="7.28687">
        <ele>972.442429</ele>
        <time>2012-12-09T09:30:51Z</time>
      </trkpt>
      <trkpt lat="43.88986" lon="7.28684">
        <ele>972.442421</ele>
        <time>2012-12-09T09:30:55Z</time>
      </trkpt>
      <trkpt lat="43.88989" lon="7.2868">
        <ele>972.442421</ele>
        <time>2012-12-09T09:30:59Z</time>
      </trkpt>
      <trkpt lat="43.88994" lon="7.28677">
        <ele>972.442421</ele>
        <time>2012-12-09T09:31:03Z</time>
      </trkpt>
      <trkpt lat="43.88999" lon="7.28675">
        <ele>971.442421</ele>
        <time>2012-12-09T09:31:07Z</time>
      </trkpt>
      <trkpt lat="43.89004" lon="7.28673">
        <ele>971.442429</ele>
        <time>2012-12-09T09:31:11Z</time>
      </trkpt>
      <trkpt lat="43.8901" lon="7.28671">
        <ele>971.442432</ele>
        <time>2012-12-09T09:31:16Z</time>
      </trkpt>
      <trkpt lat="43.89013" lon="7.2867">
        <ele>971.442432</ele>
        <time>2012-12-09T09:31:20Z</time>
      </trkpt>
      <trkpt lat="43.89013" lon="7.2867">
        <ele>971.442436</ele>
        <time>2012-12-09T09:31:23Z</time>
      </trkpt>
      <trkpt lat="43.89014" lon="7.2867">
        <ele>971.442436</ele>
        <time>2012-12-09T09:31:27Z</time>
      </trkpt>
      <trkpt lat="43.89014" lon="7.2867">
        <ele>971.442436</ele>
        <time>2012-12-09T09:31:32Z</time>
      </trkpt>
      <trkpt lat="43.89016" lon="7.28669">
        <ele>970.442436</ele>
        <time>2012-12-09T09:31:36Z</time>
      </trkpt>
      <trkpt lat="43.89019" lon="7.28667">
        <ele>970.442436</ele>
        <time>2012-12-09T09:31:40Z</time>
      </trkpt>
      <trkpt lat="43.89023" lon="7.28666">
        <ele>969.442436</ele>
        <time>2012-12-09T09:31:44Z</time>
      </trkpt>
      <trkpt lat="43.89026" lon="7.28663">
        <ele>969.442436</ele>
        <time>2012-12-09T09:31:48Z</time>
      </trkpt>
      <trkpt lat="43.8903" lon="7.28661">
        <ele>969.442436</ele>
        <time>2012-12-09T09:31:52Z</time>
      </trkpt>
      <trkpt lat="43.89033" lon="7.28659">
        <ele>969.442436</ele>
        <time>2012-12-09T09:31:55Z</time>
      </trkpt>
      <trkpt lat="43.89035" lon="7.28656">
        <ele>970.442436</ele>
        <time>2012-12-09T09:31:58Z</time>
      </trkpt>
      <trkpt lat="43.89037" lon="7.28652">
        <ele>970.442432</ele>
        <time>2012-12-09T09:32:01Z</time>
      </trkpt>
      <trkpt lat="43.89038" lon="7.28646">
        <ele>971.442421</ele>
        <time>2012-12-09T09:32:05Z</time>
      </trkpt>
      <trkpt lat="43.89039" lon="7.28643">
        <ele>971.442413</ele>
        <time>2012-12-09T09:32:08Z</time>
      </trkpt>
      <trkpt lat="43.8904" lon="7.28641">
        <ele>971.442413</ele>
        <time>2012-12-09T09:32:11Z</time>
      </trkpt>
      <trkpt lat="43.89042" lon="7.28638">
        <ele>972.44241</ele>
        <time>2012-12-09T09:32:15Z</time>
      </trkpt>
      <trkpt lat="43.89046" lon="7.28637">
        <ele>971.442406</ele>
        <time>2012-12-09T09:32:19Z</time>
      </trkpt>
      <trkpt lat="43.8905" lon="7.28635">
        <ele>972.44241</ele>
        <time>2012-12-09T09:32:23Z</time>
      </trkpt>
      <trkpt lat="43.89054" lon="7.28632">
        <ele>972.44241</ele>
        <time>2012-12-09T09:32:27Z</time>
      </trkpt>
      <trkpt lat="43.89058" lon="7.28632">
        <ele>973.442421</ele>
        <time>2012-12-09T09:32:31Z</time>
      </trkpt>
      <trkpt lat="43.89061" lon="7.28631">
        <ele>974.442421</ele>
        <time>2012-12-09T09:32:34Z</time>
      </trkpt>
      <trkpt lat="43.89066" lon="7.28633">
        <ele>976.442432</ele>
        <time>2012-12-09T09:32:40Z</time>
      </trkpt>
      <trkpt lat="43.89069" lon="7.28633">
        <ele>977.442436</ele>
        <time>2012-12-09T09:32:43Z</time>
      </trkpt>
      <trkpt lat="43.89071" lon="7.28632">
        <ele>979.442436</ele>
        <time>2012-12-09T09:32:46Z</time>
      </trkpt>
      <trkpt lat="43.89075" lon="7.28629">
        <ele>979.442429</ele>
        <time>2012-12-09T09:32:50Z</time>
      </trkpt>
      <trkpt lat="43.89079" lon="7.28626">
        <ele>980.442432</ele>
        <time>2012-12-09T09:32:54Z</time>
      </trkpt>
      <trkpt lat="43.89084" lon="7.2862">
        <ele>981.442429</ele>
        <time>2012-12-09T09:32:59Z</time>
      </trkpt>
      <trkpt lat="43.89087" lon="7.28617">
        <ele>980.442425</ele>
        <time>2012-12-09T09:33:03Z</time>
      </trkpt>
      <trkpt lat="43.89091" lon="7.28615">
        <ele>981.442429</ele>
        <time>2012-12-09T09:33:07Z</time>
      </trkpt>
      <trkpt lat="43.89094" lon="7.28614">
        <ele>982.442429</ele>
        <time>2012-12-09T09:33:11Z</time>
      </trkpt>
      <trkpt lat="43.89098" lon="7.28613">
        <ele>981.442432</ele>
        <time>2012-12-09T09:33:15Z</time>
      </trkpt>
      <trkpt lat="43.89104" lon="7.2861">
        <ele>983.442432</ele>
        <time>2012-12-09T09:33:21Z</time>
      </trkpt>
      <trkpt lat="43.89107" lon="7.28608">
        <ele>983.442429</ele>
        <time>2012-12-09T09:33:24Z</time>
      </trkpt>
      <trkpt lat="43.89109" lon="7.28606">
        <ele>983.442432</ele>
        <time>2012-12-09T09:33:27Z</time>
      </trkpt>
      <trkpt lat="43.89113" lon="7.28603">
        <ele>984.442436</ele>
        <time>2012-12-09T09:33:32Z</time>
      </trkpt>
      <trkpt lat="43.89118" lon="7.28599">
        <ele>987.442432</ele>
        <time>2012-12-09T09:33:37Z</time>
      </trkpt>
      <trkpt lat="43.89121" lon="7.28596">
        <ele>987.442429</ele>
        <time>2012-12-09T09:33:40Z</time>
      </trkpt>
      <trkpt lat="43.89125" lon="7.28595">
        <ele>987.442429</ele>
        <time>2012-12-09T09:33:43Z</time>
      </trkpt>
      <trkpt lat="43.8913" lon="7.28593">
        <ele>987.442436</ele>
        <time>2012-12-09T09:33:47Z</time>
      </trkpt>
      <trkpt lat="43.89134" lon="7.28591">
        <ele>988.442436</ele>
        <time>2012-12-09T09:33:50Z</time>
      </trkpt>
      <trkpt lat="43.89138" lon="7.28587">
        <ele>988.442436</ele>
        <time>2012-12-09T09:33:54Z</time>
      </trkpt>
      <trkpt lat="43.8914" lon="7.28584">
        <ele>989.442429</ele>
        <time>2012-12-09T09:33:57Z</time>
      </trkpt>
      <trkpt lat="43.89144" lon="7.28577">
        <ele>990.442421</ele>
        <time>2012-12-09T09:34:02Z</time>
      </trkpt>
      <trkpt lat="43.89146" lon="7.28573">
        <ele>990.442413</ele>
        <time>2012-12-09T09:34:05Z</time>
      </trkpt>
      <trkpt lat="43.89151" lon="7.28566">
        <ele>992.442406</ele>
        <time>2012-12-09T09:34:11Z</time>
      </trkpt>
      <trkpt lat="43.89154" lon="7.28563">
        <ele>993.442406</ele>
        <time>2012-12-09T09:34:15Z</time>
      </trkpt>
      <trkpt lat="43.89158" lon="7.2856">
        <ele>993.442406</ele>
        <time>2012-12-09T09:34:20Z</time>
      </trkpt>
      <trkpt lat="43.8916" lon="7.28559">
        <ele>994.442406</ele>
        <time>2012-12-09T09:34:23Z</time>
      </trkpt>
      <trkpt lat="43.89163" lon="7.28558">
        <ele>995.442406</ele>
        <time>2012-12-09T09:34:26Z</time>
      </trkpt>
      <trkpt lat="43.89166" lon="7.28559">
        <ele>995.442413</ele>
        <time>2012-12-09T09:34:29Z</time>
      </trkpt>
      <trkpt lat="43.89169" lon="7.28561">
        <ele>996.442425</ele>
        <time>2012-12-09T09:34:33Z</time>
      </trkpt>
      <trkpt lat="43.89173" lon="7.28564">
        <ele>998.442436</ele>
        <time>2012-12-09T09:34:38Z</time>
      </trkpt>
      <trkpt lat="43.89175" lon="7.28565">
        <ele>999.44244</ele>
        <time>2012-12-09T09:34:41Z</time>
      </trkpt>
      <trkpt lat="43.89178" lon="7.28565">
        <ele>1000.442444</ele>
        <time>2012-12-09T09:34:45Z</time>
      </trkpt>
      <trkpt lat="43.89181" lon="7.28565">
        <ele>999.442444</ele>
        <time>2012-12-09T09:34:49Z</time>
      </trkpt>
      <trkpt lat="43.89185" lon="7.28565">
        <ele>1000.442451</ele>
        <time>2012-12-09T09:34:53Z</time>
      </trkpt>
      <trkpt lat="43.89189" lon="7.28565">
        <ele>1002.442459</ele>
        <time>2012-12-09T09:34:58Z</time>
      </trkpt>
      <trkpt lat="43.89192" lon="7.28564">
        <ele>1002.442463</ele>
        <time>2012-12-09T09:35:02Z</time>
      </trkpt>
      <trkpt lat="43.89194" lon="7.28564">
        <ele>1003.442463</ele>
        <time>2012-12-09T09:35:05Z</time>
      </trkpt>
      <trkpt lat="43.89196" lon="7.28565">
        <ele>1005.442467</ele>
        <time>2012-12-09T09:35:10Z</time>
      </trkpt>
      <trkpt lat="43.89199" lon="7.28565">
        <ele>1005.442474</ele>
        <time>2012-12-09T09:35:15Z</time>
      </trkpt>
      <trkpt lat="43.89202" lon="7.28566">
        <ele>1006.442474</ele>
        <time>2012-12-09T09:35:19Z</time>
      </trkpt>
      <trkpt lat="43.89206" lon="7.28566">
        <ele>1008.442486</ele>
        <time>2012-12-09T09:35:24Z</time>
      </trkpt>
      <trkpt lat="43.89207" lon="7.28567">
        <ele>1008.44249</ele>
        <time>2012-12-09T09:35:26Z</time>
      </trkpt>
      <trkpt lat="43.89207" lon="7.28569">
        <ele>1009.44249</ele>
        <time>2012-12-09T09:35:29Z</time>
      </trkpt>
      <trkpt lat="43.89207" lon="7.28572">
        <ele>1010.442493</ele>
        <time>2012-12-09T09:35:33Z</time>
      </trkpt>
      <trkpt lat="43.89206" lon="7.28574">
        <ele>1010.442501</ele>
        <time>2012-12-09T09:35:36Z</time>
      </trkpt>
      <trkpt lat="43.89206" lon="7.28576">
        <ele>1011.442505</ele>
        <time>2012-12-09T09:35:39Z</time>
      </trkpt>
      <trkpt lat="43.89207" lon="7.28577">
        <ele>1012.442505</ele>
        <time>2012-12-09T09:35:42Z</time>
      </trkpt>
      <trkpt lat="43.89208" lon="7.28578">
        <ele>1012.442509</ele>
        <time>2012-12-09T09:35:45Z</time>
      </trkpt>
      <trkpt lat="43.89209" lon="7.28577">
        <ele>1013.442509</ele>
        <time>2012-12-09T09:35:49Z</time>
      </trkpt>
      <trkpt lat="43.89209" lon="7.28577">
        <ele>1013.442509</ele>
        <time>2012-12-09T09:35:53Z</time>
      </trkpt>
      <trkpt lat="43.8921" lon="7.28577">
        <ele>1013.442513</ele>
        <time>2012-12-09T09:35:56Z</time>
      </trkpt>
      <trkpt lat="43.8921" lon="7.28576">
        <ele>1013.442513</ele>
        <time>2012-12-09T09:36:00Z</time>
      </trkpt>
      <trkpt lat="43.89211" lon="7.28575">
        <ele>1015.442505</ele>
        <time>2012-12-09T09:36:05Z</time>
      </trkpt>
      <trkpt lat="43.89211" lon="7.28574">
        <ele>1016.442505</ele>
        <time>2012-12-09T09:36:09Z</time>
      </trkpt>
      <trkpt lat="43.89211" lon="7.28573">
        <ele>1018.442505</ele>
        <time>2012-12-09T09:36:13Z</time>
      </trkpt>
      <trkpt lat="43.89212" lon="7.28571">
        <ele>1018.442501</ele>
        <time>2012-12-09T09:36:18Z</time>
      </trkpt>
      <trkpt lat="43.89212" lon="7.2857">
        <ele>1018.442497</ele>
        <time>2012-12-09T09:36:21Z</time>
      </trkpt>
      <trkpt lat="43.89214" lon="7.28571">
        <ele>1018.442505</ele>
        <time>2012-12-09T09:36:25Z</time>
      </trkpt>
      <trkpt lat="43.89216" lon="7.28572">
        <ele>1019.442505</ele>
        <time>2012-12-09T09:36:29Z</time>
      </trkpt>
      <trkpt lat="43.89219" lon="7.28572">
        <ele>1019.442513</ele>
        <time>2012-12-09T09:36:33Z</time>
      </trkpt>
      <trkpt lat="43.89221" lon="7.28572">
        <ele>1019.442513</ele>
        <time>2012-12-09T09:36:36Z</time>
      </trkpt>
      <trkpt lat="43.89224" lon="7.28571">
        <ele>1020.442516</ele>
        <time>2012-12-09T09:36:40Z</time>
      </trkpt>
      <trkpt lat="43.89226" lon="7.2857">
        <ele>1020.442516</ele>
        <time>2012-12-09T09:36:43Z</time>
      </trkpt>
      <trkpt lat="43.89229" lon="7.28568">
        <ele>1021.442516</ele>
        <time>2012-12-09T09:36:47Z</time>
      </trkpt>
      <trkpt lat="43.8923" lon="7.28567">
        <ele>1021.44252</ele>
        <time>2012-12-09T09:36:49Z</time>
      </trkpt>
      <trkpt lat="43.89232" lon="7.28568">
        <ele>1022.44252</ele>
        <time>2012-12-09T09:36:52Z</time>
      </trkpt>
      <trkpt lat="43.89232" lon="7.2857">
        <ele>1023.442528</ele>
        <time>2012-12-09T09:36:55Z</time>
      </trkpt>
      <trkpt lat="43.89231" lon="7.28573">
        <ele>1023.442528</ele>
        <time>2012-12-09T09:36:58Z</time>
      </trkpt>
      <trkpt lat="43.8923" lon="7.28577">
        <ele>1024.442535</ele>
        <time>2012-12-09T09:37:02Z</time>
      </trkpt>
      <trkpt lat="43.89228" lon="7.2858">
        <ele>1025.442543</ele>
        <time>2012-12-09T09:37:05Z</time>
      </trkpt>
      <trkpt lat="43.89226" lon="7.28583">
        <ele>1025.442551</ele>
        <time>2012-12-09T09:37:08Z</time>
      </trkpt>
      <trkpt lat="43.89223" lon="7.28586">
        <ele>1027.442547</ele>
        <time>2012-12-09T09:37:12Z</time>
      </trkpt>
      <trkpt lat="43.8922" lon="7.28588">
        <ele>1027.442551</ele>
        <time>2012-12-09T09:37:17Z</time>
      </trkpt>
      <trkpt lat="43.8922" lon="7.28589">
        <ele>1027.442551</ele>
        <time>2012-12-09T09:37:19Z</time>
      </trkpt>
      <trkpt lat="43.89221" lon="7.28589">
        <ele>1027.442551</ele>
        <time>2012-12-09T09:37:22Z</time>
      </trkpt>
      <trkpt lat="43.89222" lon="7.28589">
        <ele>1028.442551</ele>
        <time>2012-12-09T09:37:25Z</time>
      </trkpt>
      <trkpt lat="43.89226" lon="7.28588">
        <ele>1028.442554</ele>
        <time>2012-12-09T09:37:29Z</time>
      </trkpt>
      <trkpt lat="43.89228" lon="7.28586">
        <ele>1029.442554</ele>
        <time>2012-12-09T09:37:32Z</time>
      </trkpt>
      <trkpt lat="43.89231" lon="7.28583">
        <ele>1030.442551</ele>
        <time>2012-12-09T09:37:36Z</time>
      </trkpt>
      <trkpt lat="43.89234" lon="7.28578">
        <ele>1030.442547</ele>
        <time>2012-12-09T09:37:41Z</time>
      </trkpt>
      <trkpt lat="43.89236" lon="7.28574">
        <ele>1031.442539</ele>
        <time>2012-12-09T09:37:45Z</time>
      </trkpt>
      <trkpt lat="43.89238" lon="7.28572">
        <ele>1032.442535</ele>
        <time>2012-12-09T09:37:49Z</time>
      </trkpt>
      <trkpt lat="43.89239" lon="7.28569">
        <ele>1034.442535</ele>
        <time>2012-12-09T09:37:54Z</time>
      </trkpt>
      <trkpt lat="43.89241" lon="7.28568">
        <ele>1036.442532</ele>
        <time>2012-12-09T09:37:58Z</time>
      </trkpt>
      <trkpt lat="43.89242" lon="7.28567">
        <ele>1036.442532</ele>
        <time>2012-12-09T09:38:02Z</time>
      </trkpt>
      <trkpt lat="43.89243" lon="7.28566">
        <ele>1035.442532</ele>
        <time>2012-12-09T09:38:05Z</time>
      </trkpt>
      <trkpt lat="43.89243" lon="7.28565">
        <ele>1036.442532</ele>
        <time>2012-12-09T09:38:07Z</time>
      </trkpt>
      <trkpt lat="43.89243" lon="7.28566">
        <ele>1036.442532</ele>
        <time>2012-12-09T09:38:11Z</time>
      </trkpt>
      <trkpt lat="43.89243" lon="7.28566">
        <ele>1037.442535</ele>
        <time>2012-12-09T09:38:15Z</time>
      </trkpt>
      <trkpt lat="43.89244" lon="7.28569">
        <ele>1037.442539</ele>
        <time>2012-12-09T09:38:18Z</time>
      </trkpt>
      <trkpt lat="43.89244" lon="7.28572">
        <ele>1037.442547</ele>
        <time>2012-12-09T09:38:21Z</time>
      </trkpt>
      <trkpt lat="43.89243" lon="7.28576">
        <ele>1037.442551</ele>
        <time>2012-12-09T09:38:25Z</time>
      </trkpt>
      <trkpt lat="43.89242" lon="7.28583">
        <ele>1039.442566</ele>
        <time>2012-12-09T09:38:31Z</time>
      </trkpt>
      <trkpt lat="43.8924" lon="7.28588">
        <ele>1038.442574</ele>
        <time>2012-12-09T09:38:35Z</time>
      </trkpt>
      <trkpt lat="43.8924" lon="7.28591">
        <ele>1039.442581</ele>
        <time>2012-12-09T09:38:38Z</time>
      </trkpt>
      <trkpt lat="43.89239" lon="7.28597">
        <ele>1040.442596</ele>
        <time>2012-12-09T09:38:43Z</time>
      </trkpt>
      <trkpt lat="43.89239" lon="7.28603">
        <ele>1040.442604</ele>
        <time>2012-12-09T09:38:48Z</time>
      </trkpt>
      <trkpt lat="43.89239" lon="7.28607">
        <ele>1042.442612</ele>
        <time>2012-12-09T09:38:52Z</time>
      </trkpt>
      <trkpt lat="43.89239" lon="7.28609">
        <ele>1042.442616</ele>
        <time>2012-12-09T09:38:55Z</time>
      </trkpt>
      <trkpt lat="43.8924" lon="7.28611">
        <ele>1043.442619</ele>
        <time>2012-12-09T09:38:58Z</time>
      </trkpt>
      <trkpt lat="43.89241" lon="7.2861">
        <ele>1043.442623</ele>
        <time>2012-12-09T09:39:01Z</time>
      </trkpt>
      <trkpt lat="43.89243" lon="7.28609">
        <ele>1042.442619</ele>
        <time>2012-12-09T09:39:05Z</time>
      </trkpt>
      <trkpt lat="43.89246" lon="7.28606">
        <ele>1044.442619</ele>
        <time>2012-12-09T09:39:12Z</time>
      </trkpt>
      <trkpt lat="43.8925" lon="7.28603">
        <ele>1044.442619</ele>
        <time>2012-12-09T09:39:17Z</time>
      </trkpt>
      <trkpt lat="43.89254" lon="7.28599">
        <ele>1046.442619</ele>
        <time>2012-12-09T09:39:22Z</time>
      </trkpt>
      <trkpt lat="43.89255" lon="7.28599">
        <ele>1046.442616</ele>
        <time>2012-12-09T09:39:25Z</time>
      </trkpt>
      <trkpt lat="43.89256" lon="7.28599">
        <ele>1047.442619</ele>
        <time>2012-12-09T09:39:28Z</time>
      </trkpt>
      <trkpt lat="43.89256" lon="7.286">
        <ele>1049.442619</ele>
        <time>2012-12-09T09:39:31Z</time>
      </trkpt>
      <trkpt lat="43.89255" lon="7.28602">
        <ele>1049.442627</ele>
        <time>2012-12-09T09:39:35Z</time>
      </trkpt>
      <trkpt lat="43.89255" lon="7.28604">
        <ele>1049.442623</ele>
        <time>2012-12-09T09:39:38Z</time>
      </trkpt>
      <trkpt lat="43.89255" lon="7.28604">
        <ele>1050.442627</ele>
        <time>2012-12-09T09:39:41Z</time>
      </trkpt>
      <trkpt lat="43.89256" lon="7.28604">
        <ele>1050.442627</ele>
        <time>2012-12-09T09:39:44Z</time>
      </trkpt>
      <trkpt lat="43.89257" lon="7.28603">
        <ele>1050.442631</ele>
        <time>2012-12-09T09:39:48Z</time>
      </trkpt>
      <trkpt lat="43.89261" lon="7.28601">
        <ele>1051.442627</ele>
        <time>2012-12-09T09:39:52Z</time>
      </trkpt>
      <trkpt lat="43.89266" lon="7.28599">
        <ele>1052.442635</ele>
        <time>2012-12-09T09:39:57Z</time>
      </trkpt>
      <trkpt lat="43.89271" lon="7.28597">
        <ele>1054.442635</ele>
        <time>2012-12-09T09:40:02Z</time>
      </trkpt>
      <trkpt lat="43.89275" lon="7.28596">
        <ele>1054.442638</ele>
        <time>2012-12-09T09:40:06Z</time>
      </trkpt>
      <trkpt lat="43.89279" lon="7.28596">
        <ele>1055.442642</ele>
        <time>2012-12-09T09:40:10Z</time>
      </trkpt>
      <trkpt lat="43.8928" lon="7.28597">
        <ele>1055.44265</ele>
        <time>2012-12-09T09:40:13Z</time>
      </trkpt>
      <trkpt lat="43.89281" lon="7.286">
        <ele>1055.442657</ele>
        <time>2012-12-09T09:40:16Z</time>
      </trkpt>
      <trkpt lat="43.89281" lon="7.28608">
        <ele>1055.442669</ele>
        <time>2012-12-09T09:40:21Z</time>
      </trkpt>
      <trkpt lat="43.89282" lon="7.28611">
        <ele>1056.44268</ele>
        <time>2012-12-09T09:40:24Z</time>
      </trkpt>
      <trkpt lat="43.89284" lon="7.28614">
        <ele>1056.442688</ele>
        <time>2012-12-09T09:40:27Z</time>
      </trkpt>
      <trkpt lat="43.89286" lon="7.28616">
        <ele>1057.442696</ele>
        <time>2012-12-09T09:40:30Z</time>
      </trkpt>
      <trkpt lat="43.89289" lon="7.28618">
        <ele>1057.442703</ele>
        <time>2012-12-09T09:40:35Z</time>
      </trkpt>
      <trkpt lat="43.89291" lon="7.28619">
        <ele>1057.442703</ele>
        <time>2012-12-09T09:40:39Z</time>
      </trkpt>
      <trkpt lat="43.89292" lon="7.2862">
        <ele>1059.442711</ele>
        <time>2012-12-09T09:40:42Z</time>
      </trkpt>
      <trkpt lat="43.89292" lon="7.28622">
        <ele>1059.442711</ele>
        <time>2012-12-09T09:40:45Z</time>
      </trkpt>
      <trkpt lat="43.89291" lon="7.28623">
        <ele>1060.442715</ele>
        <time>2012-12-09T09:40:48Z</time>
      </trkpt>
      <trkpt lat="43.89289" lon="7.28624">
        <ele>1061.442719</ele>
        <time>2012-12-09T09:40:52Z</time>
      </trkpt>
      <trkpt lat="43.89286" lon="7.28625">
        <ele>1062.442711</ele>
        <time>2012-12-09T09:40:56Z</time>
      </trkpt>
      <trkpt lat="43.89283" lon="7.28625">
        <ele>1062.442703</ele>
        <time>2012-12-09T09:41:00Z</time>
      </trkpt>
      <trkpt lat="43.8928" lon="7.28624">
        <ele>1064.442703</ele>
        <time>2012-12-09T09:41:04Z</time>
      </trkpt>
      <trkpt lat="43.89276" lon="7.28622">
        <ele>1065.442696</ele>
        <time>2012-12-09T09:41:09Z</time>
      </trkpt>
      <trkpt lat="43.89274" lon="7.28622">
        <ele>1065.442692</ele>
        <time>2012-12-09T09:41:13Z</time>
      </trkpt>
      <trkpt lat="43.89272" lon="7.28622">
        <ele>1066.442688</ele>
        <time>2012-12-09T09:41:17Z</time>
      </trkpt>
      <trkpt lat="43.8927" lon="7.28622">
        <ele>1068.442684</ele>
        <time>2012-12-09T09:41:21Z</time>
      </trkpt>
      <trkpt lat="43.89268" lon="7.28621">
        <ele>1070.44268</ele>
        <time>2012-12-09T09:41:26Z</time>
      </trkpt>
      <trkpt lat="43.89266" lon="7.28622">
        <ele>1071.44268</ele>
        <time>2012-12-09T09:41:29Z</time>
      </trkpt>
      <trkpt lat="43.89264" lon="7.28623">
        <ele>1072.44268</ele>
        <time>2012-12-09T09:41:32Z</time>
      </trkpt>
      <trkpt lat="43.89261" lon="7.28627">
        <ele>1073.442688</ele>
        <time>2012-12-09T09:41:38Z</time>
      </trkpt>
      <trkpt lat="43.8926" lon="7.2863">
        <ele>1074.442688</ele>
        <time>2012-12-09T09:41:41Z</time>
      </trkpt>
      <trkpt lat="43.89259" lon="7.28632">
        <ele>1075.442692</ele>
        <time>2012-12-09T09:41:44Z</time>
      </trkpt>
      <trkpt lat="43.89259" lon="7.28633">
        <ele>1075.442696</ele>
        <time>2012-12-09T09:41:46Z</time>
      </trkpt>
      <trkpt lat="43.8926" lon="7.28635">
        <ele>1076.442696</ele>
        <time>2012-12-09T09:41:49Z</time>
      </trkpt>
      <trkpt lat="43.89262" lon="7.28635">
        <ele>1076.442703</ele>
        <time>2012-12-09T09:41:52Z</time>
      </trkpt>
      <trkpt lat="43.89265" lon="7.28635">
        <ele>1076.442703</ele>
        <time>2012-12-09T09:41:56Z</time>
      </trkpt>
      <trkpt lat="43.89268" lon="7.28634">
        <ele>1077.442707</ele>
        <time>2012-12-09T09:42:00Z</time>
      </trkpt>
      <trkpt lat="43.8927" lon="7.28632">
        <ele>1077.442703</ele>
        <time>2012-12-09T09:42:04Z</time>
      </trkpt>
      <trkpt lat="43.89271" lon="7.28631">
        <ele>1077.442703</ele>
        <time>2012-12-09T09:42:09Z</time>
      </trkpt>
      <trkpt lat="43.89271" lon="7.2863">
        <ele>1078.442703</ele>
        <time>2012-12-09T09:42:12Z</time>
      </trkpt>
      <trkpt lat="43.89271" lon="7.28629">
        <ele>1076.442703</ele>
        <time>2012-12-09T09:42:15Z</time>
      </trkpt>
      <trkpt lat="43.89271" lon="7.28629">
        <ele>1075.442703</ele>
        <time>2012-12-09T09:42:19Z</time>
      </trkpt>
      <trkpt lat="43.8927" lon="7.2863">
        <ele>1075.442703</ele>
        <time>2012-12-09T09:42:22Z</time>
      </trkpt>
      <trkpt lat="43.89271" lon="7.28631">
        <ele>1075.442707</ele>
        <time>2012-12-09T09:42:27Z</time>
      </trkpt>
      <trkpt lat="43.89271" lon="7.28634">
        <ele>1075.442711</ele>
        <time>2012-12-09T09:42:31Z</time>
      </trkpt>
      <trkpt lat="43.8927" lon="7.28636">
        <ele>1076.442715</ele>
        <time>2012-12-09T09:42:34Z</time>
      </trkpt>
      <trkpt lat="43.89268" lon="7.2864">
        <ele>1075.442719</ele>
        <time>2012-12-09T09:42:39Z</time>
      </trkpt>
      <trkpt lat="43.89267" lon="7.28643">
        <ele>1077.442726</ele>
        <time>2012-12-09T09:42:43Z</time>
      </trkpt>
      <trkpt lat="43.89265" lon="7.28646">
        <ele>1078.442726</ele>
        <time>2012-12-09T09:42:47Z</time>
      </trkpt>
      <trkpt lat="43.89264" lon="7.28649">
        <ele>1079.442734</ele>
        <time>2012-12-09T09:42:51Z</time>
      </trkpt>
      <trkpt lat="43.89262" lon="7.28653">
        <ele>1079.442738</ele>
        <time>2012-12-09T09:42:56Z</time>
      </trkpt>
      <trkpt lat="43.89261" lon="7.28655">
        <ele>1080.442741</ele>
        <time>2012-12-09T09:42:59Z</time>
      </trkpt>
      <trkpt lat="43.89258" lon="7.28658">
        <ele>1080.442741</ele>
        <time>2012-12-09T09:43:02Z</time>
      </trkpt>
      <trkpt lat="43.89255" lon="7.2866">
        <ele>1081.442741</ele>
        <time>2012-12-09T09:43:06Z</time>
      </trkpt>
      <trkpt lat="43.89252" lon="7.28662">
        <ele>1082.442741</ele>
        <time>2012-12-09T09:43:10Z</time>
      </trkpt>
      <trkpt lat="43.89247" lon="7.28664">
        <ele>1082.442741</ele>
        <time>2012-12-09T09:43:15Z</time>
      </trkpt>
      <trkpt lat="43.89244" lon="7.28666">
        <ele>1083.442741</ele>
        <time>2012-12-09T09:43:19Z</time>
      </trkpt>
      <trkpt lat="43.89241" lon="7.28668">
        <ele>1083.442741</ele>
        <time>2012-12-09T09:43:23Z</time>
      </trkpt>
      <trkpt lat="43.89241" lon="7.28668">
        <ele>1083.442741</ele>
        <time>2012-12-09T09:43:27Z</time>
      </trkpt>
      <trkpt lat="43.8924" lon="7.28669">
        <ele>1084.442738</ele>
        <time>2012-12-09T09:43:31Z</time>
      </trkpt>
      <trkpt lat="43.89238" lon="7.28671">
        <ele>1084.442741</ele>
        <time>2012-12-09T09:43:36Z</time>
      </trkpt>
      <trkpt lat="43.89237" lon="7.28673">
        <ele>1085.442741</ele>
        <time>2012-12-09T09:43:40Z</time>
      </trkpt>
      <trkpt lat="43.89236" lon="7.28674">
        <ele>1085.442741</ele>
        <time>2012-12-09T09:43:44Z</time>
      </trkpt>
      <trkpt lat="43.89236" lon="7.28674">
        <ele>1085.442741</ele>
        <time>2012-12-09T09:43:47Z</time>
      </trkpt>
      <trkpt lat="43.89236" lon="7.28673">
        <ele>1085.442741</ele>
        <time>2012-12-09T09:43:52Z</time>
      </trkpt>
      <trkpt lat="43.89237" lon="7.28673">
        <ele>1085.442741</ele>
        <time>2012-12-09T09:43:57Z</time>
      </trkpt>
      <trkpt lat="43.89237" lon="7.28672">
        <ele>1085.442741</ele>
        <time>2012-12-09T09:44:01Z</time>
      </trkpt>
      <trkpt lat="43.89237" lon="7.28671">
        <ele>1086.442741</ele>
        <time>2012-12-09T09:44:06Z</time>
      </trkpt>
      <trkpt lat="43.89237" lon="7.28671">
        <ele>1086.442738</ele>
        <time>2012-12-09T09:44:11Z</time>
      </trkpt>
      <trkpt lat="43.89237" lon="7.28671">
        <ele>1086.442738</ele>
        <time>2012-12-09T09:44:15Z</time>
      </trkpt>
      <trkpt lat="43.89237" lon="7.2867">
        <ele>1086.442738</ele>
        <time>2012-12-09T09:44:20Z</time>
      </trkpt>
      <trkpt lat="43.89236" lon="7.2867">
        <ele>1086.442738</ele>
        <time>2012-12-09T09:44:25Z</time>
      </trkpt>
      <trkpt lat="43.89236" lon="7.2867">
        <ele>1086.442734</ele>
        <time>2012-12-09T09:44:29Z</time>
      </trkpt>
      <trkpt lat="43.89236" lon="7.28669">
        <ele>1088.442734</ele>
        <time>2012-12-09T09:44:35Z</time>
      </trkpt>
      <trkpt lat="43.89236" lon="7.28669">
        <ele>1089.442738</ele>
        <time>2012-12-09T09:44:40Z</time>
      </trkpt>
      <trkpt lat="43.89235" lon="7.28669">
        <ele>1089.442734</ele>
        <time>2012-12-09T09:44:45Z</time>
      </trkpt>
      <trkpt lat="43.89235" lon="7.28669">
        <ele>1090.442734</ele>
        <time>2012-12-09T09:44:50Z</time>
      </trkpt>
      <trkpt lat="43.89234" lon="7.28669">
        <ele>1089.44273</ele>
        <time>2012-12-09T09:44:54Z</time>
      </trkpt>
      <trkpt lat="43.89234" lon="7.28669">
        <ele>1090.442734</ele>
        <time>2012-12-09T09:44:58Z</time>
      </trkpt>
      <trkpt lat="43.89234" lon="7.28668">
        <ele>1090.442734</ele>
        <time>2012-12-09T09:45:02Z</time>
      </trkpt>
      <trkpt lat="43.89234" lon="7.28668">
        <ele>1090.442734</ele>
        <time>2012-12-09T09:45:07Z</time>
      </trkpt>
      <trkpt lat="43.89234" lon="7.28667">
        <ele>1091.442734</ele>
        <time>2012-12-09T09:45:11Z</time>
      </trkpt>
      <trkpt lat="43.89234" lon="7.28667">
        <ele>1092.442726</ele>
        <time>2012-12-09T09:45:15Z</time>
      </trkpt>
      <trkpt lat="43.89234" lon="7.28667">
        <ele>1093.442726</ele>
        <time>2012-12-09T09:45:21Z</time>
      </trkpt>
      <trkpt lat="43.89234" lon="7.28667">
        <ele>1094.442726</ele>
        <time>2012-12-09T09:45:24Z</time>
      </trkpt>
      <trkpt lat="43.89235" lon="7.28667">
        <ele>1094.442734</ele>
        <time>2012-12-09T09:45:30Z</time>
      </trkpt>
      <trkpt lat="43.89236" lon="7.28668">
        <ele>1094.442734</ele>
        <time>2012-12-09T09:45:34Z</time>
      </trkpt>
      <trkpt lat="43.89236" lon="7.28669">
        <ele>1093.442734</ele>
        <time>2012-12-09T09:45:37Z</time>
      </trkpt>
      <trkpt lat="43.89236" lon="7.28669">
        <ele>1093.442734</ele>
        <time>2012-12-09T09:45:42Z</time>
      </trkpt>
      <trkpt lat="43.89236" lon="7.2867">
        <ele>1093.442734</ele>
        <time>2012-12-09T09:45:46Z</time>
      </trkpt>
      <trkpt lat="43.89236" lon="7.2867">
        <ele>1093.442738</ele>
        <time>2012-12-09T09:45:52Z</time>
      </trkpt>
      <trkpt lat="43.89237" lon="7.2867">
        <ele>1093.442738</ele>
        <time>2012-12-09T09:45:56Z</time>
      </trkpt>
      <trkpt lat="43.89237" lon="7.2867">
        <ele>1093.442738</ele>
        <time>2012-12-09T09:45:59Z</time>
      </trkpt>
      <trkpt lat="43.89237" lon="7.2867">
        <ele>1092.442741</ele>
        <time>2012-12-09T09:46:04Z</time>
      </trkpt>
      <trkpt lat="43.89237" lon="7.2867">
        <ele>1093.442741</ele>
        <time>2012-12-09T09:46:07Z</time>
      </trkpt>
      <trkpt lat="43.89237" lon="7.2867">
        <ele>1093.442741</ele>
        <time>2012-12-09T09:46:12Z</time>
      </trkpt>
      <trkpt lat="43.89237" lon="7.2867">
        <ele>1092.442741</ele>
        <time>2012-12-09T09:46:16Z</time>
      </trkpt>
      <trkpt lat="43.89237" lon="7.2867">
        <ele>1092.442741</ele>
        <time>2012-12-09T09:46:20Z</time>
      </trkpt>
      <trkpt lat="43.89238" lon="7.2867">
        <ele>1093.442741</ele>
        <time>2012-12-09T09:46:24Z</time>
      </trkpt>
      <trkpt lat="43.89238" lon="7.28669">
        <ele>1093.442741</ele>
        <time>2012-12-09T09:46:28Z</time>
      </trkpt>
      <trkpt lat="43.89238" lon="7.28669">
        <ele>1094.442741</ele>
        <time>2012-12-09T09:46:32Z</time>
      </trkpt>
      <trkpt lat="43.89238" lon="7.28669">
        <ele>1093.442741</ele>
        <time>2012-12-09T09:46:36Z</time>
      </trkpt>
      <trkpt lat="43.89238" lon="7.28669">
        <ele>1094.442738</ele>
        <time>2012-12-09T09:46:40Z</time>
      </trkpt>
      <trkpt lat="43.89238" lon="7.28669">
        <ele>1093.442738</ele>
        <time>2012-12-09T09:46:43Z</time>
      </trkpt>
      <trkpt lat="43.8924" lon="7.28667">
        <ele>1080.442734</ele>
        <time>2012-12-09T09:47:19Z</time>
      </trkpt>
      <trkpt lat="43.8924" lon="7.28667">
        <ele>1081.442734</ele>
        <time>2012-12-09T09:47:22Z</time>
      </trkpt>
      <trkpt lat="43.8924" lon="7.28667">
        <ele>1082.442734</ele>
        <time>2012-12-09T09:47:25Z</time>
      </trkpt>
      <trkpt lat="43.89239" lon="7.28667">
        <ele>1083.442734</ele>
        <time>2012-12-09T09:47:28Z</time>
      </trkpt>
      <trkpt lat="43.89239" lon="7.28666">
        <ele>1084.442734</ele>
        <time>2012-12-09T09:47:32Z</time>
      </trkpt>
      <trkpt lat="43.89239" lon="7.28666">
        <ele>1084.442734</ele>
        <time>2012-12-09T09:47:35Z</time>
      </trkpt>
      <trkpt lat="43.89239" lon="7.28666">
        <ele>1085.442734</ele>
        <time>2012-12-09T09:47:39Z</time>
      </trkpt>
      <trkpt lat="43.89239" lon="7.28666">
        <ele>1085.442734</ele>
        <time>2012-12-09T09:47:41Z</time>
      </trkpt>
      <trkpt lat="43.89239" lon="7.28666">
        <ele>1085.442734</ele>
        <time>2012-12-09T09:47:46Z</time>
      </trkpt>
      <trkpt lat="43.89239" lon="7.28666">
        <ele>1084.442734</ele>
        <time>2012-12-09T09:47:50Z</time>
      </trkpt>
      <trkpt lat="43.89239" lon="7.28666">
        <ele>1084.442734</ele>
        <time>2012-12-09T09:47:55Z</time>
      </trkpt>
      <trkpt lat="43.89239" lon="7.28667">
        <ele>1084.442734</ele>
        <time>2012-12-09T09:47:59Z</time>
      </trkpt>
      <trkpt lat="43.89239" lon="7.28667">
        <ele>1084.442734</ele>
        <time>2012-12-09T09:48:03Z</time>
      </trkpt>
      <trkpt lat="43.8924" lon="7.28667">
        <ele>1086.442734</ele>
        <time>2012-12-09T09:48:08Z</time>
      </trkpt>
      <trkpt lat="43.8924" lon="7.28667">
        <ele>1086.442741</ele>
        <time>2012-12-09T09:48:12Z</time>
      </trkpt>
      <trkpt lat="43.8924" lon="7.28668">
        <ele>1086.442741</ele>
        <time>2012-12-09T09:48:16Z</time>
      </trkpt>
      <trkpt lat="43.8924" lon="7.28668">
        <ele>1087.442741</ele>
        <time>2012-12-09T09:48:21Z</time>
      </trkpt>
      <trkpt lat="43.89241" lon="7.28667">
        <ele>1087.442741</ele>
        <time>2012-12-09T09:48:26Z</time>
      </trkpt>
      <trkpt lat="43.89241" lon="7.28667">
        <ele>1087.442741</ele>
        <time>2012-12-09T09:48:30Z</time>
      </trkpt>
      <trkpt lat="43.89241" lon="7.28667">
        <ele>1087.442741</ele>
        <time>2012-12-09T09:48:34Z</time>
      </trkpt>
      <trkpt lat="43.89242" lon="7.28667">
        <ele>1087.442734</ele>
        <time>2012-12-09T09:48:38Z</time>
      </trkpt>
      <trkpt lat="43.89242" lon="7.28667">
        <ele>1087.442734</ele>
        <time>2012-12-09T09:48:42Z</time>
      </trkpt>
      <trkpt lat="43.89242" lon="7.28667">
        <ele>1087.442738</ele>
        <time>2012-12-09T09:48:46Z</time>
      </trkpt>
      <trkpt lat="43.89242" lon="7.28667">
        <ele>1087.442738</ele>
        <time>2012-12-09T09:48:49Z</time>
      </trkpt>
      <trkpt lat="43.89242" lon="7.28667">
        <ele>1088.442741</ele>
        <time>2012-12-09T09:48:54Z</time>
      </trkpt>
      <trkpt lat="43.89242" lon="7.28667">
        <ele>1088.442741</ele>
        <time>2012-12-09T09:48:57Z</time>
      </trkpt>
      <trkpt lat="43.89242" lon="7.28667">
        <ele>1089.442734</ele>
        <time>2012-12-09T09:49:01Z</time>
      </trkpt>
      <trkpt lat="43.89242" lon="7.28667">
        <ele>1089.442738</ele>
        <time>2012-12-09T09:49:04Z</time>
      </trkpt>
      <trkpt lat="43.89243" lon="7.28666">
        <ele>1090.442738</ele>
        <time>2012-12-09T09:49:09Z</time>
      </trkpt>
      <trkpt lat="43.89243" lon="7.28666">
        <ele>1090.442741</ele>
        <time>2012-12-09T09:49:12Z</time>
      </trkpt>
      <trkpt lat="43.89243" lon="7.28665">
        <ele>1091.442734</ele>
        <time>2012-12-09T09:49:16Z</time>
      </trkpt>
      <trkpt lat="43.89243" lon="7.28665">
        <ele>1091.442734</ele>
        <time>2012-12-09T09:49:21Z</time>
      </trkpt>
      <trkpt lat="43.89243" lon="7.28664">
        <ele>1091.442734</ele>
        <time>2012-12-09T09:49:25Z</time>
      </trkpt>
      <trkpt lat="43.89242" lon="7.28664">
        <ele>1091.442734</ele>
        <time>2012-12-09T09:49:30Z</time>
      </trkpt>
      <trkpt lat="43.89242" lon="7.28664">
        <ele>1091.442734</ele>
        <time>2012-12-09T09:49:34Z</time>
      </trkpt>
      <trkpt lat="43.89242" lon="7.28664">
        <ele>1091.442734</ele>
        <time>2012-12-09T09:49:37Z</time>
      </trkpt>
      <trkpt lat="43.89242" lon="7.28664">
        <ele>1091.442734</ele>
        <time>2012-12-09T09:49:42Z</time>
      </trkpt>
      <trkpt lat="43.89241" lon="7.28664">
        <ele>1091.442734</ele>
        <time>2012-12-09T09:49:45Z</time>
      </trkpt>
      <trkpt lat="43.89241" lon="7.28665">
        <ele>1091.442734</ele>
        <time>2012-12-09T09:49:50Z</time>
      </trkpt>
      <trkpt lat="43.89241" lon="7.28665">
        <ele>1091.442734</ele>
        <time>2012-12-09T09:49:54Z</time>
      </trkpt>
      <trkpt lat="43.89241" lon="7.28665">
        <ele>1090.442734</ele>
        <time>2012-12-09T09:49:58Z</time>
      </trkpt>
      <trkpt lat="43.89241" lon="7.28665">
        <ele>1089.442734</ele>
        <time>2012-12-09T09:50:02Z</time>
      </trkpt>
      <trkpt lat="43.89241" lon="7.28665">
        <ele>1089.442734</ele>
        <time>2012-12-09T09:50:06Z</time>
      </trkpt>
      <trkpt lat="43.8924" lon="7.28665">
        <ele>1088.44273</ele>
        <time>2012-12-09T09:50:11Z</time>
      </trkpt>
      <trkpt lat="43.8924" lon="7.28665">
        <ele>1087.44273</ele>
        <time>2012-12-09T09:50:16Z</time>
      </trkpt>
      <trkpt lat="43.8924" lon="7.28665">
        <ele>1087.442726</ele>
        <time>2012-12-09T09:50:20Z</time>
      </trkpt>
      <trkpt lat="43.89239" lon="7.28665">
        <ele>1087.44273</ele>
        <time>2012-12-09T09:50:24Z</time>
      </trkpt>
      <trkpt lat="43.89239" lon="7.28665">
        <ele>1088.44273</ele>
        <time>2012-12-09T09:50:29Z</time>
      </trkpt>
      <trkpt lat="43.89239" lon="7.28665">
        <ele>1090.44273</ele>
        <time>2012-12-09T09:50:34Z</time>
      </trkpt>
      <trkpt lat="43.89239" lon="7.28665">
        <ele>1090.44273</ele>
        <time>2012-12-09T09:50:38Z</time>
      </trkpt>
      <trkpt lat="43.89239" lon="7.28665">
        <ele>1091.44273</ele>
        <time>2012-12-09T09:50:42Z</time>
      </trkpt>
      <trkpt lat="43.89239" lon="7.28665">
        <ele>1091.44273</ele>
        <time>2012-12-09T09:50:45Z</time>
      </trkpt>
      <trkpt lat="43.89239" lon="7.28665">
        <ele>1091.44273</ele>
        <time>2012-12-09T09:50:49Z</time>
      </trkpt>
      <trkpt lat="43.89239" lon="7.28665">
        <ele>1091.44273</ele>
        <time>2012-12-09T09:50:52Z</time>
      </trkpt>
      <trkpt lat="43.89239" lon="7.28667">
        <ele>1091.442734</ele>
        <time>2012-12-09T09:50:58Z</time>
      </trkpt>
      <trkpt lat="43.89238" lon="7.28668">
        <ele>1091.442738</ele>
        <time>2012-12-09T09:51:01Z</time>
      </trkpt>
      <trkpt lat="43.89237" lon="7.28669">
        <ele>1091.442734</ele>
        <time>2012-12-09T09:51:04Z</time>
      </trkpt>
      <trkpt lat="43.89236" lon="7.28671">
        <ele>1090.442738</ele>
        <time>2012-12-09T09:51:08Z</time>
      </trkpt>
      <trkpt lat="43.89236" lon="7.28672">
        <ele>1092.442741</ele>
        <time>2012-12-09T09:51:12Z</time>
      </trkpt>
      <trkpt lat="43.89235" lon="7.28675">
        <ele>1091.442741</ele>
        <time>2012-12-09T09:51:16Z</time>
      </trkpt>
      <trkpt lat="43.89235" lon="7.28677">
        <ele>1092.442749</ele>
        <time>2012-12-09T09:51:19Z</time>
      </trkpt>
      <trkpt lat="43.89236" lon="7.28682">
        <ele>1092.442757</ele>
        <time>2012-12-09T09:51:23Z</time>
      </trkpt>
      <trkpt lat="43.89238" lon="7.2869">
        <ele>1093.44278</ele>
        <time>2012-12-09T09:51:31Z</time>
      </trkpt>
      <trkpt lat="43.8924" lon="7.28695">
        <ele>1093.442795</ele>
        <time>2012-12-09T09:51:35Z</time>
      </trkpt>
      <trkpt lat="43.89243" lon="7.28698">
        <ele>1092.442806</ele>
        <time>2012-12-09T09:51:38Z</time>
      </trkpt>
      <trkpt lat="43.89252" lon="7.28706">
        <ele>1093.442833</ele>
        <time>2012-12-09T09:51:45Z</time>
      </trkpt>
      <trkpt lat="43.89258" lon="7.2871">
        <ele>1093.442848</ele>
        <time>2012-12-09T09:51:50Z</time>
      </trkpt>
      <trkpt lat="43.89263" lon="7.28713">
        <ele>1092.442863</ele>
        <time>2012-12-09T09:51:54Z</time>
      </trkpt>
      <trkpt lat="43.89266" lon="7.28716">
        <ele>1093.442871</ele>
        <time>2012-12-09T09:51:58Z</time>
      </trkpt>
      <trkpt lat="43.89269" lon="7.28719">
        <ele>1094.442879</ele>
        <time>2012-12-09T09:52:04Z</time>
      </trkpt>
      <trkpt lat="43.89271" lon="7.28719">
        <ele>1094.442886</ele>
        <time>2012-12-09T09:52:08Z</time>
      </trkpt>
      <trkpt lat="43.89273" lon="7.2872">
        <ele>1094.442886</ele>
        <time>2012-12-09T09:52:12Z</time>
      </trkpt>
      <trkpt lat="43.89275" lon="7.28721">
        <ele>1094.44289</ele>
        <time>2012-12-09T09:52:16Z</time>
      </trkpt>
      <trkpt lat="43.89277" lon="7.28721">
        <ele>1095.442894</ele>
        <time>2012-12-09T09:52:20Z</time>
      </trkpt>
      <trkpt lat="43.8928" lon="7.28721">
        <ele>1096.442902</ele>
        <time>2012-12-09T09:52:24Z</time>
      </trkpt>
      <trkpt lat="43.89282" lon="7.28722">
        <ele>1095.442905</ele>
        <time>2012-12-09T09:52:28Z</time>
      </trkpt>
      <trkpt lat="43.89285" lon="7.28724">
        <ele>1095.442913</ele>
        <time>2012-12-09T09:52:33Z</time>
      </trkpt>
      <trkpt lat="43.89288" lon="7.28727">
        <ele>1095.442924</ele>
        <time>2012-12-09T09:52:38Z</time>
      </trkpt>
      <trkpt lat="43.89289" lon="7.2873">
        <ele>1096.442932</ele>
        <time>2012-12-09T09:52:42Z</time>
      </trkpt>
      <trkpt lat="43.89291" lon="7.28731">
        <ele>1097.442936</ele>
        <time>2012-12-09T09:52:45Z</time>
      </trkpt>
      <trkpt lat="43.89293" lon="7.28733">
        <ele>1098.442944</ele>
        <time>2012-12-09T09:52:49Z</time>
      </trkpt>
      <trkpt lat="43.89296" lon="7.28734">
        <ele>1098.442947</ele>
        <time>2012-12-09T09:52:53Z</time>
      </trkpt>
      <trkpt lat="43.89301" lon="7.28735">
        <ele>1099.442963</ele>
        <time>2012-12-09T09:53:00Z</time>
      </trkpt>
      <trkpt lat="43.89305" lon="7.28735">
        <ele>1099.442963</ele>
        <time>2012-12-09T09:53:04Z</time>
      </trkpt>
      <trkpt lat="43.89309" lon="7.28733">
        <ele>1099.442966</ele>
        <time>2012-12-09T09:53:11Z</time>
      </trkpt>
      <trkpt lat="43.89312" lon="7.28734">
        <ele>1099.442974</ele>
        <time>2012-12-09T09:53:15Z</time>
      </trkpt>
      <trkpt lat="43.89321" lon="7.28737">
        <ele>1103.442989</ele>
        <time>2012-12-09T09:53:29Z</time>
      </trkpt>
      <trkpt lat="43.89324" lon="7.28738">
        <ele>1104.442997</ele>
        <time>2012-12-09T09:53:33Z</time>
      </trkpt>
      <trkpt lat="43.89328" lon="7.2874">
        <ele>1105.443005</ele>
        <time>2012-12-09T09:53:38Z</time>
      </trkpt>
      <trkpt lat="43.89337" lon="7.28747">
        <ele>1107.443031</ele>
        <time>2012-12-09T09:53:50Z</time>
      </trkpt>
      <trkpt lat="43.89343" lon="7.28754">
        <ele>1109.443054</ele>
        <time>2012-12-09T09:53:57Z</time>
      </trkpt>
      <trkpt lat="43.89344" lon="7.28756">
        <ele>1110.443062</ele>
        <time>2012-12-09T09:53:59Z</time>
      </trkpt>
      <trkpt lat="43.89345" lon="7.28762">
        <ele>1110.443077</ele>
        <time>2012-12-09T09:54:08Z</time>
      </trkpt>
      <trkpt lat="43.89343" lon="7.28767">
        <ele>1111.443085</ele>
        <time>2012-12-09T09:54:15Z</time>
      </trkpt>
      <trkpt lat="43.89343" lon="7.2877">
        <ele>1111.443085</ele>
        <time>2012-12-09T09:54:18Z</time>
      </trkpt>
      <trkpt lat="43.89343" lon="7.28773">
        <ele>1110.443092</ele>
        <time>2012-12-09T09:54:22Z</time>
      </trkpt>
      <trkpt lat="43.89351" lon="7.28779">
        <ele>1115.443115</ele>
        <time>2012-12-09T09:54:36Z</time>
      </trkpt>
      <trkpt lat="43.89354" lon="7.28779">
        <ele>1115.443123</ele>
        <time>2012-12-09T09:54:39Z</time>
      </trkpt>
      <trkpt lat="43.89365" lon="7.28782">
        <ele>1117.443146</ele>
        <time>2012-12-09T09:54:56Z</time>
      </trkpt>
      <trkpt lat="43.89371" lon="7.28781">
        <ele>1118.443146</ele>
        <time>2012-12-09T09:55:02Z</time>
      </trkpt>
      <trkpt lat="43.89378" lon="7.28777">
        <ele>1119.443153</ele>
        <time>2012-12-09T09:55:10Z</time>
      </trkpt>
      <trkpt lat="43.89382" lon="7.28773">
        <ele>1118.443146</ele>
        <time>2012-12-09T09:55:14Z</time>
      </trkpt>
      <trkpt lat="43.89389" lon="7.28767">
        <ele>1116.443146</ele>
        <time>2012-12-09T09:55:21Z</time>
      </trkpt>
      <trkpt lat="43.89392" lon="7.28764">
        <ele>1115.443138</ele>
        <time>2012-12-09T09:55:25Z</time>
      </trkpt>
      <trkpt lat="43.89395" lon="7.28762">
        <ele>1116.443138</ele>
        <time>2012-12-09T09:55:29Z</time>
      </trkpt>
      <trkpt lat="43.89397" lon="7.28758">
        <ele>1115.443138</ele>
        <time>2012-12-09T09:55:33Z</time>
      </trkpt>
      <trkpt lat="43.89398" lon="7.28756">
        <ele>1115.44313</ele>
        <time>2012-12-09T09:55:36Z</time>
      </trkpt>
      <trkpt lat="43.89401" lon="7.28749">
        <ele>1115.443119</ele>
        <time>2012-12-09T09:55:43Z</time>
      </trkpt>
      <trkpt lat="43.89402" lon="7.28747">
        <ele>1116.443115</ele>
        <time>2012-12-09T09:55:46Z</time>
      </trkpt>
      <trkpt lat="43.89405" lon="7.28743">
        <ele>1118.443115</ele>
        <time>2012-12-09T09:55:53Z</time>
      </trkpt>
      <trkpt lat="43.89407" lon="7.28741">
        <ele>1118.443115</ele>
        <time>2012-12-09T09:56:00Z</time>
      </trkpt>
      <trkpt lat="43.8941" lon="7.28737">
        <ele>1120.443108</ele>
        <time>2012-12-09T09:56:05Z</time>
      </trkpt>
      <trkpt lat="43.89412" lon="7.28734">
        <ele>1122.443108</ele>
        <time>2012-12-09T09:56:09Z</time>
      </trkpt>
      <trkpt lat="43.89417" lon="7.28728">
        <ele>1123.4431</ele>
        <time>2012-12-09T09:56:18Z</time>
      </trkpt>
      <trkpt lat="43.89425" lon="7.28723">
        <ele>1123.4431</ele>
        <time>2012-12-09T09:56:27Z</time>
      </trkpt>
      <trkpt lat="43.8943" lon="7.28719">
        <ele>1125.4431</ele>
        <time>2012-12-09T09:56:32Z</time>
      </trkpt>
      <trkpt lat="43.89435" lon="7.28717">
        <ele>1125.443108</ele>
        <time>2012-12-09T09:56:37Z</time>
      </trkpt>
      <trkpt lat="43.89443" lon="7.28712">
        <ele>1125.443108</ele>
        <time>2012-12-09T09:56:46Z</time>
      </trkpt>
      <trkpt lat="43.89449" lon="7.28709">
        <ele>1126.443104</ele>
        <time>2012-12-09T09:56:53Z</time>
      </trkpt>
      <trkpt lat="43.89454" lon="7.28707">
        <ele>1126.443108</ele>
        <time>2012-12-09T09:56:57Z</time>
      </trkpt>
      <trkpt lat="43.89458" lon="7.28706">
        <ele>1125.443115</ele>
        <time>2012-12-09T09:57:01Z</time>
      </trkpt>
      <trkpt lat="43.89462" lon="7.28703">
        <ele>1124.443111</ele>
        <time>2012-12-09T09:57:05Z</time>
      </trkpt>
      <trkpt lat="43.89466" lon="7.287">
        <ele>1125.443111</ele>
        <time>2012-12-09T09:57:09Z</time>
      </trkpt>
      <trkpt lat="43.89469" lon="7.28699">
        <ele>1125.443111</ele>
        <time>2012-12-09T09:57:12Z</time>
      </trkpt>
      <trkpt lat="43.89474" lon="7.28698">
        <ele>1125.443119</ele>
        <time>2012-12-09T09:57:18Z</time>
      </trkpt>
      <trkpt lat="43.89478" lon="7.28699">
        <ele>1126.443123</ele>
        <time>2012-12-09T09:57:23Z</time>
      </trkpt>
      <trkpt lat="43.89482" lon="7.28699">
        <ele>1127.44313</ele>
        <time>2012-12-09T09:57:29Z</time>
      </trkpt>
      <trkpt lat="43.89484" lon="7.28698">
        <ele>1129.44313</ele>
        <time>2012-12-09T09:57:34Z</time>
      </trkpt>
      <trkpt lat="43.89485" lon="7.28696">
        <ele>1129.44313</ele>
        <time>2012-12-09T09:57:37Z</time>
      </trkpt>
      <trkpt lat="43.89486" lon="7.28694">
        <ele>1129.443127</ele>
        <time>2012-12-09T09:57:40Z</time>
      </trkpt>
      <trkpt lat="43.89486" lon="7.2869">
        <ele>1131.443115</ele>
        <time>2012-12-09T09:57:46Z</time>
      </trkpt>
      <trkpt lat="43.89487" lon="7.28688">
        <ele>1131.443119</ele>
        <time>2012-12-09T09:57:49Z</time>
      </trkpt>
      <trkpt lat="43.8949" lon="7.28686">
        <ele>1132.443115</ele>
        <time>2012-12-09T09:57:54Z</time>
      </trkpt>
      <trkpt lat="43.89492" lon="7.28682">
        <ele>1134.443108</ele>
        <time>2012-12-09T09:57:59Z</time>
      </trkpt>
      <trkpt lat="43.89494" lon="7.28679">
        <ele>1134.443108</ele>
        <time>2012-12-09T09:58:03Z</time>
      </trkpt>
      <trkpt lat="43.89497" lon="7.28676">
        <ele>1134.443104</ele>
        <time>2012-12-09T09:58:07Z</time>
      </trkpt>
      <trkpt lat="43.895" lon="7.28675">
        <ele>1135.443108</ele>
        <time>2012-12-09T09:58:11Z</time>
      </trkpt>
      <trkpt lat="43.89504" lon="7.28673">
        <ele>1136.443108</ele>
        <time>2012-12-09T09:58:15Z</time>
      </trkpt>
      <trkpt lat="43.89509" lon="7.28673">
        <ele>1137.443115</ele>
        <time>2012-12-09T09:58:20Z</time>
      </trkpt>
      <trkpt lat="43.89513" lon="7.28673">
        <ele>1138.443119</ele>
        <time>2012-12-09T09:58:24Z</time>
      </trkpt>
      <trkpt lat="43.89516" lon="7.28673">
        <ele>1137.443123</ele>
        <time>2012-12-09T09:58:28Z</time>
      </trkpt>
      <trkpt lat="43.8952" lon="7.28672">
        <ele>1138.443123</ele>
        <time>2012-12-09T09:58:32Z</time>
      </trkpt>
      <trkpt lat="43.89524" lon="7.28671">
        <ele>1139.443127</ele>
        <time>2012-12-09T09:58:36Z</time>
      </trkpt>
      <trkpt lat="43.89527" lon="7.2867">
        <ele>1140.44313</ele>
        <time>2012-12-09T09:58:40Z</time>
      </trkpt>
      <trkpt lat="43.8953" lon="7.2867">
        <ele>1141.443134</ele>
        <time>2012-12-09T09:58:44Z</time>
      </trkpt>
      <trkpt lat="43.89532" lon="7.2867">
        <ele>1142.443138</ele>
        <time>2012-12-09T09:58:48Z</time>
      </trkpt>
      <trkpt lat="43.89536" lon="7.2867">
        <ele>1142.443146</ele>
        <time>2012-12-09T09:58:52Z</time>
      </trkpt>
      <trkpt lat="43.89539" lon="7.28669">
        <ele>1142.443146</ele>
        <time>2012-12-09T09:58:56Z</time>
      </trkpt>
      <trkpt lat="43.89542" lon="7.28667">
        <ele>1144.443146</ele>
        <time>2012-12-09T09:59:01Z</time>
      </trkpt>
      <trkpt lat="43.89544" lon="7.28665">
        <ele>1144.443146</ele>
        <time>2012-12-09T09:59:05Z</time>
      </trkpt>
      <trkpt lat="43.89546" lon="7.28664">
        <ele>1143.443146</ele>
        <time>2012-12-09T09:59:08Z</time>
      </trkpt>
      <trkpt lat="43.89548" lon="7.28661">
        <ele>1145.443138</ele>
        <time>2012-12-09T09:59:12Z</time>
      </trkpt>
      <trkpt lat="43.89549" lon="7.28659">
        <ele>1145.443138</ele>
        <time>2012-12-09T09:59:15Z</time>
      </trkpt>
      <trkpt lat="43.89552" lon="7.28659">
        <ele>1146.443142</ele>
        <time>2012-12-09T09:59:19Z</time>
      </trkpt>
      <trkpt lat="43.89556" lon="7.28658">
        <ele>1146.44315</ele>
        <time>2012-12-09T09:59:23Z</time>
      </trkpt>
      <trkpt lat="43.8956" lon="7.28656">
        <ele>1147.44315</ele>
        <time>2012-12-09T09:59:28Z</time>
      </trkpt>
      <trkpt lat="43.89563" lon="7.28656">
        <ele>1148.44315</ele>
        <time>2012-12-09T09:59:31Z</time>
      </trkpt>
      <trkpt lat="43.89566" lon="7.28656">
        <ele>1148.443153</ele>
        <time>2012-12-09T09:59:34Z</time>
      </trkpt>
      <trkpt lat="43.89568" lon="7.28657">
        <ele>1149.443161</ele>
        <time>2012-12-09T09:59:37Z</time>
      </trkpt>
      <trkpt lat="43.89573" lon="7.28662">
        <ele>1148.443176</ele>
        <time>2012-12-09T09:59:44Z</time>
      </trkpt>
      <trkpt lat="43.89577" lon="7.28666">
        <ele>1149.443192</ele>
        <time>2012-12-09T09:59:50Z</time>
      </trkpt>
      <trkpt lat="43.8958" lon="7.28668">
        <ele>1150.443199</ele>
        <time>2012-12-09T09:59:54Z</time>
      </trkpt>
      <trkpt lat="43.89584" lon="7.28672">
        <ele>1150.443214</ele>
        <time>2012-12-09T09:59:59Z</time>
      </trkpt>
      <trkpt lat="43.89587" lon="7.28675">
        <ele>1151.443222</ele>
        <time>2012-12-09T10:00:03Z</time>
      </trkpt>
      <trkpt lat="43.8959" lon="7.28677">
        <ele>1152.44323</ele>
        <time>2012-12-09T10:00:07Z</time>
      </trkpt>
      <trkpt lat="43.89593" lon="7.28678">
        <ele>1152.443237</ele>
        <time>2012-12-09T10:00:11Z</time>
      </trkpt>
      <trkpt lat="43.89598" lon="7.28679">
        <ele>1153.443249</ele>
        <time>2012-12-09T10:00:17Z</time>
      </trkpt>
      <trkpt lat="43.89601" lon="7.2868">
        <ele>1154.443253</ele>
        <time>2012-12-09T10:00:22Z</time>
      </trkpt>
      <trkpt lat="43.89605" lon="7.28681">
        <ele>1153.44326</ele>
        <time>2012-12-09T10:00:27Z</time>
      </trkpt>
      <trkpt lat="43.89607" lon="7.28681">
        <ele>1154.443264</ele>
        <time>2012-12-09T10:00:30Z</time>
      </trkpt>
      <trkpt lat="43.8961" lon="7.28682">
        <ele>1155.443268</ele>
        <time>2012-12-09T10:00:34Z</time>
      </trkpt>
      <trkpt lat="43.89614" lon="7.28682">
        <ele>1156.443275</ele>
        <time>2012-12-09T10:00:39Z</time>
      </trkpt>
      <trkpt lat="43.89618" lon="7.28681">
        <ele>1156.443279</ele>
        <time>2012-12-09T10:00:44Z</time>
      </trkpt>
      <trkpt lat="43.89621" lon="7.28681">
        <ele>1157.443275</ele>
        <time>2012-12-09T10:00:48Z</time>
      </trkpt>
      <trkpt lat="43.89624" lon="7.28679">
        <ele>1158.443283</ele>
        <time>2012-12-09T10:00:52Z</time>
      </trkpt>
      <trkpt lat="43.89627" lon="7.28677">
        <ele>1159.443283</ele>
        <time>2012-12-09T10:00:56Z</time>
      </trkpt>
      <trkpt lat="43.8963" lon="7.28675">
        <ele>1159.443283</ele>
        <time>2012-12-09T10:01:00Z</time>
      </trkpt>
      <trkpt lat="43.89633" lon="7.28674">
        <ele>1160.443283</ele>
        <time>2012-12-09T10:01:05Z</time>
      </trkpt>
      <trkpt lat="43.89636" lon="7.28673">
        <ele>1161.443283</ele>
        <time>2012-12-09T10:01:09Z</time>
      </trkpt>
      <trkpt lat="43.89638" lon="7.28671">
        <ele>1161.443283</ele>
        <time>2012-12-09T10:01:13Z</time>
      </trkpt>
      <trkpt lat="43.8964" lon="7.2867">
        <ele>1162.443287</ele>
        <time>2012-12-09T10:01:16Z</time>
      </trkpt>
      <trkpt lat="43.89642" lon="7.28668">
        <ele>1162.443283</ele>
        <time>2012-12-09T10:01:19Z</time>
      </trkpt>
      <trkpt lat="43.89644" lon="7.28666">
        <ele>1164.443283</ele>
        <time>2012-12-09T10:01:23Z</time>
      </trkpt>
      <trkpt lat="43.89648" lon="7.28663">
        <ele>1164.443283</ele>
        <time>2012-12-09T10:01:28Z</time>
      </trkpt>
      <trkpt lat="43.8965" lon="7.28661">
        <ele>1165.443279</ele>
        <time>2012-12-09T10:01:32Z</time>
      </trkpt>
      <trkpt lat="43.89656" lon="7.28659">
        <ele>1165.443283</ele>
        <time>2012-12-09T10:01:40Z</time>
      </trkpt>
      <trkpt lat="43.89659" lon="7.28658">
        <ele>1166.443283</ele>
        <time>2012-12-09T10:01:44Z</time>
      </trkpt>
      <trkpt lat="43.89662" lon="7.28656">
        <ele>1167.443291</ele>
        <time>2012-12-09T10:01:48Z</time>
      </trkpt>
      <trkpt lat="43.89665" lon="7.28655">
        <ele>1169.443291</ele>
        <time>2012-12-09T10:01:52Z</time>
      </trkpt>
      <trkpt lat="43.89668" lon="7.28655">
        <ele>1169.443295</ele>
        <time>2012-12-09T10:01:56Z</time>
      </trkpt>
      <trkpt lat="43.89672" lon="7.28654">
        <ele>1170.443291</ele>
        <time>2012-12-09T10:02:00Z</time>
      </trkpt>
      <trkpt lat="43.89674" lon="7.28652">
        <ele>1170.443295</ele>
        <time>2012-12-09T10:02:03Z</time>
      </trkpt>
      <trkpt lat="43.89676" lon="7.2865">
        <ele>1170.443291</ele>
        <time>2012-12-09T10:02:07Z</time>
      </trkpt>
      <trkpt lat="43.89679" lon="7.28647">
        <ele>1170.443291</ele>
        <time>2012-12-09T10:02:11Z</time>
      </trkpt>
      <trkpt lat="43.89683" lon="7.28645">
        <ele>1171.443291</ele>
        <time>2012-12-09T10:02:15Z</time>
      </trkpt>
      <trkpt lat="43.89687" lon="7.28644">
        <ele>1171.443291</ele>
        <time>2012-12-09T10:02:19Z</time>
      </trkpt>
      <trkpt lat="43.89692" lon="7.28642">
        <ele>1171.443295</ele>
        <time>2012-12-09T10:02:23Z</time>
      </trkpt>
      <trkpt lat="43.89696" lon="7.2864">
        <ele>1172.443298</ele>
        <time>2012-12-09T10:02:27Z</time>
      </trkpt>
      <trkpt lat="43.897" lon="7.28638">
        <ele>1172.443302</ele>
        <time>2012-12-09T10:02:31Z</time>
      </trkpt>
      <trkpt lat="43.89705" lon="7.28637">
        <ele>1173.443306</ele>
        <time>2012-12-09T10:02:35Z</time>
      </trkpt>
      <trkpt lat="43.8971" lon="7.28637">
        <ele>1175.44331</ele>
        <time>2012-12-09T10:02:39Z</time>
      </trkpt>
      <trkpt lat="43.89715" lon="7.28635">
        <ele>1175.443317</ele>
        <time>2012-12-09T10:02:43Z</time>
      </trkpt>
      <trkpt lat="43.89719" lon="7.28634">
        <ele>1176.443321</ele>
        <time>2012-12-09T10:02:48Z</time>
      </trkpt>
      <trkpt lat="43.89723" lon="7.28632">
        <ele>1177.443321</ele>
        <time>2012-12-09T10:02:52Z</time>
      </trkpt>
      <trkpt lat="43.89727" lon="7.2863">
        <ele>1177.443321</ele>
        <time>2012-12-09T10:02:57Z</time>
      </trkpt>
      <trkpt lat="43.8973" lon="7.28628">
        <ele>1177.443321</ele>
        <time>2012-12-09T10:03:01Z</time>
      </trkpt>
      <trkpt lat="43.89733" lon="7.28625">
        <ele>1178.443317</ele>
        <time>2012-12-09T10:03:06Z</time>
      </trkpt>
      <trkpt lat="43.89736" lon="7.28623">
        <ele>1181.443317</ele>
        <time>2012-12-09T10:03:10Z</time>
      </trkpt>
      <trkpt lat="43.8974" lon="7.28621">
        <ele>1182.443321</ele>
        <time>2012-12-09T10:03:14Z</time>
      </trkpt>
      <trkpt lat="43.89745" lon="7.2862">
        <ele>1182.443325</ele>
        <time>2012-12-09T10:03:19Z</time>
      </trkpt>
      <trkpt lat="43.89749" lon="7.28618">
        <ele>1184.443329</ele>
        <time>2012-12-09T10:03:23Z</time>
      </trkpt>
      <trkpt lat="43.89752" lon="7.28618">
        <ele>1185.443329</ele>
        <time>2012-12-09T10:03:26Z</time>
      </trkpt>
      <trkpt lat="43.89757" lon="7.28615">
        <ele>1187.443329</ele>
        <time>2012-12-09T10:03:31Z</time>
      </trkpt>
      <trkpt lat="43.89765" lon="7.28612">
        <ele>1186.443336</ele>
        <time>2012-12-09T10:03:38Z</time>
      </trkpt>
      <trkpt lat="43.89769" lon="7.2861">
        <ele>1187.443336</ele>
        <time>2012-12-09T10:03:42Z</time>
      </trkpt>
      <trkpt lat="43.89775" lon="7.28607">
        <ele>1188.443336</ele>
        <time>2012-12-09T10:03:48Z</time>
      </trkpt>
      <trkpt lat="43.89778" lon="7.28606">
        <ele>1188.443336</ele>
        <time>2012-12-09T10:03:51Z</time>
      </trkpt>
      <trkpt lat="43.89786" lon="7.28605">
        <ele>1189.443352</ele>
        <time>2012-12-09T10:03:58Z</time>
      </trkpt>
      <trkpt lat="43.89795" lon="7.28605">
        <ele>1191.443363</ele>
        <time>2012-12-09T10:04:05Z</time>
      </trkpt>
      <trkpt lat="43.89804" lon="7.28606">
        <ele>1192.443378</ele>
        <time>2012-12-09T10:04:12Z</time>
      </trkpt>
      <trkpt lat="43.89811" lon="7.28608">
        <ele>1192.44339</ele>
        <time>2012-12-09T10:04:18Z</time>
      </trkpt>
      <trkpt lat="43.89816" lon="7.28609">
        <ele>1193.443398</ele>
        <time>2012-12-09T10:04:23Z</time>
      </trkpt>
      <trkpt lat="43.89824" lon="7.2861">
        <ele>1194.443413</ele>
        <time>2012-12-09T10:04:30Z</time>
      </trkpt>
      <trkpt lat="43.89831" lon="7.28612">
        <ele>1195.443428</ele>
        <time>2012-12-09T10:04:36Z</time>
      </trkpt>
      <trkpt lat="43.8984" lon="7.28614">
        <ele>1197.443439</ele>
        <time>2012-12-09T10:04:44Z</time>
      </trkpt>
      <trkpt lat="43.89845" lon="7.28615">
        <ele>1197.443451</ele>
        <time>2012-12-09T10:04:48Z</time>
      </trkpt>
      <trkpt lat="43.89852" lon="7.28617">
        <ele>1198.443466</ele>
        <time>2012-12-09T10:04:54Z</time>
      </trkpt>
      <trkpt lat="43.89858" lon="7.28618">
        <ele>1199.443474</ele>
        <time>2012-12-09T10:04:59Z</time>
      </trkpt>
      <trkpt lat="43.89868" lon="7.2862">
        <ele>1200.443489</ele>
        <time>2012-12-09T10:05:06Z</time>
      </trkpt>
      <trkpt lat="43.89873" lon="7.28621">
        <ele>1200.443504</ele>
        <time>2012-12-09T10:05:11Z</time>
      </trkpt>
      <trkpt lat="43.89878" lon="7.28622">
        <ele>1201.443512</ele>
        <time>2012-12-09T10:05:15Z</time>
      </trkpt>
      <trkpt lat="43.89882" lon="7.28622">
        <ele>1201.443512</ele>
        <time>2012-12-09T10:05:19Z</time>
      </trkpt>
      <trkpt lat="43.89886" lon="7.28622">
        <ele>1201.44352</ele>
        <time>2012-12-09T10:05:23Z</time>
      </trkpt>
      <trkpt lat="43.8989" lon="7.28622">
        <ele>1201.443527</ele>
        <time>2012-12-09T10:05:27Z</time>
      </trkpt>
      <trkpt lat="43.89895" lon="7.28622">
        <ele>1202.443535</ele>
        <time>2012-12-09T10:05:31Z</time>
      </trkpt>
      <trkpt lat="43.899" lon="7.28623">
        <ele>1203.443542</ele>
        <time>2012-12-09T10:05:35Z</time>
      </trkpt>
      <trkpt lat="43.89905" lon="7.28622">
        <ele>1204.44355</ele>
        <time>2012-12-09T10:05:40Z</time>
      </trkpt>
      <trkpt lat="43.89911" lon="7.28621">
        <ele>1204.44355</ele>
        <time>2012-12-09T10:05:46Z</time>
      </trkpt>
      <trkpt lat="43.89914" lon="7.2862">
        <ele>1203.443558</ele>
        <time>2012-12-09T10:05:50Z</time>
      </trkpt>
      <trkpt lat="43.89918" lon="7.2862">
        <ele>1203.443562</ele>
        <time>2012-12-09T10:05:54Z</time>
      </trkpt>
      <trkpt lat="43.89921" lon="7.28622">
        <ele>1205.443573</ele>
        <time>2012-12-09T10:05:58Z</time>
      </trkpt>
      <trkpt lat="43.89925" lon="7.28625">
        <ele>1205.443581</ele>
        <time>2012-12-09T10:06:02Z</time>
      </trkpt>
      <trkpt lat="43.89932" lon="7.28629">
        <ele>1204.443596</ele>
        <time>2012-12-09T10:06:08Z</time>
      </trkpt>
      <trkpt lat="43.89936" lon="7.28632">
        <ele>1204.443611</ele>
        <time>2012-12-09T10:06:12Z</time>
      </trkpt>
      <trkpt lat="43.89939" lon="7.28634">
        <ele>1205.443619</ele>
        <time>2012-12-09T10:06:15Z</time>
      </trkpt>
      <trkpt lat="43.89943" lon="7.28636">
        <ele>1205.443626</ele>
        <time>2012-12-09T10:06:18Z</time>
      </trkpt>
      <trkpt lat="43.89947" lon="7.28638">
        <ele>1205.443634</ele>
        <time>2012-12-09T10:06:22Z</time>
      </trkpt>
      <trkpt lat="43.89953" lon="7.28638">
        <ele>1205.443642</ele>
        <time>2012-12-09T10:06:27Z</time>
      </trkpt>
      <trkpt lat="43.89961" lon="7.2864">
        <ele>1205.443657</ele>
        <time>2012-12-09T10:06:35Z</time>
      </trkpt>
      <trkpt lat="43.89967" lon="7.28641">
        <ele>1206.443668</ele>
        <time>2012-12-09T10:06:40Z</time>
      </trkpt>
      <trkpt lat="43.89971" lon="7.28642">
        <ele>1207.443672</ele>
        <time>2012-12-09T10:06:44Z</time>
      </trkpt>
      <trkpt lat="43.89975" lon="7.28643">
        <ele>1207.443687</ele>
        <time>2012-12-09T10:06:48Z</time>
      </trkpt>
      <trkpt lat="43.89979" lon="7.28643">
        <ele>1208.443687</ele>
        <time>2012-12-09T10:06:52Z</time>
      </trkpt>
      <trkpt lat="43.89982" lon="7.28642">
        <ele>1208.443691</ele>
        <time>2012-12-09T10:06:55Z</time>
      </trkpt>
      <trkpt lat="43.89986" lon="7.28641">
        <ele>1209.443691</ele>
        <time>2012-12-09T10:06:59Z</time>
      </trkpt>
      <trkpt lat="43.89988" lon="7.28639">
        <ele>1209.443695</ele>
        <time>2012-12-09T10:07:02Z</time>
      </trkpt>
      <trkpt lat="43.89993" lon="7.28638">
        <ele>1210.443699</ele>
        <time>2012-12-09T10:07:06Z</time>
      </trkpt>
      <trkpt lat="43.89997" lon="7.28637">
        <ele>1210.443699</ele>
        <time>2012-12-09T10:07:10Z</time>
      </trkpt>
      <trkpt lat="43.90002" lon="7.28637">
        <ele>1210.44371</ele>
        <time>2012-12-09T10:07:14Z</time>
      </trkpt>
      <trkpt lat="43.90008" lon="7.28639">
        <ele>1211.443726</ele>
        <time>2012-12-09T10:07:20Z</time>
      </trkpt>
      <trkpt lat="43.90013" lon="7.2864">
        <ele>1211.443726</ele>
        <time>2012-12-09T10:07:24Z</time>
      </trkpt>
      <trkpt lat="43.90015" lon="7.28641">
        <ele>1212.443733</ele>
        <time>2012-12-09T10:07:28Z</time>
      </trkpt>
      <trkpt lat="43.90016" lon="7.28641">
        <ele>1212.443737</ele>
        <time>2012-12-09T10:07:31Z</time>
      </trkpt>
      <trkpt lat="43.90016" lon="7.28641">
        <ele>1211.443737</ele>
        <time>2012-12-09T10:07:33Z</time>
      </trkpt>
      <trkpt lat="43.90016" lon="7.28641">
        <ele>1211.443737</ele>
        <time>2012-12-09T10:07:35Z</time>
      </trkpt>
      <trkpt lat="43.90018" lon="7.28642">
        <ele>1210.443741</ele>
        <time>2012-12-09T10:07:40Z</time>
      </trkpt>
      <trkpt lat="43.90023" lon="7.28644">
        <ele>1211.443756</ele>
        <time>2012-12-09T10:07:47Z</time>
      </trkpt>
      <trkpt lat="43.90028" lon="7.28646">
        <ele>1210.443756</ele>
        <time>2012-12-09T10:07:51Z</time>
      </trkpt>
      <trkpt lat="43.90032" lon="7.28646">
        <ele>1211.443768</ele>
        <time>2012-12-09T10:07:55Z</time>
      </trkpt>
      <trkpt lat="43.90038" lon="7.28645">
        <ele>1211.443771</ele>
        <time>2012-12-09T10:08:00Z</time>
      </trkpt>
      <trkpt lat="43.90043" lon="7.28645">
        <ele>1211.443779</ele>
        <time>2012-12-09T10:08:05Z</time>
      </trkpt>
      <trkpt lat="43.90047" lon="7.28645">
        <ele>1210.443787</ele>
        <time>2012-12-09T10:08:09Z</time>
      </trkpt>
      <trkpt lat="43.90051" lon="7.28644">
        <ele>1210.443787</ele>
        <time>2012-12-09T10:08:15Z</time>
      </trkpt>
      <trkpt lat="43.90053" lon="7.28643">
        <ele>1213.44379</ele>
        <time>2012-12-09T10:08:20Z</time>
      </trkpt>
      <trkpt lat="43.90053" lon="7.28644">
        <ele>1213.44379</ele>
        <time>2012-12-09T10:08:24Z</time>
      </trkpt>
      <trkpt lat="43.90053" lon="7.28644">
        <ele>1213.44379</ele>
        <time>2012-12-09T10:08:27Z</time>
      </trkpt>
      <trkpt lat="43.90052" lon="7.28644">
        <ele>1212.443787</ele>
        <time>2012-12-09T10:08:30Z</time>
      </trkpt>
      <trkpt lat="43.90051" lon="7.28644">
        <ele>1211.44379</ele>
        <time>2012-12-09T10:08:34Z</time>
      </trkpt>
      <trkpt lat="43.9005" lon="7.28645">
        <ele>1212.44379</ele>
        <time>2012-12-09T10:08:39Z</time>
      </trkpt>
      <trkpt lat="43.9005" lon="7.28645">
        <ele>1212.443787</ele>
        <time>2012-12-09T10:08:42Z</time>
      </trkpt>
      <trkpt lat="43.90049" lon="7.28645">
        <ele>1212.443787</ele>
        <time>2012-12-09T10:08:45Z</time>
      </trkpt>
      <trkpt lat="43.90049" lon="7.28645">
        <ele>1211.443794</ele>
        <time>2012-12-09T10:08:51Z</time>
      </trkpt>
      <trkpt lat="43.90049" lon="7.28646">
        <ele>1211.443787</ele>
        <time>2012-12-09T10:08:54Z</time>
      </trkpt>
      <trkpt lat="43.90048" lon="7.28646">
        <ele>1210.443794</ele>
        <time>2012-12-09T10:08:58Z</time>
      </trkpt>
      <trkpt lat="43.90048" lon="7.28647">
        <ele>1210.443794</ele>
        <time>2012-12-09T10:09:05Z</time>
      </trkpt>
      <trkpt lat="43.90047" lon="7.28647">
        <ele>1210.443794</ele>
        <time>2012-12-09T10:09:09Z</time>
      </trkpt>
      <trkpt lat="43.90047" lon="7.28647">
        <ele>1211.44379</ele>
        <time>2012-12-09T10:09:14Z</time>
      </trkpt>
      <trkpt lat="43.90047" lon="7.28647">
        <ele>1211.44379</ele>
        <time>2012-12-09T10:09:18Z</time>
      </trkpt>
      <trkpt lat="43.90047" lon="7.28648">
        <ele>1210.44379</ele>
        <time>2012-12-09T10:09:23Z</time>
      </trkpt>
      <trkpt lat="43.90046" lon="7.28648">
        <ele>1211.443794</ele>
        <time>2012-12-09T10:09:27Z</time>
      </trkpt>
      <trkpt lat="43.90046" lon="7.28649">
        <ele>1211.443794</ele>
        <time>2012-12-09T10:09:31Z</time>
      </trkpt>
      <trkpt lat="43.90046" lon="7.28648">
        <ele>1210.443794</ele>
        <time>2012-12-09T10:09:34Z</time>
      </trkpt>
      <trkpt lat="43.90046" lon="7.28648">
        <ele>1210.443794</ele>
        <time>2012-12-09T10:09:38Z</time>
      </trkpt>
      <trkpt lat="43.90046" lon="7.28649">
        <ele>1209.443794</ele>
        <time>2012-12-09T10:09:42Z</time>
      </trkpt>
      <trkpt lat="43.90046" lon="7.28649">
        <ele>1210.443794</ele>
        <time>2012-12-09T10:09:45Z</time>
      </trkpt>
      <trkpt lat="43.90046" lon="7.28649">
        <ele>1209.443794</ele>
        <time>2012-12-09T10:09:48Z</time>
      </trkpt>
      <trkpt lat="43.90046" lon="7.28649">
        <ele>1209.443794</ele>
        <time>2012-12-09T10:09:52Z</time>
      </trkpt>
      <trkpt lat="43.90047" lon="7.28648">
        <ele>1209.443794</ele>
        <time>2012-12-09T10:09:56Z</time>
      </trkpt>
      <trkpt lat="43.90047" lon="7.28648">
        <ele>1208.44379</ele>
        <time>2012-12-09T10:09:59Z</time>
      </trkpt>
      <trkpt lat="43.90046" lon="7.28649">
        <ele>1209.443794</ele>
        <time>2012-12-09T10:10:05Z</time>
      </trkpt>
      <trkpt lat="43.90046" lon="7.28649">
        <ele>1209.443794</ele>
        <time>2012-12-09T10:10:09Z</time>
      </trkpt>
      <trkpt lat="43.90047" lon="7.28648">
        <ele>1209.443794</ele>
        <time>2012-12-09T10:10:15Z</time>
      </trkpt>
      <trkpt lat="43.90047" lon="7.28648">
        <ele>1209.44379</ele>
        <time>2012-12-09T10:10:19Z</time>
      </trkpt>
      <trkpt lat="43.90047" lon="7.28648">
        <ele>1210.443794</ele>
        <time>2012-12-09T10:10:23Z</time>
      </trkpt>
      <trkpt lat="43.90047" lon="7.28649">
        <ele>1209.443794</ele>
        <time>2012-12-09T10:10:27Z</time>
      </trkpt>
      <trkpt lat="43.90047" lon="7.28649">
        <ele>1208.443794</ele>
        <time>2012-12-09T10:10:33Z</time>
      </trkpt>
      <trkpt lat="43.90047" lon="7.28649">
        <ele>1207.443794</ele>
        <time>2012-12-09T10:10:37Z</time>
      </trkpt>
      <trkpt lat="43.90047" lon="7.28649">
        <ele>1209.443794</ele>
        <time>2012-12-09T10:10:41Z</time>
      </trkpt>
      <trkpt lat="43.90046" lon="7.28649">
        <ele>1209.443794</ele>
        <time>2012-12-09T10:10:48Z</time>
      </trkpt>
      <trkpt lat="43.90046" lon="7.28649">
        <ele>1210.443794</ele>
        <time>2012-12-09T10:10:54Z</time>
      </trkpt>
      <trkpt lat="43.90046" lon="7.28649">
        <ele>1212.443794</ele>
        <time>2012-12-09T10:10:58Z</time>
      </trkpt>
      <trkpt lat="43.90045" lon="7.28649">
        <ele>1212.44379</ele>
        <time>2012-12-09T10:11:02Z</time>
      </trkpt>
      <trkpt lat="43.90045" lon="7.28649">
        <ele>1212.44379</ele>
        <time>2012-12-09T10:11:07Z</time>
      </trkpt>
      <trkpt lat="43.90045" lon="7.28649">
        <ele>1213.44379</ele>
        <time>2012-12-09T10:11:12Z</time>
      </trkpt>
      <trkpt lat="43.90045" lon="7.28649">
        <ele>1214.44379</ele>
        <time>2012-12-09T10:11:18Z</time>
      </trkpt>
      <trkpt lat="43.90045" lon="7.28649">
        <ele>1213.44379</ele>
        <time>2012-12-09T10:11:22Z</time>
      </trkpt>
      <trkpt lat="43.90045" lon="7.28649">
        <ele>1213.44379</ele>
        <time>2012-12-09T10:11:27Z</time>
      </trkpt>
      <trkpt lat="43.90046" lon="7.28648">
        <ele>1213.44379</ele>
        <time>2012-12-09T10:11:32Z</time>
      </trkpt>
      <trkpt lat="43.90047" lon="7.28647">
        <ele>1211.44379</ele>
        <time>2012-12-09T10:11:38Z</time>
      </trkpt>
      <trkpt lat="43.90047" lon="7.28646">
        <ele>1211.443787</ele>
        <time>2012-12-09T10:11:43Z</time>
      </trkpt>
      <trkpt lat="43.90048" lon="7.28646">
        <ele>1212.443787</ele>
        <time>2012-12-09T10:11:46Z</time>
      </trkpt>
      <trkpt lat="43.90048" lon="7.28646">
        <ele>1212.443787</ele>
        <time>2012-12-09T10:11:49Z</time>
      </trkpt>
      <trkpt lat="43.90048" lon="7.28647">
        <ele>1210.443794</ele>
        <time>2012-12-09T10:11:53Z</time>
      </trkpt>
      <trkpt lat="43.90047" lon="7.28647">
        <ele>1209.443794</ele>
        <time>2012-12-09T10:11:56Z</time>
      </trkpt>
      <trkpt lat="43.90048" lon="7.28648">
        <ele>1209.443794</ele>
        <time>2012-12-09T10:11:58Z</time>
      </trkpt>
      <trkpt lat="43.90049" lon="7.28648">
        <ele>1209.443794</ele>
        <time>2012-12-09T10:12:01Z</time>
      </trkpt>
      <trkpt lat="43.90054" lon="7.28648">
        <ele>1209.443802</ele>
        <time>2012-12-09T10:12:06Z</time>
      </trkpt>
      <trkpt lat="43.90056" lon="7.28648">
        <ele>1209.443802</ele>
        <time>2012-12-09T10:12:09Z</time>
      </trkpt>
      <trkpt lat="43.90058" lon="7.28649">
        <ele>1211.44381</ele>
        <time>2012-12-09T10:12:12Z</time>
      </trkpt>
      <trkpt lat="43.90061" lon="7.28649">
        <ele>1211.443813</ele>
        <time>2012-12-09T10:12:16Z</time>
      </trkpt>
      <trkpt lat="43.90063" lon="7.28649">
        <ele>1212.443813</ele>
        <time>2012-12-09T10:12:20Z</time>
      </trkpt>
      <trkpt lat="43.90066" lon="7.28649">
        <ele>1213.443821</ele>
        <time>2012-12-09T10:12:25Z</time>
      </trkpt>
      <trkpt lat="43.90069" lon="7.28649">
        <ele>1213.443825</ele>
        <time>2012-12-09T10:12:30Z</time>
      </trkpt>
      <trkpt lat="43.90072" lon="7.2865">
        <ele>1213.443832</ele>
        <time>2012-12-09T10:12:35Z</time>
      </trkpt>
      <trkpt lat="43.90074" lon="7.28651">
        <ele>1215.443836</ele>
        <time>2012-12-09T10:12:40Z</time>
      </trkpt>
      <trkpt lat="43.90076" lon="7.28652">
        <ele>1217.443844</ele>
        <time>2012-12-09T10:12:44Z</time>
      </trkpt>
      <trkpt lat="43.90079" lon="7.28653">
        <ele>1216.443848</ele>
        <time>2012-12-09T10:12:48Z</time>
      </trkpt>
      <trkpt lat="43.90081" lon="7.28656">
        <ele>1217.443855</ele>
        <time>2012-12-09T10:12:52Z</time>
      </trkpt>
      <trkpt lat="43.90084" lon="7.28658">
        <ele>1217.443863</ele>
        <time>2012-12-09T10:12:56Z</time>
      </trkpt>
      <trkpt lat="43.90087" lon="7.28663">
        <ele>1219.443874</ele>
        <time>2012-12-09T10:13:01Z</time>
      </trkpt>
      <trkpt lat="43.90089" lon="7.28668">
        <ele>1220.443893</ele>
        <time>2012-12-09T10:13:06Z</time>
      </trkpt>
      <trkpt lat="43.90091" lon="7.28672">
        <ele>1220.443901</ele>
        <time>2012-12-09T10:13:10Z</time>
      </trkpt>
      <trkpt lat="43.90092" lon="7.28677">
        <ele>1221.443916</ele>
        <time>2012-12-09T10:13:15Z</time>
      </trkpt>
      <trkpt lat="43.90093" lon="7.28681">
        <ele>1222.443924</ele>
        <time>2012-12-09T10:13:19Z</time>
      </trkpt>
      <trkpt lat="43.90094" lon="7.28685">
        <ele>1222.443932</ele>
        <time>2012-12-09T10:13:23Z</time>
      </trkpt>
      <trkpt lat="43.90096" lon="7.28687">
        <ele>1224.443939</ele>
        <time>2012-12-09T10:13:28Z</time>
      </trkpt>
      <trkpt lat="43.90099" lon="7.28689">
        <ele>1224.443947</ele>
        <time>2012-12-09T10:13:33Z</time>
      </trkpt>
      <trkpt lat="43.90101" lon="7.28691">
        <ele>1226.443954</ele>
        <time>2012-12-09T10:13:37Z</time>
      </trkpt>
      <trkpt lat="43.90103" lon="7.28693">
        <ele>1226.443962</ele>
        <time>2012-12-09T10:13:42Z</time>
      </trkpt>
      <trkpt lat="43.90106" lon="7.28695">
        <ele>1228.44397</ele>
        <time>2012-12-09T10:13:47Z</time>
      </trkpt>
      <trkpt lat="43.90108" lon="7.28695">
        <ele>1229.443974</ele>
        <time>2012-12-09T10:13:51Z</time>
      </trkpt>
      <trkpt lat="43.9011" lon="7.28696">
        <ele>1231.443977</ele>
        <time>2012-12-09T10:13:56Z</time>
      </trkpt>
      <trkpt lat="43.90112" lon="7.28699">
        <ele>1232.443985</ele>
        <time>2012-12-09T10:14:00Z</time>
      </trkpt>
      <trkpt lat="43.90115" lon="7.28701">
        <ele>1231.443993</ele>
        <time>2012-12-09T10:14:04Z</time>
      </trkpt>
      <trkpt lat="43.90118" lon="7.28703">
        <ele>1232.444</ele>
        <time>2012-12-09T10:14:10Z</time>
      </trkpt>
      <trkpt lat="43.9012" lon="7.28704">
        <ele>1233.444008</ele>
        <time>2012-12-09T10:14:14Z</time>
      </trkpt>
      <trkpt lat="43.90123" lon="7.28705">
        <ele>1234.444012</ele>
        <time>2012-12-09T10:14:19Z</time>
      </trkpt>
      <trkpt lat="43.90126" lon="7.28706">
        <ele>1235.444019</ele>
        <time>2012-12-09T10:14:23Z</time>
      </trkpt>
      <trkpt lat="43.90128" lon="7.28708">
        <ele>1235.444027</ele>
        <time>2012-12-09T10:14:27Z</time>
      </trkpt>
      <trkpt lat="43.90131" lon="7.28709">
        <ele>1235.444027</ele>
        <time>2012-12-09T10:14:31Z</time>
      </trkpt>
      <trkpt lat="43.90135" lon="7.28709">
        <ele>1236.444038</ele>
        <time>2012-12-09T10:14:37Z</time>
      </trkpt>
      <trkpt lat="43.90139" lon="7.2871">
        <ele>1236.444046</ele>
        <time>2012-12-09T10:14:43Z</time>
      </trkpt>
      <trkpt lat="43.90141" lon="7.2871">
        <ele>1237.44405</ele>
        <time>2012-12-09T10:14:47Z</time>
      </trkpt>
      <trkpt lat="43.90144" lon="7.28711">
        <ele>1239.444054</ele>
        <time>2012-12-09T10:14:51Z</time>
      </trkpt>
      <trkpt lat="43.90146" lon="7.28711">
        <ele>1239.444054</ele>
        <time>2012-12-09T10:14:54Z</time>
      </trkpt>
      <trkpt lat="43.90148" lon="7.2871">
        <ele>1240.444057</ele>
        <time>2012-12-09T10:14:58Z</time>
      </trkpt>
      <trkpt lat="43.9015" lon="7.2871">
        <ele>1240.444061</ele>
        <time>2012-12-09T10:15:01Z</time>
      </trkpt>
      <trkpt lat="43.90153" lon="7.28711">
        <ele>1241.444061</ele>
        <time>2012-12-09T10:15:05Z</time>
      </trkpt>
      <trkpt lat="43.90156" lon="7.28711">
        <ele>1242.444069</ele>
        <time>2012-12-09T10:15:10Z</time>
      </trkpt>
      <trkpt lat="43.90158" lon="7.28711">
        <ele>1243.444069</ele>
        <time>2012-12-09T10:15:14Z</time>
      </trkpt>
      <trkpt lat="43.90159" lon="7.28712">
        <ele>1244.444077</ele>
        <time>2012-12-09T10:15:17Z</time>
      </trkpt>
      <trkpt lat="43.90161" lon="7.28712">
        <ele>1245.44408</ele>
        <time>2012-12-09T10:15:21Z</time>
      </trkpt>
      <trkpt lat="43.90164" lon="7.28713">
        <ele>1246.444084</ele>
        <time>2012-12-09T10:15:26Z</time>
      </trkpt>
      <trkpt lat="43.90166" lon="7.28713">
        <ele>1245.444084</ele>
        <time>2012-12-09T10:15:29Z</time>
      </trkpt>
      <trkpt lat="43.90169" lon="7.28713">
        <ele>1245.444088</ele>
        <time>2012-12-09T10:15:33Z</time>
      </trkpt>
      <trkpt lat="43.90173" lon="7.28713">
        <ele>1245.444096</ele>
        <time>2012-12-09T10:15:38Z</time>
      </trkpt>
      <trkpt lat="43.90176" lon="7.28715">
        <ele>1247.444103</ele>
        <time>2012-12-09T10:15:43Z</time>
      </trkpt>
      <trkpt lat="43.90179" lon="7.28716">
        <ele>1247.444107</ele>
        <time>2012-12-09T10:15:46Z</time>
      </trkpt>
      <trkpt lat="43.90181" lon="7.28718">
        <ele>1248.444115</ele>
        <time>2012-12-09T10:15:49Z</time>
      </trkpt>
      <trkpt lat="43.90183" lon="7.2872">
        <ele>1248.444122</ele>
        <time>2012-12-09T10:15:53Z</time>
      </trkpt>
      <trkpt lat="43.90185" lon="7.28722">
        <ele>1249.44413</ele>
        <time>2012-12-09T10:15:57Z</time>
      </trkpt>
      <trkpt lat="43.90188" lon="7.28726">
        <ele>1250.444145</ele>
        <time>2012-12-09T10:16:02Z</time>
      </trkpt>
      <trkpt lat="43.9019" lon="7.28728">
        <ele>1251.444149</ele>
        <time>2012-12-09T10:16:06Z</time>
      </trkpt>
      <trkpt lat="43.90193" lon="7.2873">
        <ele>1253.44416</ele>
        <time>2012-12-09T10:16:10Z</time>
      </trkpt>
      <trkpt lat="43.90197" lon="7.28734">
        <ele>1252.444176</ele>
        <time>2012-12-09T10:16:16Z</time>
      </trkpt>
      <trkpt lat="43.902" lon="7.28737">
        <ele>1253.444183</ele>
        <time>2012-12-09T10:16:21Z</time>
      </trkpt>
      <trkpt lat="43.90203" lon="7.2874">
        <ele>1253.444191</ele>
        <time>2012-12-09T10:16:25Z</time>
      </trkpt>
      <trkpt lat="43.90206" lon="7.28742">
        <ele>1254.444199</ele>
        <time>2012-12-09T10:16:29Z</time>
      </trkpt>
      <trkpt lat="43.90209" lon="7.28744">
        <ele>1255.44421</ele>
        <time>2012-12-09T10:16:33Z</time>
      </trkpt>
      <trkpt lat="43.90212" lon="7.28746">
        <ele>1256.444218</ele>
        <time>2012-12-09T10:16:37Z</time>
      </trkpt>
      <trkpt lat="43.90215" lon="7.28747">
        <ele>1257.444221</ele>
        <time>2012-12-09T10:16:41Z</time>
      </trkpt>
      <trkpt lat="43.90217" lon="7.28746">
        <ele>1257.444221</ele>
        <time>2012-12-09T10:16:44Z</time>
      </trkpt>
      <trkpt lat="43.90219" lon="7.28745">
        <ele>1258.444225</ele>
        <time>2012-12-09T10:16:48Z</time>
      </trkpt>
      <trkpt lat="43.90221" lon="7.28745">
        <ele>1258.444229</ele>
        <time>2012-12-09T10:16:51Z</time>
      </trkpt>
      <trkpt lat="43.90223" lon="7.28745">
        <ele>1258.444229</ele>
        <time>2012-12-09T10:16:54Z</time>
      </trkpt>
      <trkpt lat="43.90226" lon="7.28748">
        <ele>1259.444241</ele>
        <time>2012-12-09T10:16:58Z</time>
      </trkpt>
      <trkpt lat="43.90229" lon="7.28751">
        <ele>1259.444252</ele>
        <time>2012-12-09T10:17:02Z</time>
      </trkpt>
      <trkpt lat="43.90232" lon="7.28755">
        <ele>1259.444263</ele>
        <time>2012-12-09T10:17:06Z</time>
      </trkpt>
      <trkpt lat="43.90234" lon="7.28759">
        <ele>1259.444275</ele>
        <time>2012-12-09T10:17:10Z</time>
      </trkpt>
      <trkpt lat="43.90237" lon="7.28763">
        <ele>1260.444283</ele>
        <time>2012-12-09T10:17:14Z</time>
      </trkpt>
      <trkpt lat="43.90239" lon="7.28765">
        <ele>1261.44429</ele>
        <time>2012-12-09T10:17:18Z</time>
      </trkpt>
      <trkpt lat="43.90243" lon="7.28769">
        <ele>1263.444309</ele>
        <time>2012-12-09T10:17:23Z</time>
      </trkpt>
      <trkpt lat="43.90246" lon="7.28772">
        <ele>1263.444313</ele>
        <time>2012-12-09T10:17:26Z</time>
      </trkpt>
      <trkpt lat="43.9025" lon="7.28774">
        <ele>1264.444328</ele>
        <time>2012-12-09T10:17:30Z</time>
      </trkpt>
      <trkpt lat="43.90253" lon="7.28777">
        <ele>1265.444336</ele>
        <time>2012-12-09T10:17:34Z</time>
      </trkpt>
      <trkpt lat="43.90257" lon="7.28782">
        <ele>1266.444351</ele>
        <time>2012-12-09T10:17:39Z</time>
      </trkpt>
      <trkpt lat="43.9026" lon="7.28784">
        <ele>1267.444359</ele>
        <time>2012-12-09T10:17:42Z</time>
      </trkpt>
      <trkpt lat="43.90265" lon="7.28787">
        <ele>1268.444374</ele>
        <time>2012-12-09T10:17:47Z</time>
      </trkpt>
      <trkpt lat="43.90269" lon="7.28789">
        <ele>1268.444386</ele>
        <time>2012-12-09T10:17:51Z</time>
      </trkpt>
      <trkpt lat="43.90273" lon="7.28792">
        <ele>1268.444397</ele>
        <time>2012-12-09T10:17:55Z</time>
      </trkpt>
      <trkpt lat="43.90278" lon="7.28794">
        <ele>1268.444405</ele>
        <time>2012-12-09T10:17:59Z</time>
      </trkpt>
      <trkpt lat="43.90283" lon="7.28798">
        <ele>1268.44442</ele>
        <time>2012-12-09T10:18:04Z</time>
      </trkpt>
      <trkpt lat="43.90285" lon="7.288">
        <ele>1269.444427</ele>
        <time>2012-12-09T10:18:07Z</time>
      </trkpt>
      <trkpt lat="43.90288" lon="7.28804">
        <ele>1269.444439</ele>
        <time>2012-12-09T10:18:11Z</time>
      </trkpt>
      <trkpt lat="43.90292" lon="7.28807">
        <ele>1270.44445</ele>
        <time>2012-12-09T10:18:15Z</time>
      </trkpt>
      <trkpt lat="43.90294" lon="7.28811">
        <ele>1271.444462</ele>
        <time>2012-12-09T10:18:18Z</time>
      </trkpt>
      <trkpt lat="43.90297" lon="7.28818">
        <ele>1270.444477</ele>
        <time>2012-12-09T10:18:23Z</time>
      </trkpt>
      <trkpt lat="43.903" lon="7.28823">
        <ele>1270.444492</ele>
        <time>2012-12-09T10:18:27Z</time>
      </trkpt>
      <trkpt lat="43.90302" lon="7.28826">
        <ele>1271.444504</ele>
        <time>2012-12-09T10:18:30Z</time>
      </trkpt>
      <trkpt lat="43.90305" lon="7.28828">
        <ele>1271.444511</ele>
        <time>2012-12-09T10:18:33Z</time>
      </trkpt>
      <trkpt lat="43.90308" lon="7.2883">
        <ele>1271.444519</ele>
        <time>2012-12-09T10:18:36Z</time>
      </trkpt>
      <trkpt lat="43.90312" lon="7.28828">
        <ele>1272.444523</ele>
        <time>2012-12-09T10:18:41Z</time>
      </trkpt>
      <trkpt lat="43.90315" lon="7.28828">
        <ele>1272.444527</ele>
        <time>2012-12-09T10:18:44Z</time>
      </trkpt>
      <trkpt lat="43.90317" lon="7.2883">
        <ele>1273.444534</ele>
        <time>2012-12-09T10:18:47Z</time>
      </trkpt>
      <trkpt lat="43.90319" lon="7.28833">
        <ele>1274.444538</ele>
        <time>2012-12-09T10:18:51Z</time>
      </trkpt>
      <trkpt lat="43.90322" lon="7.28836">
        <ele>1275.44455</ele>
        <time>2012-12-09T10:18:54Z</time>
      </trkpt>
      <trkpt lat="43.90325" lon="7.28837">
        <ele>1276.444557</ele>
        <time>2012-12-09T10:18:57Z</time>
      </trkpt>
      <trkpt lat="43.90329" lon="7.28837">
        <ele>1277.444565</ele>
        <time>2012-12-09T10:19:01Z</time>
      </trkpt>
      <trkpt lat="43.90334" lon="7.28838">
        <ele>1278.444569</ele>
        <time>2012-12-09T10:19:06Z</time>
      </trkpt>
      <trkpt lat="43.90338" lon="7.28839">
        <ele>1277.444576</ele>
        <time>2012-12-09T10:19:09Z</time>
      </trkpt>
      <trkpt lat="43.90341" lon="7.28841">
        <ele>1278.444584</ele>
        <time>2012-12-09T10:19:12Z</time>
      </trkpt>
      <trkpt lat="43.90344" lon="7.28845">
        <ele>1278.444599</ele>
        <time>2012-12-09T10:19:16Z</time>
      </trkpt>
      <trkpt lat="43.90349" lon="7.28851">
        <ele>1278.444618</ele>
        <time>2012-12-09T10:19:22Z</time>
      </trkpt>
      <trkpt lat="43.90353" lon="7.28857">
        <ele>1278.444633</ele>
        <time>2012-12-09T10:19:27Z</time>
      </trkpt>
      <trkpt lat="43.90357" lon="7.28862">
        <ele>1279.444649</ele>
        <time>2012-12-09T10:19:31Z</time>
      </trkpt>
      <trkpt lat="43.90359" lon="7.28866">
        <ele>1278.444664</ele>
        <time>2012-12-09T10:19:34Z</time>
      </trkpt>
      <trkpt lat="43.9036" lon="7.28871">
        <ele>1277.444675</ele>
        <time>2012-12-09T10:19:38Z</time>
      </trkpt>
      <trkpt lat="43.90363" lon="7.28879">
        <ele>1278.444695</ele>
        <time>2012-12-09T10:19:43Z</time>
      </trkpt>
      <trkpt lat="43.90366" lon="7.28887">
        <ele>1276.444714</ele>
        <time>2012-12-09T10:19:48Z</time>
      </trkpt>
      <trkpt lat="43.90369" lon="7.28893">
        <ele>1276.444733</ele>
        <time>2012-12-09T10:19:52Z</time>
      </trkpt>
      <trkpt lat="43.90372" lon="7.28899">
        <ele>1276.444748</ele>
        <time>2012-12-09T10:19:56Z</time>
      </trkpt>
      <trkpt lat="43.90375" lon="7.28904">
        <ele>1276.444763</ele>
        <time>2012-12-09T10:20:00Z</time>
      </trkpt>
      <trkpt lat="43.90379" lon="7.2891">
        <ele>1276.444778</ele>
        <time>2012-12-09T10:20:05Z</time>
      </trkpt>
      <trkpt lat="43.90384" lon="7.28916">
        <ele>1277.444801</ele>
        <time>2012-12-09T10:20:10Z</time>
      </trkpt>
      <trkpt lat="43.90387" lon="7.28921">
        <ele>1276.444809</ele>
        <time>2012-12-09T10:20:14Z</time>
      </trkpt>
      <trkpt lat="43.9039" lon="7.28925">
        <ele>1277.444828</ele>
        <time>2012-12-09T10:20:18Z</time>
      </trkpt>
      <trkpt lat="43.90394" lon="7.2893">
        <ele>1277.444839</ele>
        <time>2012-12-09T10:20:22Z</time>
      </trkpt>
      <trkpt lat="43.90398" lon="7.28935">
        <ele>1276.444855</ele>
        <time>2012-12-09T10:20:26Z</time>
      </trkpt>
      <trkpt lat="43.904" lon="7.28939">
        <ele>1275.44487</ele>
        <time>2012-12-09T10:20:29Z</time>
      </trkpt>
      <trkpt lat="43.90405" lon="7.28945">
        <ele>1276.444885</ele>
        <time>2012-12-09T10:20:34Z</time>
      </trkpt>
      <trkpt lat="43.90409" lon="7.28951">
        <ele>1276.444901</ele>
        <time>2012-12-09T10:20:39Z</time>
      </trkpt>
      <trkpt lat="43.90413" lon="7.28955">
        <ele>1275.444916</ele>
        <time>2012-12-09T10:20:43Z</time>
      </trkpt>
      <trkpt lat="43.90417" lon="7.28958">
        <ele>1276.444931</ele>
        <time>2012-12-09T10:20:47Z</time>
      </trkpt>
      <trkpt lat="43.90419" lon="7.2896">
        <ele>1275.444939</ele>
        <time>2012-12-09T10:20:50Z</time>
      </trkpt>
      <trkpt lat="43.90423" lon="7.2896">
        <ele>1276.444939</ele>
        <time>2012-12-09T10:20:53Z</time>
      </trkpt>
      <trkpt lat="43.90429" lon="7.28958">
        <ele>1276.444946</ele>
        <time>2012-12-09T10:20:57Z</time>
      </trkpt>
      <trkpt lat="43.90435" lon="7.28955">
        <ele>1275.44495</ele>
        <time>2012-12-09T10:21:02Z</time>
      </trkpt>
      <trkpt lat="43.9044" lon="7.28954">
        <ele>1275.444954</ele>
        <time>2012-12-09T10:21:06Z</time>
      </trkpt>
      <trkpt lat="43.90446" lon="7.28954">
        <ele>1274.444962</ele>
        <time>2012-12-09T10:21:10Z</time>
      </trkpt>
      <trkpt lat="43.90452" lon="7.28953">
        <ele>1274.444965</ele>
        <time>2012-12-09T10:21:15Z</time>
      </trkpt>
      <trkpt lat="43.90459" lon="7.28951">
        <ele>1273.444969</ele>
        <time>2012-12-09T10:21:21Z</time>
      </trkpt>
      <trkpt lat="43.90464" lon="7.28949">
        <ele>1273.444973</ele>
        <time>2012-12-09T10:21:25Z</time>
      </trkpt>
      <trkpt lat="43.90468" lon="7.28948">
        <ele>1272.444977</ele>
        <time>2012-12-09T10:21:28Z</time>
      </trkpt>
      <trkpt lat="43.90475" lon="7.28949">
        <ele>1272.444988</ele>
        <time>2012-12-09T10:21:33Z</time>
      </trkpt>
      <trkpt lat="43.90483" lon="7.2895">
        <ele>1273.445004</ele>
        <time>2012-12-09T10:21:39Z</time>
      </trkpt>
      <trkpt lat="43.90489" lon="7.2895">
        <ele>1274.445011</ele>
        <time>2012-12-09T10:21:43Z</time>
      </trkpt>
      <trkpt lat="43.90492" lon="7.2895">
        <ele>1274.445015</ele>
        <time>2012-12-09T10:21:46Z</time>
      </trkpt>
      <trkpt lat="43.90498" lon="7.28947">
        <ele>1275.445015</ele>
        <time>2012-12-09T10:21:51Z</time>
      </trkpt>
      <trkpt lat="43.90502" lon="7.28946">
        <ele>1276.445023</ele>
        <time>2012-12-09T10:21:55Z</time>
      </trkpt>
      <trkpt lat="43.90505" lon="7.28946">
        <ele>1276.445023</ele>
        <time>2012-12-09T10:21:58Z</time>
      </trkpt>
      <trkpt lat="43.90508" lon="7.28946">
        <ele>1276.445026</ele>
        <time>2012-12-09T10:22:01Z</time>
      </trkpt>
      <trkpt lat="43.90511" lon="7.28946">
        <ele>1276.445034</ele>
        <time>2012-12-09T10:22:05Z</time>
      </trkpt>
      <trkpt lat="43.90512" lon="7.28947">
        <ele>1277.445034</ele>
        <time>2012-12-09T10:22:07Z</time>
      </trkpt>
      <trkpt lat="43.90512" lon="7.28947">
        <ele>1277.445034</ele>
        <time>2012-12-09T10:22:11Z</time>
      </trkpt>
      <trkpt lat="43.90511" lon="7.28948">
        <ele>1278.445038</ele>
        <time>2012-12-09T10:22:14Z</time>
      </trkpt>
      <trkpt lat="43.90511" lon="7.28948">
        <ele>1279.445038</ele>
        <time>2012-12-09T10:22:18Z</time>
      </trkpt>
      <trkpt lat="43.90511" lon="7.28948">
        <ele>1280.445038</ele>
        <time>2012-12-09T10:22:22Z</time>
      </trkpt>
      <trkpt lat="43.90511" lon="7.28948">
        <ele>1280.445038</ele>
        <time>2012-12-09T10:22:25Z</time>
      </trkpt>
      <trkpt lat="43.90512" lon="7.28949">
        <ele>1278.445038</ele>
        <time>2012-12-09T10:22:29Z</time>
      </trkpt>
      <trkpt lat="43.90512" lon="7.28949">
        <ele>1277.445038</ele>
        <time>2012-12-09T10:22:33Z</time>
      </trkpt>
      <trkpt lat="43.90513" lon="7.28949">
        <ele>1278.445038</ele>
        <time>2012-12-09T10:22:38Z</time>
      </trkpt>
      <trkpt lat="43.90514" lon="7.28949">
        <ele>1277.445042</ele>
        <time>2012-12-09T10:22:43Z</time>
      </trkpt>
      <trkpt lat="43.90515" lon="7.28949">
        <ele>1277.445045</ele>
        <time>2012-12-09T10:22:47Z</time>
      </trkpt>
      <trkpt lat="43.90515" lon="7.28949">
        <ele>1276.445045</ele>
        <time>2012-12-09T10:22:50Z</time>
      </trkpt>
      <trkpt lat="43.90515" lon="7.28951">
        <ele>1276.445045</ele>
        <time>2012-12-09T10:22:55Z</time>
      </trkpt>
      <trkpt lat="43.90515" lon="7.28953">
        <ele>1275.445053</ele>
        <time>2012-12-09T10:22:58Z</time>
      </trkpt>
      <trkpt lat="43.90515" lon="7.28953">
        <ele>1275.445053</ele>
        <time>2012-12-09T10:23:02Z</time>
      </trkpt>
      <trkpt lat="43.90514" lon="7.28954">
        <ele>1276.445053</ele>
        <time>2012-12-09T10:23:05Z</time>
      </trkpt>
      <trkpt lat="43.90514" lon="7.28955">
        <ele>1275.445053</ele>
        <time>2012-12-09T10:23:09Z</time>
      </trkpt>
      <trkpt lat="43.90515" lon="7.2896">
        <ele>1275.445068</ele>
        <time>2012-12-09T10:23:14Z</time>
      </trkpt>
      <trkpt lat="43.90516" lon="7.28965">
        <ele>1275.44508</ele>
        <time>2012-12-09T10:23:18Z</time>
      </trkpt>
      <trkpt lat="43.90518" lon="7.28971">
        <ele>1274.445091</ele>
        <time>2012-12-09T10:23:22Z</time>
      </trkpt>
      <trkpt lat="43.9052" lon="7.28975">
        <ele>1274.445107</ele>
        <time>2012-12-09T10:23:26Z</time>
      </trkpt>
      <trkpt lat="43.90521" lon="7.28978">
        <ele>1275.44511</ele>
        <time>2012-12-09T10:23:29Z</time>
      </trkpt>
      <trkpt lat="43.90522" lon="7.2898">
        <ele>1275.445118</ele>
        <time>2012-12-09T10:23:32Z</time>
      </trkpt>
      <trkpt lat="43.90522" lon="7.2898">
        <ele>1276.445114</ele>
        <time>2012-12-09T10:23:34Z</time>
      </trkpt>
      <trkpt lat="43.90523" lon="7.28977">
        <ele>1276.445114</ele>
        <time>2012-12-09T10:23:37Z</time>
      </trkpt>
      <trkpt lat="43.90523" lon="7.28971">
        <ele>1276.445099</ele>
        <time>2012-12-09T10:23:41Z</time>
      </trkpt>
      <trkpt lat="43.90522" lon="7.28964">
        <ele>1276.445084</ele>
        <time>2012-12-09T10:23:45Z</time>
      </trkpt>
      <trkpt lat="43.90521" lon="7.2896">
        <ele>1277.445076</ele>
        <time>2012-12-09T10:23:48Z</time>
      </trkpt>
      <trkpt lat="43.90518" lon="7.28954">
        <ele>1277.445061</ele>
        <time>2012-12-09T10:23:52Z</time>
      </trkpt>
      <trkpt lat="43.90516" lon="7.2895">
        <ele>1277.445053</ele>
        <time>2012-12-09T10:23:55Z</time>
      </trkpt>
      <trkpt lat="43.90514" lon="7.28947">
        <ele>1277.445038</ele>
        <time>2012-12-09T10:23:59Z</time>
      </trkpt>
      <trkpt lat="43.90512" lon="7.28946">
        <ele>1277.445038</ele>
        <time>2012-12-09T10:24:02Z</time>
      </trkpt>
      <trkpt lat="43.90509" lon="7.28947">
        <ele>1277.44503</ele>
        <time>2012-12-09T10:24:07Z</time>
      </trkpt>
      <trkpt lat="43.90508" lon="7.28948">
        <ele>1275.44503</ele>
        <time>2012-12-09T10:24:11Z</time>
      </trkpt>
      <trkpt lat="43.90507" lon="7.28948">
        <ele>1276.44503</ele>
        <time>2012-12-09T10:24:14Z</time>
      </trkpt>
      <trkpt lat="43.90507" lon="7.28948">
        <ele>1275.445034</ele>
        <time>2012-12-09T10:24:18Z</time>
      </trkpt>
      <trkpt lat="43.90507" lon="7.28948">
        <ele>1275.445034</ele>
        <time>2012-12-09T10:24:21Z</time>
      </trkpt>
      <trkpt lat="43.90508" lon="7.28948">
        <ele>1273.44503</ele>
        <time>2012-12-09T10:24:24Z</time>
      </trkpt>
      <trkpt lat="43.90508" lon="7.28948">
        <ele>1272.44503</ele>
        <time>2012-12-09T10:24:27Z</time>
      </trkpt>
      <trkpt lat="43.90509" lon="7.28948">
        <ele>1272.445034</ele>
        <time>2012-12-09T10:24:32Z</time>
      </trkpt>
      <trkpt lat="43.90509" lon="7.28947">
        <ele>1273.44503</ele>
        <time>2012-12-09T10:24:35Z</time>
      </trkpt>
      <trkpt lat="43.90509" lon="7.28947">
        <ele>1272.44503</ele>
        <time>2012-12-09T10:24:38Z</time>
      </trkpt>
      <trkpt lat="43.9051" lon="7.28947">
        <ele>1271.44503</ele>
        <time>2012-12-09T10:24:42Z</time>
      </trkpt>
      <trkpt lat="43.90508" lon="7.28943">
        <ele>1271.445023</ele>
        <time>2012-12-09T10:24:48Z</time>
      </trkpt>
      <trkpt lat="43.90507" lon="7.28938">
        <ele>1272.445015</ele>
        <time>2012-12-09T10:24:52Z</time>
      </trkpt>
      <trkpt lat="43.90505" lon="7.28934">
        <ele>1273.445</ele>
        <time>2012-12-09T10:24:56Z</time>
      </trkpt>
      <trkpt lat="43.90503" lon="7.2893">
        <ele>1273.444984</ele>
        <time>2012-12-09T10:25:01Z</time>
      </trkpt>
      <trkpt lat="43.90502" lon="7.28929">
        <ele>1273.444984</ele>
        <time>2012-12-09T10:25:03Z</time>
      </trkpt>
      <trkpt lat="43.90502" lon="7.28929">
        <ele>1274.444984</ele>
        <time>2012-12-09T10:25:06Z</time>
      </trkpt>
      <trkpt lat="43.90502" lon="7.2893">
        <ele>1274.444984</ele>
        <time>2012-12-09T10:25:09Z</time>
      </trkpt>
      <trkpt lat="43.90502" lon="7.2893">
        <ele>1273.444984</ele>
        <time>2012-12-09T10:25:11Z</time>
      </trkpt>
      <trkpt lat="43.90502" lon="7.28929">
        <ele>1273.444984</ele>
        <time>2012-12-09T10:25:15Z</time>
      </trkpt>
      <trkpt lat="43.90503" lon="7.28928">
        <ele>1274.444984</ele>
        <time>2012-12-09T10:25:20Z</time>
      </trkpt>
      <trkpt lat="43.90503" lon="7.28928">
        <ele>1274.444984</ele>
        <time>2012-12-09T10:25:24Z</time>
      </trkpt>
      <trkpt lat="43.90504" lon="7.28928">
        <ele>1274.444984</ele>
        <time>2012-12-09T10:25:26Z</time>
      </trkpt>
      <trkpt lat="43.90504" lon="7.28928">
        <ele>1272.444984</ele>
        <time>2012-12-09T10:25:30Z</time>
      </trkpt>
      <trkpt lat="43.90504" lon="7.28929">
        <ele>1271.444988</ele>
        <time>2012-12-09T10:25:33Z</time>
      </trkpt>
      <trkpt lat="43.90505" lon="7.28931">
        <ele>1270.444992</ele>
        <time>2012-12-09T10:25:37Z</time>
      </trkpt>
      <trkpt lat="43.90507" lon="7.28933">
        <ele>1270.445</ele>
        <time>2012-12-09T10:25:41Z</time>
      </trkpt>
      <trkpt lat="43.90509" lon="7.28936">
        <ele>1270.445007</ele>
        <time>2012-12-09T10:25:44Z</time>
      </trkpt>
      <trkpt lat="43.9051" lon="7.2894">
        <ele>1271.445015</ele>
        <time>2012-12-09T10:25:48Z</time>
      </trkpt>
      <trkpt lat="43.90512" lon="7.28942">
        <ele>1270.445023</ele>
        <time>2012-12-09T10:25:52Z</time>
      </trkpt>
      <trkpt lat="43.90513" lon="7.28943">
        <ele>1267.44503</ele>
        <time>2012-12-09T10:25:57Z</time>
      </trkpt>
      <trkpt lat="43.90513" lon="7.28944">
        <ele>1268.44503</ele>
        <time>2012-12-09T10:26:01Z</time>
      </trkpt>
      <trkpt lat="43.90514" lon="7.28945">
        <ele>1268.44503</ele>
        <time>2012-12-09T10:26:05Z</time>
      </trkpt>
      <trkpt lat="43.90514" lon="7.28945">
        <ele>1268.44503</ele>
        <time>2012-12-09T10:26:08Z</time>
      </trkpt>
      <trkpt lat="43.90513" lon="7.28945">
        <ele>1266.44503</ele>
        <time>2012-12-09T10:26:12Z</time>
      </trkpt>
      <trkpt lat="43.90513" lon="7.28945">
        <ele>1270.44503</ele>
        <time>2012-12-09T10:26:18Z</time>
      </trkpt>
      <trkpt lat="43.90512" lon="7.28945">
        <ele>1270.44503</ele>
        <time>2012-12-09T10:26:24Z</time>
      </trkpt>
      <trkpt lat="43.90511" lon="7.28945">
        <ele>1271.44503</ele>
        <time>2012-12-09T10:26:30Z</time>
      </trkpt>
      <trkpt lat="43.90511" lon="7.28945">
        <ele>1271.44503</ele>
        <time>2012-12-09T10:26:32Z</time>
      </trkpt>
      <trkpt lat="43.90511" lon="7.28945">
        <ele>1272.44503</ele>
        <time>2012-12-09T10:26:35Z</time>
      </trkpt>
      <trkpt lat="43.90511" lon="7.28945">
        <ele>1272.44503</ele>
        <time>2012-12-09T10:26:38Z</time>
      </trkpt>
      <trkpt lat="43.90512" lon="7.28944">
        <ele>1272.44503</ele>
        <time>2012-12-09T10:26:42Z</time>
      </trkpt>
      <trkpt lat="43.90511" lon="7.28944">
        <ele>1271.445026</ele>
        <time>2012-12-09T10:26:45Z</time>
      </trkpt>
      <trkpt lat="43.90511" lon="7.28944">
        <ele>1271.445023</ele>
        <time>2012-12-09T10:26:49Z</time>
      </trkpt>
      <trkpt lat="43.90511" lon="7.28943">
        <ele>1271.445023</ele>
        <time>2012-12-09T10:26:52Z</time>
      </trkpt>
      <trkpt lat="43.90511" lon="7.28944">
        <ele>1272.445023</ele>
        <time>2012-12-09T10:26:57Z</time>
      </trkpt>
      <trkpt lat="43.9051" lon="7.28944">
        <ele>1272.445023</ele>
        <time>2012-12-09T10:27:01Z</time>
      </trkpt>
      <trkpt lat="43.9051" lon="7.28944">
        <ele>1272.44503</ele>
        <time>2012-12-09T10:27:04Z</time>
      </trkpt>
      <trkpt lat="43.9051" lon="7.28944">
        <ele>1271.445023</ele>
        <time>2012-12-09T10:27:08Z</time>
      </trkpt>
      <trkpt lat="43.9051" lon="7.28943">
        <ele>1271.445023</ele>
        <time>2012-12-09T10:27:12Z</time>
      </trkpt>
      <trkpt lat="43.9051" lon="7.28943">
        <ele>1270.445023</ele>
        <time>2012-12-09T10:27:16Z</time>
      </trkpt>
      <trkpt lat="43.9051" lon="7.28943">
        <ele>1270.445023</ele>
        <time>2012-12-09T10:27:20Z</time>
      </trkpt>
      <trkpt lat="43.9051" lon="7.28944">
        <ele>1270.445023</ele>
        <time>2012-12-09T10:27:24Z</time>
      </trkpt>
      <trkpt lat="43.90511" lon="7.28944">
        <ele>1270.44503</ele>
        <time>2012-12-09T10:27:27Z</time>
      </trkpt>
      <trkpt lat="43.90512" lon="7.28946">
        <ele>1270.445034</ele>
        <time>2012-12-09T10:27:30Z</time>
      </trkpt>
      <trkpt lat="43.90512" lon="7.28948">
        <ele>1271.445038</ele>
        <time>2012-12-09T10:27:33Z</time>
      </trkpt>
      <trkpt lat="43.90511" lon="7.2895">
        <ele>1270.445042</ele>
        <time>2012-12-09T10:27:38Z</time>
      </trkpt>
      <trkpt lat="43.90511" lon="7.28951">
        <ele>1270.445042</ele>
        <time>2012-12-09T10:27:42Z</time>
      </trkpt>
      <trkpt lat="43.90511" lon="7.28952">
        <ele>1271.445045</ele>
        <time>2012-12-09T10:27:46Z</time>
      </trkpt>
      <trkpt lat="43.90511" lon="7.28952">
        <ele>1271.445045</ele>
        <time>2012-12-09T10:27:50Z</time>
      </trkpt>
      <trkpt lat="43.90511" lon="7.28952">
        <ele>1271.445045</ele>
        <time>2012-12-09T10:27:53Z</time>
      </trkpt>
      <trkpt lat="43.90511" lon="7.28952">
        <ele>1271.445045</ele>
        <time>2012-12-09T10:27:56Z</time>
      </trkpt>
      <trkpt lat="43.90512" lon="7.28955">
        <ele>1272.445053</ele>
        <time>2012-12-09T10:28:01Z</time>
      </trkpt>
      <trkpt lat="43.90513" lon="7.28959">
        <ele>1272.445057</ele>
        <time>2012-12-09T10:28:04Z</time>
      </trkpt>
      <trkpt lat="43.90516" lon="7.28964">
        <ele>1272.445076</ele>
        <time>2012-12-09T10:28:09Z</time>
      </trkpt>
      <trkpt lat="43.90519" lon="7.2897">
        <ele>1273.445091</ele>
        <time>2012-12-09T10:28:14Z</time>
      </trkpt>
      <trkpt lat="43.90522" lon="7.28975">
        <ele>1272.445107</ele>
        <time>2012-12-09T10:28:19Z</time>
      </trkpt>
      <trkpt lat="43.90524" lon="7.28979">
        <ele>1273.445118</ele>
        <time>2012-12-09T10:28:23Z</time>
      </trkpt>
      <trkpt lat="43.90526" lon="7.28985">
        <ele>1273.445129</ele>
        <time>2012-12-09T10:28:27Z</time>
      </trkpt>
      <trkpt lat="43.90527" lon="7.28991">
        <ele>1274.445145</ele>
        <time>2012-12-09T10:28:31Z</time>
      </trkpt>
      <trkpt lat="43.90527" lon="7.28995">
        <ele>1275.445152</ele>
        <time>2012-12-09T10:28:34Z</time>
      </trkpt>
      <trkpt lat="43.90527" lon="7.29">
        <ele>1275.445164</ele>
        <time>2012-12-09T10:28:38Z</time>
      </trkpt>
      <trkpt lat="43.90527" lon="7.29007">
        <ele>1275.445183</ele>
        <time>2012-12-09T10:28:43Z</time>
      </trkpt>
      <trkpt lat="43.90527" lon="7.29011">
        <ele>1275.445187</ele>
        <time>2012-12-09T10:28:46Z</time>
      </trkpt>
      <trkpt lat="43.90526" lon="7.29014">
        <ele>1276.44519</ele>
        <time>2012-12-09T10:28:49Z</time>
      </trkpt>
      <trkpt lat="43.90524" lon="7.29016">
        <ele>1276.44519</ele>
        <time>2012-12-09T10:28:53Z</time>
      </trkpt>
      <trkpt lat="43.90521" lon="7.29022">
        <ele>1276.445202</ele>
        <time>2012-12-09T10:28:58Z</time>
      </trkpt>
      <trkpt lat="43.90519" lon="7.29025">
        <ele>1278.445206</ele>
        <time>2012-12-09T10:29:01Z</time>
      </trkpt>
      <trkpt lat="43.90517" lon="7.29028">
        <ele>1277.445213</ele>
        <time>2012-12-09T10:29:04Z</time>
      </trkpt>
      <trkpt lat="43.90515" lon="7.2903">
        <ele>1277.445213</ele>
        <time>2012-12-09T10:29:07Z</time>
      </trkpt>
      <trkpt lat="43.90513" lon="7.29031">
        <ele>1278.445206</ele>
        <time>2012-12-09T10:29:10Z</time>
      </trkpt>
      <trkpt lat="43.90511" lon="7.29033">
        <ele>1278.44521</ele>
        <time>2012-12-09T10:29:12Z</time>
      </trkpt>
      <trkpt lat="43.90511" lon="7.29036">
        <ele>1279.445221</ele>
        <time>2012-12-09T10:29:15Z</time>
      </trkpt>
      <trkpt lat="43.90513" lon="7.29043">
        <ele>1280.445232</ele>
        <time>2012-12-09T10:29:20Z</time>
      </trkpt>
      <trkpt lat="43.90514" lon="7.29046">
        <ele>1280.44524</ele>
        <time>2012-12-09T10:29:23Z</time>
      </trkpt>
      <trkpt lat="43.90514" lon="7.2905">
        <ele>1280.445251</ele>
        <time>2012-12-09T10:29:26Z</time>
      </trkpt>
      <trkpt lat="43.90513" lon="7.29054">
        <ele>1280.445255</ele>
        <time>2012-12-09T10:29:29Z</time>
      </trkpt>
      <trkpt lat="43.9051" lon="7.29061">
        <ele>1280.445267</ele>
        <time>2012-12-09T10:29:34Z</time>
      </trkpt>
      <trkpt lat="43.90509" lon="7.29065">
        <ele>1281.445274</ele>
        <time>2012-12-09T10:29:37Z</time>
      </trkpt>
      <trkpt lat="43.90505" lon="7.29069">
        <ele>1282.445278</ele>
        <time>2012-12-09T10:29:41Z</time>
      </trkpt>
      <trkpt lat="43.90501" lon="7.29075">
        <ele>1283.445282</ele>
        <time>2012-12-09T10:29:46Z</time>
      </trkpt>
      <trkpt lat="43.90498" lon="7.29079">
        <ele>1282.445286</ele>
        <time>2012-12-09T10:29:49Z</time>
      </trkpt>
      <trkpt lat="43.90494" lon="7.29082">
        <ele>1283.44529</ele>
        <time>2012-12-09T10:29:53Z</time>
      </trkpt>
      <trkpt lat="43.90488" lon="7.29086">
        <ele>1283.44529</ele>
        <time>2012-12-09T10:29:58Z</time>
      </trkpt>
      <trkpt lat="43.90485" lon="7.29088">
        <ele>1283.44529</ele>
        <time>2012-12-09T10:30:01Z</time>
      </trkpt>
      <trkpt lat="43.90481" lon="7.29092">
        <ele>1282.44529</ele>
        <time>2012-12-09T10:30:05Z</time>
      </trkpt>
      <trkpt lat="43.90477" lon="7.29095">
        <ele>1281.445293</ele>
        <time>2012-12-09T10:30:09Z</time>
      </trkpt>
      <trkpt lat="43.90473" lon="7.29098">
        <ele>1282.44529</ele>
        <time>2012-12-09T10:30:13Z</time>
      </trkpt>
      <trkpt lat="43.90468" lon="7.29102">
        <ele>1284.445297</ele>
        <time>2012-12-09T10:30:17Z</time>
      </trkpt>
      <trkpt lat="43.9046" lon="7.29113">
        <ele>1286.445305</ele>
        <time>2012-12-09T10:30:24Z</time>
      </trkpt>
      <trkpt lat="43.90455" lon="7.2912">
        <ele>1288.445312</ele>
        <time>2012-12-09T10:30:30Z</time>
      </trkpt>
      <trkpt lat="43.90452" lon="7.29125">
        <ele>1288.44532</ele>
        <time>2012-12-09T10:30:34Z</time>
      </trkpt>
      <trkpt lat="43.90449" lon="7.2913">
        <ele>1288.445324</ele>
        <time>2012-12-09T10:30:38Z</time>
      </trkpt>
      <trkpt lat="43.90443" lon="7.2914">
        <ele>1289.445335</ele>
        <time>2012-12-09T10:30:46Z</time>
      </trkpt>
      <trkpt lat="43.9044" lon="7.29147">
        <ele>1290.445347</ele>
        <time>2012-12-09T10:30:51Z</time>
      </trkpt>
      <trkpt lat="43.90438" lon="7.29154">
        <ele>1290.445362</ele>
        <time>2012-12-09T10:30:55Z</time>
      </trkpt>
      <trkpt lat="43.90438" lon="7.29163">
        <ele>1289.445374</ele>
        <time>2012-12-09T10:31:00Z</time>
      </trkpt>
      <trkpt lat="43.90438" lon="7.29174">
        <ele>1287.445396</ele>
        <time>2012-12-09T10:31:06Z</time>
      </trkpt>
      <trkpt lat="43.90438" lon="7.29181">
        <ele>1287.445415</ele>
        <time>2012-12-09T10:31:11Z</time>
      </trkpt>
      <trkpt lat="43.90438" lon="7.29185">
        <ele>1287.445419</ele>
        <time>2012-12-09T10:31:13Z</time>
      </trkpt>
      <trkpt lat="43.90439" lon="7.29184">
        <ele>1287.445419</ele>
        <time>2012-12-09T10:31:14Z</time>
      </trkpt>
      <trkpt lat="43.90439" lon="7.29191">
        <ele>1288.445438</ele>
        <time>2012-12-09T10:31:20Z</time>
      </trkpt>
      <trkpt lat="43.90439" lon="7.29204">
        <ele>1288.445465</ele>
        <time>2012-12-09T10:31:28Z</time>
      </trkpt>
      <trkpt lat="43.90438" lon="7.29215">
        <ele>1288.44548</ele>
        <time>2012-12-09T10:31:34Z</time>
      </trkpt>
      <trkpt lat="43.90436" lon="7.29224">
        <ele>1288.445496</ele>
        <time>2012-12-09T10:31:39Z</time>
      </trkpt>
      <trkpt lat="43.90433" lon="7.29236">
        <ele>1288.445518</ele>
        <time>2012-12-09T10:31:46Z</time>
      </trkpt>
      <trkpt lat="43.90432" lon="7.29242">
        <ele>1288.445534</ele>
        <time>2012-12-09T10:31:50Z</time>
      </trkpt>
      <trkpt lat="43.90429" lon="7.29256">
        <ele>1289.445557</ele>
        <time>2012-12-09T10:31:57Z</time>
      </trkpt>
      <trkpt lat="43.90428" lon="7.29264">
        <ele>1291.445572</ele>
        <time>2012-12-09T10:32:01Z</time>
      </trkpt>
      <trkpt lat="43.90426" lon="7.29277">
        <ele>1289.445595</ele>
        <time>2012-12-09T10:32:08Z</time>
      </trkpt>
      <trkpt lat="43.90425" lon="7.29283">
        <ele>1290.445602</ele>
        <time>2012-12-09T10:32:11Z</time>
      </trkpt>
      <trkpt lat="43.90424" lon="7.293">
        <ele>1291.445641</ele>
        <time>2012-12-09T10:32:21Z</time>
      </trkpt>
      <trkpt lat="43.90423" lon="7.29313">
        <ele>1293.445663</ele>
        <time>2012-12-09T10:32:29Z</time>
      </trkpt>
      <trkpt lat="43.90422" lon="7.2932">
        <ele>1294.445679</ele>
        <time>2012-12-09T10:32:34Z</time>
      </trkpt>
      <trkpt lat="43.90422" lon="7.29329">
        <ele>1294.445698</ele>
        <time>2012-12-09T10:32:40Z</time>
      </trkpt>
      <trkpt lat="43.90421" lon="7.29336">
        <ele>1294.445709</ele>
        <time>2012-12-09T10:32:44Z</time>
      </trkpt>
      <trkpt lat="43.90421" lon="7.29345">
        <ele>1294.445724</ele>
        <time>2012-12-09T10:32:50Z</time>
      </trkpt>
      <trkpt lat="43.90422" lon="7.29354">
        <ele>1294.445747</ele>
        <time>2012-12-09T10:32:56Z</time>
      </trkpt>
      <trkpt lat="43.90423" lon="7.29365">
        <ele>1294.44577</ele>
        <time>2012-12-09T10:33:02Z</time>
      </trkpt>
      <trkpt lat="43.90427" lon="7.29385">
        <ele>1294.44582</ele>
        <time>2012-12-09T10:33:15Z</time>
      </trkpt>
      <trkpt lat="43.90428" lon="7.29392">
        <ele>1294.445835</ele>
        <time>2012-12-09T10:33:20Z</time>
      </trkpt>
      <trkpt lat="43.90428" lon="7.29401">
        <ele>1296.445847</ele>
        <time>2012-12-09T10:33:25Z</time>
      </trkpt>
      <trkpt lat="43.9043" lon="7.29416">
        <ele>1298.445885</ele>
        <time>2012-12-09T10:33:32Z</time>
      </trkpt>
      <trkpt lat="43.9043" lon="7.29421">
        <ele>1298.445896</ele>
        <time>2012-12-09T10:33:35Z</time>
      </trkpt>
      <trkpt lat="43.9043" lon="7.29432">
        <ele>1299.445915</ele>
        <time>2012-12-09T10:33:41Z</time>
      </trkpt>
      <trkpt lat="43.90429" lon="7.29437">
        <ele>1300.44593</ele>
        <time>2012-12-09T10:33:44Z</time>
      </trkpt>
      <trkpt lat="43.90426" lon="7.29444">
        <ele>1302.445934</ele>
        <time>2012-12-09T10:33:48Z</time>
      </trkpt>
      <trkpt lat="43.90423" lon="7.29452">
        <ele>1302.445946</ele>
        <time>2012-12-09T10:33:53Z</time>
      </trkpt>
      <trkpt lat="43.90421" lon="7.29457">
        <ele>1302.445957</ele>
        <time>2012-12-09T10:33:57Z</time>
      </trkpt>
      <trkpt lat="43.9042" lon="7.29461">
        <ele>1301.445965</ele>
        <time>2012-12-09T10:34:02Z</time>
      </trkpt>
      <trkpt lat="43.9042" lon="7.29462">
        <ele>1301.445965</ele>
        <time>2012-12-09T10:34:05Z</time>
      </trkpt>
      <trkpt lat="43.90421" lon="7.29462">
        <ele>1300.445969</ele>
        <time>2012-12-09T10:34:10Z</time>
      </trkpt>
      <trkpt lat="43.90421" lon="7.29462">
        <ele>1300.445961</ele>
        <time>2012-12-09T10:34:13Z</time>
      </trkpt>
      <trkpt lat="43.90422" lon="7.29462">
        <ele>1299.445969</ele>
        <time>2012-12-09T10:34:18Z</time>
      </trkpt>
      <trkpt lat="43.90422" lon="7.29462">
        <ele>1298.445969</ele>
        <time>2012-12-09T10:34:22Z</time>
      </trkpt>
      <trkpt lat="43.90423" lon="7.29463">
        <ele>1299.445969</ele>
        <time>2012-12-09T10:34:26Z</time>
      </trkpt>
      <trkpt lat="43.90423" lon="7.29463">
        <ele>1297.445976</ele>
        <time>2012-12-09T10:34:30Z</time>
      </trkpt>
      <trkpt lat="43.90423" lon="7.29463">
        <ele>1297.445976</ele>
        <time>2012-12-09T10:34:34Z</time>
      </trkpt>
      <trkpt lat="43.90423" lon="7.29462">
        <ele>1298.445969</ele>
        <time>2012-12-09T10:34:40Z</time>
      </trkpt>
      <trkpt lat="43.90423" lon="7.29462">
        <ele>1298.445969</ele>
        <time>2012-12-09T10:34:43Z</time>
      </trkpt>
      <trkpt lat="43.90423" lon="7.29461">
        <ele>1299.445969</ele>
        <time>2012-12-09T10:34:50Z</time>
      </trkpt>
      <trkpt lat="43.90423" lon="7.29461">
        <ele>1300.445969</ele>
        <time>2012-12-09T10:34:53Z</time>
      </trkpt>
      <trkpt lat="43.90423" lon="7.29462">
        <ele>1300.445969</ele>
        <time>2012-12-09T10:34:58Z</time>
      </trkpt>
      <trkpt lat="43.90423" lon="7.29462">
        <ele>1299.445969</ele>
        <time>2012-12-09T10:35:02Z</time>
      </trkpt>
      <trkpt lat="43.90423" lon="7.29462">
        <ele>1299.445969</ele>
        <time>2012-12-09T10:35:05Z</time>
      </trkpt>
      <trkpt lat="43.90423" lon="7.29462">
        <ele>1300.445969</ele>
        <time>2012-12-09T10:35:09Z</time>
      </trkpt>
      <trkpt lat="43.90422" lon="7.29461">
        <ele>1301.445969</ele>
        <time>2012-12-09T10:35:14Z</time>
      </trkpt>
      <trkpt lat="43.90422" lon="7.2946">
        <ele>1302.445961</ele>
        <time>2012-12-09T10:35:18Z</time>
      </trkpt>
      <trkpt lat="43.90422" lon="7.2946">
        <ele>1301.445961</ele>
        <time>2012-12-09T10:35:22Z</time>
      </trkpt>
      <trkpt lat="43.90422" lon="7.2946">
        <ele>1301.445961</ele>
        <time>2012-12-09T10:35:27Z</time>
      </trkpt>
      <trkpt lat="43.90422" lon="7.2946">
        <ele>1300.445961</ele>
        <time>2012-12-09T10:35:31Z</time>
      </trkpt>
      <trkpt lat="43.90423" lon="7.2946">
        <ele>1300.445965</ele>
        <time>2012-12-09T10:35:34Z</time>
      </trkpt>
      <trkpt lat="43.90423" lon="7.2946">
        <ele>1299.445969</ele>
        <time>2012-12-09T10:35:38Z</time>
      </trkpt>
      <trkpt lat="43.90423" lon="7.29461">
        <ele>1298.445969</ele>
        <time>2012-12-09T10:35:41Z</time>
      </trkpt>
      <trkpt lat="43.90423" lon="7.29461">
        <ele>1297.445969</ele>
        <time>2012-12-09T10:35:46Z</time>
      </trkpt>
      <trkpt lat="43.90423" lon="7.29461">
        <ele>1297.445969</ele>
        <time>2012-12-09T10:35:51Z</time>
      </trkpt>
      <trkpt lat="43.90423" lon="7.29461">
        <ele>1296.445965</ele>
        <time>2012-12-09T10:35:54Z</time>
      </trkpt>
      <trkpt lat="43.90422" lon="7.2946">
        <ele>1297.445961</ele>
        <time>2012-12-09T10:35:58Z</time>
      </trkpt>
      <trkpt lat="43.90422" lon="7.2946">
        <ele>1298.445961</ele>
        <time>2012-12-09T10:36:04Z</time>
      </trkpt>
      <trkpt lat="43.90421" lon="7.29459">
        <ele>1299.445961</ele>
        <time>2012-12-09T10:36:07Z</time>
      </trkpt>
      <trkpt lat="43.90421" lon="7.29458">
        <ele>1300.445961</ele>
        <time>2012-12-09T10:36:11Z</time>
      </trkpt>
      <trkpt lat="43.90421" lon="7.29458">
        <ele>1301.445957</ele>
        <time>2012-12-09T10:36:14Z</time>
      </trkpt>
      <trkpt lat="43.90421" lon="7.29457">
        <ele>1302.445953</ele>
        <time>2012-12-09T10:36:18Z</time>
      </trkpt>
      <trkpt lat="43.90421" lon="7.29456">
        <ele>1302.445953</ele>
        <time>2012-12-09T10:36:22Z</time>
      </trkpt>
      <trkpt lat="43.90421" lon="7.29456">
        <ele>1302.445953</ele>
        <time>2012-12-09T10:36:25Z</time>
      </trkpt>
      <trkpt lat="43.90421" lon="7.29456">
        <ele>1303.445953</ele>
        <time>2012-12-09T10:36:29Z</time>
      </trkpt>
      <trkpt lat="43.90422" lon="7.29456">
        <ele>1304.445953</ele>
        <time>2012-12-09T10:36:33Z</time>
      </trkpt>
      <trkpt lat="43.90422" lon="7.29456">
        <ele>1304.445957</ele>
        <time>2012-12-09T10:36:37Z</time>
      </trkpt>
      <trkpt lat="43.90422" lon="7.29456">
        <ele>1304.445957</ele>
        <time>2012-12-09T10:36:41Z</time>
      </trkpt>
      <trkpt lat="43.90423" lon="7.29455">
        <ele>1304.445953</ele>
        <time>2012-12-09T10:36:46Z</time>
      </trkpt>
      <trkpt lat="43.90423" lon="7.29455">
        <ele>1304.445953</ele>
        <time>2012-12-09T10:36:51Z</time>
      </trkpt>
      <trkpt lat="43.90424" lon="7.29454">
        <ele>1304.445953</ele>
        <time>2012-12-09T10:36:55Z</time>
      </trkpt>
      <trkpt lat="43.90424" lon="7.29454">
        <ele>1304.445953</ele>
        <time>2012-12-09T10:36:59Z</time>
      </trkpt>
      <trkpt lat="43.90425" lon="7.29453">
        <ele>1305.445953</ele>
        <time>2012-12-09T10:37:03Z</time>
      </trkpt>
      <trkpt lat="43.90425" lon="7.29453">
        <ele>1305.445953</ele>
        <time>2012-12-09T10:37:07Z</time>
      </trkpt>
      <trkpt lat="43.90425" lon="7.29453">
        <ele>1306.445953</ele>
        <time>2012-12-09T10:37:11Z</time>
      </trkpt>
      <trkpt lat="43.90425" lon="7.29453">
        <ele>1306.445953</ele>
        <time>2012-12-09T10:37:14Z</time>
      </trkpt>
      <trkpt lat="43.90425" lon="7.29453">
        <ele>1306.445953</ele>
        <time>2012-12-09T10:37:19Z</time>
      </trkpt>
      <trkpt lat="43.90425" lon="7.29453">
        <ele>1306.445953</ele>
        <time>2012-12-09T10:37:22Z</time>
      </trkpt>
      <trkpt lat="43.90425" lon="7.29453">
        <ele>1304.445953</ele>
        <time>2012-12-09T10:37:26Z</time>
      </trkpt>
      <trkpt lat="43.90425" lon="7.29453">
        <ele>1305.445957</ele>
        <time>2012-12-09T10:37:28Z</time>
      </trkpt>
      <trkpt lat="43.90425" lon="7.29453">
        <ele>1304.445953</ele>
        <time>2012-12-09T10:37:32Z</time>
      </trkpt>
      <trkpt lat="43.90425" lon="7.29453">
        <ele>1303.445957</ele>
        <time>2012-12-09T10:37:36Z</time>
      </trkpt>
      <trkpt lat="43.90424" lon="7.29454">
        <ele>1301.445953</ele>
        <time>2012-12-09T10:37:43Z</time>
      </trkpt>
      <trkpt lat="43.90423" lon="7.29455">
        <ele>1303.445953</ele>
        <time>2012-12-09T10:37:52Z</time>
      </trkpt>
      <trkpt lat="43.90423" lon="7.29455">
        <ele>1303.445953</ele>
        <time>2012-12-09T10:37:55Z</time>
      </trkpt>
      <trkpt lat="43.90424" lon="7.29455">
        <ele>1300.445957</ele>
        <time>2012-12-09T10:38:03Z</time>
      </trkpt>
      <trkpt lat="43.90424" lon="7.29455">
        <ele>1303.445957</ele>
        <time>2012-12-09T10:38:07Z</time>
      </trkpt>
      <trkpt lat="43.90423" lon="7.29455">
        <ele>1304.445957</ele>
        <time>2012-12-09T10:38:11Z</time>
      </trkpt>
      <trkpt lat="43.90423" lon="7.29455">
        <ele>1304.445957</ele>
        <time>2012-12-09T10:38:18Z</time>
      </trkpt>
      <trkpt lat="43.90424" lon="7.29455">
        <ele>1305.445957</ele>
        <time>2012-12-09T10:38:23Z</time>
      </trkpt>
      <trkpt lat="43.90424" lon="7.29455">
        <ele>1306.445953</ele>
        <time>2012-12-09T10:38:26Z</time>
      </trkpt>
      <trkpt lat="43.90424" lon="7.29453">
        <ele>1306.445953</ele>
        <time>2012-12-09T10:38:33Z</time>
      </trkpt>
      <trkpt lat="43.90424" lon="7.29452">
        <ele>1304.445953</ele>
        <time>2012-12-09T10:38:37Z</time>
      </trkpt>
      <trkpt lat="43.90423" lon="7.29452">
        <ele>1304.445946</ele>
        <time>2012-12-09T10:38:40Z</time>
      </trkpt>
      <trkpt lat="43.90422" lon="7.29452">
        <ele>1303.44595</ele>
        <time>2012-12-09T10:38:44Z</time>
      </trkpt>
      <trkpt lat="43.90422" lon="7.29452">
        <ele>1302.44595</ele>
        <time>2012-12-09T10:38:47Z</time>
      </trkpt>
      <trkpt lat="43.90422" lon="7.29452">
        <ele>1303.445946</ele>
        <time>2012-12-09T10:38:51Z</time>
      </trkpt>
      <trkpt lat="43.90422" lon="7.29452">
        <ele>1302.44595</ele>
        <time>2012-12-09T10:38:57Z</time>
      </trkpt>
      <trkpt lat="43.90422" lon="7.29453">
        <ele>1300.44595</ele>
        <time>2012-12-09T10:39:03Z</time>
      </trkpt>
      <trkpt lat="43.90422" lon="7.29453">
        <ele>1300.44595</ele>
        <time>2012-12-09T10:39:05Z</time>
      </trkpt>
      <trkpt lat="43.90422" lon="7.29453">
        <ele>1299.445946</ele>
        <time>2012-12-09T10:39:13Z</time>
      </trkpt>
      <trkpt lat="43.90422" lon="7.29452">
        <ele>1299.445946</ele>
        <time>2012-12-09T10:39:19Z</time>
      </trkpt>
      <trkpt lat="43.90422" lon="7.29452">
        <ele>1299.44595</ele>
        <time>2012-12-09T10:39:22Z</time>
      </trkpt>
      <trkpt lat="43.90422" lon="7.29453">
        <ele>1300.445946</ele>
        <time>2012-12-09T10:39:27Z</time>
      </trkpt>
      <trkpt lat="43.90422" lon="7.29453">
        <ele>1301.445946</ele>
        <time>2012-12-09T10:39:29Z</time>
      </trkpt>
      <trkpt lat="43.90421" lon="7.29453">
        <ele>1300.445946</ele>
        <time>2012-12-09T10:39:38Z</time>
      </trkpt>
      <trkpt lat="43.90421" lon="7.29453">
        <ele>1299.445946</ele>
        <time>2012-12-09T10:39:42Z</time>
      </trkpt>
      <trkpt lat="43.90421" lon="7.29454">
        <ele>1299.445953</ele>
        <time>2012-12-09T10:39:48Z</time>
      </trkpt>
      <trkpt lat="43.90421" lon="7.29455">
        <ele>1299.445953</ele>
        <time>2012-12-09T10:39:52Z</time>
      </trkpt>
      <trkpt lat="43.90421" lon="7.29455">
        <ele>1298.445953</ele>
        <time>2012-12-09T10:39:57Z</time>
      </trkpt>
      <trkpt lat="43.90421" lon="7.29455">
        <ele>1297.445953</ele>
        <time>2012-12-09T10:40:01Z</time>
      </trkpt>
      <trkpt lat="43.90422" lon="7.29455">
        <ele>1297.445953</ele>
        <time>2012-12-09T10:40:08Z</time>
      </trkpt>
      <trkpt lat="43.90423" lon="7.29456">
        <ele>1297.445957</ele>
        <time>2012-12-09T10:40:12Z</time>
      </trkpt>
      <trkpt lat="43.90424" lon="7.29457">
        <ele>1297.445957</ele>
        <time>2012-12-09T10:40:15Z</time>
      </trkpt>
      <trkpt lat="43.90425" lon="7.29459">
        <ele>1298.445969</ele>
        <time>2012-12-09T10:40:18Z</time>
      </trkpt>
      <trkpt lat="43.90426" lon="7.29462">
        <ele>1297.445972</ele>
        <time>2012-12-09T10:40:21Z</time>
      </trkpt>
      <trkpt lat="43.90426" lon="7.29467">
        <ele>1298.445984</ele>
        <time>2012-12-09T10:40:25Z</time>
      </trkpt>
      <trkpt lat="43.90427" lon="7.29472">
        <ele>1298.445999</ele>
        <time>2012-12-09T10:40:30Z</time>
      </trkpt>
      <trkpt lat="43.90429" lon="7.29475">
        <ele>1297.446007</ele>
        <time>2012-12-09T10:40:33Z</time>
      </trkpt>
      <trkpt lat="43.90432" lon="7.2948">
        <ele>1299.446014</ele>
        <time>2012-12-09T10:40:39Z</time>
      </trkpt>
      <trkpt lat="43.90435" lon="7.29485">
        <ele>1299.44603</ele>
        <time>2012-12-09T10:40:44Z</time>
      </trkpt>
      <trkpt lat="43.90439" lon="7.29491">
        <ele>1299.446049</ele>
        <time>2012-12-09T10:40:50Z</time>
      </trkpt>
      <trkpt lat="43.90441" lon="7.29495">
        <ele>1299.44606</ele>
        <time>2012-12-09T10:40:54Z</time>
      </trkpt>
      <trkpt lat="43.90444" lon="7.29498">
        <ele>1300.446072</ele>
        <time>2012-12-09T10:40:58Z</time>
      </trkpt>
      <trkpt lat="43.90447" lon="7.29502">
        <ele>1301.446083</ele>
        <time>2012-12-09T10:41:02Z</time>
      </trkpt>
      <trkpt lat="43.90453" lon="7.29508">
        <ele>1300.446102</ele>
        <time>2012-12-09T10:41:08Z</time>
      </trkpt>
      <trkpt lat="43.90457" lon="7.2951">
        <ele>1300.446114</ele>
        <time>2012-12-09T10:41:12Z</time>
      </trkpt>
      <trkpt lat="43.9046" lon="7.29513">
        <ele>1300.446125</ele>
        <time>2012-12-09T10:41:16Z</time>
      </trkpt>
      <trkpt lat="43.90464" lon="7.29516">
        <ele>1299.446136</ele>
        <time>2012-12-09T10:41:20Z</time>
      </trkpt>
      <trkpt lat="43.90469" lon="7.29522">
        <ele>1298.446159</ele>
        <time>2012-12-09T10:41:26Z</time>
      </trkpt>
      <trkpt lat="43.90474" lon="7.2953">
        <ele>1297.446175</ele>
        <time>2012-12-09T10:41:33Z</time>
      </trkpt>
      <trkpt lat="43.90477" lon="7.29533">
        <ele>1298.446186</ele>
        <time>2012-12-09T10:41:37Z</time>
      </trkpt>
      <trkpt lat="43.9048" lon="7.29535">
        <ele>1297.446198</ele>
        <time>2012-12-09T10:41:41Z</time>
      </trkpt>
      <trkpt lat="43.90483" lon="7.29536">
        <ele>1298.446201</ele>
        <time>2012-12-09T10:41:44Z</time>
      </trkpt>
      <trkpt lat="43.90487" lon="7.29539">
        <ele>1297.446213</ele>
        <time>2012-12-09T10:41:48Z</time>
      </trkpt>
      <trkpt lat="43.90494" lon="7.29546">
        <ele>1298.446236</ele>
        <time>2012-12-09T10:41:57Z</time>
      </trkpt>
      <trkpt lat="43.90498" lon="7.29549">
        <ele>1299.446251</ele>
        <time>2012-12-09T10:42:01Z</time>
      </trkpt>
      <trkpt lat="43.90501" lon="7.29552">
        <ele>1300.446259</ele>
        <time>2012-12-09T10:42:05Z</time>
      </trkpt>
      <trkpt lat="43.90504" lon="7.29555">
        <ele>1300.446266</ele>
        <time>2012-12-09T10:42:09Z</time>
      </trkpt>
      <trkpt lat="43.90507" lon="7.2956">
        <ele>1300.446289</ele>
        <time>2012-12-09T10:42:15Z</time>
      </trkpt>
      <trkpt lat="43.9051" lon="7.29566">
        <ele>1300.446297</ele>
        <time>2012-12-09T10:42:21Z</time>
      </trkpt>
      <trkpt lat="43.90514" lon="7.29569">
        <ele>1299.446308</ele>
        <time>2012-12-09T10:42:26Z</time>
      </trkpt>
      <trkpt lat="43.90515" lon="7.29571">
        <ele>1299.446312</ele>
        <time>2012-12-09T10:42:29Z</time>
      </trkpt>
      <trkpt lat="43.90518" lon="7.29576">
        <ele>1298.446335</ele>
        <time>2012-12-09T10:42:34Z</time>
      </trkpt>
      <trkpt lat="43.90522" lon="7.29581">
        <ele>1299.44635</ele>
        <time>2012-12-09T10:42:39Z</time>
      </trkpt>
      <trkpt lat="43.90526" lon="7.29586">
        <ele>1300.446362</ele>
        <time>2012-12-09T10:42:43Z</time>
      </trkpt>
      <trkpt lat="43.90532" lon="7.29594">
        <ele>1301.446388</ele>
        <time>2012-12-09T10:42:50Z</time>
      </trkpt>
      <trkpt lat="43.90536" lon="7.29601">
        <ele>1300.446407</ele>
        <time>2012-12-09T10:42:55Z</time>
      </trkpt>
      <trkpt lat="43.9054" lon="7.29607">
        <ele>1302.446423</ele>
        <time>2012-12-09T10:43:00Z</time>
      </trkpt>
      <trkpt lat="43.90543" lon="7.29611">
        <ele>1303.446434</ele>
        <time>2012-12-09T10:43:03Z</time>
      </trkpt>
      <trkpt lat="43.90546" lon="7.29614">
        <ele>1303.446449</ele>
        <time>2012-12-09T10:43:06Z</time>
      </trkpt>
      <trkpt lat="43.90549" lon="7.29619">
        <ele>1303.446465</ele>
        <time>2012-12-09T10:43:10Z</time>
      </trkpt>
      <trkpt lat="43.90551" lon="7.29623">
        <ele>1303.446472</ele>
        <time>2012-12-09T10:43:13Z</time>
      </trkpt>
      <trkpt lat="43.90554" lon="7.29627">
        <ele>1303.446484</ele>
        <time>2012-12-09T10:43:17Z</time>
      </trkpt>
      <trkpt lat="43.90555" lon="7.29631">
        <ele>1304.446495</ele>
        <time>2012-12-09T10:43:20Z</time>
      </trkpt>
      <trkpt lat="43.90557" lon="7.29638">
        <ele>1305.44651</ele>
        <time>2012-12-09T10:43:25Z</time>
      </trkpt>
      <trkpt lat="43.90559" lon="7.29644">
        <ele>1304.446526</ele>
        <time>2012-12-09T10:43:29Z</time>
      </trkpt>
      <trkpt lat="43.90561" lon="7.29647">
        <ele>1306.446533</ele>
        <time>2012-12-09T10:43:34Z</time>
      </trkpt>
      <trkpt lat="43.90563" lon="7.2965">
        <ele>1306.446541</ele>
        <time>2012-12-09T10:43:38Z</time>
      </trkpt>
      <trkpt lat="43.90565" lon="7.29651">
        <ele>1306.446545</ele>
        <time>2012-12-09T10:43:44Z</time>
      </trkpt>
      <trkpt lat="43.90568" lon="7.29654">
        <ele>1307.446556</ele>
        <time>2012-12-09T10:43:49Z</time>
      </trkpt>
      <trkpt lat="43.90571" lon="7.29658">
        <ele>1307.446571</ele>
        <time>2012-12-09T10:43:53Z</time>
      </trkpt>
      <trkpt lat="43.90576" lon="7.2967">
        <ele>1307.446602</ele>
        <time>2012-12-09T10:44:02Z</time>
      </trkpt>
      <trkpt lat="43.90579" lon="7.29675">
        <ele>1306.446617</ele>
        <time>2012-12-09T10:44:05Z</time>
      </trkpt>
      <trkpt lat="43.90583" lon="7.29683">
        <ele>1306.446636</ele>
        <time>2012-12-09T10:44:10Z</time>
      </trkpt>
      <trkpt lat="43.90585" lon="7.29687">
        <ele>1306.446651</ele>
        <time>2012-12-09T10:44:13Z</time>
      </trkpt>
      <trkpt lat="43.90593" lon="7.29696">
        <ele>1307.446678</ele>
        <time>2012-12-09T10:44:22Z</time>
      </trkpt>
      <trkpt lat="43.90595" lon="7.29699">
        <ele>1308.446686</ele>
        <time>2012-12-09T10:44:26Z</time>
      </trkpt>
      <trkpt lat="43.90596" lon="7.29702">
        <ele>1309.446693</ele>
        <time>2012-12-09T10:44:30Z</time>
      </trkpt>
      <trkpt lat="43.90599" lon="7.29705">
        <ele>1310.446701</ele>
        <time>2012-12-09T10:44:34Z</time>
      </trkpt>
      <trkpt lat="43.90601" lon="7.29708">
        <ele>1311.446712</ele>
        <time>2012-12-09T10:44:38Z</time>
      </trkpt>
      <trkpt lat="43.90606" lon="7.29712">
        <ele>1312.446724</ele>
        <time>2012-12-09T10:44:43Z</time>
      </trkpt>
      <trkpt lat="43.90609" lon="7.29714">
        <ele>1313.446739</ele>
        <time>2012-12-09T10:44:47Z</time>
      </trkpt>
      <trkpt lat="43.90613" lon="7.29717">
        <ele>1314.446747</ele>
        <time>2012-12-09T10:44:53Z</time>
      </trkpt>
      <trkpt lat="43.90614" lon="7.29719">
        <ele>1314.446754</ele>
        <time>2012-12-09T10:44:56Z</time>
      </trkpt>
      <trkpt lat="43.90617" lon="7.29721">
        <ele>1315.446762</ele>
        <time>2012-12-09T10:44:59Z</time>
      </trkpt>
      <trkpt lat="43.90626" lon="7.29728">
        <ele>1317.446793</ele>
        <time>2012-12-09T10:45:06Z</time>
      </trkpt>
      <trkpt lat="43.90633" lon="7.29733">
        <ele>1318.446808</ele>
        <time>2012-12-09T10:45:12Z</time>
      </trkpt>
      <trkpt lat="43.9064" lon="7.29738">
        <ele>1318.446827</ele>
        <time>2012-12-09T10:45:18Z</time>
      </trkpt>
      <trkpt lat="43.90646" lon="7.29742">
        <ele>1319.446846</ele>
        <time>2012-12-09T10:45:24Z</time>
      </trkpt>
      <trkpt lat="43.90651" lon="7.29746">
        <ele>1318.446861</ele>
        <time>2012-12-09T10:45:31Z</time>
      </trkpt>
      <trkpt lat="43.90653" lon="7.29745">
        <ele>1319.446861</ele>
        <time>2012-12-09T10:45:34Z</time>
      </trkpt>
      <trkpt lat="43.90655" lon="7.29746">
        <ele>1320.446865</ele>
        <time>2012-12-09T10:45:42Z</time>
      </trkpt>
      <trkpt lat="43.90656" lon="7.29746">
        <ele>1319.446865</ele>
        <time>2012-12-09T10:45:45Z</time>
      </trkpt>
      <trkpt lat="43.90656" lon="7.29746">
        <ele>1319.446865</ele>
        <time>2012-12-09T10:45:48Z</time>
      </trkpt>
      <trkpt lat="43.90657" lon="7.29745">
        <ele>1318.446869</ele>
        <time>2012-12-09T10:45:53Z</time>
      </trkpt>
      <trkpt lat="43.90657" lon="7.29745">
        <ele>1319.446869</ele>
        <time>2012-12-09T10:45:57Z</time>
      </trkpt>
      <trkpt lat="43.90657" lon="7.29746">
        <ele>1319.446869</ele>
        <time>2012-12-09T10:46:01Z</time>
      </trkpt>
      <trkpt lat="43.90659" lon="7.29751">
        <ele>1318.446884</ele>
        <time>2012-12-09T10:46:06Z</time>
      </trkpt>
      <trkpt lat="43.9066" lon="7.29756">
        <ele>1318.446892</ele>
        <time>2012-12-09T10:46:10Z</time>
      </trkpt>
      <trkpt lat="43.90663" lon="7.29763">
        <ele>1318.446907</ele>
        <time>2012-12-09T10:46:14Z</time>
      </trkpt>
      <trkpt lat="43.90665" lon="7.2977">
        <ele>1318.446926</ele>
        <time>2012-12-09T10:46:18Z</time>
      </trkpt>
      <trkpt lat="43.90666" lon="7.29779">
        <ele>1317.446945</ele>
        <time>2012-12-09T10:46:24Z</time>
      </trkpt>
      <trkpt lat="43.90667" lon="7.29783">
        <ele>1317.44696</ele>
        <time>2012-12-09T10:46:27Z</time>
      </trkpt>
      <trkpt lat="43.90666" lon="7.29788">
        <ele>1317.44696</ele>
        <time>2012-12-09T10:46:30Z</time>
      </trkpt>
      <trkpt lat="43.90666" lon="7.29791">
        <ele>1317.446972</ele>
        <time>2012-12-09T10:46:33Z</time>
      </trkpt>
      <trkpt lat="43.90665" lon="7.29797">
        <ele>1319.446983</ele>
        <time>2012-12-09T10:46:40Z</time>
      </trkpt>
      <trkpt lat="43.90667" lon="7.29801">
        <ele>1320.446991</ele>
        <time>2012-12-09T10:46:44Z</time>
      </trkpt>
      <trkpt lat="43.90669" lon="7.29805">
        <ele>1321.447006</ele>
        <time>2012-12-09T10:46:48Z</time>
      </trkpt>
      <trkpt lat="43.90673" lon="7.29809">
        <ele>1319.447018</ele>
        <time>2012-12-09T10:46:52Z</time>
      </trkpt>
      <trkpt lat="43.9068" lon="7.29819">
        <ele>1322.447044</ele>
        <time>2012-12-09T10:47:01Z</time>
      </trkpt>
      <trkpt lat="43.90688" lon="7.29827">
        <ele>1323.447075</ele>
        <time>2012-12-09T10:47:09Z</time>
      </trkpt>
      <trkpt lat="43.90693" lon="7.29831">
        <ele>1323.447086</ele>
        <time>2012-12-09T10:47:13Z</time>
      </trkpt>
      <trkpt lat="43.90697" lon="7.29833">
        <ele>1323.447098</ele>
        <time>2012-12-09T10:47:17Z</time>
      </trkpt>
      <trkpt lat="43.90702" lon="7.29835">
        <ele>1323.447109</ele>
        <time>2012-12-09T10:47:21Z</time>
      </trkpt>
      <trkpt lat="43.90707" lon="7.29838">
        <ele>1323.447121</ele>
        <time>2012-12-09T10:47:26Z</time>
      </trkpt>
      <trkpt lat="43.90713" lon="7.29841">
        <ele>1324.447136</ele>
        <time>2012-12-09T10:47:31Z</time>
      </trkpt>
      <trkpt lat="43.90715" lon="7.29842">
        <ele>1325.447144</ele>
        <time>2012-12-09T10:47:34Z</time>
      </trkpt>
      <trkpt lat="43.9072" lon="7.29844">
        <ele>1325.447151</ele>
        <time>2012-12-09T10:47:39Z</time>
      </trkpt>
      <trkpt lat="43.90723" lon="7.29846">
        <ele>1325.447159</ele>
        <time>2012-12-09T10:47:42Z</time>
      </trkpt>
      <trkpt lat="43.90727" lon="7.29847">
        <ele>1325.44717</ele>
        <time>2012-12-09T10:47:46Z</time>
      </trkpt>
      <trkpt lat="43.90732" lon="7.29849">
        <ele>1325.447178</ele>
        <time>2012-12-09T10:47:51Z</time>
      </trkpt>
      <trkpt lat="43.90735" lon="7.29851">
        <ele>1325.447186</ele>
        <time>2012-12-09T10:47:55Z</time>
      </trkpt>
      <trkpt lat="43.90739" lon="7.29852">
        <ele>1326.447197</ele>
        <time>2012-12-09T10:48:00Z</time>
      </trkpt>
      <trkpt lat="43.90744" lon="7.29855">
        <ele>1328.447205</ele>
        <time>2012-12-09T10:48:06Z</time>
      </trkpt>
      <trkpt lat="43.90748" lon="7.29857">
        <ele>1328.447216</ele>
        <time>2012-12-09T10:48:11Z</time>
      </trkpt>
      <trkpt lat="43.90751" lon="7.29859">
        <ele>1328.44722</ele>
        <time>2012-12-09T10:48:15Z</time>
      </trkpt>
      <trkpt lat="43.90754" lon="7.29862">
        <ele>1330.447235</ele>
        <time>2012-12-09T10:48:22Z</time>
      </trkpt>
      <trkpt lat="43.90754" lon="7.29862">
        <ele>1331.447235</ele>
        <time>2012-12-09T10:48:26Z</time>
      </trkpt>
      <trkpt lat="43.90756" lon="7.29863">
        <ele>1333.447243</ele>
        <time>2012-12-09T10:48:30Z</time>
      </trkpt>
      <trkpt lat="43.90759" lon="7.29866">
        <ele>1336.44725</ele>
        <time>2012-12-09T10:48:36Z</time>
      </trkpt>
      <trkpt lat="43.9076" lon="7.29867">
        <ele>1336.447254</ele>
        <time>2012-12-09T10:48:41Z</time>
      </trkpt>
      <trkpt lat="43.90762" lon="7.29869">
        <ele>1336.447258</ele>
        <time>2012-12-09T10:48:46Z</time>
      </trkpt>
      <trkpt lat="43.90766" lon="7.29872">
        <ele>1336.447273</ele>
        <time>2012-12-09T10:48:55Z</time>
      </trkpt>
      <trkpt lat="43.90776" lon="7.29876">
        <ele>1337.447292</ele>
        <time>2012-12-09T10:49:05Z</time>
      </trkpt>
      <trkpt lat="43.90779" lon="7.29877">
        <ele>1337.4473</ele>
        <time>2012-12-09T10:49:08Z</time>
      </trkpt>
      <trkpt lat="43.90787" lon="7.29882">
        <ele>1340.447319</ele>
        <time>2012-12-09T10:49:20Z</time>
      </trkpt>
      <trkpt lat="43.9079" lon="7.29883">
        <ele>1339.447327</ele>
        <time>2012-12-09T10:49:24Z</time>
      </trkpt>
      <trkpt lat="43.90795" lon="7.29884">
        <ele>1341.447334</ele>
        <time>2012-12-09T10:49:29Z</time>
      </trkpt>
      <trkpt lat="43.90806" lon="7.29887">
        <ele>1343.447357</ele>
        <time>2012-12-09T10:49:39Z</time>
      </trkpt>
      <trkpt lat="43.90809" lon="7.29889">
        <ele>1344.447365</ele>
        <time>2012-12-09T10:49:43Z</time>
      </trkpt>
      <trkpt lat="43.90815" lon="7.29893">
        <ele>1346.44738</ele>
        <time>2012-12-09T10:49:48Z</time>
      </trkpt>
      <trkpt lat="43.90821" lon="7.299">
        <ele>1347.447403</ele>
        <time>2012-12-09T10:49:54Z</time>
      </trkpt>
      <trkpt lat="43.90821" lon="7.29901">
        <ele>1347.447403</ele>
        <time>2012-12-09T10:49:55Z</time>
      </trkpt>
      <trkpt lat="43.90826" lon="7.29913">
        <ele>1348.447433</ele>
        <time>2012-12-09T10:50:04Z</time>
      </trkpt>
      <trkpt lat="43.90826" lon="7.29918">
        <ele>1348.447449</ele>
        <time>2012-12-09T10:50:08Z</time>
      </trkpt>
      <trkpt lat="43.90826" lon="7.29924">
        <ele>1349.447456</ele>
        <time>2012-12-09T10:50:12Z</time>
      </trkpt>
      <trkpt lat="43.90829" lon="7.29938">
        <ele>1350.447487</ele>
        <time>2012-12-09T10:50:22Z</time>
      </trkpt>
      <trkpt lat="43.90832" lon="7.2995">
        <ele>1352.447517</ele>
        <time>2012-12-09T10:50:27Z</time>
      </trkpt>
      <trkpt lat="43.90833" lon="7.2996">
        <ele>1353.447544</ele>
        <time>2012-12-09T10:50:31Z</time>
      </trkpt>
      <trkpt lat="43.90834" lon="7.29969">
        <ele>1353.447563</ele>
        <time>2012-12-09T10:50:35Z</time>
      </trkpt>
      <trkpt lat="43.90835" lon="7.29971">
        <ele>1352.447567</ele>
        <time>2012-12-09T10:50:38Z</time>
      </trkpt>
      <trkpt lat="43.90835" lon="7.29971">
        <ele>1352.447567</ele>
        <time>2012-12-09T10:50:41Z</time>
      </trkpt>
      <trkpt lat="43.90835" lon="7.29971">
        <ele>1353.447567</ele>
        <time>2012-12-09T10:50:45Z</time>
      </trkpt>
      <trkpt lat="43.90835" lon="7.29972">
        <ele>1351.447571</ele>
        <time>2012-12-09T10:50:50Z</time>
      </trkpt>
      <trkpt lat="43.90835" lon="7.29972">
        <ele>1351.447571</ele>
        <time>2012-12-09T10:50:53Z</time>
      </trkpt>
      <trkpt lat="43.90835" lon="7.29973">
        <ele>1350.447571</ele>
        <time>2012-12-09T10:50:57Z</time>
      </trkpt>
      <trkpt lat="43.90835" lon="7.29973">
        <ele>1349.447571</ele>
        <time>2012-12-09T10:51:01Z</time>
      </trkpt>
      <trkpt lat="43.90835" lon="7.29973">
        <ele>1349.447571</ele>
        <time>2012-12-09T10:51:04Z</time>
      </trkpt>
      <trkpt lat="43.90836" lon="7.29974">
        <ele>1347.447571</ele>
        <time>2012-12-09T10:51:10Z</time>
      </trkpt>
      <trkpt lat="43.90836" lon="7.29974">
        <ele>1346.447578</ele>
        <time>2012-12-09T10:51:15Z</time>
      </trkpt>
      <trkpt lat="43.90835" lon="7.29974">
        <ele>1347.447578</ele>
        <time>2012-12-09T10:51:19Z</time>
      </trkpt>
      <trkpt lat="43.90835" lon="7.29975">
        <ele>1348.447578</ele>
        <time>2012-12-09T10:51:22Z</time>
      </trkpt>
      <trkpt lat="43.90835" lon="7.29975">
        <ele>1348.447578</ele>
        <time>2012-12-09T10:51:25Z</time>
      </trkpt>
      <trkpt lat="43.90836" lon="7.29974">
        <ele>1349.447578</ele>
        <time>2012-12-09T10:51:28Z</time>
      </trkpt>
      <trkpt lat="43.90836" lon="7.29974">
        <ele>1349.447578</ele>
        <time>2012-12-09T10:51:33Z</time>
      </trkpt>
      <trkpt lat="43.90837" lon="7.29973">
        <ele>1346.447571</ele>
        <time>2012-12-09T10:51:39Z</time>
      </trkpt>
      <trkpt lat="43.90837" lon="7.29973">
        <ele>1344.447571</ele>
        <time>2012-12-09T10:51:42Z</time>
      </trkpt>
      <trkpt lat="43.90837" lon="7.29973">
        <ele>1343.447578</ele>
        <time>2012-12-09T10:51:45Z</time>
      </trkpt>
      <trkpt lat="43.90838" lon="7.29972">
        <ele>1345.447578</ele>
        <time>2012-12-09T10:51:49Z</time>
      </trkpt>
      <trkpt lat="43.90838" lon="7.29972">
        <ele>1344.447578</ele>
        <time>2012-12-09T10:51:53Z</time>
      </trkpt>
      <trkpt lat="43.90838" lon="7.29973">
        <ele>1342.447578</ele>
        <time>2012-12-09T10:51:56Z</time>
      </trkpt>
      <trkpt lat="43.90838" lon="7.29973">
        <ele>1342.447578</ele>
        <time>2012-12-09T10:51:59Z</time>
      </trkpt>
      <trkpt lat="43.90839" lon="7.29973">
        <ele>1341.447578</ele>
        <time>2012-12-09T10:52:02Z</time>
      </trkpt>
      <trkpt lat="43.90839" lon="7.29975">
        <ele>1341.447578</ele>
        <time>2012-12-09T10:52:07Z</time>
      </trkpt>
      <trkpt lat="43.90839" lon="7.29976">
        <ele>1340.447586</ele>
        <time>2012-12-09T10:52:10Z</time>
      </trkpt>
      <trkpt lat="43.9084" lon="7.29977">
        <ele>1339.447586</ele>
        <time>2012-12-09T10:52:14Z</time>
      </trkpt>
      <trkpt lat="43.9084" lon="7.29977">
        <ele>1338.447586</ele>
        <time>2012-12-09T10:52:18Z</time>
      </trkpt>
      <trkpt lat="43.90841" lon="7.29977">
        <ele>1338.447586</ele>
        <time>2012-12-09T10:52:21Z</time>
      </trkpt>
      <trkpt lat="43.90841" lon="7.29977">
        <ele>1336.44759</ele>
        <time>2012-12-09T10:52:26Z</time>
      </trkpt>
      <trkpt lat="43.90842" lon="7.29977">
        <ele>1337.44759</ele>
        <time>2012-12-09T10:52:29Z</time>
      </trkpt>
      <trkpt lat="43.90842" lon="7.29977">
        <ele>1338.44759</ele>
        <time>2012-12-09T10:52:31Z</time>
      </trkpt>
      <trkpt lat="43.90842" lon="7.29976">
        <ele>1340.44759</ele>
        <time>2012-12-09T10:52:34Z</time>
      </trkpt>
      <trkpt lat="43.90842" lon="7.29976">
        <ele>1339.447594</ele>
        <time>2012-12-09T10:52:38Z</time>
      </trkpt>
      <trkpt lat="43.90842" lon="7.29975">
        <ele>1341.447586</ele>
        <time>2012-12-09T10:52:42Z</time>
      </trkpt>
      <trkpt lat="43.90842" lon="7.29975">
        <ele>1341.447586</ele>
        <time>2012-12-09T10:52:44Z</time>
      </trkpt>
      <trkpt lat="43.90843" lon="7.29975">
        <ele>1340.447586</ele>
        <time>2012-12-09T10:52:49Z</time>
      </trkpt>
      <trkpt lat="43.90843" lon="7.29975">
        <ele>1340.447586</ele>
        <time>2012-12-09T10:52:52Z</time>
      </trkpt>
      <trkpt lat="43.90844" lon="7.29975">
        <ele>1340.447586</ele>
        <time>2012-12-09T10:52:55Z</time>
      </trkpt>
      <trkpt lat="43.90844" lon="7.29974">
        <ele>1339.447586</ele>
        <time>2012-12-09T10:52:59Z</time>
      </trkpt>
      <trkpt lat="43.90844" lon="7.29975">
        <ele>1339.447586</ele>
        <time>2012-12-09T10:53:03Z</time>
      </trkpt>
      <trkpt lat="43.90844" lon="7.29975">
        <ele>1339.447586</ele>
        <time>2012-12-09T10:53:06Z</time>
      </trkpt>
      <trkpt lat="43.90844" lon="7.29974">
        <ele>1339.447586</ele>
        <time>2012-12-09T10:53:09Z</time>
      </trkpt>
      <trkpt lat="43.90844" lon="7.29974">
        <ele>1340.447586</ele>
        <time>2012-12-09T10:53:12Z</time>
      </trkpt>
      <trkpt lat="43.90844" lon="7.29974">
        <ele>1341.447586</ele>
        <time>2012-12-09T10:53:15Z</time>
      </trkpt>
      <trkpt lat="43.90844" lon="7.29974">
        <ele>1340.447586</ele>
        <time>2012-12-09T10:53:18Z</time>
      </trkpt>
      <trkpt lat="43.90844" lon="7.29973">
        <ele>1338.447586</ele>
        <time>2012-12-09T10:53:21Z</time>
      </trkpt>
      <trkpt lat="43.90844" lon="7.29972">
        <ele>1335.447586</ele>
        <time>2012-12-09T10:53:24Z</time>
      </trkpt>
      <trkpt lat="43.90844" lon="7.29971">
        <ele>1335.447578</ele>
        <time>2012-12-09T10:53:27Z</time>
      </trkpt>
      <trkpt lat="43.90845" lon="7.2997">
        <ele>1337.447578</ele>
        <time>2012-12-09T10:53:31Z</time>
      </trkpt>
      <trkpt lat="43.90845" lon="7.2997">
        <ele>1337.447578</ele>
        <time>2012-12-09T10:53:34Z</time>
      </trkpt>
      <trkpt lat="43.90845" lon="7.2997">
        <ele>1337.447578</ele>
        <time>2012-12-09T10:53:37Z</time>
      </trkpt>
      <trkpt lat="43.90845" lon="7.29971">
        <ele>1337.447578</ele>
        <time>2012-12-09T10:53:41Z</time>
      </trkpt>
      <trkpt lat="43.90844" lon="7.29972">
        <ele>1337.447582</ele>
        <time>2012-12-09T10:53:45Z</time>
      </trkpt>
      <trkpt lat="43.90844" lon="7.29973">
        <ele>1338.447586</ele>
        <time>2012-12-09T10:53:49Z</time>
      </trkpt>
      <trkpt lat="43.90844" lon="7.29974">
        <ele>1338.447586</ele>
        <time>2012-12-09T10:53:52Z</time>
      </trkpt>
      <trkpt lat="43.90844" lon="7.29977">
        <ele>1337.447594</ele>
        <time>2012-12-09T10:53:56Z</time>
      </trkpt>
      <trkpt lat="43.90845" lon="7.2998">
        <ele>1337.447601</ele>
        <time>2012-12-09T10:53:59Z</time>
      </trkpt>
      <trkpt lat="43.90846" lon="7.29984">
        <ele>1338.447609</ele>
        <time>2012-12-09T10:54:03Z</time>
      </trkpt>
      <trkpt lat="43.90848" lon="7.29988">
        <ele>1338.447624</ele>
        <time>2012-12-09T10:54:07Z</time>
      </trkpt>
      <trkpt lat="43.9085" lon="7.29992">
        <ele>1339.447632</ele>
        <time>2012-12-09T10:54:12Z</time>
      </trkpt>
      <trkpt lat="43.90853" lon="7.29996">
        <ele>1339.447639</ele>
        <time>2012-12-09T10:54:17Z</time>
      </trkpt>
      <trkpt lat="43.90854" lon="7.3">
        <ele>1340.447651</ele>
        <time>2012-12-09T10:54:22Z</time>
      </trkpt>
      <trkpt lat="43.90856" lon="7.30003">
        <ele>1340.447662</ele>
        <time>2012-12-09T10:54:27Z</time>
      </trkpt>
      <trkpt lat="43.90858" lon="7.30006">
        <ele>1341.44767</ele>
        <time>2012-12-09T10:54:31Z</time>
      </trkpt>
      <trkpt lat="43.90859" lon="7.30009">
        <ele>1342.447678</ele>
        <time>2012-12-09T10:54:35Z</time>
      </trkpt>
      <trkpt lat="43.90861" lon="7.30012">
        <ele>1341.447685</ele>
        <time>2012-12-09T10:54:38Z</time>
      </trkpt>
      <trkpt lat="43.90863" lon="7.30014">
        <ele>1342.447697</ele>
        <time>2012-12-09T10:54:42Z</time>
      </trkpt>
      <trkpt lat="43.90864" lon="7.30016">
        <ele>1342.447701</ele>
        <time>2012-12-09T10:54:45Z</time>
      </trkpt>
      <trkpt lat="43.90865" lon="7.3002">
        <ele>1343.447708</ele>
        <time>2012-12-09T10:54:49Z</time>
      </trkpt>
      <trkpt lat="43.90865" lon="7.30024">
        <ele>1344.447716</ele>
        <time>2012-12-09T10:54:53Z</time>
      </trkpt>
      <trkpt lat="43.90865" lon="7.3003">
        <ele>1346.447731</ele>
        <time>2012-12-09T10:55:00Z</time>
      </trkpt>
      <trkpt lat="43.90865" lon="7.30033">
        <ele>1346.447735</ele>
        <time>2012-12-09T10:55:03Z</time>
      </trkpt>
      <trkpt lat="43.90865" lon="7.30034">
        <ele>1346.447739</ele>
        <time>2012-12-09T10:55:06Z</time>
      </trkpt>
      <trkpt lat="43.90865" lon="7.30036">
        <ele>1348.447739</ele>
        <time>2012-12-09T10:55:10Z</time>
      </trkpt>
      <trkpt lat="43.90866" lon="7.30039">
        <ele>1348.447746</ele>
        <time>2012-12-09T10:55:13Z</time>
      </trkpt>
      <trkpt lat="43.90868" lon="7.30043">
        <ele>1350.447762</ele>
        <time>2012-12-09T10:55:18Z</time>
      </trkpt>
      <trkpt lat="43.9087" lon="7.30047">
        <ele>1350.447769</ele>
        <time>2012-12-09T10:55:22Z</time>
      </trkpt>
      <trkpt lat="43.90873" lon="7.30053">
        <ele>1350.447784</ele>
        <time>2012-12-09T10:55:27Z</time>
      </trkpt>
      <trkpt lat="43.90875" lon="7.30058">
        <ele>1351.4478</ele>
        <time>2012-12-09T10:55:31Z</time>
      </trkpt>
      <trkpt lat="43.90879" lon="7.30062">
        <ele>1352.447815</ele>
        <time>2012-12-09T10:55:36Z</time>
      </trkpt>
      <trkpt lat="43.90882" lon="7.30068">
        <ele>1353.44783</ele>
        <time>2012-12-09T10:55:41Z</time>
      </trkpt>
      <trkpt lat="43.90885" lon="7.30072">
        <ele>1353.447842</ele>
        <time>2012-12-09T10:55:45Z</time>
      </trkpt>
      <trkpt lat="43.90888" lon="7.30075">
        <ele>1353.447853</ele>
        <time>2012-12-09T10:55:49Z</time>
      </trkpt>
      <trkpt lat="43.90892" lon="7.30078">
        <ele>1353.447861</ele>
        <time>2012-12-09T10:55:53Z</time>
      </trkpt>
      <trkpt lat="43.90896" lon="7.30082">
        <ele>1355.447876</ele>
        <time>2012-12-09T10:55:57Z</time>
      </trkpt>
      <trkpt lat="43.90899" lon="7.30086">
        <ele>1356.447891</ele>
        <time>2012-12-09T10:56:01Z</time>
      </trkpt>
      <trkpt lat="43.90901" lon="7.30089">
        <ele>1355.447899</ele>
        <time>2012-12-09T10:56:04Z</time>
      </trkpt>
      <trkpt lat="43.90903" lon="7.30093">
        <ele>1356.447906</ele>
        <time>2012-12-09T10:56:07Z</time>
      </trkpt>
      <trkpt lat="43.90904" lon="7.30098">
        <ele>1356.447922</ele>
        <time>2012-12-09T10:56:12Z</time>
      </trkpt>
      <trkpt lat="43.90905" lon="7.30104">
        <ele>1356.447937</ele>
        <time>2012-12-09T10:56:17Z</time>
      </trkpt>
      <trkpt lat="43.90906" lon="7.30108">
        <ele>1357.447945</ele>
        <time>2012-12-09T10:56:22Z</time>
      </trkpt>
      <trkpt lat="43.90906" lon="7.3011">
        <ele>1358.447945</ele>
        <time>2012-12-09T10:56:25Z</time>
      </trkpt>
      <trkpt lat="43.90906" lon="7.30114">
        <ele>1358.447952</ele>
        <time>2012-12-09T10:56:29Z</time>
      </trkpt>
      <trkpt lat="43.90905" lon="7.30116">
        <ele>1359.44796</ele>
        <time>2012-12-09T10:56:33Z</time>
      </trkpt>
      <trkpt lat="43.90905" lon="7.30118">
        <ele>1360.447964</ele>
        <time>2012-12-09T10:56:36Z</time>
      </trkpt>
      <trkpt lat="43.90906" lon="7.30121">
        <ele>1361.447968</ele>
        <time>2012-12-09T10:56:40Z</time>
      </trkpt>
      <trkpt lat="43.90907" lon="7.30123">
        <ele>1361.447975</ele>
        <time>2012-12-09T10:56:44Z</time>
      </trkpt>
      <trkpt lat="43.90907" lon="7.30125">
        <ele>1361.447983</ele>
        <time>2012-12-09T10:56:47Z</time>
      </trkpt>
      <trkpt lat="43.90907" lon="7.30127">
        <ele>1362.447987</ele>
        <time>2012-12-09T10:56:51Z</time>
      </trkpt>
      <trkpt lat="43.90907" lon="7.30128">
        <ele>1362.447983</ele>
        <time>2012-12-09T10:56:54Z</time>
      </trkpt>
      <trkpt lat="43.90906" lon="7.3013">
        <ele>1364.447987</ele>
        <time>2012-12-09T10:56:58Z</time>
      </trkpt>
      <trkpt lat="43.90905" lon="7.30132">
        <ele>1365.447987</ele>
        <time>2012-12-09T10:57:02Z</time>
      </trkpt>
      <trkpt lat="43.90905" lon="7.30133">
        <ele>1366.44799</ele>
        <time>2012-12-09T10:57:05Z</time>
      </trkpt>
      <trkpt lat="43.90905" lon="7.30135">
        <ele>1368.447998</ele>
        <time>2012-12-09T10:57:10Z</time>
      </trkpt>
      <trkpt lat="43.90905" lon="7.30137">
        <ele>1368.447998</ele>
        <time>2012-12-09T10:57:13Z</time>
      </trkpt>
      <trkpt lat="43.90904" lon="7.30139">
        <ele>1369.448006</ele>
        <time>2012-12-09T10:57:17Z</time>
      </trkpt>
      <trkpt lat="43.90904" lon="7.3014">
        <ele>1369.448006</ele>
        <time>2012-12-09T10:57:24Z</time>
      </trkpt>
      <trkpt lat="43.90905" lon="7.3014">
        <ele>1370.448013</ele>
        <time>2012-12-09T10:57:28Z</time>
      </trkpt>
      <trkpt lat="43.90906" lon="7.30141">
        <ele>1371.448013</ele>
        <time>2012-12-09T10:57:31Z</time>
      </trkpt>
      <trkpt lat="43.90906" lon="7.30143">
        <ele>1373.448013</ele>
        <time>2012-12-09T10:57:36Z</time>
      </trkpt>
      <trkpt lat="43.90906" lon="7.30145">
        <ele>1374.448021</ele>
        <time>2012-12-09T10:57:39Z</time>
      </trkpt>
      <trkpt lat="43.90906" lon="7.30146">
        <ele>1374.448021</ele>
        <time>2012-12-09T10:57:45Z</time>
      </trkpt>
      <trkpt lat="43.90906" lon="7.30146">
        <ele>1375.448021</ele>
        <time>2012-12-09T10:57:48Z</time>
      </trkpt>
      <trkpt lat="43.90906" lon="7.30146">
        <ele>1375.448021</ele>
        <time>2012-12-09T10:57:51Z</time>
      </trkpt>
      <trkpt lat="43.90906" lon="7.30144">
        <ele>1376.448021</ele>
        <time>2012-12-09T10:57:56Z</time>
      </trkpt>
      <trkpt lat="43.90906" lon="7.30143">
        <ele>1377.448013</ele>
        <time>2012-12-09T10:58:00Z</time>
      </trkpt>
      <trkpt lat="43.90906" lon="7.30142">
        <ele>1378.448013</ele>
        <time>2012-12-09T10:58:04Z</time>
      </trkpt>
      <trkpt lat="43.90906" lon="7.30142">
        <ele>1378.448013</ele>
        <time>2012-12-09T10:58:08Z</time>
      </trkpt>
      <trkpt lat="43.90906" lon="7.30143">
        <ele>1378.448013</ele>
        <time>2012-12-09T10:58:11Z</time>
      </trkpt>
      <trkpt lat="43.90907" lon="7.30143">
        <ele>1377.448013</ele>
        <time>2012-12-09T10:58:15Z</time>
      </trkpt>
      <trkpt lat="43.90907" lon="7.30145">
        <ele>1377.448021</ele>
        <time>2012-12-09T10:58:21Z</time>
      </trkpt>
      <trkpt lat="43.90907" lon="7.30147">
        <ele>1378.448021</ele>
        <time>2012-12-09T10:58:26Z</time>
      </trkpt>
      <trkpt lat="43.90907" lon="7.3015">
        <ele>1380.448036</ele>
        <time>2012-12-09T10:58:33Z</time>
      </trkpt>
      <trkpt lat="43.90909" lon="7.30155">
        <ele>1383.448044</ele>
        <time>2012-12-09T10:58:41Z</time>
      </trkpt>
      <trkpt lat="43.90909" lon="7.30157">
        <ele>1383.448044</ele>
        <time>2012-12-09T10:58:44Z</time>
      </trkpt>
      <trkpt lat="43.90907" lon="7.30161">
        <ele>1384.448055</ele>
        <time>2012-12-09T10:58:54Z</time>
      </trkpt>
      <trkpt lat="43.90906" lon="7.30163">
        <ele>1385.448059</ele>
        <time>2012-12-09T10:58:58Z</time>
      </trkpt>
      <trkpt lat="43.90905" lon="7.30164">
        <ele>1385.448059</ele>
        <time>2012-12-09T10:59:05Z</time>
      </trkpt>
      <trkpt lat="43.90904" lon="7.30167">
        <ele>1387.448059</ele>
        <time>2012-12-09T10:59:10Z</time>
      </trkpt>
      <trkpt lat="43.90903" lon="7.3017">
        <ele>1387.448067</ele>
        <time>2012-12-09T10:59:16Z</time>
      </trkpt>
      <trkpt lat="43.90902" lon="7.30172">
        <ele>1387.448074</ele>
        <time>2012-12-09T10:59:21Z</time>
      </trkpt>
      <trkpt lat="43.90901" lon="7.30174">
        <ele>1389.448071</ele>
        <time>2012-12-09T10:59:25Z</time>
      </trkpt>
      <trkpt lat="43.90899" lon="7.30174">
        <ele>1391.448074</ele>
        <time>2012-12-09T10:59:29Z</time>
      </trkpt>
      <trkpt lat="43.90898" lon="7.30175">
        <ele>1391.448071</ele>
        <time>2012-12-09T10:59:32Z</time>
      </trkpt>
      <trkpt lat="43.90897" lon="7.30176">
        <ele>1391.448071</ele>
        <time>2012-12-09T10:59:36Z</time>
      </trkpt>
      <trkpt lat="43.90896" lon="7.30177">
        <ele>1392.448074</ele>
        <time>2012-12-09T10:59:40Z</time>
      </trkpt>
      <trkpt lat="43.90896" lon="7.30178">
        <ele>1394.448071</ele>
        <time>2012-12-09T10:59:43Z</time>
      </trkpt>
      <trkpt lat="43.90896" lon="7.30179">
        <ele>1394.448074</ele>
        <time>2012-12-09T10:59:46Z</time>
      </trkpt>
      <trkpt lat="43.90896" lon="7.30181">
        <ele>1395.448078</ele>
        <time>2012-12-09T10:59:50Z</time>
      </trkpt>
      <trkpt lat="43.90897" lon="7.30183">
        <ele>1398.448082</ele>
        <time>2012-12-09T10:59:59Z</time>
      </trkpt>
      <trkpt lat="43.90897" lon="7.30184">
        <ele>1397.44809</ele>
        <time>2012-12-09T11:00:03Z</time>
      </trkpt>
      <trkpt lat="43.90897" lon="7.30184">
        <ele>1397.44809</ele>
        <time>2012-12-09T11:00:05Z</time>
      </trkpt>
      <trkpt lat="43.90897" lon="7.30188">
        <ele>1398.448097</ele>
        <time>2012-12-09T11:00:12Z</time>
      </trkpt>
      <trkpt lat="43.90898" lon="7.3019">
        <ele>1398.448105</ele>
        <time>2012-12-09T11:00:16Z</time>
      </trkpt>
      <trkpt lat="43.90898" lon="7.30191">
        <ele>1399.448105</ele>
        <time>2012-12-09T11:00:20Z</time>
      </trkpt>
      <trkpt lat="43.90899" lon="7.30193">
        <ele>1400.448109</ele>
        <time>2012-12-09T11:00:23Z</time>
      </trkpt>
      <trkpt lat="43.90901" lon="7.30195">
        <ele>1400.448116</ele>
        <time>2012-12-09T11:00:28Z</time>
      </trkpt>
      <trkpt lat="43.90901" lon="7.30197">
        <ele>1401.448116</ele>
        <time>2012-12-09T11:00:31Z</time>
      </trkpt>
      <trkpt lat="43.909" lon="7.30198">
        <ele>1403.44812</ele>
        <time>2012-12-09T11:00:35Z</time>
      </trkpt>
      <trkpt lat="43.90897" lon="7.30198">
        <ele>1404.448116</ele>
        <time>2012-12-09T11:00:42Z</time>
      </trkpt>
      <trkpt lat="43.90895" lon="7.30198">
        <ele>1404.448112</ele>
        <time>2012-12-09T11:00:45Z</time>
      </trkpt>
      <trkpt lat="43.90894" lon="7.30199">
        <ele>1405.448112</ele>
        <time>2012-12-09T11:00:48Z</time>
      </trkpt>
      <trkpt lat="43.90893" lon="7.30201">
        <ele>1407.44812</ele>
        <time>2012-12-09T11:00:55Z</time>
      </trkpt>
      <trkpt lat="43.90892" lon="7.30202">
        <ele>1408.448116</ele>
        <time>2012-12-09T11:00:58Z</time>
      </trkpt>
      <trkpt lat="43.90892" lon="7.30203">
        <ele>1409.44812</ele>
        <time>2012-12-09T11:01:00Z</time>
      </trkpt>
      <trkpt lat="43.90892" lon="7.30203">
        <ele>1409.44812</ele>
        <time>2012-12-09T11:01:02Z</time>
      </trkpt>
      <trkpt lat="43.90891" lon="7.30203">
        <ele>1409.44812</ele>
        <time>2012-12-09T11:01:08Z</time>
      </trkpt>
      <trkpt lat="43.90892" lon="7.30203">
        <ele>1411.44812</ele>
        <time>2012-12-09T11:01:13Z</time>
      </trkpt>
      <trkpt lat="43.90892" lon="7.30203">
        <ele>1410.448112</ele>
        <time>2012-12-09T11:01:24Z</time>
      </trkpt>
      <trkpt lat="43.90893" lon="7.30199">
        <ele>1410.448112</ele>
        <time>2012-12-09T11:01:37Z</time>
      </trkpt>
      <trkpt lat="43.90893" lon="7.30201">
        <ele>1410.448116</ele>
        <time>2012-12-09T11:01:41Z</time>
      </trkpt>
      <trkpt lat="43.90893" lon="7.30203">
        <ele>1411.44812</ele>
        <time>2012-12-09T11:01:45Z</time>
      </trkpt>
      <trkpt lat="43.90893" lon="7.30206">
        <ele>1413.448128</ele>
        <time>2012-12-09T11:01:50Z</time>
      </trkpt>
      <trkpt lat="43.90894" lon="7.30209">
        <ele>1414.448135</ele>
        <time>2012-12-09T11:01:57Z</time>
      </trkpt>
      <trkpt lat="43.90894" lon="7.30211">
        <ele>1415.448135</ele>
        <time>2012-12-09T11:02:02Z</time>
      </trkpt>
      <trkpt lat="43.90896" lon="7.30214">
        <ele>1419.448143</ele>
        <time>2012-12-09T11:02:11Z</time>
      </trkpt>
      <trkpt lat="43.90897" lon="7.30217">
        <ele>1420.448154</ele>
        <time>2012-12-09T11:02:18Z</time>
      </trkpt>
      <trkpt lat="43.90896" lon="7.30217">
        <ele>1421.448154</ele>
        <time>2012-12-09T11:02:22Z</time>
      </trkpt>
      <trkpt lat="43.90895" lon="7.30219">
        <ele>1422.448158</ele>
        <time>2012-12-09T11:02:28Z</time>
      </trkpt>
      <trkpt lat="43.90895" lon="7.30222">
        <ele>1423.448166</ele>
        <time>2012-12-09T11:02:32Z</time>
      </trkpt>
      <trkpt lat="43.90895" lon="7.30224">
        <ele>1424.448166</ele>
        <time>2012-12-09T11:02:37Z</time>
      </trkpt>
      <trkpt lat="43.90896" lon="7.30227">
        <ele>1425.448174</ele>
        <time>2012-12-09T11:02:43Z</time>
      </trkpt>
      <trkpt lat="43.90896" lon="7.3023">
        <ele>1425.448181</ele>
        <time>2012-12-09T11:02:47Z</time>
      </trkpt>
      <trkpt lat="43.90897" lon="7.30232">
        <ele>1425.448185</ele>
        <time>2012-12-09T11:02:51Z</time>
      </trkpt>
      <trkpt lat="43.90897" lon="7.30233">
        <ele>1424.448185</ele>
        <time>2012-12-09T11:02:57Z</time>
      </trkpt>
      <trkpt lat="43.90897" lon="7.30232">
        <ele>1425.448189</ele>
        <time>2012-12-09T11:03:00Z</time>
      </trkpt>
      <trkpt lat="43.90898" lon="7.30232">
        <ele>1426.448189</ele>
        <time>2012-12-09T11:03:04Z</time>
      </trkpt>
      <trkpt lat="43.90898" lon="7.30232">
        <ele>1425.448189</ele>
        <time>2012-12-09T11:03:08Z</time>
      </trkpt>
      <trkpt lat="43.90898" lon="7.30233">
        <ele>1425.448189</ele>
        <time>2012-12-09T11:03:12Z</time>
      </trkpt>
      <trkpt lat="43.90898" lon="7.30235">
        <ele>1425.448189</ele>
        <time>2012-12-09T11:03:16Z</time>
      </trkpt>
      <trkpt lat="43.90899" lon="7.30236">
        <ele>1425.448196</ele>
        <time>2012-12-09T11:03:19Z</time>
      </trkpt>
      <trkpt lat="43.90898" lon="7.30239">
        <ele>1425.448204</ele>
        <time>2012-12-09T11:03:24Z</time>
      </trkpt>
      <trkpt lat="43.90899" lon="7.3024">
        <ele>1426.448204</ele>
        <time>2012-12-09T11:03:27Z</time>
      </trkpt>
      <trkpt lat="43.90899" lon="7.30243">
        <ele>1428.448204</ele>
        <time>2012-12-09T11:03:31Z</time>
      </trkpt>
      <trkpt lat="43.909" lon="7.30246">
        <ele>1428.448219</ele>
        <time>2012-12-09T11:03:36Z</time>
      </trkpt>
      <trkpt lat="43.909" lon="7.30248">
        <ele>1429.448219</ele>
        <time>2012-12-09T11:03:41Z</time>
      </trkpt>
      <trkpt lat="43.90901" lon="7.30252">
        <ele>1429.448231</ele>
        <time>2012-12-09T11:03:48Z</time>
      </trkpt>
      <trkpt lat="43.90901" lon="7.30255">
        <ele>1429.448238</ele>
        <time>2012-12-09T11:03:54Z</time>
      </trkpt>
      <trkpt lat="43.90901" lon="7.30255">
        <ele>1428.448238</ele>
        <time>2012-12-09T11:03:57Z</time>
      </trkpt>
      <trkpt lat="43.90901" lon="7.30254">
        <ele>1428.448238</ele>
        <time>2012-12-09T11:04:00Z</time>
      </trkpt>
      <trkpt lat="43.90902" lon="7.30255">
        <ele>1428.448242</ele>
        <time>2012-12-09T11:04:05Z</time>
      </trkpt>
      <trkpt lat="43.90903" lon="7.30257">
        <ele>1429.448246</ele>
        <time>2012-12-09T11:04:09Z</time>
      </trkpt>
      <trkpt lat="43.90903" lon="7.30258">
        <ele>1430.44825</ele>
        <time>2012-12-09T11:04:12Z</time>
      </trkpt>
      <trkpt lat="43.90904" lon="7.30259">
        <ele>1430.44825</ele>
        <time>2012-12-09T11:04:16Z</time>
      </trkpt>
      <trkpt lat="43.90903" lon="7.3026">
        <ele>1430.448254</ele>
        <time>2012-12-09T11:04:21Z</time>
      </trkpt>
      <trkpt lat="43.90903" lon="7.30264">
        <ele>1434.448261</ele>
        <time>2012-12-09T11:04:35Z</time>
      </trkpt>
      <trkpt lat="43.90902" lon="7.30265">
        <ele>1434.448257</ele>
        <time>2012-12-09T11:04:42Z</time>
      </trkpt>
      <trkpt lat="43.909" lon="7.30264">
        <ele>1436.44825</ele>
        <time>2012-12-09T11:04:52Z</time>
      </trkpt>
      <trkpt lat="43.90899" lon="7.30263">
        <ele>1438.44825</ele>
        <time>2012-12-09T11:04:59Z</time>
      </trkpt>
      <trkpt lat="43.90898" lon="7.30263">
        <ele>1440.44825</ele>
        <time>2012-12-09T11:05:04Z</time>
      </trkpt>
      <trkpt lat="43.90895" lon="7.30262">
        <ele>1441.448242</ele>
        <time>2012-12-09T11:05:12Z</time>
      </trkpt>
      <trkpt lat="43.90894" lon="7.30261">
        <ele>1441.448242</ele>
        <time>2012-12-09T11:05:15Z</time>
      </trkpt>
      <trkpt lat="43.9089" lon="7.30258">
        <ele>1441.448227</ele>
        <time>2012-12-09T11:05:50Z</time>
      </trkpt>
      <trkpt lat="43.90887" lon="7.30263">
        <ele>1444.448235</ele>
        <time>2012-12-09T11:06:06Z</time>
      </trkpt>
      <trkpt lat="43.90887" lon="7.30265">
        <ele>1444.448238</ele>
        <time>2012-12-09T11:06:09Z</time>
      </trkpt>
      <trkpt lat="43.90888" lon="7.30271">
        <ele>1446.44825</ele>
        <time>2012-12-09T11:06:17Z</time>
      </trkpt>
      <trkpt lat="43.90888" lon="7.30274">
        <ele>1447.448257</ele>
        <time>2012-12-09T11:06:21Z</time>
      </trkpt>
      <trkpt lat="43.90888" lon="7.30275">
        <ele>1448.448265</ele>
        <time>2012-12-09T11:06:25Z</time>
      </trkpt>
      <trkpt lat="43.90888" lon="7.3028">
        <ele>1452.448273</ele>
        <time>2012-12-09T11:06:36Z</time>
      </trkpt>
      <trkpt lat="43.90887" lon="7.30281">
        <ele>1453.448273</ele>
        <time>2012-12-09T11:06:40Z</time>
      </trkpt>
      <trkpt lat="43.90886" lon="7.30285">
        <ele>1453.44828</ele>
        <time>2012-12-09T11:06:55Z</time>
      </trkpt>
      <trkpt lat="43.90886" lon="7.30284">
        <ele>1454.448277</ele>
        <time>2012-12-09T11:07:02Z</time>
      </trkpt>
      <trkpt lat="43.90885" lon="7.30284">
        <ele>1453.448273</ele>
        <time>2012-12-09T11:07:05Z</time>
      </trkpt>
      <trkpt lat="43.90877" lon="7.30286">
        <ele>1455.448269</ele>
        <time>2012-12-09T11:07:21Z</time>
      </trkpt>
      <trkpt lat="43.90876" lon="7.30287">
        <ele>1455.448265</ele>
        <time>2012-12-09T11:07:25Z</time>
      </trkpt>
      <trkpt lat="43.90876" lon="7.30287">
        <ele>1455.448273</ele>
        <time>2012-12-09T11:07:33Z</time>
      </trkpt>
      <trkpt lat="43.90876" lon="7.30287">
        <ele>1455.448273</ele>
        <time>2012-12-09T11:07:36Z</time>
      </trkpt>
      <trkpt lat="43.90877" lon="7.30287">
        <ele>1456.448273</ele>
        <time>2012-12-09T11:07:39Z</time>
      </trkpt>
      <trkpt lat="43.90877" lon="7.30288">
        <ele>1456.448273</ele>
        <time>2012-12-09T11:07:45Z</time>
      </trkpt>
      <trkpt lat="43.90877" lon="7.3029">
        <ele>1456.448273</ele>
        <time>2012-12-09T11:07:49Z</time>
      </trkpt>
      <trkpt lat="43.90878" lon="7.30292">
        <ele>1457.44828</ele>
        <time>2012-12-09T11:07:53Z</time>
      </trkpt>
      <trkpt lat="43.90879" lon="7.30294">
        <ele>1456.448288</ele>
        <time>2012-12-09T11:07:57Z</time>
      </trkpt>
      <trkpt lat="43.9088" lon="7.30297">
        <ele>1458.448296</ele>
        <time>2012-12-09T11:08:02Z</time>
      </trkpt>
      <trkpt lat="43.90882" lon="7.30299">
        <ele>1459.448303</ele>
        <time>2012-12-09T11:08:07Z</time>
      </trkpt>
      <trkpt lat="43.90883" lon="7.303">
        <ele>1458.448307</ele>
        <time>2012-12-09T11:08:12Z</time>
      </trkpt>
      <trkpt lat="43.90884" lon="7.30302">
        <ele>1458.448311</ele>
        <time>2012-12-09T11:08:16Z</time>
      </trkpt>
      <trkpt lat="43.90885" lon="7.30304">
        <ele>1458.448318</ele>
        <time>2012-12-09T11:08:21Z</time>
      </trkpt>
      <trkpt lat="43.90887" lon="7.30306">
        <ele>1458.448318</ele>
        <time>2012-12-09T11:08:26Z</time>
      </trkpt>
      <trkpt lat="43.90888" lon="7.30307">
        <ele>1458.448326</ele>
        <time>2012-12-09T11:08:30Z</time>
      </trkpt>
      <trkpt lat="43.90889" lon="7.3031">
        <ele>1459.448334</ele>
        <time>2012-12-09T11:08:34Z</time>
      </trkpt>
      <trkpt lat="43.90889" lon="7.30311">
        <ele>1461.448334</ele>
        <time>2012-12-09T11:08:37Z</time>
      </trkpt>
      <trkpt lat="43.90888" lon="7.30312">
        <ele>1463.448338</ele>
        <time>2012-12-09T11:08:42Z</time>
      </trkpt>
      <trkpt lat="43.90888" lon="7.30311">
        <ele>1464.448334</ele>
        <time>2012-12-09T11:08:45Z</time>
      </trkpt>
      <trkpt lat="43.90888" lon="7.30311">
        <ele>1464.448334</ele>
        <time>2012-12-09T11:08:48Z</time>
      </trkpt>
      <trkpt lat="43.90888" lon="7.3031">
        <ele>1465.448334</ele>
        <time>2012-12-09T11:08:51Z</time>
      </trkpt>
      <trkpt lat="43.90888" lon="7.3031">
        <ele>1466.448334</ele>
        <time>2012-12-09T11:08:53Z</time>
      </trkpt>
      <trkpt lat="43.90889" lon="7.3031">
        <ele>1466.448334</ele>
        <time>2012-12-09T11:09:01Z</time>
      </trkpt>
      <trkpt lat="43.90889" lon="7.3031">
        <ele>1466.448334</ele>
        <time>2012-12-09T11:09:05Z</time>
      </trkpt>
      <trkpt lat="43.90889" lon="7.3031">
        <ele>1466.448334</ele>
        <time>2012-12-09T11:09:07Z</time>
      </trkpt>
      <trkpt lat="43.90889" lon="7.3031">
        <ele>1467.448334</ele>
        <time>2012-12-09T11:09:10Z</time>
      </trkpt>
      <trkpt lat="43.90887" lon="7.3031">
        <ele>1469.448326</ele>
        <time>2012-12-09T11:09:15Z</time>
      </trkpt>
      <trkpt lat="43.90885" lon="7.30309">
        <ele>1469.448326</ele>
        <time>2012-12-09T11:09:22Z</time>
      </trkpt>
      <trkpt lat="43.90881" lon="7.30309">
        <ele>1472.448318</ele>
        <time>2012-12-09T11:09:31Z</time>
      </trkpt>
      <trkpt lat="43.9088" lon="7.30309">
        <ele>1473.448318</ele>
        <time>2012-12-09T11:09:35Z</time>
      </trkpt>
      <trkpt lat="43.90876" lon="7.30312">
        <ele>1473.448326</ele>
        <time>2012-12-09T11:09:45Z</time>
      </trkpt>
      <trkpt lat="43.90875" lon="7.30313">
        <ele>1472.448318</ele>
        <time>2012-12-09T11:09:49Z</time>
      </trkpt>
      <trkpt lat="43.9087" lon="7.30314">
        <ele>1475.448318</ele>
        <time>2012-12-09T11:09:59Z</time>
      </trkpt>
      <trkpt lat="43.90867" lon="7.30315">
        <ele>1477.448311</ele>
        <time>2012-12-09T11:10:07Z</time>
      </trkpt>
      <trkpt lat="43.90866" lon="7.30315">
        <ele>1477.448311</ele>
        <time>2012-12-09T11:10:11Z</time>
      </trkpt>
      <trkpt lat="43.90865" lon="7.30315">
        <ele>1477.448311</ele>
        <time>2012-12-09T11:10:13Z</time>
      </trkpt>
      <trkpt lat="43.90867" lon="7.30316">
        <ele>1478.448318</ele>
        <time>2012-12-09T11:10:31Z</time>
      </trkpt>
      <trkpt lat="43.90867" lon="7.30316">
        <ele>1477.448318</ele>
        <time>2012-12-09T11:10:34Z</time>
      </trkpt>
      <trkpt lat="43.90867" lon="7.30315">
        <ele>1477.448318</ele>
        <time>2012-12-09T11:10:38Z</time>
      </trkpt>
      <trkpt lat="43.90866" lon="7.30317">
        <ele>1478.448315</ele>
        <time>2012-12-09T11:10:52Z</time>
      </trkpt>
      <trkpt lat="43.90867" lon="7.3032">
        <ele>1478.448326</ele>
        <time>2012-12-09T11:10:56Z</time>
      </trkpt>
      <trkpt lat="43.90868" lon="7.30324">
        <ele>1479.448334</ele>
        <time>2012-12-09T11:11:00Z</time>
      </trkpt>
      <trkpt lat="43.9087" lon="7.30329">
        <ele>1478.448345</ele>
        <time>2012-12-09T11:11:04Z</time>
      </trkpt>
      <trkpt lat="43.90871" lon="7.30333">
        <ele>1478.44836</ele>
        <time>2012-12-09T11:11:08Z</time>
      </trkpt>
      <trkpt lat="43.90873" lon="7.30336">
        <ele>1478.448364</ele>
        <time>2012-12-09T11:11:11Z</time>
      </trkpt>
      <trkpt lat="43.90875" lon="7.30338">
        <ele>1480.448372</ele>
        <time>2012-12-09T11:11:18Z</time>
      </trkpt>
      <trkpt lat="43.90877" lon="7.30339">
        <ele>1481.448376</ele>
        <time>2012-12-09T11:11:22Z</time>
      </trkpt>
      <trkpt lat="43.90884" lon="7.30344">
        <ele>1483.448399</ele>
        <time>2012-12-09T11:11:34Z</time>
      </trkpt>
      <trkpt lat="43.90886" lon="7.30346">
        <ele>1485.448406</ele>
        <time>2012-12-09T11:11:39Z</time>
      </trkpt>
      <trkpt lat="43.90888" lon="7.30348">
        <ele>1485.44841</ele>
        <time>2012-12-09T11:11:43Z</time>
      </trkpt>
      <trkpt lat="43.9089" lon="7.30351">
        <ele>1484.448418</ele>
        <time>2012-12-09T11:11:49Z</time>
      </trkpt>
      <trkpt lat="43.90891" lon="7.30354">
        <ele>1485.448429</ele>
        <time>2012-12-09T11:11:54Z</time>
      </trkpt>
      <trkpt lat="43.90892" lon="7.30356">
        <ele>1486.448433</ele>
        <time>2012-12-09T11:12:01Z</time>
      </trkpt>
      <trkpt lat="43.90892" lon="7.30357">
        <ele>1486.448433</ele>
        <time>2012-12-09T11:12:05Z</time>
      </trkpt>
      <trkpt lat="43.90892" lon="7.30357">
        <ele>1489.448433</ele>
        <time>2012-12-09T11:12:11Z</time>
      </trkpt>
      <trkpt lat="43.90892" lon="7.30358">
        <ele>1490.448437</ele>
        <time>2012-12-09T11:12:16Z</time>
      </trkpt>
      <trkpt lat="43.90892" lon="7.30358">
        <ele>1491.448437</ele>
        <time>2012-12-09T11:12:19Z</time>
      </trkpt>
      <trkpt lat="43.90893" lon="7.30357">
        <ele>1491.448433</ele>
        <time>2012-12-09T11:12:26Z</time>
      </trkpt>
      <trkpt lat="43.90894" lon="7.30357">
        <ele>1491.448433</ele>
        <time>2012-12-09T11:12:30Z</time>
      </trkpt>
      <trkpt lat="43.90896" lon="7.30356">
        <ele>1491.448437</ele>
        <time>2012-12-09T11:12:36Z</time>
      </trkpt>
      <trkpt lat="43.90899" lon="7.30356">
        <ele>1490.448441</ele>
        <time>2012-12-09T11:12:42Z</time>
      </trkpt>
      <trkpt lat="43.90901" lon="7.30356">
        <ele>1490.448448</ele>
        <time>2012-12-09T11:12:48Z</time>
      </trkpt>
      <trkpt lat="43.90902" lon="7.30355">
        <ele>1491.448441</ele>
        <time>2012-12-09T11:12:53Z</time>
      </trkpt>
      <trkpt lat="43.90902" lon="7.30355">
        <ele>1491.448441</ele>
        <time>2012-12-09T11:12:55Z</time>
      </trkpt>
      <trkpt lat="43.90906" lon="7.30354">
        <ele>1491.448448</ele>
        <time>2012-12-09T11:13:01Z</time>
      </trkpt>
      <trkpt lat="43.90908" lon="7.30353">
        <ele>1492.448448</ele>
        <time>2012-12-09T11:13:05Z</time>
      </trkpt>
      <trkpt lat="43.90913" lon="7.30354">
        <ele>1492.448456</ele>
        <time>2012-12-09T11:13:11Z</time>
      </trkpt>
      <trkpt lat="43.90918" lon="7.30356">
        <ele>1492.448463</ele>
        <time>2012-12-09T11:13:16Z</time>
      </trkpt>
      <trkpt lat="43.90921" lon="7.30358">
        <ele>1493.448479</ele>
        <time>2012-12-09T11:13:20Z</time>
      </trkpt>
      <trkpt lat="43.90929" lon="7.30364">
        <ele>1492.448498</ele>
        <time>2012-12-09T11:13:32Z</time>
      </trkpt>
      <trkpt lat="43.90929" lon="7.30365">
        <ele>1493.448498</ele>
        <time>2012-12-09T11:13:37Z</time>
      </trkpt>
      <trkpt lat="43.9093" lon="7.30365">
        <ele>1493.448502</ele>
        <time>2012-12-09T11:13:41Z</time>
      </trkpt>
      <trkpt lat="43.90932" lon="7.3037">
        <ele>1496.448517</ele>
        <time>2012-12-09T11:13:57Z</time>
      </trkpt>
      <trkpt lat="43.90933" lon="7.30372">
        <ele>1497.448517</ele>
        <time>2012-12-09T11:14:04Z</time>
      </trkpt>
      <trkpt lat="43.90934" lon="7.30373">
        <ele>1497.448524</ele>
        <time>2012-12-09T11:14:08Z</time>
      </trkpt>
      <trkpt lat="43.90935" lon="7.30373">
        <ele>1497.448524</ele>
        <time>2012-12-09T11:14:15Z</time>
      </trkpt>
      <trkpt lat="43.90936" lon="7.30373">
        <ele>1498.448528</ele>
        <time>2012-12-09T11:14:18Z</time>
      </trkpt>
      <trkpt lat="43.90937" lon="7.30369">
        <ele>1500.448517</ele>
        <time>2012-12-09T11:14:30Z</time>
      </trkpt>
      <trkpt lat="43.90938" lon="7.30365">
        <ele>1499.448517</ele>
        <time>2012-12-09T11:14:40Z</time>
      </trkpt>
      <trkpt lat="43.90939" lon="7.30365">
        <ele>1501.448513</ele>
        <time>2012-12-09T11:14:44Z</time>
      </trkpt>
      <trkpt lat="43.9094" lon="7.30365">
        <ele>1504.448509</ele>
        <time>2012-12-09T11:14:48Z</time>
      </trkpt>
      <trkpt lat="43.9094" lon="7.30365">
        <ele>1504.448513</ele>
        <time>2012-12-09T11:14:54Z</time>
      </trkpt>
      <trkpt lat="43.9094" lon="7.30364">
        <ele>1503.448513</ele>
        <time>2012-12-09T11:14:58Z</time>
      </trkpt>
      <trkpt lat="43.90941" lon="7.30364">
        <ele>1504.448517</ele>
        <time>2012-12-09T11:15:03Z</time>
      </trkpt>
      <trkpt lat="43.90941" lon="7.30364">
        <ele>1505.448517</ele>
        <time>2012-12-09T11:15:09Z</time>
      </trkpt>
      <trkpt lat="43.90941" lon="7.30364">
        <ele>1504.448517</ele>
        <time>2012-12-09T11:15:12Z</time>
      </trkpt>
      <trkpt lat="43.9094" lon="7.30366">
        <ele>1505.448517</ele>
        <time>2012-12-09T11:15:25Z</time>
      </trkpt>
      <trkpt lat="43.90939" lon="7.30367">
        <ele>1504.448521</ele>
        <time>2012-12-09T11:15:28Z</time>
      </trkpt>
      <trkpt lat="43.90939" lon="7.30367">
        <ele>1503.448517</ele>
        <time>2012-12-09T11:15:31Z</time>
      </trkpt>
      <trkpt lat="43.90938" lon="7.30368">
        <ele>1501.448517</ele>
        <time>2012-12-09T11:15:39Z</time>
      </trkpt>
      <trkpt lat="43.90938" lon="7.30368">
        <ele>1502.448517</ele>
        <time>2012-12-09T11:15:42Z</time>
      </trkpt>
      <trkpt lat="43.90938" lon="7.30367">
        <ele>1503.448517</ele>
        <time>2012-12-09T11:15:50Z</time>
      </trkpt>
      <trkpt lat="43.90937" lon="7.30366">
        <ele>1503.448517</ele>
        <time>2012-12-09T11:15:55Z</time>
      </trkpt>
      <trkpt lat="43.90937" lon="7.30365">
        <ele>1503.448509</ele>
        <time>2012-12-09T11:16:05Z</time>
      </trkpt>
      <trkpt lat="43.90936" lon="7.30364">
        <ele>1503.448509</ele>
        <time>2012-12-09T11:16:11Z</time>
      </trkpt>
      <trkpt lat="43.90936" lon="7.30364">
        <ele>1503.448509</ele>
        <time>2012-12-09T11:16:15Z</time>
      </trkpt>
      <trkpt lat="43.90936" lon="7.30364">
        <ele>1505.448509</ele>
        <time>2012-12-09T11:16:19Z</time>
      </trkpt>
      <trkpt lat="43.90936" lon="7.30364">
        <ele>1505.448509</ele>
        <time>2012-12-09T11:16:25Z</time>
      </trkpt>
      <trkpt lat="43.90936" lon="7.30364">
        <ele>1505.448509</ele>
        <time>2012-12-09T11:16:30Z</time>
      </trkpt>
      <trkpt lat="43.90936" lon="7.30365">
        <ele>1505.448513</ele>
        <time>2012-12-09T11:16:37Z</time>
      </trkpt>
      <trkpt lat="43.90936" lon="7.30366">
        <ele>1503.448513</ele>
        <time>2012-12-09T11:16:45Z</time>
      </trkpt>
      <trkpt lat="43.90936" lon="7.30365">
        <ele>1503.448513</ele>
        <time>2012-12-09T11:16:54Z</time>
      </trkpt>
      <trkpt lat="43.90936" lon="7.30365">
        <ele>1505.448513</ele>
        <time>2012-12-09T11:16:58Z</time>
      </trkpt>
      <trkpt lat="43.90936" lon="7.30365">
        <ele>1506.448513</ele>
        <time>2012-12-09T11:17:01Z</time>
      </trkpt>
      <trkpt lat="43.90936" lon="7.30365">
        <ele>1506.448509</ele>
        <time>2012-12-09T11:17:06Z</time>
      </trkpt>
      <trkpt lat="43.90937" lon="7.30365">
        <ele>1506.448509</ele>
        <time>2012-12-09T11:17:15Z</time>
      </trkpt>
      <trkpt lat="43.90937" lon="7.30365">
        <ele>1506.448509</ele>
        <time>2012-12-09T11:17:18Z</time>
      </trkpt>
      <trkpt lat="43.90937" lon="7.30366">
        <ele>1506.448513</ele>
        <time>2012-12-09T11:17:21Z</time>
      </trkpt>
      <trkpt lat="43.90937" lon="7.30365">
        <ele>1506.448509</ele>
        <time>2012-12-09T11:17:27Z</time>
      </trkpt>
      <trkpt lat="43.90937" lon="7.30364">
        <ele>1504.448509</ele>
        <time>2012-12-09T11:17:34Z</time>
      </trkpt>
      <trkpt lat="43.90937" lon="7.30364">
        <ele>1505.448509</ele>
        <time>2012-12-09T11:17:38Z</time>
      </trkpt>
      <trkpt lat="43.90937" lon="7.30364">
        <ele>1506.448509</ele>
        <time>2012-12-09T11:17:41Z</time>
      </trkpt>
      <trkpt lat="43.90937" lon="7.30365">
        <ele>1507.448509</ele>
        <time>2012-12-09T11:17:51Z</time>
      </trkpt>
      <trkpt lat="43.90937" lon="7.30368">
        <ele>1504.448517</ele>
        <time>2012-12-09T11:17:59Z</time>
      </trkpt>
      <trkpt lat="43.90937" lon="7.30368">
        <ele>1503.448517</ele>
        <time>2012-12-09T11:18:02Z</time>
      </trkpt>
      <trkpt lat="43.90937" lon="7.30368">
        <ele>1503.448517</ele>
        <time>2012-12-09T11:18:05Z</time>
      </trkpt>
      <trkpt lat="43.90937" lon="7.30368">
        <ele>1503.448517</ele>
        <time>2012-12-09T11:18:08Z</time>
      </trkpt>
      <trkpt lat="43.90937" lon="7.30367">
        <ele>1502.448517</ele>
        <time>2012-12-09T11:18:12Z</time>
      </trkpt>
    </trkseg>
  </trk>
</gpx>